<?xml version="1.0" encoding="UTF-8"?>
<TrainingCenterDatabase xmlns="http://www.garmin.com/xmlschemas/TrainingCenterDatabase/v2" xmlns:xsi="http://www.w3.org/2001/XMLSchema-instance" xsi:schemaLocation="http://www.garmin.com/xmlschemas/TrainingCenterDatabase/v2 http://www.garmin.com/xmlschemas/TrainingCenterDatabasev2.xsd">
  <Activities>
    <Activity Sport="Other">
      <Id>2021-04-07T11:46:33.000Z</Id>
      <Lap StartTime="2021-04-07T11:46:33.000Z">
        <TotalTimeSeconds>1151</TotalTimeSeconds>
        <DistanceMeters>3460</DistanceMeters>
        <Track>
          <Trackpoint>
            <Time>2021-04-07T11:46:33.000Z</Time>
            <Position>
              <LatitudeDegrees>42.8232071734964847564697265625</LatitudeDegrees>
              <LongitudeDegrees>-1.65416590869426727294921875</LongitudeDegrees>
            </Position>
            <AltitudeMeters>412.79998779296875</AltitudeMeters>
            <DistanceMeters>0</DistanceMeters>
          </Trackpoint>
          <Trackpoint>
            <Time>2021-04-07T11:46:34.000Z</Time>
            <Position>
              <LatitudeDegrees>42.8231384418904781341552734375</LatitudeDegrees>
              <LongitudeDegrees>-1.6541035473346710205078125</LongitudeDegrees>
            </Position>
            <AltitudeMeters>413</AltitudeMeters>
            <DistanceMeters>9.1896286597378</DistanceMeters>
          </Trackpoint>
          <Trackpoint>
            <Time>2021-04-07T11:46:35.000Z</Time>
            <Position>
              <LatitudeDegrees>42.8230764158070087432861328125</LatitudeDegrees>
              <LongitudeDegrees>-1.6540675051510334014892578125</LongitudeDegrees>
            </Position>
            <AltitudeMeters>413.600006103515625</AltitudeMeters>
            <DistanceMeters>16.694934573383</DistanceMeters>
          </Trackpoint>
          <Trackpoint>
            <Time>2021-04-07T11:46:36.000Z</Time>
            <Position>
              <LatitudeDegrees>42.82301413826644420623779296875</LatitudeDegrees>
              <LongitudeDegrees>-1.6540473885834217071533203125</LongitudeDegrees>
            </Position>
            <AltitudeMeters>414.79998779296875</AltitudeMeters>
            <DistanceMeters>23.818769889772</DistanceMeters>
          </Trackpoint>
          <Trackpoint>
            <Time>2021-04-07T11:46:37.000Z</Time>
            <Position>
              <LatitudeDegrees>42.82295831479132175445556640625</LatitudeDegrees>
              <LongitudeDegrees>-1.654030792415142059326171875</LongitudeDegrees>
            </Position>
            <AltitudeMeters>414.79998779296875</AltitudeMeters>
            <DistanceMeters>30.177754267487</DistanceMeters>
          </Trackpoint>
          <Trackpoint>
            <Time>2021-04-07T11:46:38.000Z</Time>
            <Position>
              <LatitudeDegrees>42.82290383242070674896240234375</LatitudeDegrees>
              <LongitudeDegrees>-1.65405518375337123870849609375</LongitudeDegrees>
            </Position>
            <AltitudeMeters>414.399993896484375</AltitudeMeters>
            <DistanceMeters>36.560126462736</DistanceMeters>
          </Trackpoint>
          <Trackpoint>
            <Time>2021-04-07T11:46:39.000Z</Time>
            <Position>
              <LatitudeDegrees>42.8228450752794742584228515625</LatitudeDegrees>
              <LongitudeDegrees>-1.6540822573006153106689453125</LongitudeDegrees>
            </Position>
            <AltitudeMeters>414.20001220703125</AltitudeMeters>
            <DistanceMeters>43.463148510705</DistanceMeters>
          </Trackpoint>
          <Trackpoint>
            <Time>2021-04-07T11:46:40.000Z</Time>
            <Position>
              <LatitudeDegrees>42.82278782688081264495849609375</LatitudeDegrees>
              <LongitudeDegrees>-1.65410363115370273590087890625</LongitudeDegrees>
            </Position>
            <AltitudeMeters>414.20001220703125</AltitudeMeters>
            <DistanceMeters>50.068701430574</DistanceMeters>
          </Trackpoint>
          <Trackpoint>
            <Time>2021-04-07T11:46:41.000Z</Time>
            <Position>
              <LatitudeDegrees>42.82273099757730960845947265625</LatitudeDegrees>
              <LongitudeDegrees>-1.6541174612939357757568359375</LongitudeDegrees>
            </Position>
            <AltitudeMeters>414.20001220703125</AltitudeMeters>
            <DistanceMeters>56.492676006246</DistanceMeters>
          </Trackpoint>
          <Trackpoint>
            <Time>2021-04-07T11:46:42.000Z</Time>
            <Position>
              <LatitudeDegrees>42.82267617993056774139404296875</LatitudeDegrees>
              <LongitudeDegrees>-1.65412140078842639923095703125</LongitudeDegrees>
            </Position>
            <AltitudeMeters>414</AltitudeMeters>
            <DistanceMeters>62.6010535213</DistanceMeters>
          </Trackpoint>
          <Trackpoint>
            <Time>2021-04-07T11:46:43.000Z</Time>
            <Position>
              <LatitudeDegrees>42.82262387685477733612060546875</LatitudeDegrees>
              <LongitudeDegrees>-1.65411301888525485992431640625</LongitudeDegrees>
            </Position>
            <AltitudeMeters>413.79998779296875</AltitudeMeters>
            <DistanceMeters>68.461975871306</DistanceMeters>
          </Trackpoint>
          <Trackpoint>
            <Time>2021-04-07T11:46:44.000Z</Time>
            <Position>
              <LatitudeDegrees>42.8225786983966827392578125</LatitudeDegrees>
              <LongitudeDegrees>-1.65409256704151630401611328125</LongitudeDegrees>
            </Position>
            <AltitudeMeters>413.600006103515625</AltitudeMeters>
            <DistanceMeters>73.761366189135</DistanceMeters>
          </Trackpoint>
          <Trackpoint>
            <Time>2021-04-07T11:46:45.000Z</Time>
            <Position>
              <LatitudeDegrees>42.8225389681756496429443359375</LatitudeDegrees>
              <LongitudeDegrees>-1.6540587879717350006103515625</LongitudeDegrees>
            </Position>
            <AltitudeMeters>413.600006103515625</AltitudeMeters>
            <DistanceMeters>78.973128841388</DistanceMeters>
          </Trackpoint>
          <Trackpoint>
            <Time>2021-04-07T11:46:46.000Z</Time>
            <Position>
              <LatitudeDegrees>42.82251256518065929412841796875</LatitudeDegrees>
              <LongitudeDegrees>-1.6540195606648921966552734375</LongitudeDegrees>
            </Position>
            <AltitudeMeters>413.399993896484375</AltitudeMeters>
            <DistanceMeters>83.319497431459</DistanceMeters>
          </Trackpoint>
          <Trackpoint>
            <Time>2021-04-07T11:46:47.000Z</Time>
            <Position>
              <LatitudeDegrees>42.82249395735561847686767578125</LatitudeDegrees>
              <LongitudeDegrees>-1.653978824615478515625</LongitudeDegrees>
            </Position>
            <AltitudeMeters>413.20001220703125</AltitudeMeters>
            <DistanceMeters>87.237549237487</DistanceMeters>
          </Trackpoint>
          <Trackpoint>
            <Time>2021-04-07T11:46:48.000Z</Time>
            <Position>
              <LatitudeDegrees>42.8224843181669712066650390625</LatitudeDegrees>
              <LongitudeDegrees>-1.65394303388893604278564453125</LongitudeDegrees>
            </Position>
            <AltitudeMeters>413.20001220703125</AltitudeMeters>
            <DistanceMeters>90.348857956968</DistanceMeters>
          </Trackpoint>
          <Trackpoint>
            <Time>2021-04-07T11:46:49.000Z</Time>
            <Position>
              <LatitudeDegrees>42.8224767744541168212890625</LatitudeDegrees>
              <LongitudeDegrees>-1.65390682406723499298095703125</LongitudeDegrees>
            </Position>
            <AltitudeMeters>413.399993896484375</AltitudeMeters>
            <DistanceMeters>93.422204660544</DistanceMeters>
          </Trackpoint>
          <Trackpoint>
            <Time>2021-04-07T11:46:50.000Z</Time>
            <Position>
              <LatitudeDegrees>42.82247417606413364410400390625</LatitudeDegrees>
              <LongitudeDegrees>-1.6538757272064685821533203125</LongitudeDegrees>
            </Position>
            <AltitudeMeters>413.399993896484375</AltitudeMeters>
            <DistanceMeters>95.979112039668</DistanceMeters>
          </Trackpoint>
          <Trackpoint>
            <Time>2021-04-07T11:46:51.000Z</Time>
            <Position>
              <LatitudeDegrees>42.8224702365696430206298828125</LatitudeDegrees>
              <LongitudeDegrees>-1.653843037784099578857421875</LongitudeDegrees>
            </Position>
            <AltitudeMeters>413.20001220703125</AltitudeMeters>
            <DistanceMeters>98.683619743411</DistanceMeters>
          </Trackpoint>
          <Trackpoint>
            <Time>2021-04-07T11:46:52.000Z</Time>
            <Position>
              <LatitudeDegrees>42.8224678896367549896240234375</LatitudeDegrees>
              <LongitudeDegrees>-1.65380892343819141387939453125</LongitudeDegrees>
            </Position>
            <AltitudeMeters>413.20001220703125</AltitudeMeters>
            <DistanceMeters>101.48005429485</DistanceMeters>
          </Trackpoint>
          <Trackpoint>
            <Time>2021-04-07T11:46:53.000Z</Time>
            <Position>
              <LatitudeDegrees>42.82247032038867473602294921875</LatitudeDegrees>
              <LongitudeDegrees>-1.6537697799503803253173828125</LongitudeDegrees>
            </Position>
            <AltitudeMeters>413</AltitudeMeters>
            <DistanceMeters>104.68852544886</DistanceMeters>
          </Trackpoint>
          <Trackpoint>
            <Time>2021-04-07T11:46:54.000Z</Time>
            <Position>
              <LatitudeDegrees>42.822475433349609375</LatitudeDegrees>
              <LongitudeDegrees>-1.65372711606323719024658203125</LongitudeDegrees>
            </Position>
            <AltitudeMeters>412.79998779296875</AltitudeMeters>
            <DistanceMeters>108.21861121165</DistanceMeters>
          </Trackpoint>
          <Trackpoint>
            <Time>2021-04-07T11:46:55.000Z</Time>
            <Position>
              <LatitudeDegrees>42.82247920520603656768798828125</LatitudeDegrees>
              <LongitudeDegrees>-1.653682775795459747314453125</LongitudeDegrees>
            </Position>
            <AltitudeMeters>412.79998779296875</AltitudeMeters>
            <DistanceMeters>111.86199046347</DistanceMeters>
          </Trackpoint>
          <Trackpoint>
            <Time>2021-04-07T11:46:56.000Z</Time>
            <Position>
              <LatitudeDegrees>42.82248272560536861419677734375</LatitudeDegrees>
              <LongitudeDegrees>-1.65364287793636322021484375</LongitudeDegrees>
            </Position>
            <AltitudeMeters>412.600006103515625</AltitudeMeters>
            <DistanceMeters>115.14282132183</DistanceMeters>
          </Trackpoint>
          <Trackpoint>
            <Time>2021-04-07T11:46:57.000Z</Time>
            <Position>
              <LatitudeDegrees>42.822487838566303253173828125</LatitudeDegrees>
              <LongitudeDegrees>-1.65360809303820133209228515625</LongitudeDegrees>
            </Position>
            <AltitudeMeters>412.399993896484375</AltitudeMeters>
            <DistanceMeters>118.03918818679</DistanceMeters>
          </Trackpoint>
          <Trackpoint>
            <Time>2021-04-07T11:46:58.000Z</Time>
            <Position>
              <LatitudeDegrees>42.82249898649752140045166015625</LatitudeDegrees>
              <LongitudeDegrees>-1.6535778343677520751953125</LongitudeDegrees>
            </Position>
            <AltitudeMeters>412.399993896484375</AltitudeMeters>
            <DistanceMeters>120.8031427218</DistanceMeters>
          </Trackpoint>
          <Trackpoint>
            <Time>2021-04-07T11:46:59.000Z</Time>
            <Position>
              <LatitudeDegrees>42.82252212055027484893798828125</LatitudeDegrees>
              <LongitudeDegrees>-1.65355361066758632659912109375</LongitudeDegrees>
            </Position>
            <AltitudeMeters>412.20001220703125</AltitudeMeters>
            <DistanceMeters>124.04938658357</DistanceMeters>
          </Trackpoint>
          <Trackpoint>
            <Time>2021-04-07T11:47:00.000Z</Time>
            <Position>
              <LatitudeDegrees>42.82254491932690143585205078125</LatitudeDegrees>
              <LongitudeDegrees>-1.653534583747386932373046875</LongitudeDegrees>
            </Position>
            <AltitudeMeters>412.20001220703125</AltitudeMeters>
            <DistanceMeters>127.02419328571</DistanceMeters>
          </Trackpoint>
          <Trackpoint>
            <Time>2021-04-07T11:47:01.000Z</Time>
            <Position>
              <LatitudeDegrees>42.8225694783031940460205078125</LatitudeDegrees>
              <LongitudeDegrees>-1.65351890958845615386962890625</LongitudeDegrees>
            </Position>
            <AltitudeMeters>412.20001220703125</AltitudeMeters>
            <DistanceMeters>130.04119793527</DistanceMeters>
          </Trackpoint>
          <Trackpoint>
            <Time>2021-04-07T11:47:02.000Z</Time>
            <Position>
              <LatitudeDegrees>42.822599820792675018310546875</LatitudeDegrees>
              <LongitudeDegrees>-1.65350667200982570648193359375</LongitudeDegrees>
            </Position>
            <AltitudeMeters>412.20001220703125</AltitudeMeters>
            <DistanceMeters>133.5610366931</DistanceMeters>
          </Trackpoint>
          <Trackpoint>
            <Time>2021-04-07T11:47:03.000Z</Time>
            <Position>
              <LatitudeDegrees>42.82263644970953464508056640625</LatitudeDegrees>
              <LongitudeDegrees>-1.65349778719246387481689453125</LongitudeDegrees>
            </Position>
            <AltitudeMeters>412.20001220703125</AltitudeMeters>
            <DistanceMeters>137.70097450551</DistanceMeters>
          </Trackpoint>
          <Trackpoint>
            <Time>2021-04-07T11:47:04.000Z</Time>
            <Position>
              <LatitudeDegrees>42.822662852704524993896484375</LatitudeDegrees>
              <LongitudeDegrees>-1.6534723900258541107177734375</LongitudeDegrees>
            </Position>
            <AltitudeMeters>412.20001220703125</AltitudeMeters>
            <DistanceMeters>141.29695413111</DistanceMeters>
          </Trackpoint>
          <Trackpoint>
            <Time>2021-04-07T11:47:05.000Z</Time>
            <Position>
              <LatitudeDegrees>42.82270015217363834381103515625</LatitudeDegrees>
              <LongitudeDegrees>-1.65346719324588775634765625</LongitudeDegrees>
            </Position>
            <AltitudeMeters>412.20001220703125</AltitudeMeters>
            <DistanceMeters>145.47164544148</DistanceMeters>
          </Trackpoint>
          <Trackpoint>
            <Time>2021-04-07T11:47:06.000Z</Time>
            <Position>
              <LatitudeDegrees>42.82274005003273487091064453125</LatitudeDegrees>
              <LongitudeDegrees>-1.65345889516174793243408203125</LongitudeDegrees>
            </Position>
            <AltitudeMeters>412</AltitudeMeters>
            <DistanceMeters>149.96410811269</DistanceMeters>
          </Trackpoint>
          <Trackpoint>
            <Time>2021-04-07T11:47:07.000Z</Time>
            <Position>
              <LatitudeDegrees>42.8227800317108631134033203125</LatitudeDegrees>
              <LongitudeDegrees>-1.65345353074371814727783203125</LongitudeDegrees>
            </Position>
            <AltitudeMeters>412</AltitudeMeters>
            <DistanceMeters>154.43541544354</DistanceMeters>
          </Trackpoint>
          <Trackpoint>
            <Time>2021-04-07T11:47:08.000Z</Time>
            <Position>
              <LatitudeDegrees>42.82282286323606967926025390625</LatitudeDegrees>
              <LongitudeDegrees>-1.65345252491533756256103515625</LongitudeDegrees>
            </Position>
            <AltitudeMeters>412</AltitudeMeters>
            <DistanceMeters>159.20382529232</DistanceMeters>
          </Trackpoint>
          <Trackpoint>
            <Time>2021-04-07T11:47:09.000Z</Time>
            <Position>
              <LatitudeDegrees>42.8228598274290561676025390625</LatitudeDegrees>
              <LongitudeDegrees>-1.65342503227293491363525390625</LongitudeDegrees>
            </Position>
            <AltitudeMeters>412</AltitudeMeters>
            <DistanceMeters>163.89106072358</DistanceMeters>
          </Trackpoint>
          <Trackpoint>
            <Time>2021-04-07T11:47:10.000Z</Time>
            <Position>
              <LatitudeDegrees>42.82289452850818634033203125</LatitudeDegrees>
              <LongitudeDegrees>-1.6533446498215198516845703125</LongitudeDegrees>
            </Position>
            <AltitudeMeters>412</AltitudeMeters>
            <DistanceMeters>171.505066947</DistanceMeters>
          </Trackpoint>
          <Trackpoint>
            <Time>2021-04-07T11:47:11.000Z</Time>
            <Position>
              <LatitudeDegrees>42.82293132506310939788818359375</LatitudeDegrees>
              <LongitudeDegrees>-1.65329955518245697021484375</LongitudeDegrees>
            </Position>
            <AltitudeMeters>412</AltitudeMeters>
            <DistanceMeters>177.01251887827</DistanceMeters>
          </Trackpoint>
          <Trackpoint>
            <Time>2021-04-07T11:47:12.000Z</Time>
            <Position>
              <LatitudeDegrees>42.822961919009685516357421875</LatitudeDegrees>
              <LongitudeDegrees>-1.65324985049664974212646484375</LongitudeDegrees>
            </Position>
            <AltitudeMeters>412</AltitudeMeters>
            <DistanceMeters>182.31020493803</DistanceMeters>
          </Trackpoint>
          <Trackpoint>
            <Time>2021-04-07T11:47:13.000Z</Time>
            <Position>
              <LatitudeDegrees>42.8229998052120208740234375</LatitudeDegrees>
              <LongitudeDegrees>-1.65320299565792083740234375</LongitudeDegrees>
            </Position>
            <AltitudeMeters>412</AltitudeMeters>
            <DistanceMeters>188.00309035382</DistanceMeters>
          </Trackpoint>
          <Trackpoint>
            <Time>2021-04-07T11:47:14.000Z</Time>
            <Position>
              <LatitudeDegrees>42.82303207553923130035400390625</LatitudeDegrees>
              <LongitudeDegrees>-1.65316083468496799468994140625</LongitudeDegrees>
            </Position>
            <AltitudeMeters>412</AltitudeMeters>
            <DistanceMeters>192.97726460253</DistanceMeters>
          </Trackpoint>
          <Trackpoint>
            <Time>2021-04-07T11:47:15.000Z</Time>
            <Position>
              <LatitudeDegrees>42.8230469115078449249267578125</LatitudeDegrees>
              <LongitudeDegrees>-1.6531374491751194000244140625</LongitudeDegrees>
            </Position>
            <AltitudeMeters>411.79998779296875</AltitudeMeters>
            <DistanceMeters>195.49860825553</DistanceMeters>
          </Trackpoint>
          <Trackpoint>
            <Time>2021-04-07T11:47:16.000Z</Time>
            <Position>
              <LatitudeDegrees>42.823052108287811279296875</LatitudeDegrees>
              <LongitudeDegrees>-1.65311448276042938232421875</LongitudeDegrees>
            </Position>
            <AltitudeMeters>411.600006103515625</AltitudeMeters>
            <DistanceMeters>197.45993754077</DistanceMeters>
          </Trackpoint>
          <Trackpoint>
            <Time>2021-04-07T11:47:17.000Z</Time>
            <Position>
              <LatitudeDegrees>42.8230288065969944000244140625</LatitudeDegrees>
              <LongitudeDegrees>-1.65310107171535491943359375</LongitudeDegrees>
            </Position>
            <AltitudeMeters>411.600006103515625</AltitudeMeters>
            <DistanceMeters>200.2756802701</DistanceMeters>
          </Trackpoint>
          <Trackpoint>
            <Time>2021-04-07T11:47:18.000Z</Time>
            <Position>
              <LatitudeDegrees>42.823002152144908905029296875</LatitudeDegrees>
              <LongitudeDegrees>-1.65307584218680858612060546875</LongitudeDegrees>
            </Position>
            <AltitudeMeters>411.600006103515625</AltitudeMeters>
            <DistanceMeters>203.88669541616</DistanceMeters>
          </Trackpoint>
          <Trackpoint>
            <Time>2021-04-07T11:47:19.000Z</Time>
            <Position>
              <LatitudeDegrees>42.8229637630283832550048828125</LatitudeDegrees>
              <LongitudeDegrees>-1.65304348804056644439697265625</LongitudeDegrees>
            </Position>
            <AltitudeMeters>411.600006103515625</AltitudeMeters>
            <DistanceMeters>208.91144354291</DistanceMeters>
          </Trackpoint>
          <Trackpoint>
            <Time>2021-04-07T11:47:20.000Z</Time>
            <Position>
              <LatitudeDegrees>42.8228983841836452484130859375</LatitudeDegrees>
              <LongitudeDegrees>-1.652999818325042724609375</LongitudeDegrees>
            </Position>
            <AltitudeMeters>411.600006103515625</AltitudeMeters>
            <DistanceMeters>217.01494376815</DistanceMeters>
          </Trackpoint>
          <Trackpoint>
            <Time>2021-04-07T11:47:21.000Z</Time>
            <Position>
              <LatitudeDegrees>42.8228454105556011199951171875</LatitudeDegrees>
              <LongitudeDegrees>-1.6529751755297183990478515625</LongitudeDegrees>
            </Position>
            <AltitudeMeters>411.600006103515625</AltitudeMeters>
            <DistanceMeters>223.24481283227</DistanceMeters>
          </Trackpoint>
          <Trackpoint>
            <Time>2021-04-07T11:47:22.000Z</Time>
            <Position>
              <LatitudeDegrees>42.82280274666845798492431640625</LatitudeDegrees>
              <LongitudeDegrees>-1.6529564000666141510009765625</LongitudeDegrees>
            </Position>
            <AltitudeMeters>411.600006103515625</AltitudeMeters>
            <DistanceMeters>228.23529886396</DistanceMeters>
          </Trackpoint>
          <Trackpoint>
            <Time>2021-04-07T11:47:23.000Z</Time>
            <Position>
              <LatitudeDegrees>42.8227530419826507568359375</LatitudeDegrees>
              <LongitudeDegrees>-1.65290954522788524627685546875</LongitudeDegrees>
            </Position>
            <AltitudeMeters>411.79998779296875</AltitudeMeters>
            <DistanceMeters>234.9607470206</DistanceMeters>
          </Trackpoint>
          <Trackpoint>
            <Time>2021-04-07T11:47:24.000Z</Time>
            <Position>
              <LatitudeDegrees>42.82271691597998142242431640625</LatitudeDegrees>
              <LongitudeDegrees>-1.65288993157446384429931640625</LongitudeDegrees>
            </Position>
            <AltitudeMeters>411.79998779296875</AltitudeMeters>
            <DistanceMeters>239.28837668877</DistanceMeters>
          </Trackpoint>
          <Trackpoint>
            <Time>2021-04-07T11:47:25.000Z</Time>
            <Position>
              <LatitudeDegrees>42.82267148606479167938232421875</LatitudeDegrees>
              <LongitudeDegrees>-1.6528455913066864013671875</LongitudeDegrees>
            </Position>
            <AltitudeMeters>412</AltitudeMeters>
            <DistanceMeters>245.50663909341</DistanceMeters>
          </Trackpoint>
          <Trackpoint>
            <Time>2021-04-07T11:47:26.000Z</Time>
            <Position>
              <LatitudeDegrees>42.8226221166551113128662109375</LatitudeDegrees>
              <LongitudeDegrees>-1.6527337767183780670166015625</LongitudeDegrees>
            </Position>
            <AltitudeMeters>411.79998779296875</AltitudeMeters>
            <DistanceMeters>256.16065527983</DistanceMeters>
          </Trackpoint>
          <Trackpoint>
            <Time>2021-04-07T11:47:27.000Z</Time>
            <Position>
              <LatitudeDegrees>42.82257442362606525421142578125</LatitudeDegrees>
              <LongitudeDegrees>-1.65268222801387310028076171875</LongitudeDegrees>
            </Position>
            <AltitudeMeters>411.79998779296875</AltitudeMeters>
            <DistanceMeters>262.93360060187</DistanceMeters>
          </Trackpoint>
          <Trackpoint>
            <Time>2021-04-07T11:47:28.000Z</Time>
            <Position>
              <LatitudeDegrees>42.822537124156951904296875</LatitudeDegrees>
              <LongitudeDegrees>-1.65263629518449306488037109375</LongitudeDegrees>
            </Position>
            <AltitudeMeters>411.79998779296875</AltitudeMeters>
            <DistanceMeters>268.52808404136</DistanceMeters>
          </Trackpoint>
          <Trackpoint>
            <Time>2021-04-07T11:47:29.000Z</Time>
            <Position>
              <LatitudeDegrees>42.82248624600470066070556640625</LatitudeDegrees>
              <LongitudeDegrees>-1.6525580920279026031494140625</LongitudeDegrees>
            </Position>
            <AltitudeMeters>412</AltitudeMeters>
            <DistanceMeters>277.06146182768</DistanceMeters>
          </Trackpoint>
          <Trackpoint>
            <Time>2021-04-07T11:47:30.000Z</Time>
            <Position>
              <LatitudeDegrees>42.8224474377930164337158203125</LatitudeDegrees>
              <LongitudeDegrees>-1.652480475604534149169921875</LongitudeDegrees>
            </Position>
            <AltitudeMeters>412</AltitudeMeters>
            <DistanceMeters>284.72982917693</DistanceMeters>
          </Trackpoint>
          <Trackpoint>
            <Time>2021-04-07T11:47:31.000Z</Time>
            <Position>
              <LatitudeDegrees>42.82240862958133220672607421875</LatitudeDegrees>
              <LongitudeDegrees>-1.65239573456346988677978515625</LongitudeDegrees>
            </Position>
            <AltitudeMeters>412</AltitudeMeters>
            <DistanceMeters>292.88553534416</DistanceMeters>
          </Trackpoint>
          <Trackpoint>
            <Time>2021-04-07T11:47:32.000Z</Time>
            <Position>
              <LatitudeDegrees>42.8223793767392635345458984375</LatitudeDegrees>
              <LongitudeDegrees>-1.65232549421489238739013671875</LongitudeDegrees>
            </Position>
            <AltitudeMeters>412</AltitudeMeters>
            <DistanceMeters>299.47877339547</DistanceMeters>
          </Trackpoint>
          <Trackpoint>
            <Time>2021-04-07T11:47:33.000Z</Time>
            <Position>
              <LatitudeDegrees>42.82235062681138515472412109375</LatitudeDegrees>
              <LongitudeDegrees>-1.65227092802524566650390625</LongitudeDegrees>
            </Position>
            <AltitudeMeters>412</AltitudeMeters>
            <DistanceMeters>304.96322274201</DistanceMeters>
          </Trackpoint>
          <Trackpoint>
            <Time>2021-04-07T11:47:34.000Z</Time>
            <Position>
              <LatitudeDegrees>42.82232782803475856781005859375</LatitudeDegrees>
              <LongitudeDegrees>-1.65223337709903717041015625</LongitudeDegrees>
            </Position>
            <AltitudeMeters>412.20001220703125</AltitudeMeters>
            <DistanceMeters>308.94188131071</DistanceMeters>
          </Trackpoint>
          <Trackpoint>
            <Time>2021-04-07T11:47:35.000Z</Time>
            <Position>
              <LatitudeDegrees>42.82230444252490997314453125</LatitudeDegrees>
              <LongitudeDegrees>-1.6521830856800079345703125</LongitudeDegrees>
            </Position>
            <AltitudeMeters>412.20001220703125</AltitudeMeters>
            <DistanceMeters>313.8040557348</DistanceMeters>
          </Trackpoint>
          <Trackpoint>
            <Time>2021-04-07T11:47:36.000Z</Time>
            <Position>
              <LatitudeDegrees>42.82228072173893451690673828125</LatitudeDegrees>
              <LongitudeDegrees>-1.652135141193866729736328125</LongitudeDegrees>
            </Position>
            <AltitudeMeters>412</AltitudeMeters>
            <DistanceMeters>318.52488496955</DistanceMeters>
          </Trackpoint>
          <Trackpoint>
            <Time>2021-04-07T11:47:37.000Z</Time>
            <Position>
              <LatitudeDegrees>42.82225272618234157562255859375</LatitudeDegrees>
              <LongitudeDegrees>-1.652079485356807708740234375</LongitudeDegrees>
            </Position>
            <AltitudeMeters>412</AltitudeMeters>
            <DistanceMeters>324.03479576779</DistanceMeters>
          </Trackpoint>
          <Trackpoint>
            <Time>2021-04-07T11:47:38.000Z</Time>
            <Position>
              <LatitudeDegrees>42.822222299873828887939453125</LatitudeDegrees>
              <LongitudeDegrees>-1.65202139876782894134521484375</LongitudeDegrees>
            </Position>
            <AltitudeMeters>412.20001220703125</AltitudeMeters>
            <DistanceMeters>329.8617235543</DistanceMeters>
          </Trackpoint>
          <Trackpoint>
            <Time>2021-04-07T11:47:39.000Z</Time>
            <Position>
              <LatitudeDegrees>42.82219313085079193115234375</LatitudeDegrees>
              <LongitudeDegrees>-1.6519569419324398040771484375</LongitudeDegrees>
            </Position>
            <AltitudeMeters>412.20001220703125</AltitudeMeters>
            <DistanceMeters>336.04357469379</DistanceMeters>
          </Trackpoint>
          <Trackpoint>
            <Time>2021-04-07T11:47:40.000Z</Time>
            <Position>
              <LatitudeDegrees>42.82216228544712066650390625</LatitudeDegrees>
              <LongitudeDegrees>-1.65189835242927074432373046875</LongitudeDegrees>
            </Position>
            <AltitudeMeters>412.399993896484375</AltitudeMeters>
            <DistanceMeters>341.93063112226</DistanceMeters>
          </Trackpoint>
          <Trackpoint>
            <Time>2021-04-07T11:47:41.000Z</Time>
            <Position>
              <LatitudeDegrees>42.822138480842113494873046875</LatitudeDegrees>
              <LongitudeDegrees>-1.651836074888706207275390625</LongitudeDegrees>
            </Position>
            <AltitudeMeters>412.600006103515625</AltitudeMeters>
            <DistanceMeters>347.66382205367</DistanceMeters>
          </Trackpoint>
          <Trackpoint>
            <Time>2021-04-07T11:47:42.000Z</Time>
            <Position>
              <LatitudeDegrees>42.8221141733229160308837890625</LatitudeDegrees>
              <LongitudeDegrees>-1.6517789103090763092041015625</LongitudeDegrees>
            </Position>
            <AltitudeMeters>412.79998779296875</AltitudeMeters>
            <DistanceMeters>353.05779149207</DistanceMeters>
          </Trackpoint>
          <Trackpoint>
            <Time>2021-04-07T11:47:43.000Z</Time>
            <Position>
              <LatitudeDegrees>42.82208508811891078948974609375</LatitudeDegrees>
              <LongitudeDegrees>-1.65172065608203411102294921875</LongitudeDegrees>
            </Position>
            <AltitudeMeters>413</AltitudeMeters>
            <DistanceMeters>358.81142167166</DistanceMeters>
          </Trackpoint>
          <Trackpoint>
            <Time>2021-04-07T11:47:44.000Z</Time>
            <Position>
              <LatitudeDegrees>42.82205893658101558685302734375</LatitudeDegrees>
              <LongitudeDegrees>-1.6516654193401336669921875</LongitudeDegrees>
            </Position>
            <AltitudeMeters>413</AltitudeMeters>
            <DistanceMeters>364.17937975017</DistanceMeters>
          </Trackpoint>
          <Trackpoint>
            <Time>2021-04-07T11:47:45.000Z</Time>
            <Position>
              <LatitudeDegrees>42.822031863033771514892578125</LatitudeDegrees>
              <LongitudeDegrees>-1.6516069136559963226318359375</LongitudeDegrees>
            </Position>
            <AltitudeMeters>413</AltitudeMeters>
            <DistanceMeters>369.82607789366</DistanceMeters>
          </Trackpoint>
          <Trackpoint>
            <Time>2021-04-07T11:47:46.000Z</Time>
            <Position>
              <LatitudeDegrees>42.82200998626649379730224609375</LatitudeDegrees>
              <LongitudeDegrees>-1.65155000053346157073974609375</LongitudeDegrees>
            </Position>
            <AltitudeMeters>413</AltitudeMeters>
            <DistanceMeters>375.0715180968</DistanceMeters>
          </Trackpoint>
          <Trackpoint>
            <Time>2021-04-07T11:47:47.000Z</Time>
            <Position>
              <LatitudeDegrees>42.82198500819504261016845703125</LatitudeDegrees>
              <LongitudeDegrees>-1.65149283595383167266845703125</LongitudeDegrees>
            </Position>
            <AltitudeMeters>413</AltitudeMeters>
            <DistanceMeters>380.50385551442</DistanceMeters>
          </Trackpoint>
          <Trackpoint>
            <Time>2021-04-07T11:47:48.000Z</Time>
            <Position>
              <LatitudeDegrees>42.8219552524387836456298828125</LatitudeDegrees>
              <LongitudeDegrees>-1.6514322347939014434814453125</LongitudeDegrees>
            </Position>
            <AltitudeMeters>413</AltitudeMeters>
            <DistanceMeters>386.45802045326</DistanceMeters>
          </Trackpoint>
          <Trackpoint>
            <Time>2021-04-07T11:47:49.000Z</Time>
            <Position>
              <LatitudeDegrees>42.8219304420053958892822265625</LatitudeDegrees>
              <LongitudeDegrees>-1.65137775242328643798828125</LongitudeDegrees>
            </Position>
            <AltitudeMeters>412.79998779296875</AltitudeMeters>
            <DistanceMeters>391.69398379193</DistanceMeters>
          </Trackpoint>
          <Trackpoint>
            <Time>2021-04-07T11:47:50.000Z</Time>
            <Position>
              <LatitudeDegrees>42.82189632765948772430419921875</LatitudeDegrees>
              <LongitudeDegrees>-1.65134564973413944244384765625</LongitudeDegrees>
            </Position>
            <AltitudeMeters>412.600006103515625</AltitudeMeters>
            <DistanceMeters>396.30840902751</DistanceMeters>
          </Trackpoint>
          <Trackpoint>
            <Time>2021-04-07T11:47:51.000Z</Time>
            <Position>
              <LatitudeDegrees>42.8218650631606578826904296875</LatitudeDegrees>
              <LongitudeDegrees>-1.65130206383764743804931640625</LongitudeDegrees>
            </Position>
            <AltitudeMeters>412.600006103515625</AltitudeMeters>
            <DistanceMeters>401.28439833712</DistanceMeters>
          </Trackpoint>
          <Trackpoint>
            <Time>2021-04-07T11:47:52.000Z</Time>
            <Position>
              <LatitudeDegrees>42.8218355588614940643310546875</LatitudeDegrees>
              <LongitudeDegrees>-1.65125428698956966400146484375</LongitudeDegrees>
            </Position>
            <AltitudeMeters>412.399993896484375</AltitudeMeters>
            <DistanceMeters>406.38229594356</DistanceMeters>
          </Trackpoint>
          <Trackpoint>
            <Time>2021-04-07T11:47:53.000Z</Time>
            <Position>
              <LatitudeDegrees>42.8218053840100765228271484375</LatitudeDegrees>
              <LongitudeDegrees>-1.65121153928339481353759765625</LongitudeDegrees>
            </Position>
            <AltitudeMeters>412.399993896484375</AltitudeMeters>
            <DistanceMeters>411.22586266669</DistanceMeters>
          </Trackpoint>
          <Trackpoint>
            <Time>2021-04-07T11:47:54.000Z</Time>
            <Position>
              <LatitudeDegrees>42.8217825852334499359130859375</LatitudeDegrees>
              <LongitudeDegrees>-1.65116443298757076263427734375</LongitudeDegrees>
            </Position>
            <AltitudeMeters>412.600006103515625</AltitudeMeters>
            <DistanceMeters>415.83343357984</DistanceMeters>
          </Trackpoint>
          <Trackpoint>
            <Time>2021-04-07T11:47:55.000Z</Time>
            <Position>
              <LatitudeDegrees>42.8217601217329502105712890625</LatitudeDegrees>
              <LongitudeDegrees>-1.651108525693416595458984375</LongitudeDegrees>
            </Position>
            <AltitudeMeters>412.399993896484375</AltitudeMeters>
            <DistanceMeters>421.03739353889</DistanceMeters>
          </Trackpoint>
          <Trackpoint>
            <Time>2021-04-07T11:47:56.000Z</Time>
            <Position>
              <LatitudeDegrees>42.82174327410757541656494140625</LatitudeDegrees>
              <LongitudeDegrees>-1.65105345658957958221435546875</LongitudeDegrees>
            </Position>
            <AltitudeMeters>412.600006103515625</AltitudeMeters>
            <DistanceMeters>425.90884515979</DistanceMeters>
          </Trackpoint>
          <Trackpoint>
            <Time>2021-04-07T11:47:57.000Z</Time>
            <Position>
              <LatitudeDegrees>42.82172106206417083740234375</LatitudeDegrees>
              <LongitudeDegrees>-1.6510040871798992156982421875</LongitudeDegrees>
            </Position>
            <AltitudeMeters>412.79998779296875</AltitudeMeters>
            <DistanceMeters>430.63731946713</DistanceMeters>
          </Trackpoint>
          <Trackpoint>
            <Time>2021-04-07T11:47:58.000Z</Time>
            <Position>
              <LatitudeDegrees>42.82170002348721027374267578125</LatitudeDegrees>
              <LongitudeDegrees>-1.65095354430377483367919921875</LongitudeDegrees>
            </Position>
            <AltitudeMeters>412.79998779296875</AltitudeMeters>
            <DistanceMeters>435.38199865279</DistanceMeters>
          </Trackpoint>
          <Trackpoint>
            <Time>2021-04-07T11:47:59.000Z</Time>
            <Position>
              <LatitudeDegrees>42.8216846846044063568115234375</LatitudeDegrees>
              <LongitudeDegrees>-1.65089453570544719696044921875</LongitudeDegrees>
            </Position>
            <AltitudeMeters>413</AltitudeMeters>
            <DistanceMeters>440.49404728604</DistanceMeters>
          </Trackpoint>
          <Trackpoint>
            <Time>2021-04-07T11:48:00.000Z</Time>
            <Position>
              <LatitudeDegrees>42.82167605124413967132568359375</LatitudeDegrees>
              <LongitudeDegrees>-1.6508267261087894439697265625</LongitudeDegrees>
            </Position>
            <AltitudeMeters>412.79998779296875</AltitudeMeters>
            <DistanceMeters>446.11349363996</DistanceMeters>
          </Trackpoint>
          <Trackpoint>
            <Time>2021-04-07T11:48:01.000Z</Time>
            <Position>
              <LatitudeDegrees>42.82165291719138622283935546875</LatitudeDegrees>
              <LongitudeDegrees>-1.6507630236446857452392578125</LongitudeDegrees>
            </Position>
            <AltitudeMeters>412.79998779296875</AltitudeMeters>
            <DistanceMeters>451.91635113084</DistanceMeters>
          </Trackpoint>
          <Trackpoint>
            <Time>2021-04-07T11:48:02.000Z</Time>
            <Position>
              <LatitudeDegrees>42.8216343931853771209716796875</LatitudeDegrees>
              <LongitudeDegrees>-1.6507025063037872314453125</LongitudeDegrees>
            </Position>
            <AltitudeMeters>412.79998779296875</AltitudeMeters>
            <DistanceMeters>457.26999126005</DistanceMeters>
          </Trackpoint>
          <Trackpoint>
            <Time>2021-04-07T11:48:03.000Z</Time>
            <Position>
              <LatitudeDegrees>42.821622826159000396728515625</LatitudeDegrees>
              <LongitudeDegrees>-1.65063687600195407867431640625</LongitudeDegrees>
            </Position>
            <AltitudeMeters>412.600006103515625</AltitudeMeters>
            <DistanceMeters>462.7799020583</DistanceMeters>
          </Trackpoint>
          <Trackpoint>
            <Time>2021-04-07T11:48:04.000Z</Time>
            <Position>
              <LatitudeDegrees>42.82162391580641269683837890625</LatitudeDegrees>
              <LongitudeDegrees>-1.65057443082332611083984375</LongitudeDegrees>
            </Position>
            <AltitudeMeters>412.600006103515625</AltitudeMeters>
            <DistanceMeters>467.88045597283</DistanceMeters>
          </Trackpoint>
          <Trackpoint>
            <Time>2021-04-07T11:48:05.000Z</Time>
            <Position>
              <LatitudeDegrees>42.82163254916667938232421875</LatitudeDegrees>
              <LongitudeDegrees>-1.65051533840596675872802734375</LongitudeDegrees>
            </Position>
            <AltitudeMeters>412.399993896484375</AltitudeMeters>
            <DistanceMeters>472.79986700158</DistanceMeters>
          </Trackpoint>
          <Trackpoint>
            <Time>2021-04-07T11:48:06.000Z</Time>
            <Position>
              <LatitudeDegrees>42.8216479718685150146484375</LatitudeDegrees>
              <LongitudeDegrees>-1.65045683272182941436767578125</LongitudeDegrees>
            </Position>
            <AltitudeMeters>412.399993896484375</AltitudeMeters>
            <DistanceMeters>477.87468502966</DistanceMeters>
          </Trackpoint>
          <Trackpoint>
            <Time>2021-04-07T11:48:07.000Z</Time>
            <Position>
              <LatitudeDegrees>42.8216640651226043701171875</LatitudeDegrees>
              <LongitudeDegrees>-1.65040100924670696258544921875</LongitudeDegrees>
            </Position>
            <AltitudeMeters>412.399993896484375</AltitudeMeters>
            <DistanceMeters>482.77017508503</DistanceMeters>
          </Trackpoint>
          <Trackpoint>
            <Time>2021-04-07T11:48:08.000Z</Time>
            <Position>
              <LatitudeDegrees>42.82168141566216945648193359375</LatitudeDegrees>
              <LongitudeDegrees>-1.65034065954387187957763671875</LongitudeDegrees>
            </Position>
            <AltitudeMeters>412.20001220703125</AltitudeMeters>
            <DistanceMeters>488.06103862289</DistanceMeters>
          </Trackpoint>
          <Trackpoint>
            <Time>2021-04-07T11:48:09.000Z</Time>
            <Position>
              <LatitudeDegrees>42.82169717364013195037841796875</LatitudeDegrees>
              <LongitudeDegrees>-1.65027444250881671905517578125</LongitudeDegrees>
            </Position>
            <AltitudeMeters>412.20001220703125</AltitudeMeters>
            <DistanceMeters>493.74360436062</DistanceMeters>
          </Trackpoint>
          <Trackpoint>
            <Time>2021-04-07T11:48:10.000Z</Time>
            <Position>
              <LatitudeDegrees>42.82171276398003101348876953125</LatitudeDegrees>
              <LongitudeDegrees>-1.6502091474831104278564453125</LongitudeDegrees>
            </Position>
            <AltitudeMeters>412.399993896484375</AltitudeMeters>
            <DistanceMeters>499.34937513947</DistanceMeters>
          </Trackpoint>
          <Trackpoint>
            <Time>2021-04-07T11:48:11.000Z</Time>
            <Position>
              <LatitudeDegrees>42.821732126176357269287109375</LatitudeDegrees>
              <LongitudeDegrees>-1.65014586411416530609130859375</LongitudeDegrees>
            </Position>
            <AltitudeMeters>412.399993896484375</AltitudeMeters>
            <DistanceMeters>504.94708585551</DistanceMeters>
          </Trackpoint>
          <Trackpoint>
            <Time>2021-04-07T11:48:12.000Z</Time>
            <Position>
              <LatitudeDegrees>42.8217463754117488861083984375</LatitudeDegrees>
              <LongitudeDegrees>-1.65008869953453540802001953125</LongitudeDegrees>
            </Position>
            <AltitudeMeters>412.399993896484375</AltitudeMeters>
            <DistanceMeters>509.87658235218</DistanceMeters>
          </Trackpoint>
          <Trackpoint>
            <Time>2021-04-07T11:48:13.000Z</Time>
            <Position>
              <LatitudeDegrees>42.82175869680941104888916015625</LatitudeDegrees>
              <LongitudeDegrees>-1.650033630430698394775390625</LongitudeDegrees>
            </Position>
            <AltitudeMeters>412.399993896484375</AltitudeMeters>
            <DistanceMeters>514.57632351334</DistanceMeters>
          </Trackpoint>
          <Trackpoint>
            <Time>2021-04-07T11:48:14.000Z</Time>
            <Position>
              <LatitudeDegrees>42.82178317196667194366455078125</LatitudeDegrees>
              <LongitudeDegrees>-1.6499741189181804656982421875</LongitudeDegrees>
            </Position>
            <AltitudeMeters>412.600006103515625</AltitudeMeters>
            <DistanceMeters>520.14654277846</DistanceMeters>
          </Trackpoint>
          <Trackpoint>
            <Time>2021-04-07T11:48:15.000Z</Time>
            <Position>
              <LatitudeDegrees>42.82181468792259693145751953125</LatitudeDegrees>
              <LongitudeDegrees>-1.6499124281108379364013671875</LongitudeDegrees>
            </Position>
            <AltitudeMeters>412.79998779296875</AltitudeMeters>
            <DistanceMeters>526.28441528643</DistanceMeters>
          </Trackpoint>
          <Trackpoint>
            <Time>2021-04-07T11:48:16.000Z</Time>
            <Position>
              <LatitudeDegrees>42.82183639705181121826171875</LatitudeDegrees>
              <LongitudeDegrees>-1.649857275187969207763671875</LongitudeDegrees>
            </Position>
            <AltitudeMeters>413</AltitudeMeters>
            <DistanceMeters>531.39469718432</DistanceMeters>
          </Trackpoint>
          <Trackpoint>
            <Time>2021-04-07T11:48:17.000Z</Time>
            <Position>
              <LatitudeDegrees>42.82186162658035755157470703125</LatitudeDegrees>
              <LongitudeDegrees>-1.6498051397502422332763671875</LongitudeDegrees>
            </Position>
            <AltitudeMeters>413</AltitudeMeters>
            <DistanceMeters>536.49259479076</DistanceMeters>
          </Trackpoint>
          <Trackpoint>
            <Time>2021-04-07T11:48:18.000Z</Time>
            <Position>
              <LatitudeDegrees>42.82188878394663333892822265625</LatitudeDegrees>
              <LongitudeDegrees>-1.64975895546376705169677734375</LongitudeDegrees>
            </Position>
            <AltitudeMeters>413</AltitudeMeters>
            <DistanceMeters>541.3249625007</DistanceMeters>
          </Trackpoint>
          <Trackpoint>
            <Time>2021-04-07T11:48:19.000Z</Time>
            <Position>
              <LatitudeDegrees>42.82191728241741657257080078125</LatitudeDegrees>
              <LongitudeDegrees>-1.6497136093676090240478515625</LongitudeDegrees>
            </Position>
            <AltitudeMeters>413</AltitudeMeters>
            <DistanceMeters>546.20012005718</DistanceMeters>
          </Trackpoint>
          <Trackpoint>
            <Time>2021-04-07T11:48:20.000Z</Time>
            <Position>
              <LatitudeDegrees>42.8219456970691680908203125</LatitudeDegrees>
              <LongitudeDegrees>-1.649672873318195343017578125</LongitudeDegrees>
            </Position>
            <AltitudeMeters>413</AltitudeMeters>
            <DistanceMeters>550.7890347728</DistanceMeters>
          </Trackpoint>
          <Trackpoint>
            <Time>2021-04-07T11:48:21.000Z</Time>
            <Position>
              <LatitudeDegrees>42.82195617444813251495361328125</LatitudeDegrees>
              <LongitudeDegrees>-1.6496537625789642333984375</LongitudeDegrees>
            </Position>
            <AltitudeMeters>413</AltitudeMeters>
            <DistanceMeters>552.73881993607</DistanceMeters>
          </Trackpoint>
          <Trackpoint>
            <Time>2021-04-07T11:48:22.000Z</Time>
            <Position>
              <LatitudeDegrees>42.82198349945247173309326171875</LatitudeDegrees>
              <LongitudeDegrees>-1.64964412339031696319580078125</LongitudeDegrees>
            </Position>
            <AltitudeMeters>413</AltitudeMeters>
            <DistanceMeters>555.88045542627</DistanceMeters>
          </Trackpoint>
          <Trackpoint>
            <Time>2021-04-07T11:48:23.000Z</Time>
            <Position>
              <LatitudeDegrees>42.821993641555309295654296875</LatitudeDegrees>
              <LongitudeDegrees>-1.649640016257762908935546875</LongitudeDegrees>
            </Position>
            <AltitudeMeters>413</AltitudeMeters>
            <DistanceMeters>557.05970593925</DistanceMeters>
          </Trackpoint>
          <Trackpoint>
            <Time>2021-04-07T11:48:24.000Z</Time>
            <Position>
              <LatitudeDegrees>42.82200043089687824249267578125</LatitudeDegrees>
              <LongitudeDegrees>-1.6496358253061771392822265625</LongitudeDegrees>
            </Position>
            <AltitudeMeters>412.79998779296875</AltitudeMeters>
            <DistanceMeters>557.888129629</DistanceMeters>
          </Trackpoint>
          <Trackpoint>
            <Time>2021-04-07T11:48:25.000Z</Time>
            <Position>
              <LatitudeDegrees>42.8220018558204174041748046875</LatitudeDegrees>
              <LongitudeDegrees>-1.64963473565876483917236328125</LongitudeDegrees>
            </Position>
            <AltitudeMeters>412.600006103515625</AltitudeMeters>
            <DistanceMeters>558.07818305774</DistanceMeters>
          </Trackpoint>
          <Trackpoint>
            <Time>2021-04-07T11:48:26.000Z</Time>
            <Position>
              <LatitudeDegrees>42.822001688182353973388671875</LatitudeDegrees>
              <LongitudeDegrees>-1.649633310735225677490234375</LongitudeDegrees>
            </Position>
            <AltitudeMeters>412.600006103515625</AltitudeMeters>
            <DistanceMeters>558.24277415511</DistanceMeters>
          </Trackpoint>
          <Trackpoint>
            <Time>2021-04-07T11:48:27.000Z</Time>
            <Position>
              <LatitudeDegrees>42.8220020234584808349609375</LatitudeDegrees>
              <LongitudeDegrees>-1.64963205344974994659423828125</LongitudeDegrees>
            </Position>
            <AltitudeMeters>412.399993896484375</AltitudeMeters>
            <DistanceMeters>558.37716222336</DistanceMeters>
          </Trackpoint>
          <Trackpoint>
            <Time>2021-04-07T11:48:37.000Z</Time>
            <Position>
              <LatitudeDegrees>42.82204519025981426239013671875</LatitudeDegrees>
              <LongitudeDegrees>-1.64934958331286907196044921875</LongitudeDegrees>
            </Position>
            <AltitudeMeters>413.20001220703125</AltitudeMeters>
            <DistanceMeters>581.93209773476</DistanceMeters>
          </Trackpoint>
          <Trackpoint>
            <Time>2021-04-07T11:48:41.000Z</Time>
            <Position>
              <LatitudeDegrees>42.8219113312661647796630859375</LatitudeDegrees>
              <LongitudeDegrees>-1.64940624497830867767333984375</LongitudeDegrees>
            </Position>
            <AltitudeMeters>412.79998779296875</AltitudeMeters>
            <DistanceMeters>597.53211568875</DistanceMeters>
          </Trackpoint>
          <Trackpoint>
            <Time>2021-04-07T11:48:42.000Z</Time>
            <Position>
              <LatitudeDegrees>42.821891717612743377685546875</LatitudeDegrees>
              <LongitudeDegrees>-1.649378836154937744140625</LongitudeDegrees>
            </Position>
            <AltitudeMeters>412.79998779296875</AltitudeMeters>
            <DistanceMeters>600.65934653869</DistanceMeters>
          </Trackpoint>
          <Trackpoint>
            <Time>2021-04-07T11:48:43.000Z</Time>
            <Position>
              <LatitudeDegrees>42.82186430878937244415283203125</LatitudeDegrees>
              <LongitudeDegrees>-1.6493716277182102203369140625</LongitudeDegrees>
            </Position>
            <AltitudeMeters>413</AltitudeMeters>
            <DistanceMeters>603.76484515278</DistanceMeters>
          </Trackpoint>
          <Trackpoint>
            <Time>2021-04-07T11:48:44.000Z</Time>
            <Position>
              <LatitudeDegrees>42.8218295238912105560302734375</LatitudeDegrees>
              <LongitudeDegrees>-1.6493568755686283111572265625</LongitudeDegrees>
            </Position>
            <AltitudeMeters>413</AltitudeMeters>
            <DistanceMeters>607.81993691555</DistanceMeters>
          </Trackpoint>
          <Trackpoint>
            <Time>2021-04-07T11:48:45.000Z</Time>
            <Position>
              <LatitudeDegrees>42.8217742033302783966064453125</LatitudeDegrees>
              <LongitudeDegrees>-1.64942518807947635650634765625</LongitudeDegrees>
            </Position>
            <AltitudeMeters>413</AltitudeMeters>
            <DistanceMeters>616.12703292948</DistanceMeters>
          </Trackpoint>
          <Trackpoint>
            <Time>2021-04-07T11:48:46.000Z</Time>
            <Position>
              <LatitudeDegrees>42.8217440284788608551025390625</LatitudeDegrees>
              <LongitudeDegrees>-1.64941529743373394012451171875</LongitudeDegrees>
            </Position>
            <AltitudeMeters>412.79998779296875</AltitudeMeters>
            <DistanceMeters>619.58083242894</DistanceMeters>
          </Trackpoint>
          <Trackpoint>
            <Time>2021-04-07T11:48:47.000Z</Time>
            <Position>
              <LatitudeDegrees>42.82170807011425495147705078125</LatitudeDegrees>
              <LongitudeDegrees>-1.6493890620768070220947265625</LongitudeDegrees>
            </Position>
            <AltitudeMeters>412.79998779296875</AltitudeMeters>
            <DistanceMeters>624.12028552872</DistanceMeters>
          </Trackpoint>
          <Trackpoint>
            <Time>2021-04-07T11:48:48.000Z</Time>
            <Position>
              <LatitudeDegrees>42.82166599296033382415771484375</LatitudeDegrees>
              <LongitudeDegrees>-1.64935712702572345733642578125</LongitudeDegrees>
            </Position>
            <AltitudeMeters>412.79998779296875</AltitudeMeters>
            <DistanceMeters>629.48066828041</DistanceMeters>
          </Trackpoint>
          <Trackpoint>
            <Time>2021-04-07T11:48:49.000Z</Time>
            <Position>
              <LatitudeDegrees>42.82162961550056934356689453125</LatitudeDegrees>
              <LongitudeDegrees>-1.6493451409041881561279296875</LongitudeDegrees>
            </Position>
            <AltitudeMeters>413</AltitudeMeters>
            <DistanceMeters>633.64561448041</DistanceMeters>
          </Trackpoint>
          <Trackpoint>
            <Time>2021-04-07T11:48:50.000Z</Time>
            <Position>
              <LatitudeDegrees>42.8215871192514896392822265625</LatitudeDegrees>
              <LongitudeDegrees>-1.64932343177497386932373046875</LongitudeDegrees>
            </Position>
            <AltitudeMeters>412.79998779296875</AltitudeMeters>
            <DistanceMeters>638.69724748673</DistanceMeters>
          </Trackpoint>
          <Trackpoint>
            <Time>2021-04-07T11:48:51.000Z</Time>
            <Position>
              <LatitudeDegrees>42.821545042097568511962890625</LatitudeDegrees>
              <LongitudeDegrees>-1.64929962716996669769287109375</LongitudeDegrees>
            </Position>
            <AltitudeMeters>412.79998779296875</AltitudeMeters>
            <DistanceMeters>643.76761509036</DistanceMeters>
          </Trackpoint>
          <Trackpoint>
            <Time>2021-04-07T11:48:52.000Z</Time>
            <Position>
              <LatitudeDegrees>42.82149801962077617645263671875</LatitudeDegrees>
              <LongitudeDegrees>-1.64928504265844821929931640625</LongitudeDegrees>
            </Position>
            <AltitudeMeters>412.79998779296875</AltitudeMeters>
            <DistanceMeters>649.13557316887</DistanceMeters>
          </Trackpoint>
          <Trackpoint>
            <Time>2021-04-07T11:48:53.000Z</Time>
            <Position>
              <LatitudeDegrees>42.8214516676962375640869140625</LatitudeDegrees>
              <LongitudeDegrees>-1.6492361761629581451416015625</LongitudeDegrees>
            </Position>
            <AltitudeMeters>412.79998779296875</AltitudeMeters>
            <DistanceMeters>655.65720333709</DistanceMeters>
          </Trackpoint>
          <Trackpoint>
            <Time>2021-04-07T11:48:54.000Z</Time>
            <Position>
              <LatitudeDegrees>42.82140129245817661285400390625</LatitudeDegrees>
              <LongitudeDegrees>-1.6492153890430927276611328125</LongitudeDegrees>
            </Position>
            <AltitudeMeters>412.79998779296875</AltitudeMeters>
            <DistanceMeters>661.51504342428</DistanceMeters>
          </Trackpoint>
          <Trackpoint>
            <Time>2021-04-07T11:48:55.000Z</Time>
            <Position>
              <LatitudeDegrees>42.82134714536368846893310546875</LatitudeDegrees>
              <LongitudeDegrees>-1.6492053307592868804931640625</LongitudeDegrees>
            </Position>
            <AltitudeMeters>412.79998779296875</AltitudeMeters>
            <DistanceMeters>667.59823775516</DistanceMeters>
          </Trackpoint>
          <Trackpoint>
            <Time>2021-04-07T11:48:56.000Z</Time>
            <Position>
              <LatitudeDegrees>42.821292243897914886474609375</LatitudeDegrees>
              <LongitudeDegrees>-1.6492046602070331573486328125</LongitudeDegrees>
            </Position>
            <AltitudeMeters>412.600006103515625</AltitudeMeters>
            <DistanceMeters>673.70957117531</DistanceMeters>
          </Trackpoint>
          <Trackpoint>
            <Time>2021-04-07T11:48:57.000Z</Time>
            <Position>
              <LatitudeDegrees>42.821239940822124481201171875</LatitudeDegrees>
              <LongitudeDegrees>-1.6491972841322422027587890625</LongitudeDegrees>
            </Position>
            <AltitudeMeters>412.600006103515625</AltitudeMeters>
            <DistanceMeters>679.56201339646</DistanceMeters>
          </Trackpoint>
          <Trackpoint>
            <Time>2021-04-07T11:48:58.000Z</Time>
            <Position>
              <LatitudeDegrees>42.82119828276336193084716796875</LatitudeDegrees>
              <LongitudeDegrees>-1.649181358516216278076171875</LongitudeDegrees>
            </Position>
            <AltitudeMeters>412.399993896484375</AltitudeMeters>
            <DistanceMeters>684.3775337534</DistanceMeters>
          </Trackpoint>
          <Trackpoint>
            <Time>2021-04-07T11:48:59.000Z</Time>
            <Position>
              <LatitudeDegrees>42.82115436159074306488037109375</LatitudeDegrees>
              <LongitudeDegrees>-1.64913835935294628143310546875</LongitudeDegrees>
            </Position>
            <AltitudeMeters>412.399993896484375</AltitudeMeters>
            <DistanceMeters>690.39505870476</DistanceMeters>
          </Trackpoint>
          <Trackpoint>
            <Time>2021-04-07T11:49:00.000Z</Time>
            <Position>
              <LatitudeDegrees>42.8211324848234653472900390625</LatitudeDegrees>
              <LongitudeDegrees>-1.6491030715405941009521484375</LongitudeDegrees>
            </Position>
            <AltitudeMeters>412.399993896484375</AltitudeMeters>
            <DistanceMeters>694.16751155081</DistanceMeters>
          </Trackpoint>
          <Trackpoint>
            <Time>2021-04-07T11:49:01.000Z</Time>
            <Position>
              <LatitudeDegrees>42.821101807057857513427734375</LatitudeDegrees>
              <LongitudeDegrees>-1.64905889891088008880615234375</LongitudeDegrees>
            </Position>
            <AltitudeMeters>412.399993896484375</AltitudeMeters>
            <DistanceMeters>699.13260054216</DistanceMeters>
          </Trackpoint>
          <Trackpoint>
            <Time>2021-04-07T11:49:02.000Z</Time>
            <Position>
              <LatitudeDegrees>42.82107892446219921112060546875</LatitudeDegrees>
              <LongitudeDegrees>-1.649014391005039215087890625</LongitudeDegrees>
            </Position>
            <AltitudeMeters>412.399993896484375</AltitudeMeters>
            <DistanceMeters>703.56944251003</DistanceMeters>
          </Trackpoint>
          <Trackpoint>
            <Time>2021-04-07T11:49:03.000Z</Time>
            <Position>
              <LatitudeDegrees>42.82106249593198299407958984375</LatitudeDegrees>
              <LongitudeDegrees>-1.6489803604781627655029296875</LongitudeDegrees>
            </Position>
            <AltitudeMeters>412.600006103515625</AltitudeMeters>
            <DistanceMeters>706.89673476053</DistanceMeters>
          </Trackpoint>
          <Trackpoint>
            <Time>2021-04-07T11:49:04.000Z</Time>
            <Position>
              <LatitudeDegrees>42.821046151220798492431640625</LatitudeDegrees>
              <LongitudeDegrees>-1.6489461623132228851318359375</LongitudeDegrees>
            </Position>
            <AltitudeMeters>412.600006103515625</AltitudeMeters>
            <DistanceMeters>710.22945047389</DistanceMeters>
          </Trackpoint>
          <Trackpoint>
            <Time>2021-04-07T11:49:05.000Z</Time>
            <Position>
              <LatitudeDegrees>42.82102997414767742156982421875</LatitudeDegrees>
              <LongitudeDegrees>-1.6489161550998687744140625</LongitudeDegrees>
            </Position>
            <AltitudeMeters>412.600006103515625</AltitudeMeters>
            <DistanceMeters>713.26882017864</DistanceMeters>
          </Trackpoint>
          <Trackpoint>
            <Time>2021-04-07T11:49:06.000Z</Time>
            <Position>
              <LatitudeDegrees>42.82101270742714405059814453125</LatitudeDegrees>
              <LongitudeDegrees>-1.6488941945135593414306640625</LongitudeDegrees>
            </Position>
            <AltitudeMeters>412.600006103515625</AltitudeMeters>
            <DistanceMeters>715.89712923194</DistanceMeters>
          </Trackpoint>
          <Trackpoint>
            <Time>2021-04-07T11:49:07.000Z</Time>
            <Position>
              <LatitudeDegrees>42.8209950216114521026611328125</LatitudeDegrees>
              <LongitudeDegrees>-1.64887416176497936248779296875</LongitudeDegrees>
            </Position>
            <AltitudeMeters>412.600006103515625</AltitudeMeters>
            <DistanceMeters>718.45756581547</DistanceMeters>
          </Trackpoint>
          <Trackpoint>
            <Time>2021-04-07T11:49:08.000Z</Time>
            <Position>
              <LatitudeDegrees>42.82100248150527477264404296875</LatitudeDegrees>
              <LongitudeDegrees>-1.6488760896027088165283203125</LongitudeDegrees>
            </Position>
            <AltitudeMeters>412.600006103515625</AltitudeMeters>
            <DistanceMeters>719.30751058751</DistanceMeters>
          </Trackpoint>
          <Trackpoint>
            <Time>2021-04-07T11:49:09.000Z</Time>
            <Position>
              <LatitudeDegrees>42.8210295550525188446044921875</LatitudeDegrees>
              <LongitudeDegrees>-1.64886795915663242340087890625</LongitudeDegrees>
            </Position>
            <AltitudeMeters>412.600006103515625</AltitudeMeters>
            <DistanceMeters>722.39405082674</DistanceMeters>
          </Trackpoint>
          <Trackpoint>
            <Time>2021-04-07T11:49:10.000Z</Time>
            <Position>
              <LatitudeDegrees>42.82103634439408779144287109375</LatitudeDegrees>
              <LongitudeDegrees>-1.6488586552441120147705078125</LongitudeDegrees>
            </Position>
            <AltitudeMeters>412.600006103515625</AltitudeMeters>
            <DistanceMeters>723.46915537274</DistanceMeters>
          </Trackpoint>
          <Trackpoint>
            <Time>2021-04-07T11:49:11.000Z</Time>
            <Position>
              <LatitudeDegrees>42.821046151220798492431640625</LatitudeDegrees>
              <LongitudeDegrees>-1.6488496027886867523193359375</LongitudeDegrees>
            </Position>
            <AltitudeMeters>412.600006103515625</AltitudeMeters>
            <DistanceMeters>724.78588415166</DistanceMeters>
          </Trackpoint>
          <Trackpoint>
            <Time>2021-04-07T11:49:12.000Z</Time>
            <Position>
              <LatitudeDegrees>42.82107532024383544921875</LatitudeDegrees>
              <LongitudeDegrees>-1.64885781705379486083984375</LongitudeDegrees>
            </Position>
            <AltitudeMeters>412.600006103515625</AltitudeMeters>
            <DistanceMeters>728.102302869</DistanceMeters>
          </Trackpoint>
          <Trackpoint>
            <Time>2021-04-07T11:49:13.000Z</Time>
            <Position>
              <LatitudeDegrees>42.82109535299241542816162109375</LatitudeDegrees>
              <LongitudeDegrees>-1.6488663665950298309326171875</LongitudeDegrees>
            </Position>
            <AltitudeMeters>412.600006103515625</AltitudeMeters>
            <DistanceMeters>730.43965099211</DistanceMeters>
          </Trackpoint>
          <Trackpoint>
            <Time>2021-04-07T11:49:14.000Z</Time>
            <Position>
              <LatitudeDegrees>42.82110658474266529083251953125</LatitudeDegrees>
              <LongitudeDegrees>-1.6488759219646453857421875</LongitudeDegrees>
            </Position>
            <AltitudeMeters>412.600006103515625</AltitudeMeters>
            <DistanceMeters>731.9148623068</DistanceMeters>
          </Trackpoint>
          <Trackpoint>
            <Time>2021-04-07T11:49:15.000Z</Time>
            <Position>
              <LatitudeDegrees>42.82110943458974361419677734375</LatitudeDegrees>
              <LongitudeDegrees>-1.64890073239803314208984375</LongitudeDegrees>
            </Position>
            <AltitudeMeters>412.600006103515625</AltitudeMeters>
            <DistanceMeters>733.96620713956</DistanceMeters>
          </Trackpoint>
          <Trackpoint>
            <Time>2021-04-07T11:49:16.000Z</Time>
            <Position>
              <LatitudeDegrees>42.821105159819126129150390625</LatitudeDegrees>
              <LongitudeDegrees>-1.6489242017269134521484375</LongitudeDegrees>
            </Position>
            <AltitudeMeters>412.399993896484375</AltitudeMeters>
            <DistanceMeters>735.94130030794</DistanceMeters>
          </Trackpoint>
          <Trackpoint>
            <Time>2021-04-07T11:49:17.000Z</Time>
            <Position>
              <LatitudeDegrees>42.8210935927927494049072265625</LatitudeDegrees>
              <LongitudeDegrees>-1.64893669076263904571533203125</LongitudeDegrees>
            </Position>
            <AltitudeMeters>412.399993896484375</AltitudeMeters>
            <DistanceMeters>737.57896104932</DistanceMeters>
          </Trackpoint>
          <Trackpoint>
            <Time>2021-04-07T11:49:18.000Z</Time>
            <Position>
              <LatitudeDegrees>42.82107406295835971832275390625</LatitudeDegrees>
              <LongitudeDegrees>-1.64893870241940021514892578125</LongitudeDegrees>
            </Position>
            <AltitudeMeters>412.600006103515625</AltitudeMeters>
            <DistanceMeters>739.75836927393</DistanceMeters>
          </Trackpoint>
          <Trackpoint>
            <Time>2021-04-07T11:49:19.000Z</Time>
            <Position>
              <LatitudeDegrees>42.82104757614433765411376953125</LatitudeDegrees>
              <LongitudeDegrees>-1.6489247046411037445068359375</LongitudeDegrees>
            </Position>
            <AltitudeMeters>412.600006103515625</AltitudeMeters>
            <DistanceMeters>742.92148873104</DistanceMeters>
          </Trackpoint>
          <Trackpoint>
            <Time>2021-04-07T11:49:20.000Z</Time>
            <Position>
              <LatitudeDegrees>42.82101438380777835845947265625</LatitudeDegrees>
              <LongitudeDegrees>-1.64890475571155548095703125</LongitudeDegrees>
            </Position>
            <AltitudeMeters>412.79998779296875</AltitudeMeters>
            <DistanceMeters>746.95872639822</DistanceMeters>
          </Trackpoint>
          <Trackpoint>
            <Time>2021-04-07T11:49:21.000Z</Time>
            <Position>
              <LatitudeDegrees>42.8209802694618701934814453125</LatitudeDegrees>
              <LongitudeDegrees>-1.64889427833259105682373046875</LongitudeDegrees>
            </Position>
            <AltitudeMeters>412.79998779296875</AltitudeMeters>
            <DistanceMeters>750.84902306044</DistanceMeters>
          </Trackpoint>
          <Trackpoint>
            <Time>2021-04-07T11:49:22.000Z</Time>
            <Position>
              <LatitudeDegrees>42.82094196416437625885009765625</LatitudeDegrees>
              <LongitudeDegrees>-1.64888556115329265594482421875</LongitudeDegrees>
            </Position>
            <AltitudeMeters>412.79998779296875</AltitudeMeters>
            <DistanceMeters>755.17143305517</DistanceMeters>
          </Trackpoint>
          <Trackpoint>
            <Time>2021-04-07T11:49:23.000Z</Time>
            <Position>
              <LatitudeDegrees>42.82090458087623119354248046875</LatitudeDegrees>
              <LongitudeDegrees>-1.64887684397399425506591796875</LongitudeDegrees>
            </Position>
            <AltitudeMeters>413</AltitudeMeters>
            <DistanceMeters>759.39344334653</DistanceMeters>
          </Trackpoint>
          <Trackpoint>
            <Time>2021-04-07T11:49:24.000Z</Time>
            <Position>
              <LatitudeDegrees>42.8208652697503566741943359375</LatitudeDegrees>
              <LongitudeDegrees>-1.648867540061473846435546875</LongitudeDegrees>
            </Position>
            <AltitudeMeters>413.399993896484375</AltitudeMeters>
            <DistanceMeters>763.83435394613</DistanceMeters>
          </Trackpoint>
          <Trackpoint>
            <Time>2021-04-07T11:49:25.000Z</Time>
            <Position>
              <LatitudeDegrees>42.8208257071673870086669921875</LatitudeDegrees>
              <LongitudeDegrees>-1.6488519497215747833251953125</LongitudeDegrees>
            </Position>
            <AltitudeMeters>413.600006103515625</AltitudeMeters>
            <DistanceMeters>768.41736145306</DistanceMeters>
          </Trackpoint>
          <Trackpoint>
            <Time>2021-04-07T11:49:26.000Z</Time>
            <Position>
              <LatitudeDegrees>42.82078606076538562774658203125</LatitudeDegrees>
              <LongitudeDegrees>-1.64884348399937152862548828125</LongitudeDegrees>
            </Position>
            <AltitudeMeters>413.600006103515625</AltitudeMeters>
            <DistanceMeters>772.88361702845</DistanceMeters>
          </Trackpoint>
          <Trackpoint>
            <Time>2021-04-07T11:49:27.000Z</Time>
            <Position>
              <LatitudeDegrees>42.82074783928692340850830078125</LatitudeDegrees>
              <LongitudeDegrees>-1.648839376866817474365234375</LongitudeDegrees>
            </Position>
            <AltitudeMeters>413.20001220703125</AltitudeMeters>
            <DistanceMeters>777.15030592161</DistanceMeters>
          </Trackpoint>
          <Trackpoint>
            <Time>2021-04-07T11:49:28.000Z</Time>
            <Position>
              <LatitudeDegrees>42.82070542685687541961669921875</LatitudeDegrees>
              <LongitudeDegrees>-1.64883761666715145111083984375</LongitudeDegrees>
            </Position>
            <AltitudeMeters>413.20001220703125</AltitudeMeters>
            <DistanceMeters>781.87209146737</DistanceMeters>
          </Trackpoint>
          <Trackpoint>
            <Time>2021-04-07T11:49:29.000Z</Time>
            <Position>
              <LatitudeDegrees>42.820659913122653961181640625</LatitudeDegrees>
              <LongitudeDegrees>-1.6488395445048809051513671875</LongitudeDegrees>
            </Position>
            <AltitudeMeters>413.20001220703125</AltitudeMeters>
            <DistanceMeters>786.93978694033</DistanceMeters>
          </Trackpoint>
          <Trackpoint>
            <Time>2021-04-07T11:49:30.000Z</Time>
            <Position>
              <LatitudeDegrees>42.82061372883617877960205078125</LatitudeDegrees>
              <LongitudeDegrees>-1.64884708821773529052734375</LongitudeDegrees>
            </Position>
            <AltitudeMeters>413.20001220703125</AltitudeMeters>
            <DistanceMeters>792.11765300291</DistanceMeters>
          </Trackpoint>
          <Trackpoint>
            <Time>2021-04-07T11:49:31.000Z</Time>
            <Position>
              <LatitudeDegrees>42.82056645490229129791259765625</LatitudeDegrees>
              <LongitudeDegrees>-1.6488610021770000457763671875</LongitudeDegrees>
            </Position>
            <AltitudeMeters>412.79998779296875</AltitudeMeters>
            <DistanceMeters>797.50072975405</DistanceMeters>
          </Trackpoint>
          <Trackpoint>
            <Time>2021-04-07T11:49:32.000Z</Time>
            <Position>
              <LatitudeDegrees>42.82050727866590023040771484375</LatitudeDegrees>
              <LongitudeDegrees>-1.64887122809886932373046875</LongitudeDegrees>
            </Position>
            <AltitudeMeters>412.600006103515625</AltitudeMeters>
            <DistanceMeters>804.13901063441</DistanceMeters>
          </Trackpoint>
          <Trackpoint>
            <Time>2021-04-07T11:49:33.000Z</Time>
            <Position>
              <LatitudeDegrees>42.82045103609561920166015625</LatitudeDegrees>
              <LongitudeDegrees>-1.6488895006477832794189453125</LongitudeDegrees>
            </Position>
            <AltitudeMeters>412.399993896484375</AltitudeMeters>
            <DistanceMeters>810.57422085413</DistanceMeters>
          </Trackpoint>
          <Trackpoint>
            <Time>2021-04-07T11:49:34.000Z</Time>
            <Position>
              <LatitudeDegrees>42.8203948773443698883056640625</LatitudeDegrees>
              <LongitudeDegrees>-1.64890467189252376556396484375</LongitudeDegrees>
            </Position>
            <AltitudeMeters>412.20001220703125</AltitudeMeters>
            <DistanceMeters>816.94668142823</DistanceMeters>
          </Trackpoint>
          <Trackpoint>
            <Time>2021-04-07T11:49:35.000Z</Time>
            <Position>
              <LatitudeDegrees>42.8203417360782623291015625</LatitudeDegrees>
              <LongitudeDegrees>-1.6489161550998687744140625</LongitudeDegrees>
            </Position>
            <AltitudeMeters>412.20001220703125</AltitudeMeters>
            <DistanceMeters>822.93562654698</DistanceMeters>
          </Trackpoint>
          <Trackpoint>
            <Time>2021-04-07T11:49:36.000Z</Time>
            <Position>
              <LatitudeDegrees>42.82029219903051853179931640625</LatitudeDegrees>
              <LongitudeDegrees>-1.6489213518798351287841796875</LongitudeDegrees>
            </Position>
            <AltitudeMeters>412.20001220703125</AltitudeMeters>
            <DistanceMeters>828.46598538847</DistanceMeters>
          </Trackpoint>
          <Trackpoint>
            <Time>2021-04-07T11:49:37.000Z</Time>
            <Position>
              <LatitudeDegrees>42.8202473558485507965087890625</LatitudeDegrees>
              <LongitudeDegrees>-1.64892428554594516754150390625</LongitudeDegrees>
            </Position>
            <AltitudeMeters>412.399993896484375</AltitudeMeters>
            <DistanceMeters>833.46280051088</DistanceMeters>
          </Trackpoint>
          <Trackpoint>
            <Time>2021-04-07T11:49:38.000Z</Time>
            <Position>
              <LatitudeDegrees>42.8202004171907901763916015625</LatitudeDegrees>
              <LongitudeDegrees>-1.64891908876597881317138671875</LongitudeDegrees>
            </Position>
            <AltitudeMeters>412.399993896484375</AltitudeMeters>
            <DistanceMeters>838.70479656381</DistanceMeters>
          </Trackpoint>
          <Trackpoint>
            <Time>2021-04-07T11:49:39.000Z</Time>
            <Position>
              <LatitudeDegrees>42.82015599310398101806640625</LatitudeDegrees>
              <LongitudeDegrees>-1.6489092819392681121826171875</LongitudeDegrees>
            </Position>
            <AltitudeMeters>412.600006103515625</AltitudeMeters>
            <DistanceMeters>843.71334449323</DistanceMeters>
          </Trackpoint>
          <Trackpoint>
            <Time>2021-04-07T11:49:40.000Z</Time>
            <Position>
              <LatitudeDegrees>42.82011819072067737579345703125</LatitudeDegrees>
              <LongitudeDegrees>-1.648902408778667449951171875</LongitudeDegrees>
            </Position>
            <AltitudeMeters>412.600006103515625</AltitudeMeters>
            <DistanceMeters>847.95881650258</DistanceMeters>
          </Trackpoint>
          <Trackpoint>
            <Time>2021-04-07T11:49:41.000Z</Time>
            <Position>
              <LatitudeDegrees>42.82007955014705657958984375</LatitudeDegrees>
              <LongitudeDegrees>-1.64888975210487842559814453125</LongitudeDegrees>
            </Position>
            <AltitudeMeters>413</AltitudeMeters>
            <DistanceMeters>852.38240957315</DistanceMeters>
          </Trackpoint>
          <Trackpoint>
            <Time>2021-04-07T11:49:42.000Z</Time>
            <Position>
              <LatitudeDegrees>42.82004526816308498382568359375</LatitudeDegrees>
              <LongitudeDegrees>-1.64887282066047191619873046875</LongitudeDegrees>
            </Position>
            <AltitudeMeters>413</AltitudeMeters>
            <DistanceMeters>856.4408402346</DistanceMeters>
          </Trackpoint>
          <Trackpoint>
            <Time>2021-04-07T11:49:43.000Z</Time>
            <Position>
              <LatitudeDegrees>42.8200153447687625885009765625</LatitudeDegrees>
              <LongitudeDegrees>-1.64884951896965503692626953125</LongitudeDegrees>
            </Position>
            <AltitudeMeters>413</AltitudeMeters>
            <DistanceMeters>860.27620130329</DistanceMeters>
          </Trackpoint>
          <Trackpoint>
            <Time>2021-04-07T11:49:44.000Z</Time>
            <Position>
              <LatitudeDegrees>42.819986678659915924072265625</LatitudeDegrees>
              <LongitudeDegrees>-1.6488211043179035186767578125</LongitudeDegrees>
            </Position>
            <AltitudeMeters>413</AltitudeMeters>
            <DistanceMeters>864.22066853131</DistanceMeters>
          </Trackpoint>
          <Trackpoint>
            <Time>2021-04-07T11:49:45.000Z</Time>
            <Position>
              <LatitudeDegrees>42.81996295787394046783447265625</LatitudeDegrees>
              <LongitudeDegrees>-1.64879880845546722412109375</LongitudeDegrees>
            </Position>
            <AltitudeMeters>413.20001220703125</AltitudeMeters>
            <DistanceMeters>867.42773215239</DistanceMeters>
          </Trackpoint>
          <Trackpoint>
            <Time>2021-04-07T11:49:46.000Z</Time>
            <Position>
              <LatitudeDegrees>42.81994250603020191192626953125</LatitudeDegrees>
              <LongitudeDegrees>-1.6487874090671539306640625</LongitudeDegrees>
            </Position>
            <AltitudeMeters>413.399993896484375</AltitudeMeters>
            <DistanceMeters>869.88743766677</DistanceMeters>
          </Trackpoint>
          <Trackpoint>
            <Time>2021-04-07T11:49:47.000Z</Time>
            <Position>
              <LatitudeDegrees>42.8199164383113384246826171875</LatitudeDegrees>
              <LongitudeDegrees>-1.6487681306898593902587890625</LongitudeDegrees>
            </Position>
            <AltitudeMeters>413.399993896484375</AltitudeMeters>
            <DistanceMeters>873.18747890763</DistanceMeters>
          </Trackpoint>
          <Trackpoint>
            <Time>2021-04-07T11:49:48.000Z</Time>
            <Position>
              <LatitudeDegrees>42.8198911249637603759765625</LatitudeDegrees>
              <LongitudeDegrees>-1.64875396527349948883056640625</LongitudeDegrees>
            </Position>
            <AltitudeMeters>413.600006103515625</AltitudeMeters>
            <DistanceMeters>876.23130190372</DistanceMeters>
          </Trackpoint>
          <Trackpoint>
            <Time>2021-04-07T11:49:49.000Z</Time>
            <Position>
              <LatitudeDegrees>42.81986304558813571929931640625</LatitudeDegrees>
              <LongitudeDegrees>-1.64873485453426837921142578125</LongitudeDegrees>
            </Position>
            <AltitudeMeters>414</AltitudeMeters>
            <DistanceMeters>879.72539167821</DistanceMeters>
          </Trackpoint>
          <Trackpoint>
            <Time>2021-04-07T11:49:50.000Z</Time>
            <Position>
              <LatitudeDegrees>42.819831781089305877685546875</LatitudeDegrees>
              <LongitudeDegrees>-1.64871322922408580780029296875</LongitudeDegrees>
            </Position>
            <AltitudeMeters>414.20001220703125</AltitudeMeters>
            <DistanceMeters>883.62727697695</DistanceMeters>
          </Trackpoint>
          <Trackpoint>
            <Time>2021-04-07T11:49:51.000Z</Time>
            <Position>
              <LatitudeDegrees>42.81980194151401519775390625</LatitudeDegrees>
              <LongitudeDegrees>-1.648694537580013275146484375</LongitudeDegrees>
            </Position>
            <AltitudeMeters>414.600006103515625</AltitudeMeters>
            <DistanceMeters>887.283027671</DistanceMeters>
          </Trackpoint>
          <Trackpoint>
            <Time>2021-04-07T11:49:52.000Z</Time>
            <Position>
              <LatitudeDegrees>42.8197739459574222564697265625</LatitudeDegrees>
              <LongitudeDegrees>-1.648682467639446258544921875</LongitudeDegrees>
            </Position>
            <AltitudeMeters>414.79998779296875</AltitudeMeters>
            <DistanceMeters>890.55283049527</DistanceMeters>
          </Trackpoint>
          <Trackpoint>
            <Time>2021-04-07T11:49:53.000Z</Time>
            <Position>
              <LatitudeDegrees>42.81974704004824161529541015625</LatitudeDegrees>
              <LongitudeDegrees>-1.6486685536801815032958984375</LongitudeDegrees>
            </Position>
            <AltitudeMeters>415.20001220703125</AltitudeMeters>
            <DistanceMeters>893.75707719564</DistanceMeters>
          </Trackpoint>
          <Trackpoint>
            <Time>2021-04-07T11:49:54.000Z</Time>
            <Position>
              <LatitudeDegrees>42.819717116653919219970703125</LatitudeDegrees>
              <LongitudeDegrees>-1.648654974997043609619140625</LongitudeDegrees>
            </Position>
            <AltitudeMeters>415.399993896484375</AltitudeMeters>
            <DistanceMeters>897.26921108011</DistanceMeters>
          </Trackpoint>
          <Trackpoint>
            <Time>2021-04-07T11:49:55.000Z</Time>
            <Position>
              <LatitudeDegrees>42.819688282907009124755859375</LatitudeDegrees>
              <LongitudeDegrees>-1.6486407257616519927978515625</LongitudeDegrees>
            </Position>
            <AltitudeMeters>415.600006103515625</AltitudeMeters>
            <DistanceMeters>900.68356734288</DistanceMeters>
          </Trackpoint>
          <Trackpoint>
            <Time>2021-04-07T11:49:56.000Z</Time>
            <Position>
              <LatitudeDegrees>42.819657437503337860107421875</LatitudeDegrees>
              <LongitudeDegrees>-1.6486209444701671600341796875</LongitudeDegrees>
            </Position>
            <AltitudeMeters>415.79998779296875</AltitudeMeters>
            <DistanceMeters>904.47750221998</DistanceMeters>
          </Trackpoint>
          <Trackpoint>
            <Time>2021-04-07T11:49:57.000Z</Time>
            <Position>
              <LatitudeDegrees>42.819629944860935211181640625</LatitudeDegrees>
              <LongitudeDegrees>-1.64859755896031856536865234375</LongitudeDegrees>
            </Position>
            <AltitudeMeters>416</AltitudeMeters>
            <DistanceMeters>908.08601579653</DistanceMeters>
          </Trackpoint>
          <Trackpoint>
            <Time>2021-04-07T11:49:58.000Z</Time>
            <Position>
              <LatitudeDegrees>42.8196096606552600860595703125</LatitudeDegrees>
              <LongitudeDegrees>-1.64856738410890102386474609375</LongitudeDegrees>
            </Position>
            <AltitudeMeters>416.20001220703125</AltitudeMeters>
            <DistanceMeters>911.42955204392</DistanceMeters>
          </Trackpoint>
          <Trackpoint>
            <Time>2021-04-07T11:49:59.000Z</Time>
            <Position>
              <LatitudeDegrees>42.8195922262966632843017578125</LatitudeDegrees>
              <LongitudeDegrees>-1.64853050373494625091552734375</LongitudeDegrees>
            </Position>
            <AltitudeMeters>416.600006103515625</AltitudeMeters>
            <DistanceMeters>915.01295387784</DistanceMeters>
          </Trackpoint>
          <Trackpoint>
            <Time>2021-04-07T11:50:00.000Z</Time>
            <Position>
              <LatitudeDegrees>42.8195744566619396209716796875</LatitudeDegrees>
              <LongitudeDegrees>-1.64848943240940570831298828125</LongitudeDegrees>
            </Position>
            <AltitudeMeters>416.79998779296875</AltitudeMeters>
            <DistanceMeters>918.90557102739</DistanceMeters>
          </Trackpoint>
          <Trackpoint>
            <Time>2021-04-07T11:50:01.000Z</Time>
            <Position>
              <LatitudeDegrees>42.8195633925497531890869140625</LatitudeDegrees>
              <LongitudeDegrees>-1.6484476067125797271728515625</LongitudeDegrees>
            </Position>
            <AltitudeMeters>417.20001220703125</AltitudeMeters>
            <DistanceMeters>922.53529299081</DistanceMeters>
          </Trackpoint>
          <Trackpoint>
            <Time>2021-04-07T11:50:02.000Z</Time>
            <Position>
              <LatitudeDegrees>42.81955660320818424224853515625</LatitudeDegrees>
              <LongitudeDegrees>-1.6484020091593265533447265625</LongitudeDegrees>
            </Position>
            <AltitudeMeters>417.20001220703125</AltitudeMeters>
            <DistanceMeters>926.33398515489</DistanceMeters>
          </Trackpoint>
          <Trackpoint>
            <Time>2021-04-07T11:50:03.000Z</Time>
            <Position>
              <LatitudeDegrees>42.819550819694995880126953125</LatitudeDegrees>
              <LongitudeDegrees>-1.6483560763299465179443359375</LongitudeDegrees>
            </Position>
            <AltitudeMeters>417.399993896484375</AltitudeMeters>
            <DistanceMeters>930.13742865561</DistanceMeters>
          </Trackpoint>
          <Trackpoint>
            <Time>2021-04-07T11:50:04.000Z</Time>
            <Position>
              <LatitudeDegrees>42.8195526637136936187744140625</LatitudeDegrees>
              <LongitudeDegrees>-1.64831039495766162872314453125</LongitudeDegrees>
            </Position>
            <AltitudeMeters>417.399993896484375</AltitudeMeters>
            <DistanceMeters>933.87138607763</DistanceMeters>
          </Trackpoint>
          <Trackpoint>
            <Time>2021-04-07T11:50:05.000Z</Time>
            <Position>
              <LatitudeDegrees>42.81955643557012081146240234375</LatitudeDegrees>
              <LongitudeDegrees>-1.64826379157602787017822265625</LongitudeDegrees>
            </Position>
            <AltitudeMeters>417.600006103515625</AltitudeMeters>
            <DistanceMeters>937.69849778127</DistanceMeters>
          </Trackpoint>
          <Trackpoint>
            <Time>2021-04-07T11:50:06.000Z</Time>
            <Position>
              <LatitudeDegrees>42.81956716440618038177490234375</LatitudeDegrees>
              <LongitudeDegrees>-1.64821542799472808837890625</LongitudeDegrees>
            </Position>
            <AltitudeMeters>417.79998779296875</AltitudeMeters>
            <DistanceMeters>941.82423336378</DistanceMeters>
          </Trackpoint>
          <Trackpoint>
            <Time>2021-04-07T11:50:07.000Z</Time>
            <Position>
              <LatitudeDegrees>42.819574289023876190185546875</LatitudeDegrees>
              <LongitudeDegrees>-1.64817175827920436859130859375</LongitudeDegrees>
            </Position>
            <AltitudeMeters>417.79998779296875</AltitudeMeters>
            <DistanceMeters>945.47627702559</DistanceMeters>
          </Trackpoint>
          <Trackpoint>
            <Time>2021-04-07T11:50:08.000Z</Time>
            <Position>
              <LatitudeDegrees>42.81958225183188915252685546875</LatitudeDegrees>
              <LongitudeDegrees>-1.6481284238398075103759765625</LongitudeDegrees>
            </Position>
            <AltitudeMeters>418</AltitudeMeters>
            <DistanceMeters>949.12337211647</DistanceMeters>
          </Trackpoint>
          <Trackpoint>
            <Time>2021-04-07T11:50:09.000Z</Time>
            <Position>
              <LatitudeDegrees>42.81958577223122119903564453125</LatitudeDegrees>
              <LongitudeDegrees>-1.64808575995266437530517578125</LongitudeDegrees>
            </Position>
            <AltitudeMeters>418</AltitudeMeters>
            <DistanceMeters>952.62778418753</DistanceMeters>
          </Trackpoint>
          <Trackpoint>
            <Time>2021-04-07T11:50:10.000Z</Time>
            <Position>
              <LatitudeDegrees>42.81959298066794872283935546875</LatitudeDegrees>
              <LongitudeDegrees>-1.64803974330425262451171875</LongitudeDegrees>
            </Position>
            <AltitudeMeters>418.20001220703125</AltitudeMeters>
            <DistanceMeters>956.46902681322</DistanceMeters>
          </Trackpoint>
          <Trackpoint>
            <Time>2021-04-07T11:50:11.000Z</Time>
            <Position>
              <LatitudeDegrees>42.819601781666278839111328125</LatitudeDegrees>
              <LongitudeDegrees>-1.64799414575099945068359375</LongitudeDegrees>
            </Position>
            <AltitudeMeters>418.600006103515625</AltitudeMeters>
            <DistanceMeters>960.3173154417</DistanceMeters>
          </Trackpoint>
          <Trackpoint>
            <Time>2021-04-07T11:50:12.000Z</Time>
            <Position>
              <LatitudeDegrees>42.81960404478013515472412109375</LatitudeDegrees>
              <LongitudeDegrees>-1.64794854819774627685546875</LongitudeDegrees>
            </Position>
            <AltitudeMeters>419.20001220703125</AltitudeMeters>
            <DistanceMeters>964.04885371386</DistanceMeters>
          </Trackpoint>
          <Trackpoint>
            <Time>2021-04-07T11:50:13.000Z</Time>
            <Position>
              <LatitudeDegrees>42.8196110017597675323486328125</LatitudeDegrees>
              <LongitudeDegrees>-1.6478994302451610565185546875</LongitudeDegrees>
            </Position>
            <AltitudeMeters>419.600006103515625</AltitudeMeters>
            <DistanceMeters>968.13389732053</DistanceMeters>
          </Trackpoint>
          <Trackpoint>
            <Time>2021-04-07T11:50:14.000Z</Time>
            <Position>
              <LatitudeDegrees>42.8196167014539241790771484375</LatitudeDegrees>
              <LongitudeDegrees>-1.6478545032441616058349609375</LongitudeDegrees>
            </Position>
            <AltitudeMeters>420</AltitudeMeters>
            <DistanceMeters>971.85574326912</DistanceMeters>
          </Trackpoint>
          <Trackpoint>
            <Time>2021-04-07T11:50:15.000Z</Time>
            <Position>
              <LatitudeDegrees>42.81962223351001739501953125</LatitudeDegrees>
              <LongitudeDegrees>-1.6478135995566844940185546875</LongitudeDegrees>
            </Position>
            <AltitudeMeters>420.20001220703125</AltitudeMeters>
            <DistanceMeters>975.25020604583</DistanceMeters>
          </Trackpoint>
          <Trackpoint>
            <Time>2021-04-07T11:50:16.000Z</Time>
            <Position>
              <LatitudeDegrees>42.8196202218532562255859375</LatitudeDegrees>
              <LongitudeDegrees>-1.647775880992412567138671875</LongitudeDegrees>
            </Position>
            <AltitudeMeters>420.399993896484375</AltitudeMeters>
            <DistanceMeters>978.33820875387</DistanceMeters>
          </Trackpoint>
          <Trackpoint>
            <Time>2021-04-07T11:50:17.000Z</Time>
            <Position>
              <LatitudeDegrees>42.81962634064257144927978515625</LatitudeDegrees>
              <LongitudeDegrees>-1.64773975498974323272705078125</LongitudeDegrees>
            </Position>
            <AltitudeMeters>420.600006103515625</AltitudeMeters>
            <DistanceMeters>981.36417926168</DistanceMeters>
          </Trackpoint>
          <Trackpoint>
            <Time>2021-04-07T11:50:18.000Z</Time>
            <Position>
              <LatitudeDegrees>42.81963405199348926544189453125</LatitudeDegrees>
              <LongitudeDegrees>-1.6477093286812305450439453125</LongitudeDegrees>
            </Position>
            <AltitudeMeters>420.79998779296875</AltitudeMeters>
            <DistanceMeters>983.99248831497</DistanceMeters>
          </Trackpoint>
          <Trackpoint>
            <Time>2021-04-07T11:50:19.000Z</Time>
            <Position>
              <LatitudeDegrees>42.8196411766111850738525390625</LatitudeDegrees>
              <LongitudeDegrees>-1.64768074639141559600830078125</LongitudeDegrees>
            </Position>
            <AltitudeMeters>421.20001220703125</AltitudeMeters>
            <DistanceMeters>986.45769448217</DistanceMeters>
          </Trackpoint>
          <Trackpoint>
            <Time>2021-04-07T11:50:20.000Z</Time>
            <Position>
              <LatitudeDegrees>42.8196609579026699066162109375</LatitudeDegrees>
              <LongitudeDegrees>-1.6476503200829029083251953125</LongitudeDegrees>
            </Position>
            <AltitudeMeters>421.20001220703125</AltitudeMeters>
            <DistanceMeters>989.77683492235</DistanceMeters>
          </Trackpoint>
          <Trackpoint>
            <Time>2021-04-07T11:50:21.000Z</Time>
            <Position>
              <LatitudeDegrees>42.8196730278432369232177734375</LatitudeDegrees>
              <LongitudeDegrees>-1.647620312869548797607421875</LongitudeDegrees>
            </Position>
            <AltitudeMeters>421.399993896484375</AltitudeMeters>
            <DistanceMeters>992.57003846802</DistanceMeters>
          </Trackpoint>
          <Trackpoint>
            <Time>2021-04-07T11:50:22.000Z</Time>
            <Position>
              <LatitudeDegrees>42.81967847608029842376708984375</LatitudeDegrees>
              <LongitudeDegrees>-1.64758821018040180206298828125</LongitudeDegrees>
            </Position>
            <AltitudeMeters>421.600006103515625</AltitudeMeters>
            <DistanceMeters>995.26115743753</DistanceMeters>
          </Trackpoint>
          <Trackpoint>
            <Time>2021-04-07T11:50:23.000Z</Time>
            <Position>
              <LatitudeDegrees>42.8196837566792964935302734375</LatitudeDegrees>
              <LongitudeDegrees>-1.64755602367222309112548828125</LongitudeDegrees>
            </Position>
            <AltitudeMeters>421.79998779296875</AltitudeMeters>
            <DistanceMeters>997.95562982762</DistanceMeters>
          </Trackpoint>
          <Trackpoint>
            <Time>2021-04-07T11:50:24.000Z</Time>
            <Position>
              <LatitudeDegrees>42.81969607807695865631103515625</LatitudeDegrees>
              <LongitudeDegrees>-1.64751763455569744110107421875</LongitudeDegrees>
            </Position>
            <AltitudeMeters>422</AltitudeMeters>
            <DistanceMeters>1001.3765915449</DistanceMeters>
          </Trackpoint>
          <Trackpoint>
            <Time>2021-04-07T11:50:25.000Z</Time>
            <Position>
              <LatitudeDegrees>42.8197102434933185577392578125</LatitudeDegrees>
              <LongitudeDegrees>-1.6474826820194721221923828125</LongitudeDegrees>
            </Position>
            <AltitudeMeters>422.20001220703125</AltitudeMeters>
            <DistanceMeters>1004.6353290149</DistanceMeters>
          </Trackpoint>
          <Trackpoint>
            <Time>2021-04-07T11:50:26.000Z</Time>
            <Position>
              <LatitudeDegrees>42.8197350539267063140869140625</LatitudeDegrees>
              <LongitudeDegrees>-1.64744454436004161834716796875</LongitudeDegrees>
            </Position>
            <AltitudeMeters>422.399993896484375</AltitudeMeters>
            <DistanceMeters>1008.7948513993</DistanceMeters>
          </Trackpoint>
          <Trackpoint>
            <Time>2021-04-07T11:50:27.000Z</Time>
            <Position>
              <LatitudeDegrees>42.8197498060762882232666015625</LatitudeDegrees>
              <LongitudeDegrees>-1.6474069096148014068603515625</LongitudeDegrees>
            </Position>
            <AltitudeMeters>422.600006103515625</AltitudeMeters>
            <DistanceMeters>1012.2772920182</DistanceMeters>
          </Trackpoint>
          <Trackpoint>
            <Time>2021-04-07T11:50:28.000Z</Time>
            <Position>
              <LatitudeDegrees>42.81975408084690570831298828125</LatitudeDegrees>
              <LongitudeDegrees>-1.6473720408976078033447265625</LongitudeDegrees>
            </Position>
            <AltitudeMeters>422.79998779296875</AltitudeMeters>
            <DistanceMeters>1015.1642905561</DistanceMeters>
          </Trackpoint>
          <Trackpoint>
            <Time>2021-04-07T11:50:29.000Z</Time>
            <Position>
              <LatitudeDegrees>42.819758355617523193359375</LatitudeDegrees>
              <LongitudeDegrees>-1.6473418660461902618408203125</LongitudeDegrees>
            </Position>
            <AltitudeMeters>423</AltitudeMeters>
            <DistanceMeters>1017.6730678044</DistanceMeters>
          </Trackpoint>
          <Trackpoint>
            <Time>2021-04-07T11:50:30.000Z</Time>
            <Position>
              <LatitudeDegrees>42.819766066968441009521484375</LatitudeDegrees>
              <LongitudeDegrees>-1.6473116911947727203369140625</LongitudeDegrees>
            </Position>
            <AltitudeMeters>423.20001220703125</AltitudeMeters>
            <DistanceMeters>1020.2824120973</DistanceMeters>
          </Trackpoint>
          <Trackpoint>
            <Time>2021-04-07T11:50:31.000Z</Time>
            <Position>
              <LatitudeDegrees>42.81977453269064426422119140625</LatitudeDegrees>
              <LongitudeDegrees>-1.64728277362883090972900390625</LongitudeDegrees>
            </Position>
            <AltitudeMeters>423.399993896484375</AltitudeMeters>
            <DistanceMeters>1022.821599877</DistanceMeters>
          </Trackpoint>
          <Trackpoint>
            <Time>2021-04-07T11:50:32.000Z</Time>
            <Position>
              <LatitudeDegrees>42.819786183536052703857421875</LatitudeDegrees>
              <LongitudeDegrees>-1.647248156368732452392578125</LongitudeDegrees>
            </Position>
            <AltitudeMeters>423.600006103515625</AltitudeMeters>
            <DistanceMeters>1025.9285520361</DistanceMeters>
          </Trackpoint>
          <Trackpoint>
            <Time>2021-04-07T11:50:33.000Z</Time>
            <Position>
              <LatitudeDegrees>42.81980319879949092864990234375</LatitudeDegrees>
              <LongitudeDegrees>-1.6472107730805873870849609375</LongitudeDegrees>
            </Position>
            <AltitudeMeters>423.79998779296875</AltitudeMeters>
            <DistanceMeters>1029.5195058317</DistanceMeters>
          </Trackpoint>
          <Trackpoint>
            <Time>2021-04-07T11:50:34.000Z</Time>
            <Position>
              <LatitudeDegrees>42.8198131732642650604248046875</LatitudeDegrees>
              <LongitudeDegrees>-1.64717330597341060638427734375</LongitudeDegrees>
            </Position>
            <AltitudeMeters>424</AltitudeMeters>
            <DistanceMeters>1032.7726965104</DistanceMeters>
          </Trackpoint>
          <Trackpoint>
            <Time>2021-04-07T11:50:35.000Z</Time>
            <Position>
              <LatitudeDegrees>42.81982608139514923095703125</LatitudeDegrees>
              <LongitudeDegrees>-1.64713525213301181793212890625</LongitudeDegrees>
            </Position>
            <AltitudeMeters>424.20001220703125</AltitudeMeters>
            <DistanceMeters>1036.1962968411</DistanceMeters>
          </Trackpoint>
          <Trackpoint>
            <Time>2021-04-07T11:50:36.000Z</Time>
            <Position>
              <LatitudeDegrees>42.8198433481156826019287109375</LatitudeDegrees>
              <LongitudeDegrees>-1.64709820412099361419677734375</LongitudeDegrees>
            </Position>
            <AltitudeMeters>424.399993896484375</AltitudeMeters>
            <DistanceMeters>1039.779698675</DistanceMeters>
          </Trackpoint>
          <Trackpoint>
            <Time>2021-04-07T11:50:37.000Z</Time>
            <Position>
              <LatitudeDegrees>42.81985684297978878021240234375</LatitudeDegrees>
              <LongitudeDegrees>-1.64706165902316570281982421875</LongitudeDegrees>
            </Position>
            <AltitudeMeters>424.600006103515625</AltitudeMeters>
            <DistanceMeters>1043.1191813308</DistanceMeters>
          </Trackpoint>
          <Trackpoint>
            <Time>2021-04-07T11:50:38.000Z</Time>
            <Position>
              <LatitudeDegrees>42.81986807473003864288330078125</LatitudeDegrees>
              <LongitudeDegrees>-1.64702528156340122222900390625</LongitudeDegrees>
            </Position>
            <AltitudeMeters>424.79998779296875</AltitudeMeters>
            <DistanceMeters>1046.3388905968</DistanceMeters>
          </Trackpoint>
          <Trackpoint>
            <Time>2021-04-07T11:50:39.000Z</Time>
            <Position>
              <LatitudeDegrees>42.81987796537578105926513671875</LatitudeDegrees>
              <LongitudeDegrees>-1.6469904966652393341064453125</LongitudeDegrees>
            </Position>
            <AltitudeMeters>425</AltitudeMeters>
            <DistanceMeters>1049.3827135929</DistanceMeters>
          </Trackpoint>
          <Trackpoint>
            <Time>2021-04-07T11:50:40.000Z</Time>
            <Position>
              <LatitudeDegrees>42.81989037059247493743896484375</LatitudeDegrees>
              <LongitudeDegrees>-1.64695839397609233856201171875</LongitudeDegrees>
            </Position>
            <AltitudeMeters>425.20001220703125</AltitudeMeters>
            <DistanceMeters>1052.3453533455</DistanceMeters>
          </Trackpoint>
          <Trackpoint>
            <Time>2021-04-07T11:50:41.000Z</Time>
            <Position>
              <LatitudeDegrees>42.8199053741991519927978515625</LatitudeDegrees>
              <LongitudeDegrees>-1.64692520163953304290771484375</LongitudeDegrees>
            </Position>
            <AltitudeMeters>425.399993896484375</AltitudeMeters>
            <DistanceMeters>1055.5283936798</DistanceMeters>
          </Trackpoint>
          <Trackpoint>
            <Time>2021-04-07T11:50:42.000Z</Time>
            <Position>
              <LatitudeDegrees>42.819913588464260101318359375</LatitudeDegrees>
              <LongitudeDegrees>-1.64689242839813232421875</LongitudeDegrees>
            </Position>
            <AltitudeMeters>425.399993896484375</AltitudeMeters>
            <DistanceMeters>1058.3569353057</DistanceMeters>
          </Trackpoint>
          <Trackpoint>
            <Time>2021-04-07T11:50:43.000Z</Time>
            <Position>
              <LatitudeDegrees>42.81992264091968536376953125</LatitudeDegrees>
              <LongitudeDegrees>-1.64686351083219051361083984375</LongitudeDegrees>
            </Position>
            <AltitudeMeters>425.600006103515625</AltitudeMeters>
            <DistanceMeters>1060.9244157446</DistanceMeters>
          </Trackpoint>
          <Trackpoint>
            <Time>2021-04-07T11:50:44.000Z</Time>
            <Position>
              <LatitudeDegrees>42.8199285082519054412841796875</LatitudeDegrees>
              <LongitudeDegrees>-1.64683409035205841064453125</LongitudeDegrees>
            </Position>
            <AltitudeMeters>425.79998779296875</AltitudeMeters>
            <DistanceMeters>1063.4133175989</DistanceMeters>
          </Trackpoint>
          <Trackpoint>
            <Time>2021-04-07T11:50:45.000Z</Time>
            <Position>
              <LatitudeDegrees>42.81993546523153781890869140625</LatitudeDegrees>
              <LongitudeDegrees>-1.64680718444287776947021484375</LongitudeDegrees>
            </Position>
            <AltitudeMeters>426</AltitudeMeters>
            <DistanceMeters>1065.7409872203</DistanceMeters>
          </Trackpoint>
          <Trackpoint>
            <Time>2021-04-07T11:50:46.000Z</Time>
            <Position>
              <LatitudeDegrees>42.81994342803955078125</LatitudeDegrees>
              <LongitudeDegrees>-1.64677801541984081268310546875</LongitudeDegrees>
            </Position>
            <AltitudeMeters>426.20001220703125</AltitudeMeters>
            <DistanceMeters>1068.2837287986</DistanceMeters>
          </Trackpoint>
          <Trackpoint>
            <Time>2021-04-07T11:50:47.000Z</Time>
            <Position>
              <LatitudeDegrees>42.8199516423046588897705078125</LatitudeDegrees>
              <LongitudeDegrees>-1.64674934931099414825439453125</LongitudeDegrees>
            </Position>
            <AltitudeMeters>426.20001220703125</AltitudeMeters>
            <DistanceMeters>1070.7943050986</DistanceMeters>
          </Trackpoint>
          <Trackpoint>
            <Time>2021-04-07T11:50:48.000Z</Time>
            <Position>
              <LatitudeDegrees>42.81995826400816440582275390625</LatitudeDegrees>
              <LongitudeDegrees>-1.64671850390732288360595703125</LongitudeDegrees>
            </Position>
            <AltitudeMeters>426.399993896484375</AltitudeMeters>
            <DistanceMeters>1073.4174555423</DistanceMeters>
          </Trackpoint>
          <Trackpoint>
            <Time>2021-04-07T11:50:49.000Z</Time>
            <Position>
              <LatitudeDegrees>42.8199697472155094146728515625</LatitudeDegrees>
              <LongitudeDegrees>-1.64668816141784191131591796875</LongitudeDegrees>
            </Position>
            <AltitudeMeters>426.600006103515625</AltitudeMeters>
            <DistanceMeters>1076.2058055594</DistanceMeters>
          </Trackpoint>
          <Trackpoint>
            <Time>2021-04-07T11:50:50.000Z</Time>
            <Position>
              <LatitudeDegrees>42.81998642720282077789306640625</LatitudeDegrees>
              <LongitudeDegrees>-1.64665798656642436981201171875</LongitudeDegrees>
            </Position>
            <AltitudeMeters>426.79998779296875</AltitudeMeters>
            <DistanceMeters>1079.2908826366</DistanceMeters>
          </Trackpoint>
          <Trackpoint>
            <Time>2021-04-07T11:50:51.000Z</Time>
            <Position>
              <LatitudeDegrees>42.819999754428863525390625</LatitudeDegrees>
              <LongitudeDegrees>-1.6466267220675945281982421875</LongitudeDegrees>
            </Position>
            <AltitudeMeters>427.20001220703125</AltitudeMeters>
            <DistanceMeters>1082.241305266</DistanceMeters>
          </Trackpoint>
          <Trackpoint>
            <Time>2021-04-07T11:50:52.000Z</Time>
            <Position>
              <LatitudeDegrees>42.820014171302318572998046875</LatitudeDegrees>
              <LongitudeDegrees>-1.64659612812101840972900390625</LongitudeDegrees>
            </Position>
            <AltitudeMeters>427.399993896484375</AltitudeMeters>
            <DistanceMeters>1085.2130749007</DistanceMeters>
          </Trackpoint>
          <Trackpoint>
            <Time>2021-04-07T11:50:53.000Z</Time>
            <Position>
              <LatitudeDegrees>42.82001995481550693511962890625</LatitudeDegrees>
              <LongitudeDegrees>-1.646562851965427398681640625</LongitudeDegrees>
            </Position>
            <AltitudeMeters>427.600006103515625</AltitudeMeters>
            <DistanceMeters>1088.0062784464</DistanceMeters>
          </Trackpoint>
          <Trackpoint>
            <Time>2021-04-07T11:50:54.000Z</Time>
            <Position>
              <LatitudeDegrees>42.82003127038478851318359375</LatitudeDegrees>
              <LongitudeDegrees>-1.64652387611567974090576171875</LongitudeDegrees>
            </Position>
            <AltitudeMeters>427.79998779296875</AltitudeMeters>
            <DistanceMeters>1091.4285597247</DistanceMeters>
          </Trackpoint>
          <Trackpoint>
            <Time>2021-04-07T11:50:55.000Z</Time>
            <Position>
              <LatitudeDegrees>42.82004199922084808349609375</LatitudeDegrees>
              <LongitudeDegrees>-1.64648381061851978302001953125</LongitudeDegrees>
            </Position>
            <AltitudeMeters>428</AltitudeMeters>
            <DistanceMeters>1094.9097035867</DistanceMeters>
          </Trackpoint>
          <Trackpoint>
            <Time>2021-04-07T11:50:56.000Z</Time>
            <Position>
              <LatitudeDegrees>42.820052392780780792236328125</LatitudeDegrees>
              <LongitudeDegrees>-1.64644542150199413299560546875</LongitudeDegrees>
            </Position>
            <AltitudeMeters>428</AltitudeMeters>
            <DistanceMeters>1098.2505379862</DistanceMeters>
          </Trackpoint>
          <Trackpoint>
            <Time>2021-04-07T11:50:57.000Z</Time>
            <Position>
              <LatitudeDegrees>42.82005817629396915435791015625</LatitudeDegrees>
              <LongitudeDegrees>-1.64640803821384906768798828125</LongitudeDegrees>
            </Position>
            <AltitudeMeters>428.20001220703125</AltitudeMeters>
            <DistanceMeters>1101.3676459814</DistanceMeters>
          </Trackpoint>
          <Trackpoint>
            <Time>2021-04-07T11:50:58.000Z</Time>
            <Position>
              <LatitudeDegrees>42.82006940804421901702880859375</LatitudeDegrees>
              <LongitudeDegrees>-1.6463672183454036712646484375</LongitudeDegrees>
            </Position>
            <AltitudeMeters>428.600006103515625</AltitudeMeters>
            <DistanceMeters>1104.9257588484</DistanceMeters>
          </Trackpoint>
          <Trackpoint>
            <Time>2021-04-07T11:50:59.000Z</Time>
            <Position>
              <LatitudeDegrees>42.8200733475387096405029296875</LatitudeDegrees>
              <LongitudeDegrees>-1.6463291645050048828125</LongitudeDegrees>
            </Position>
            <AltitudeMeters>429</AltitudeMeters>
            <DistanceMeters>1108.0616404226</DistanceMeters>
          </Trackpoint>
          <Trackpoint>
            <Time>2021-04-07T11:51:00.000Z</Time>
            <Position>
              <LatitudeDegrees>42.82007091678678989410400390625</LatitudeDegrees>
              <LongitudeDegrees>-1.6462884284555912017822265625</LongitudeDegrees>
            </Position>
            <AltitudeMeters>429.20001220703125</AltitudeMeters>
            <DistanceMeters>1111.3970645604</DistanceMeters>
          </Trackpoint>
          <Trackpoint>
            <Time>2021-04-07T11:51:01.000Z</Time>
            <Position>
              <LatitudeDegrees>42.820065803825855255126953125</LatitudeDegrees>
              <LongitudeDegrees>-1.64624962024390697479248046875</LongitudeDegrees>
            </Position>
            <AltitudeMeters>429.399993896484375</AltitudeMeters>
            <DistanceMeters>1114.6167738264</DistanceMeters>
          </Trackpoint>
          <Trackpoint>
            <Time>2021-04-07T11:51:02.000Z</Time>
            <Position>
              <LatitudeDegrees>42.82006136141717433929443359375</LatitudeDegrees>
              <LongitudeDegrees>-1.646214164793491363525390625</LongitudeDegrees>
            </Position>
            <AltitudeMeters>429.600006103515625</AltitudeMeters>
            <DistanceMeters>1117.5533914392</DistanceMeters>
          </Trackpoint>
          <Trackpoint>
            <Time>2021-04-07T11:51:03.000Z</Time>
            <Position>
              <LatitudeDegrees>42.82005147077143192291259765625</LatitudeDegrees>
              <LongitudeDegrees>-1.6461821459233760833740234375</LongitudeDegrees>
            </Position>
            <AltitudeMeters>429.600006103515625</AltitudeMeters>
            <DistanceMeters>1120.3883108446</DistanceMeters>
          </Trackpoint>
          <Trackpoint>
            <Time>2021-04-07T11:51:04.000Z</Time>
            <Position>
              <LatitudeDegrees>42.8200411610305309295654296875</LatitudeDegrees>
              <LongitudeDegrees>-1.64615356363356113433837890625</LongitudeDegrees>
            </Position>
            <AltitudeMeters>429.79998779296875</AltitudeMeters>
            <DistanceMeters>1122.9872523946</DistanceMeters>
          </Trackpoint>
          <Trackpoint>
            <Time>2021-04-07T11:51:05.000Z</Time>
            <Position>
              <LatitudeDegrees>42.82002724707126617431640625</LatitudeDegrees>
              <LongitudeDegrees>-1.64612992666661739349365234375</LongitudeDegrees>
            </Position>
            <AltitudeMeters>430</AltitudeMeters>
            <DistanceMeters>1125.4579469682</DistanceMeters>
          </Trackpoint>
          <Trackpoint>
            <Time>2021-04-07T11:51:06.000Z</Time>
            <Position>
              <LatitudeDegrees>42.82001073472201824188232421875</LatitudeDegrees>
              <LongitudeDegrees>-1.646110229194164276123046875</LongitudeDegrees>
            </Position>
            <AltitudeMeters>430.20001220703125</AltitudeMeters>
            <DistanceMeters>1127.8973773067</DistanceMeters>
          </Trackpoint>
          <Trackpoint>
            <Time>2021-04-07T11:51:07.000Z</Time>
            <Position>
              <LatitudeDegrees>42.81999237835407257080078125</LatitudeDegrees>
              <LongitudeDegrees>-1.64609824307262897491455078125</LongitudeDegrees>
            </Position>
            <AltitudeMeters>430.399993896484375</AltitudeMeters>
            <DistanceMeters>1130.1621252883</DistanceMeters>
          </Trackpoint>
          <Trackpoint>
            <Time>2021-04-07T11:51:08.000Z</Time>
            <Position>
              <LatitudeDegrees>42.81997418962419033050537109375</LatitudeDegrees>
              <LongitudeDegrees>-1.6460886038839817047119140625</LongitudeDegrees>
            </Position>
            <AltitudeMeters>430.79998779296875</AltitudeMeters>
            <DistanceMeters>1132.3311503752</DistanceMeters>
          </Trackpoint>
          <Trackpoint>
            <Time>2021-04-07T11:51:09.000Z</Time>
            <Position>
              <LatitudeDegrees>42.8199541568756103515625</LatitudeDegrees>
              <LongitudeDegrees>-1.64608047343790531158447265625</LongitudeDegrees>
            </Position>
            <AltitudeMeters>430.79998779296875</AltitudeMeters>
            <DistanceMeters>1134.6588199966</DistanceMeters>
          </Trackpoint>
          <Trackpoint>
            <Time>2021-04-07T11:51:10.000Z</Time>
            <Position>
              <LatitudeDegrees>42.8199352137744426727294921875</LatitudeDegrees>
              <LongitudeDegrees>-1.64607360027730464935302734375</LongitudeDegrees>
            </Position>
            <AltitudeMeters>431</AltitudeMeters>
            <DistanceMeters>1136.8382282212</DistanceMeters>
          </Trackpoint>
          <Trackpoint>
            <Time>2021-04-07T11:51:11.000Z</Time>
            <Position>
              <LatitudeDegrees>42.81991266645491123199462890625</LatitudeDegrees>
              <LongitudeDegrees>-1.64606672711670398712158203125</LongitudeDegrees>
            </Position>
            <AltitudeMeters>431.20001220703125</AltitudeMeters>
            <DistanceMeters>1139.4109788957</DistanceMeters>
          </Trackpoint>
          <Trackpoint>
            <Time>2021-04-07T11:51:12.000Z</Time>
            <Position>
              <LatitudeDegrees>42.81989087350666522979736328125</LatitudeDegrees>
              <LongitudeDegrees>-1.64606002159416675567626953125</LongitudeDegrees>
            </Position>
            <AltitudeMeters>431.399993896484375</AltitudeMeters>
            <DistanceMeters>1141.896249965</DistanceMeters>
          </Trackpoint>
          <Trackpoint>
            <Time>2021-04-07T11:51:13.000Z</Time>
            <Position>
              <LatitudeDegrees>42.8198684938251972198486328125</LatitudeDegrees>
              <LongitudeDegrees>-1.64605415426194667816162109375</LongitudeDegrees>
            </Position>
            <AltitudeMeters>431.600006103515625</AltitudeMeters>
            <DistanceMeters>1144.4318789655</DistanceMeters>
          </Trackpoint>
          <Trackpoint>
            <Time>2021-04-07T11:51:14.000Z</Time>
            <Position>
              <LatitudeDegrees>42.81984795816242694854736328125</LatitudeDegrees>
              <LongitudeDegrees>-1.64604610763490200042724609375</LongitudeDegrees>
            </Position>
            <AltitudeMeters>431.79998779296875</AltitudeMeters>
            <DistanceMeters>1146.8094465994</DistanceMeters>
          </Trackpoint>
          <Trackpoint>
            <Time>2021-04-07T11:51:15.000Z</Time>
            <Position>
              <LatitudeDegrees>42.81982951797544956207275390625</LatitudeDegrees>
              <LongitudeDegrees>-1.64604526944458484649658203125</LongitudeDegrees>
            </Position>
            <AltitudeMeters>432.20001220703125</AltitudeMeters>
            <DistanceMeters>1148.8651887466</DistanceMeters>
          </Trackpoint>
          <Trackpoint>
            <Time>2021-04-07T11:51:16.000Z</Time>
            <Position>
              <LatitudeDegrees>42.81980621628463268280029296875</LatitudeDegrees>
              <LongitudeDegrees>-1.64604141376912593841552734375</LongitudeDegrees>
            </Position>
            <AltitudeMeters>432.399993896484375</AltitudeMeters>
            <DistanceMeters>1151.4762628005</DistanceMeters>
          </Trackpoint>
          <Trackpoint>
            <Time>2021-04-07T11:51:17.000Z</Time>
            <Position>
              <LatitudeDegrees>42.8197843395173549652099609375</LatitudeDegrees>
              <LongitudeDegrees>-1.64604007266461849212646484375</LongitudeDegrees>
            </Position>
            <AltitudeMeters>432.79998779296875</AltitudeMeters>
            <DistanceMeters>1153.9138415788</DistanceMeters>
          </Trackpoint>
          <Trackpoint>
            <Time>2021-04-07T11:51:18.000Z</Time>
            <Position>
              <LatitudeDegrees>42.8197635523974895477294921875</LatitudeDegrees>
              <LongitudeDegrees>-1.64603588171303272247314453125</LongitudeDegrees>
            </Position>
            <AltitudeMeters>432.79998779296875</AltitudeMeters>
            <DistanceMeters>1156.253120597</DistanceMeters>
          </Trackpoint>
          <Trackpoint>
            <Time>2021-04-07T11:51:19.000Z</Time>
            <Position>
              <LatitudeDegrees>42.81974293291568756103515625</LatitudeDegrees>
              <LongitudeDegrees>-1.64603236131370067596435546875</LongitudeDegrees>
            </Position>
            <AltitudeMeters>433</AltitudeMeters>
            <DistanceMeters>1158.5671723102</DistanceMeters>
          </Trackpoint>
          <Trackpoint>
            <Time>2021-04-07T11:51:20.000Z</Time>
            <Position>
              <LatitudeDegrees>42.8197186253964900970458984375</LatitudeDegrees>
              <LongitudeDegrees>-1.64602381177246570587158203125</LongitudeDegrees>
            </Position>
            <AltitudeMeters>433.20001220703125</AltitudeMeters>
            <DistanceMeters>1161.3603758558</DistanceMeters>
          </Trackpoint>
          <Trackpoint>
            <Time>2021-04-07T11:51:21.000Z</Time>
            <Position>
              <LatitudeDegrees>42.81969691626727581024169921875</LatitudeDegrees>
              <LongitudeDegrees>-1.6460166871547698974609375</LongitudeDegrees>
            </Position>
            <AltitudeMeters>433.399993896484375</AltitudeMeters>
            <DistanceMeters>1163.8456469251</DistanceMeters>
          </Trackpoint>
          <Trackpoint>
            <Time>2021-04-07T11:51:22.000Z</Time>
            <Position>
              <LatitudeDegrees>42.81967411749064922332763671875</LatitudeDegrees>
              <LongitudeDegrees>-1.64600520394742488861083984375</LongitudeDegrees>
            </Position>
            <AltitudeMeters>433.79998779296875</AltitudeMeters>
            <DistanceMeters>1166.5501546288</DistanceMeters>
          </Trackpoint>
          <Trackpoint>
            <Time>2021-04-07T11:51:23.000Z</Time>
            <Position>
              <LatitudeDegrees>42.819656766951084136962890625</LatitudeDegrees>
              <LongitudeDegrees>-1.64600587449967861175537109375</LongitudeDegrees>
            </Position>
            <AltitudeMeters>434</AltitudeMeters>
            <DistanceMeters>1168.483662231</DistanceMeters>
          </Trackpoint>
          <Trackpoint>
            <Time>2021-04-07T11:51:24.000Z</Time>
            <Position>
              <LatitudeDegrees>42.81963891349732875823974609375</LatitudeDegrees>
              <LongitudeDegrees>-1.64600134827196598052978515625</LongitudeDegrees>
            </Position>
            <AltitudeMeters>434.20001220703125</AltitudeMeters>
            <DistanceMeters>1170.5039578908</DistanceMeters>
          </Trackpoint>
          <Trackpoint>
            <Time>2021-04-07T11:51:25.000Z</Time>
            <Position>
              <LatitudeDegrees>42.81962114386260509490966796875</LatitudeDegrees>
              <LongitudeDegrees>-1.64599464274942874908447265625</LongitudeDegrees>
            </Position>
            <AltitudeMeters>434.399993896484375</AltitudeMeters>
            <DistanceMeters>1172.5553027235</DistanceMeters>
          </Trackpoint>
          <Trackpoint>
            <Time>2021-04-07T11:51:26.000Z</Time>
            <Position>
              <LatitudeDegrees>42.8196068108081817626953125</LatitudeDegrees>
              <LongitudeDegrees>-1.64597821421921253204345703125</LongitudeDegrees>
            </Position>
            <AltitudeMeters>434.600006103515625</AltitudeMeters>
            <DistanceMeters>1174.6415665721</DistanceMeters>
          </Trackpoint>
          <Trackpoint>
            <Time>2021-04-07T11:51:27.000Z</Time>
            <Position>
              <LatitudeDegrees>42.81959800980985164642333984375</LatitudeDegrees>
              <LongitudeDegrees>-1.64596044458448886871337890625</LongitudeDegrees>
            </Position>
            <AltitudeMeters>435</AltitudeMeters>
            <DistanceMeters>1176.3911939366</DistanceMeters>
          </Trackpoint>
          <Trackpoint>
            <Time>2021-04-07T11:51:28.000Z</Time>
            <Position>
              <LatitudeDegrees>42.8195784799754619598388671875</LatitudeDegrees>
              <LongitudeDegrees>-1.64594535715878009796142578125</LongitudeDegrees>
            </Position>
            <AltitudeMeters>435</AltitudeMeters>
            <DistanceMeters>1178.8891496653</DistanceMeters>
          </Trackpoint>
          <Trackpoint>
            <Time>2021-04-07T11:51:29.000Z</Time>
            <Position>
              <LatitudeDegrees>42.8195610456168651580810546875</LatitudeDegrees>
              <LongitudeDegrees>-1.64593244902789592742919921875</LongitudeDegrees>
            </Position>
            <AltitudeMeters>435.20001220703125</AltitudeMeters>
            <DistanceMeters>1181.0973709585</DistanceMeters>
          </Trackpoint>
          <Trackpoint>
            <Time>2021-04-07T11:51:30.000Z</Time>
            <Position>
              <LatitudeDegrees>42.8195281885564327239990234375</LatitudeDegrees>
              <LongitudeDegrees>-1.6459283418953418731689453125</LongitudeDegrees>
            </Position>
            <AltitudeMeters>435.399993896484375</AltitudeMeters>
            <DistanceMeters>1184.7691422111</DistanceMeters>
          </Trackpoint>
          <Trackpoint>
            <Time>2021-04-07T11:51:31.000Z</Time>
            <Position>
              <LatitudeDegrees>42.81949751079082489013671875</LatitudeDegrees>
              <LongitudeDegrees>-1.64592607878148555755615234375</LongitudeDegrees>
            </Position>
            <AltitudeMeters>435.600006103515625</AltitudeMeters>
            <DistanceMeters>1188.1887838582</DistanceMeters>
          </Trackpoint>
          <Trackpoint>
            <Time>2021-04-07T11:51:32.000Z</Time>
            <Position>
              <LatitudeDegrees>42.81947177834808826446533203125</LatitudeDegrees>
              <LongitudeDegrees>-1.64592557586729526519775390625</LongitudeDegrees>
            </Position>
            <AltitudeMeters>435.79998779296875</AltitudeMeters>
            <DistanceMeters>1191.0522274863</DistanceMeters>
          </Trackpoint>
          <Trackpoint>
            <Time>2021-04-07T11:51:33.000Z</Time>
            <Position>
              <LatitudeDegrees>42.819446213543415069580078125</LatitudeDegrees>
              <LongitudeDegrees>-1.645919792354106903076171875</LongitudeDegrees>
            </Position>
            <AltitudeMeters>436</AltitudeMeters>
            <DistanceMeters>1193.9376616791</DistanceMeters>
          </Trackpoint>
          <Trackpoint>
            <Time>2021-04-07T11:51:34.000Z</Time>
            <Position>
              <LatitudeDegrees>42.8194249235093593597412109375</LatitudeDegrees>
              <LongitudeDegrees>-1.6459122486412525177001953125</LongitudeDegrees>
            </Position>
            <AltitudeMeters>436.20001220703125</AltitudeMeters>
            <DistanceMeters>1196.3863288184</DistanceMeters>
          </Trackpoint>
          <Trackpoint>
            <Time>2021-04-07T11:51:35.000Z</Time>
            <Position>
              <LatitudeDegrees>42.81940137036144733428955078125</LatitudeDegrees>
              <LongitudeDegrees>-1.645908057689666748046875</LongitudeDegrees>
            </Position>
            <AltitudeMeters>436.399993896484375</AltitudeMeters>
            <DistanceMeters>1199.0300533062</DistanceMeters>
          </Trackpoint>
          <Trackpoint>
            <Time>2021-04-07T11:51:36.000Z</Time>
            <Position>
              <LatitudeDegrees>42.81938485801219940185546875</LatitudeDegrees>
              <LongitudeDegrees>-1.64589724503457546234130859375</LongitudeDegrees>
            </Position>
            <AltitudeMeters>436.600006103515625</AltitudeMeters>
            <DistanceMeters>1201.0681492716</DistanceMeters>
          </Trackpoint>
          <Trackpoint>
            <Time>2021-04-07T11:51:37.000Z</Time>
            <Position>
              <LatitudeDegrees>42.81936717219650745391845703125</LatitudeDegrees>
              <LongitudeDegrees>-1.6458840854465961456298828125</LongitudeDegrees>
            </Position>
            <AltitudeMeters>436.79998779296875</AltitudeMeters>
            <DistanceMeters>1203.3128725632</DistanceMeters>
          </Trackpoint>
          <Trackpoint>
            <Time>2021-04-07T11:51:38.000Z</Time>
            <Position>
              <LatitudeDegrees>42.8193471394479274749755859375</LatitudeDegrees>
              <LongitudeDegrees>-1.64587545208632946014404296875</LongitudeDegrees>
            </Position>
            <AltitudeMeters>436.79998779296875</AltitudeMeters>
            <DistanceMeters>1205.6502206863</DistanceMeters>
          </Trackpoint>
          <Trackpoint>
            <Time>2021-04-07T11:51:39.000Z</Time>
            <Position>
              <LatitudeDegrees>42.81932878307998180389404296875</LatitudeDegrees>
              <LongitudeDegrees>-1.64586589671671390533447265625</LongitudeDegrees>
            </Position>
            <AltitudeMeters>437</AltitudeMeters>
            <DistanceMeters>1207.8337683415</DistanceMeters>
          </Trackpoint>
          <Trackpoint>
            <Time>2021-04-07T11:51:40.000Z</Time>
            <Position>
              <LatitudeDegrees>42.81931243836879730224609375</LatitudeDegrees>
              <LongitudeDegrees>-1.6458555869758129119873046875</LongitudeDegrees>
            </Position>
            <AltitudeMeters>437.20001220703125</AltitudeMeters>
            <DistanceMeters>1209.8361054612</DistanceMeters>
          </Trackpoint>
          <Trackpoint>
            <Time>2021-04-07T11:51:41.000Z</Time>
            <Position>
              <LatitudeDegrees>42.81930028460919857025146484375</LatitudeDegrees>
              <LongitudeDegrees>-1.6458465345203876495361328125</LongitudeDegrees>
            </Position>
            <AltitudeMeters>437.20001220703125</AltitudeMeters>
            <DistanceMeters>1211.3742472064</DistanceMeters>
          </Trackpoint>
          <Trackpoint>
            <Time>2021-04-07T11:51:42.000Z</Time>
            <Position>
              <LatitudeDegrees>42.81928536482155323028564453125</LatitudeDegrees>
              <LongitudeDegrees>-1.64583764970302581787109375</LongitudeDegrees>
            </Position>
            <AltitudeMeters>437.399993896484375</AltitudeMeters>
            <DistanceMeters>1213.1847492774</DistanceMeters>
          </Trackpoint>
          <Trackpoint>
            <Time>2021-04-07T11:51:43.000Z</Time>
            <Position>
              <LatitudeDegrees>42.81927488744258880615234375</LatitudeDegrees>
              <LongitudeDegrees>-1.64584091864526271820068359375</LongitudeDegrees>
            </Position>
            <AltitudeMeters>437.600006103515625</AltitudeMeters>
            <DistanceMeters>1214.3792165554</DistanceMeters>
          </Trackpoint>
          <Trackpoint>
            <Time>2021-04-07T11:51:44.000Z</Time>
            <Position>
              <LatitudeDegrees>42.81926390714943408966064453125</LatitudeDegrees>
              <LongitudeDegrees>-1.6458421759307384490966796875</LongitudeDegrees>
            </Position>
            <AltitudeMeters>437.600006103515625</AltitudeMeters>
            <DistanceMeters>1215.603550125</DistanceMeters>
          </Trackpoint>
          <Trackpoint>
            <Time>2021-04-07T11:51:45.000Z</Time>
            <Position>
              <LatitudeDegrees>42.81925183720886707305908203125</LatitudeDegrees>
              <LongitudeDegrees>-1.64584712125360965728759765625</LongitudeDegrees>
            </Position>
            <AltitudeMeters>437.79998779296875</AltitudeMeters>
            <DistanceMeters>1217.0066027487</DistanceMeters>
          </Trackpoint>
          <Trackpoint>
            <Time>2021-04-07T11:51:46.000Z</Time>
            <Position>
              <LatitudeDegrees>42.8192354924976825714111328125</LatitudeDegrees>
              <LongitudeDegrees>-1.645837984979152679443359375</LongitudeDegrees>
            </Position>
            <AltitudeMeters>437.79998779296875</AltitudeMeters>
            <DistanceMeters>1218.9725307021</DistanceMeters>
          </Trackpoint>
          <Trackpoint>
            <Time>2021-04-07T11:51:47.000Z</Time>
            <Position>
              <LatitudeDegrees>42.81922149471938610076904296875</LatitudeDegrees>
              <LongitudeDegrees>-1.64582666940987110137939453125</LongitudeDegrees>
            </Position>
            <AltitudeMeters>438</AltitudeMeters>
            <DistanceMeters>1220.7830327731</DistanceMeters>
          </Trackpoint>
          <Trackpoint>
            <Time>2021-04-07T11:51:48.000Z</Time>
            <Position>
              <LatitudeDegrees>42.81920783221721649169921875</LatitudeDegrees>
              <LongitudeDegrees>-1.64581426419317722320556640625</LongitudeDegrees>
            </Position>
            <AltitudeMeters>438</AltitudeMeters>
            <DistanceMeters>1222.6109081201</DistanceMeters>
          </Trackpoint>
          <Trackpoint>
            <Time>2021-04-07T11:51:49.000Z</Time>
            <Position>
              <LatitudeDegrees>42.81920271925628185272216796875</LatitudeDegrees>
              <LongitudeDegrees>-1.6458036191761493682861328125</LongitudeDegrees>
            </Position>
            <AltitudeMeters>438</AltitudeMeters>
            <DistanceMeters>1223.6475271904</DistanceMeters>
          </Trackpoint>
          <Trackpoint>
            <Time>2021-04-07T11:51:50.000Z</Time>
            <Position>
              <LatitudeDegrees>42.81919844448566436767578125</LatitudeDegrees>
              <LongitudeDegrees>-1.645786352455615997314453125</LongitudeDegrees>
            </Position>
            <AltitudeMeters>438.20001220703125</AltitudeMeters>
            <DistanceMeters>1225.1318919206</DistanceMeters>
          </Trackpoint>
          <Trackpoint>
            <Time>2021-04-07T11:51:51.000Z</Time>
            <Position>
              <LatitudeDegrees>42.81918109394609928131103515625</LatitudeDegrees>
              <LongitudeDegrees>-1.64574553258717060089111328125</LongitudeDegrees>
            </Position>
            <AltitudeMeters>438.20001220703125</AltitudeMeters>
            <DistanceMeters>1228.9836987171</DistanceMeters>
          </Trackpoint>
          <Trackpoint>
            <Time>2021-04-07T11:51:52.000Z</Time>
            <Position>
              <LatitudeDegrees>42.8191587142646312713623046875</LatitudeDegrees>
              <LongitudeDegrees>-1.645711250603199005126953125</LongitudeDegrees>
            </Position>
            <AltitudeMeters>438.399993896484375</AltitudeMeters>
            <DistanceMeters>1232.7297284546</DistanceMeters>
          </Trackpoint>
          <Trackpoint>
            <Time>2021-04-07T11:51:53.000Z</Time>
            <Position>
              <LatitudeDegrees>42.81913231126964092254638671875</LatitudeDegrees>
              <LongitudeDegrees>-1.64567470550537109375</LongitudeDegrees>
            </Position>
            <AltitudeMeters>438.600006103515625</AltitudeMeters>
            <DistanceMeters>1236.9173779688</DistanceMeters>
          </Trackpoint>
          <Trackpoint>
            <Time>2021-04-07T11:51:54.000Z</Time>
            <Position>
              <LatitudeDegrees>42.8191037289798259735107421875</LatitudeDegrees>
              <LongitudeDegrees>-1.64563740603625774383544921875</LongitudeDegrees>
            </Position>
            <AltitudeMeters>438.79998779296875</AltitudeMeters>
            <DistanceMeters>1241.3215355729</DistanceMeters>
          </Trackpoint>
          <Trackpoint>
            <Time>2021-04-07T11:51:55.000Z</Time>
            <Position>
              <LatitudeDegrees>42.8190785832703113555908203125</LatitudeDegrees>
              <LongitudeDegrees>-1.645606644451618194580078125</LongitudeDegrees>
            </Position>
            <AltitudeMeters>439</AltitudeMeters>
            <DistanceMeters>1245.0808000801</DistanceMeters>
          </Trackpoint>
          <Trackpoint>
            <Time>2021-04-07T11:51:56.000Z</Time>
            <Position>
              <LatitudeDegrees>42.81906701624393463134765625</LatitudeDegrees>
              <LongitudeDegrees>-1.6455781459808349609375</LongitudeDegrees>
            </Position>
            <AltitudeMeters>439</AltitudeMeters>
            <DistanceMeters>1247.738152104</DistanceMeters>
          </Trackpoint>
          <Trackpoint>
            <Time>2021-04-07T11:51:57.000Z</Time>
            <Position>
              <LatitudeDegrees>42.81904782168567180633544921875</LatitudeDegrees>
              <LongitudeDegrees>-1.645545624196529388427734375</LongitudeDegrees>
            </Position>
            <AltitudeMeters>439</AltitudeMeters>
            <DistanceMeters>1251.1458901084</DistanceMeters>
          </Trackpoint>
          <Trackpoint>
            <Time>2021-04-07T11:51:58.000Z</Time>
            <Position>
              <LatitudeDegrees>42.81902267597615718841552734375</LatitudeDegrees>
              <LongitudeDegrees>-1.64551134221255779266357421875</LongitudeDegrees>
            </Position>
            <AltitudeMeters>439.20001220703125</AltitudeMeters>
            <DistanceMeters>1255.1040693149</DistanceMeters>
          </Trackpoint>
          <Trackpoint>
            <Time>2021-04-07T11:51:59.000Z</Time>
            <Position>
              <LatitudeDegrees>42.81899836845695972442626953125</LatitudeDegrees>
              <LongitudeDegrees>-1.64548066444694995880126953125</LongitudeDegrees>
            </Position>
            <AltitudeMeters>439.600006103515625</AltitudeMeters>
            <DistanceMeters>1258.7905669818</DistanceMeters>
          </Trackpoint>
          <Trackpoint>
            <Time>2021-04-07T11:52:00.000Z</Time>
            <Position>
              <LatitudeDegrees>42.818985544145107269287109375</LatitudeDegrees>
              <LongitudeDegrees>-1.64545400999486446380615234375</LongitudeDegrees>
            </Position>
            <AltitudeMeters>439.79998779296875</AltitudeMeters>
            <DistanceMeters>1261.3929807331</DistanceMeters>
          </Trackpoint>
          <Trackpoint>
            <Time>2021-04-07T11:52:01.000Z</Time>
            <Position>
              <LatitudeDegrees>42.8189699538052082061767578125</LatitudeDegrees>
              <LongitudeDegrees>-1.6454266011714935302734375</LongitudeDegrees>
            </Position>
            <AltitudeMeters>439.79998779296875</AltitudeMeters>
            <DistanceMeters>1264.2279001385</DistanceMeters>
          </Trackpoint>
          <Trackpoint>
            <Time>2021-04-07T11:52:02.000Z</Time>
            <Position>
              <LatitudeDegrees>42.81894573010504245758056640625</LatitudeDegrees>
              <LongitudeDegrees>-1.64539500139653682708740234375</LongitudeDegrees>
            </Position>
            <AltitudeMeters>440</AltitudeMeters>
            <DistanceMeters>1267.9594384107</DistanceMeters>
          </Trackpoint>
          <Trackpoint>
            <Time>2021-04-07T11:52:03.000Z</Time>
            <Position>
              <LatitudeDegrees>42.8189297206699848175048828125</LatitudeDegrees>
              <LongitudeDegrees>-1.64535862393677234649658203125</LongitudeDegrees>
            </Position>
            <AltitudeMeters>440</AltitudeMeters>
            <DistanceMeters>1271.4223766887</DistanceMeters>
          </Trackpoint>
          <Trackpoint>
            <Time>2021-04-07T11:52:04.000Z</Time>
            <Position>
              <LatitudeDegrees>42.81890985555946826934814453125</LatitudeDegrees>
              <LongitudeDegrees>-1.645318306982517242431640625</LongitudeDegrees>
            </Position>
            <AltitudeMeters>440</AltitudeMeters>
            <DistanceMeters>1275.3885326571</DistanceMeters>
          </Trackpoint>
          <Trackpoint>
            <Time>2021-04-07T11:52:05.000Z</Time>
            <Position>
              <LatitudeDegrees>42.8188844583928585052490234375</LatitudeDegrees>
              <LongitudeDegrees>-1.645277403295040130615234375</LongitudeDegrees>
            </Position>
            <AltitudeMeters>440</AltitudeMeters>
            <DistanceMeters>1279.7638911637</DistanceMeters>
          </Trackpoint>
          <Trackpoint>
            <Time>2021-04-07T11:52:06.000Z</Time>
            <Position>
              <LatitudeDegrees>42.81886853277683258056640625</LatitudeDegrees>
              <LongitudeDegrees>-1.64524513296782970428466796875</LongitudeDegrees>
            </Position>
            <AltitudeMeters>439.79998779296875</AltitudeMeters>
            <DistanceMeters>1282.9412525634</DistanceMeters>
          </Trackpoint>
          <Trackpoint>
            <Time>2021-04-07T11:52:07.000Z</Time>
            <Position>
              <LatitudeDegrees>42.8188505955040454864501953125</LatitudeDegrees>
              <LongitudeDegrees>-1.6452148742973804473876953125</LongitudeDegrees>
            </Position>
            <AltitudeMeters>440</AltitudeMeters>
            <DistanceMeters>1286.1186139631</DistanceMeters>
          </Trackpoint>
          <Trackpoint>
            <Time>2021-04-07T11:52:08.000Z</Time>
            <Position>
              <LatitudeDegrees>42.81883559189736843109130859375</LatitudeDegrees>
              <LongitudeDegrees>-1.64519182406365871429443359375</LongitudeDegrees>
            </Position>
            <AltitudeMeters>439.79998779296875</AltitudeMeters>
            <DistanceMeters>1288.6327845044</DistanceMeters>
          </Trackpoint>
          <Trackpoint>
            <Time>2021-04-07T11:52:09.000Z</Time>
            <Position>
              <LatitudeDegrees>42.8188247792422771453857421875</LatitudeDegrees>
              <LongitudeDegrees>-1.64516869001090526580810546875</LongitudeDegrees>
            </Position>
            <AltitudeMeters>440</AltitudeMeters>
            <DistanceMeters>1290.8714654612</DistanceMeters>
          </Trackpoint>
          <Trackpoint>
            <Time>2021-04-07T11:52:10.000Z</Time>
            <Position>
              <LatitudeDegrees>42.81880273483693599700927734375</LatitudeDegrees>
              <LongitudeDegrees>-1.6451317258179187774658203125</LongitudeDegrees>
            </Position>
            <AltitudeMeters>440</AltitudeMeters>
            <DistanceMeters>1294.7594402511</DistanceMeters>
          </Trackpoint>
          <Trackpoint>
            <Time>2021-04-07T11:52:11.000Z</Time>
            <Position>
              <LatitudeDegrees>42.81877775676548480987548828125</LatitudeDegrees>
              <LongitudeDegrees>-1.6450891457498073577880859375</LongitudeDegrees>
            </Position>
            <AltitudeMeters>440.399993896484375</AltitudeMeters>
            <DistanceMeters>1299.2105061592</DistanceMeters>
          </Trackpoint>
          <Trackpoint>
            <Time>2021-04-07T11:52:12.000Z</Time>
            <Position>
              <LatitudeDegrees>42.81875361688435077667236328125</LatitudeDegrees>
              <LongitudeDegrees>-1.64505067281424999237060546875</LongitudeDegrees>
            </Position>
            <AltitudeMeters>440.399993896484375</AltitudeMeters>
            <DistanceMeters>1303.34389516</DistanceMeters>
          </Trackpoint>
          <Trackpoint>
            <Time>2021-04-07T11:52:13.000Z</Time>
            <Position>
              <LatitudeDegrees>42.818723022937774658203125</LatitudeDegrees>
              <LongitudeDegrees>-1.64501530118286609649658203125</LongitudeDegrees>
            </Position>
            <AltitudeMeters>440.600006103515625</AltitudeMeters>
            <DistanceMeters>1307.8071169375</DistanceMeters>
          </Trackpoint>
          <Trackpoint>
            <Time>2021-04-07T11:52:14.000Z</Time>
            <Position>
              <LatitudeDegrees>42.81869997270405292510986328125</LatitudeDegrees>
              <LongitudeDegrees>-1.6449687816202640533447265625</LongitudeDegrees>
            </Position>
            <AltitudeMeters>440.600006103515625</AltitudeMeters>
            <DistanceMeters>1312.3901244445</DistanceMeters>
          </Trackpoint>
          <Trackpoint>
            <Time>2021-04-07T11:52:15.000Z</Time>
            <Position>
              <LatitudeDegrees>42.8186869807541370391845703125</LatitudeDegrees>
              <LongitudeDegrees>-1.64492293260991573333740234375</LongitudeDegrees>
            </Position>
            <AltitudeMeters>440.600006103515625</AltitudeMeters>
            <DistanceMeters>1316.4038080862</DistanceMeters>
          </Trackpoint>
          <Trackpoint>
            <Time>2021-04-07T11:52:16.000Z</Time>
            <Position>
              <LatitudeDegrees>42.81867482699453830718994140625</LatitudeDegrees>
              <LongitudeDegrees>-1.64488035254180431365966796875</LongitudeDegrees>
            </Position>
            <AltitudeMeters>440.600006103515625</AltitudeMeters>
            <DistanceMeters>1320.1341361951</DistanceMeters>
          </Trackpoint>
          <Trackpoint>
            <Time>2021-04-07T11:52:17.000Z</Time>
            <Position>
              <LatitudeDegrees>42.8186547942459583282470703125</LatitudeDegrees>
              <LongitudeDegrees>-1.64484322071075439453125</LongitudeDegrees>
            </Position>
            <AltitudeMeters>440.79998779296875</AltitudeMeters>
            <DistanceMeters>1323.8970021061</DistanceMeters>
          </Trackpoint>
          <Trackpoint>
            <Time>2021-04-07T11:52:18.000Z</Time>
            <Position>
              <LatitudeDegrees>42.81863710843026638031005859375</LatitudeDegrees>
              <LongitudeDegrees>-1.64480742998421192169189453125</LongitudeDegrees>
            </Position>
            <AltitudeMeters>440.79998779296875</AltitudeMeters>
            <DistanceMeters>1327.4194054098</DistanceMeters>
          </Trackpoint>
          <Trackpoint>
            <Time>2021-04-07T11:52:19.000Z</Time>
            <Position>
              <LatitudeDegrees>42.81862537376582622528076171875</LatitudeDegrees>
              <LongitudeDegrees>-1.6447733156383037567138671875</LongitudeDegrees>
            </Position>
            <AltitudeMeters>441</AltitudeMeters>
            <DistanceMeters>1330.4956889002</DistanceMeters>
          </Trackpoint>
          <Trackpoint>
            <Time>2021-04-07T11:52:20.000Z</Time>
            <Position>
              <LatitudeDegrees>42.81861062161624431610107421875</LatitudeDegrees>
              <LongitudeDegrees>-1.6447407938539981842041015625</LongitudeDegrees>
            </Position>
            <AltitudeMeters>441.20001220703125</AltitudeMeters>
            <DistanceMeters>1333.6185854018</DistanceMeters>
          </Trackpoint>
          <Trackpoint>
            <Time>2021-04-07T11:52:21.000Z</Time>
            <Position>
              <LatitudeDegrees>42.8185934387147426605224609375</LatitudeDegrees>
              <LongitudeDegrees>-1.6447112895548343658447265625</LongitudeDegrees>
            </Position>
            <AltitudeMeters>441.20001220703125</AltitudeMeters>
            <DistanceMeters>1336.6948688922</DistanceMeters>
          </Trackpoint>
          <Trackpoint>
            <Time>2021-04-07T11:52:22.000Z</Time>
            <Position>
              <LatitudeDegrees>42.81857575289905071258544921875</LatitudeDegrees>
              <LongitudeDegrees>-1.6446836292743682861328125</LongitudeDegrees>
            </Position>
            <AltitudeMeters>441.399993896484375</AltitudeMeters>
            <DistanceMeters>1339.6908488629</DistanceMeters>
          </Trackpoint>
          <Trackpoint>
            <Time>2021-04-07T11:52:23.000Z</Time>
            <Position>
              <LatitudeDegrees>42.81856678426265716552734375</LatitudeDegrees>
              <LongitudeDegrees>-1.64465655572712421417236328125</LongitudeDegrees>
            </Position>
            <AltitudeMeters>441.600006103515625</AltitudeMeters>
            <DistanceMeters>1342.1154271283</DistanceMeters>
          </Trackpoint>
          <Trackpoint>
            <Time>2021-04-07T11:52:24.000Z</Time>
            <Position>
              <LatitudeDegrees>42.81855479814112186431884765625</LatitudeDegrees>
              <LongitudeDegrees>-1.6446304880082607269287109375</LongitudeDegrees>
            </Position>
            <AltitudeMeters>442.20001220703125</AltitudeMeters>
            <DistanceMeters>1344.6278011917</DistanceMeters>
          </Trackpoint>
          <Trackpoint>
            <Time>2021-04-07T11:52:25.000Z</Time>
            <Position>
              <LatitudeDegrees>42.81854105181992053985595703125</LatitudeDegrees>
              <LongitudeDegrees>-1.64460274390876293182373046875</LongitudeDegrees>
            </Position>
            <AltitudeMeters>442.600006103515625</AltitudeMeters>
            <DistanceMeters>1347.3621938657</DistanceMeters>
          </Trackpoint>
          <Trackpoint>
            <Time>2021-04-07T11:52:26.000Z</Time>
            <Position>
              <LatitudeDegrees>42.8185273893177509307861328125</LatitudeDegrees>
              <LongitudeDegrees>-1.6445748321712017059326171875</LongitudeDegrees>
            </Position>
            <AltitudeMeters>442.79998779296875</AltitudeMeters>
            <DistanceMeters>1350.1031833953</DistanceMeters>
          </Trackpoint>
          <Trackpoint>
            <Time>2021-04-07T11:52:27.000Z</Time>
            <Position>
              <LatitudeDegrees>42.81850651837885379791259765625</LatitudeDegrees>
              <LongitudeDegrees>-1.64456435479223728179931640625</LongitudeDegrees>
            </Position>
            <AltitudeMeters>443</AltitudeMeters>
            <DistanceMeters>1352.5775301432</DistanceMeters>
          </Trackpoint>
          <Trackpoint>
            <Time>2021-04-07T11:52:28.000Z</Time>
            <Position>
              <LatitudeDegrees>42.81849578954279422760009765625</LatitudeDegrees>
              <LongitudeDegrees>-1.64454281330108642578125</LongitudeDegrees>
            </Position>
            <AltitudeMeters>443.20001220703125</AltitudeMeters>
            <DistanceMeters>1354.7023920733</DistanceMeters>
          </Trackpoint>
          <Trackpoint>
            <Time>2021-04-07T11:52:29.000Z</Time>
            <Position>
              <LatitudeDegrees>42.81850048340857028961181640625</LatitudeDegrees>
              <LongitudeDegrees>-1.644501574337482452392578125</LongitudeDegrees>
            </Position>
            <AltitudeMeters>443.399993896484375</AltitudeMeters>
            <DistanceMeters>1358.1088048831</DistanceMeters>
          </Trackpoint>
          <Trackpoint>
            <Time>2021-04-07T11:52:30.000Z</Time>
            <Position>
              <LatitudeDegrees>42.81851959414780139923095703125</LatitudeDegrees>
              <LongitudeDegrees>-1.6444454155862331390380859375</LongitudeDegrees>
            </Position>
            <AltitudeMeters>443.600006103515625</AltitudeMeters>
            <DistanceMeters>1363.1631185121</DistanceMeters>
          </Trackpoint>
          <Trackpoint>
            <Time>2021-04-07T11:52:31.000Z</Time>
            <Position>
              <LatitudeDegrees>42.81850936822593212127685546875</LatitudeDegrees>
              <LongitudeDegrees>-1.64442571811378002166748046875</LongitudeDegrees>
            </Position>
            <AltitudeMeters>443.79998779296875</AltitudeMeters>
            <DistanceMeters>1365.1336344016</DistanceMeters>
          </Trackpoint>
          <Trackpoint>
            <Time>2021-04-07T11:52:32.000Z</Time>
            <Position>
              <LatitudeDegrees>42.8184958733618259429931640625</LatitudeDegrees>
              <LongitudeDegrees>-1.6444122232496738433837890625</LongitudeDegrees>
            </Position>
            <AltitudeMeters>444.20001220703125</AltitudeMeters>
            <DistanceMeters>1367.0006131126</DistanceMeters>
          </Trackpoint>
          <Trackpoint>
            <Time>2021-04-07T11:52:33.000Z</Time>
            <Position>
              <LatitudeDegrees>42.81848154030740261077880859375</LatitudeDegrees>
              <LongitudeDegrees>-1.6443981416523456573486328125</LongitudeDegrees>
            </Position>
            <AltitudeMeters>444.399993896484375</AltitudeMeters>
            <DistanceMeters>1368.9642430781</DistanceMeters>
          </Trackpoint>
          <Trackpoint>
            <Time>2021-04-07T11:52:34.000Z</Time>
            <Position>
              <LatitudeDegrees>42.81846511177718639373779296875</LatitudeDegrees>
              <LongitudeDegrees>-1.64438783191144466400146484375</LongitudeDegrees>
            </Position>
            <AltitudeMeters>444.600006103515625</AltitudeMeters>
            <DistanceMeters>1370.9755795112</DistanceMeters>
          </Trackpoint>
          <Trackpoint>
            <Time>2021-04-07T11:52:35.000Z</Time>
            <Position>
              <LatitudeDegrees>42.81844616867601871490478515625</LatitudeDegrees>
              <LongitudeDegrees>-1.6443743370473384857177734375</LongitudeDegrees>
            </Position>
            <AltitudeMeters>444.79998779296875</AltitudeMeters>
            <DistanceMeters>1373.3569421478</DistanceMeters>
          </Trackpoint>
          <Trackpoint>
            <Time>2021-04-07T11:52:36.000Z</Time>
            <Position>
              <LatitudeDegrees>42.81842236407101154327392578125</LatitudeDegrees>
              <LongitudeDegrees>-1.64435707032680511474609375</LongitudeDegrees>
            </Position>
            <AltitudeMeters>445</AltitudeMeters>
            <DistanceMeters>1376.3589441949</DistanceMeters>
          </Trackpoint>
          <Trackpoint>
            <Time>2021-04-07T11:52:37.000Z</Time>
            <Position>
              <LatitudeDegrees>42.81840543262660503387451171875</LatitudeDegrees>
              <LongitudeDegrees>-1.644337959587574005126953125</LongitudeDegrees>
            </Position>
            <AltitudeMeters>445</AltitudeMeters>
            <DistanceMeters>1378.8039208013</DistanceMeters>
          </Trackpoint>
          <Trackpoint>
            <Time>2021-04-07T11:52:38.000Z</Time>
            <Position>
              <LatitudeDegrees>42.8183783590793609619140625</LatitudeDegrees>
              <LongitudeDegrees>-1.6443277336657047271728515625</LongitudeDegrees>
            </Position>
            <AltitudeMeters>445</AltitudeMeters>
            <DistanceMeters>1381.9311516512</DistanceMeters>
          </Trackpoint>
          <Trackpoint>
            <Time>2021-04-07T11:52:39.000Z</Time>
            <Position>
              <LatitudeDegrees>42.8184345178306102752685546875</LatitudeDegrees>
              <LongitudeDegrees>-1.64424601010978221893310546875</LongitudeDegrees>
            </Position>
            <AltitudeMeters>445.20001220703125</AltitudeMeters>
            <DistanceMeters>1391.0739858749</DistanceMeters>
          </Trackpoint>
          <Trackpoint>
            <Time>2021-04-07T11:52:40.000Z</Time>
            <Position>
              <LatitudeDegrees>42.8184599988162517547607421875</LatitudeDegrees>
              <LongitudeDegrees>-1.6442023403942584991455078125</LongitudeDegrees>
            </Position>
            <AltitudeMeters>445.399993896484375</AltitudeMeters>
            <DistanceMeters>1395.6293251233</DistanceMeters>
          </Trackpoint>
          <Trackpoint>
            <Time>2021-04-07T11:52:41.000Z</Time>
            <Position>
              <LatitudeDegrees>42.81846486032009124755859375</LatitudeDegrees>
              <LongitudeDegrees>-1.6441798768937587738037109375</LongitudeDegrees>
            </Position>
            <AltitudeMeters>445.399993896484375</AltitudeMeters>
            <DistanceMeters>1397.5393384436</DistanceMeters>
          </Trackpoint>
          <Trackpoint>
            <Time>2021-04-07T11:52:42.000Z</Time>
            <Position>
              <LatitudeDegrees>42.81847014091908931732177734375</LatitudeDegrees>
              <LongitudeDegrees>-1.64415062405169010162353515625</LongitudeDegrees>
            </Position>
            <AltitudeMeters>445.399993896484375</AltitudeMeters>
            <DistanceMeters>1400.0008788746</DistanceMeters>
          </Trackpoint>
          <Trackpoint>
            <Time>2021-04-07T11:52:43.000Z</Time>
            <Position>
              <LatitudeDegrees>42.8184549696743488311767578125</LatitudeDegrees>
              <LongitudeDegrees>-1.64411072619259357452392578125</LongitudeDegrees>
            </Position>
            <AltitudeMeters>445.399993896484375</AltitudeMeters>
            <DistanceMeters>1403.671420259</DistanceMeters>
          </Trackpoint>
          <Trackpoint>
            <Time>2021-04-07T11:52:44.000Z</Time>
            <Position>
              <LatitudeDegrees>42.818442396819591522216796875</LatitudeDegrees>
              <LongitudeDegrees>-1.6440702416002750396728515625</LongitudeDegrees>
            </Position>
            <AltitudeMeters>445.399993896484375</AltitudeMeters>
            <DistanceMeters>1407.2611164976</DistanceMeters>
          </Trackpoint>
          <Trackpoint>
            <Time>2021-04-07T11:52:45.000Z</Time>
            <Position>
              <LatitudeDegrees>42.81842839904129505157470703125</LatitudeDegrees>
              <LongitudeDegrees>-1.6440467722713947296142578125</LongitudeDegrees>
            </Position>
            <AltitudeMeters>445.600006103515625</AltitudeMeters>
            <DistanceMeters>1409.7281534903</DistanceMeters>
          </Trackpoint>
          <Trackpoint>
            <Time>2021-04-07T11:52:46.000Z</Time>
            <Position>
              <LatitudeDegrees>42.8184185922145843505859375</LatitudeDegrees>
              <LongitudeDegrees>-1.64403143338859081268310546875</LongitudeDegrees>
            </Position>
            <AltitudeMeters>445.600006103515625</AltitudeMeters>
            <DistanceMeters>1411.390442091</DistanceMeters>
          </Trackpoint>
          <Trackpoint>
            <Time>2021-04-07T11:52:47.000Z</Time>
            <Position>
              <LatitudeDegrees>42.81840325333178043365478515625</LatitudeDegrees>
              <LongitudeDegrees>-1.64400712586939334869384765625</LongitudeDegrees>
            </Position>
            <AltitudeMeters>445.600006103515625</AltitudeMeters>
            <DistanceMeters>1414.0066985662</DistanceMeters>
          </Trackpoint>
          <Trackpoint>
            <Time>2021-04-07T11:52:48.000Z</Time>
            <Position>
              <LatitudeDegrees>42.81838598661124706268310546875</LatitudeDegrees>
              <LongitudeDegrees>-1.643985919654369354248046875</LongitudeDegrees>
            </Position>
            <AltitudeMeters>445.600006103515625</AltitudeMeters>
            <DistanceMeters>1416.5917046723</DistanceMeters>
          </Trackpoint>
          <Trackpoint>
            <Time>2021-04-07T11:52:49.000Z</Time>
            <Position>
              <LatitudeDegrees>42.81835799105465412139892578125</LatitudeDegrees>
              <LongitudeDegrees>-1.64396404288709163665771484375</LongitudeDegrees>
            </Position>
            <AltitudeMeters>445.600006103515625</AltitudeMeters>
            <DistanceMeters>1420.1826584679</DistanceMeters>
          </Trackpoint>
          <Trackpoint>
            <Time>2021-04-07T11:52:50.000Z</Time>
            <Position>
              <LatitudeDegrees>42.81831541098654270172119140625</LatitudeDegrees>
              <LongitudeDegrees>-1.64392749778926372528076171875</LongitudeDegrees>
            </Position>
            <AltitudeMeters>446</AltitudeMeters>
            <DistanceMeters>1425.7827884209</DistanceMeters>
          </Trackpoint>
          <Trackpoint>
            <Time>2021-04-07T11:52:51.000Z</Time>
            <Position>
              <LatitudeDegrees>42.818282134830951690673828125</LatitudeDegrees>
              <LongitudeDegrees>-1.6439057886600494384765625</LongitudeDegrees>
            </Position>
            <AltitudeMeters>446</AltitudeMeters>
            <DistanceMeters>1429.8876785101</DistanceMeters>
          </Trackpoint>
          <Trackpoint>
            <Time>2021-04-07T11:52:52.000Z</Time>
            <Position>
              <LatitudeDegrees>42.81825271435081958770751953125</LatitudeDegrees>
              <LongitudeDegrees>-1.643889360129833221435546875</LongitudeDegrees>
            </Position>
            <AltitudeMeters>446.20001220703125</AltitudeMeters>
            <DistanceMeters>1433.425430049</DistanceMeters>
          </Trackpoint>
          <Trackpoint>
            <Time>2021-04-07T11:52:53.000Z</Time>
            <Position>
              <LatitudeDegrees>42.81821868382394313812255859375</LatitudeDegrees>
              <LongitudeDegrees>-1.64386111311614513397216796875</LongitudeDegrees>
            </Position>
            <AltitudeMeters>446.20001220703125</AltitudeMeters>
            <DistanceMeters>1437.8602363012</DistanceMeters>
          </Trackpoint>
          <Trackpoint>
            <Time>2021-04-07T11:52:54.000Z</Time>
            <Position>
              <LatitudeDegrees>42.81820066273212432861328125</LatitudeDegrees>
              <LongitudeDegrees>-1.6438333690166473388671875</LongitudeDegrees>
            </Position>
            <AltitudeMeters>446.399993896484375</AltitudeMeters>
            <DistanceMeters>1440.8862068091</DistanceMeters>
          </Trackpoint>
          <Trackpoint>
            <Time>2021-04-07T11:52:55.000Z</Time>
            <Position>
              <LatitudeDegrees>42.8181857429444789886474609375</LatitudeDegrees>
              <LongitudeDegrees>-1.6438177786767482757568359375</LongitudeDegrees>
            </Position>
            <AltitudeMeters>446.399993896484375</AltitudeMeters>
            <DistanceMeters>1442.9789531089</DistanceMeters>
          </Trackpoint>
          <Trackpoint>
            <Time>2021-04-07T11:52:56.000Z</Time>
            <Position>
              <LatitudeDegrees>42.8181719966232776641845703125</LatitudeDegrees>
              <LongitudeDegrees>-1.64379648864269256591796875</LongitudeDegrees>
            </Position>
            <AltitudeMeters>446.600006103515625</AltitudeMeters>
            <DistanceMeters>1445.2949551399</DistanceMeters>
          </Trackpoint>
          <Trackpoint>
            <Time>2021-04-07T11:52:57.000Z</Time>
            <Position>
              <LatitudeDegrees>42.818160094320774078369140625</LatitudeDegrees>
              <LongitudeDegrees>-1.6437748633325099945068359375</LongitudeDegrees>
            </Position>
            <AltitudeMeters>446.600006103515625</AltitudeMeters>
            <DistanceMeters>1447.5031764331</DistanceMeters>
          </Trackpoint>
          <Trackpoint>
            <Time>2021-04-07T11:52:58.000Z</Time>
            <Position>
              <LatitudeDegrees>42.8181475214660167694091796875</LatitudeDegrees>
              <LongitudeDegrees>-1.64374996908009052276611328125</LongitudeDegrees>
            </Position>
            <AltitudeMeters>446.600006103515625</AltitudeMeters>
            <DistanceMeters>1449.9702134258</DistanceMeters>
          </Trackpoint>
          <Trackpoint>
            <Time>2021-04-07T11:52:59.000Z</Time>
            <Position>
              <LatitudeDegrees>42.81815246678888797760009765625</LatitudeDegrees>
              <LongitudeDegrees>-1.64369917474687099456787109375</LongitudeDegrees>
            </Position>
            <AltitudeMeters>446.600006103515625</AltitudeMeters>
            <DistanceMeters>1454.1535479986</DistanceMeters>
          </Trackpoint>
          <Trackpoint>
            <Time>2021-04-07T11:53:00.000Z</Time>
            <Position>
              <LatitudeDegrees>42.81814525835216045379638671875</LatitudeDegrees>
              <LongitudeDegrees>-1.6436638869345188140869140625</LongitudeDegrees>
            </Position>
            <AltitudeMeters>446.600006103515625</AltitudeMeters>
            <DistanceMeters>1457.1434937639</DistanceMeters>
          </Trackpoint>
          <Trackpoint>
            <Time>2021-04-07T11:53:01.000Z</Time>
            <Position>
              <LatitudeDegrees>42.818137966096401214599609375</LatitudeDegrees>
              <LongitudeDegrees>-1.64362373761832714080810546875</LongitudeDegrees>
            </Position>
            <AltitudeMeters>446.600006103515625</AltitudeMeters>
            <DistanceMeters>1460.5206207305</DistanceMeters>
          </Trackpoint>
          <Trackpoint>
            <Time>2021-04-07T11:53:02.000Z</Time>
            <Position>
              <LatitudeDegrees>42.81811625696718692779541015625</LatitudeDegrees>
              <LongitudeDegrees>-1.6435622982680797576904296875</LongitudeDegrees>
            </Position>
            <AltitudeMeters>446.399993896484375</AltitudeMeters>
            <DistanceMeters>1466.0884077624</DistanceMeters>
          </Trackpoint>
          <Trackpoint>
            <Time>2021-04-07T11:53:03.000Z</Time>
            <Position>
              <LatitudeDegrees>42.818101756274700164794921875</LatitudeDegrees>
              <LongitudeDegrees>-1.6435180418193340301513671875</LongitudeDegrees>
            </Position>
            <AltitudeMeters>446.600006103515625</AltitudeMeters>
            <DistanceMeters>1470.0454461188</DistanceMeters>
          </Trackpoint>
          <Trackpoint>
            <Time>2021-04-07T11:53:04.000Z</Time>
            <Position>
              <LatitudeDegrees>42.8180908598005771636962890625</LatitudeDegrees>
              <LongitudeDegrees>-1.643479652702808380126953125</LongitudeDegrees>
            </Position>
            <AltitudeMeters>446.600006103515625</AltitudeMeters>
            <DistanceMeters>1473.405147825</DistanceMeters>
          </Trackpoint>
          <Trackpoint>
            <Time>2021-04-07T11:53:05.000Z</Time>
            <Position>
              <LatitudeDegrees>42.81807937659323215484619140625</LatitudeDegrees>
              <LongitudeDegrees>-1.64344319142401218414306640625</LongitudeDegrees>
            </Position>
            <AltitudeMeters>446.600006103515625</AltitudeMeters>
            <DistanceMeters>1476.644429972</DistanceMeters>
          </Trackpoint>
          <Trackpoint>
            <Time>2021-04-07T11:53:06.000Z</Time>
            <Position>
              <LatitudeDegrees>42.81807417981326580047607421875</LatitudeDegrees>
              <LongitudeDegrees>-1.6434090770781040191650390625</LongitudeDegrees>
            </Position>
            <AltitudeMeters>446.79998779296875</AltitudeMeters>
            <DistanceMeters>1479.4904761013</DistanceMeters>
          </Trackpoint>
          <Trackpoint>
            <Time>2021-04-07T11:53:07.000Z</Time>
            <Position>
              <LatitudeDegrees>42.8180704079568386077880859375</LatitudeDegrees>
              <LongitudeDegrees>-1.64338267408311367034912109375</LongitudeDegrees>
            </Position>
            <AltitudeMeters>446.79998779296875</AltitudeMeters>
            <DistanceMeters>1481.6863952303</DistanceMeters>
          </Trackpoint>
          <Trackpoint>
            <Time>2021-04-07T11:53:08.000Z</Time>
            <Position>
              <LatitudeDegrees>42.81806915067136287689208984375</LatitudeDegrees>
              <LongitudeDegrees>-1.64335903711616992950439453125</LongitudeDegrees>
            </Position>
            <AltitudeMeters>447</AltitudeMeters>
            <DistanceMeters>1483.6199028325</DistanceMeters>
          </Trackpoint>
          <Trackpoint>
            <Time>2021-04-07T11:53:09.000Z</Time>
            <Position>
              <LatitudeDegrees>42.8180724196135997772216796875</LatitudeDegrees>
              <LongitudeDegrees>-1.643347553908824920654296875</LongitudeDegrees>
            </Position>
            <AltitudeMeters>447</AltitudeMeters>
            <DistanceMeters>1484.6210713924</DistanceMeters>
          </Trackpoint>
          <Trackpoint>
            <Time>2021-04-07T11:53:10.000Z</Time>
            <Position>
              <LatitudeDegrees>42.8180704079568386077880859375</LatitudeDegrees>
              <LongitudeDegrees>-1.6433329693973064422607421875</LongitudeDegrees>
            </Position>
            <AltitudeMeters>447</AltitudeMeters>
            <DistanceMeters>1485.8305640067</DistanceMeters>
          </Trackpoint>
          <Trackpoint>
            <Time>2021-04-07T11:53:11.000Z</Time>
            <Position>
              <LatitudeDegrees>42.8180751018226146697998046875</LatitudeDegrees>
              <LongitudeDegrees>-1.64332735352218151092529296875</LongitudeDegrees>
            </Position>
            <AltitudeMeters>447.20001220703125</AltitudeMeters>
            <DistanceMeters>1486.5288648931</DistanceMeters>
          </Trackpoint>
          <Trackpoint>
            <Time>2021-04-07T11:53:12.000Z</Time>
            <Position>
              <LatitudeDegrees>42.8180740959942340850830078125</LatitudeDegrees>
              <LongitudeDegrees>-1.6433219052851200103759765625</LongitudeDegrees>
            </Position>
            <AltitudeMeters>447.600006103515625</AltitudeMeters>
            <DistanceMeters>1486.9943988174</DistanceMeters>
          </Trackpoint>
          <Trackpoint>
            <Time>2021-04-07T11:53:13.000Z</Time>
            <Position>
              <LatitudeDegrees>42.818071581423282623291015625</LatitudeDegrees>
              <LongitudeDegrees>-1.6433076560497283935546875</LongitudeDegrees>
            </Position>
            <AltitudeMeters>447.79998779296875</AltitudeMeters>
            <DistanceMeters>1488.1888660953</DistanceMeters>
          </Trackpoint>
          <Trackpoint>
            <Time>2021-04-07T11:53:14.000Z</Time>
            <Position>
              <LatitudeDegrees>42.81807124614715576171875</LatitudeDegrees>
              <LongitudeDegrees>-1.64330505765974521636962890625</LongitudeDegrees>
            </Position>
            <AltitudeMeters>448</AltitudeMeters>
            <DistanceMeters>1488.4013522883</DistanceMeters>
          </Trackpoint>
          <Trackpoint>
            <Time>2021-04-07T11:53:15.000Z</Time>
            <Position>
              <LatitudeDegrees>42.81807585619390010833740234375</LatitudeDegrees>
              <LongitudeDegrees>-1.6433051414787769317626953125</LongitudeDegrees>
            </Position>
            <AltitudeMeters>448.20001220703125</AltitudeMeters>
            <DistanceMeters>1488.9218350386</DistanceMeters>
          </Trackpoint>
          <Trackpoint>
            <Time>2021-04-07T11:53:16.000Z</Time>
            <Position>
              <LatitudeDegrees>42.81806814484298229217529296875</LatitudeDegrees>
              <LongitudeDegrees>-1.64329265244305133819580078125</LongitudeDegrees>
            </Position>
            <AltitudeMeters>448.399993896484375</AltitudeMeters>
            <DistanceMeters>1490.2522090398</DistanceMeters>
          </Trackpoint>
          <Trackpoint>
            <Time>2021-04-07T11:53:17.000Z</Time>
            <Position>
              <LatitudeDegrees>42.81805490143597126007080078125</LatitudeDegrees>
              <LongitudeDegrees>-1.64327882230281829833984375</LongitudeDegrees>
            </Position>
            <AltitudeMeters>448.600006103515625</AltitudeMeters>
            <DistanceMeters>1492.1094890945</DistanceMeters>
          </Trackpoint>
          <Trackpoint>
            <Time>2021-04-07T11:53:18.000Z</Time>
            <Position>
              <LatitudeDegrees>42.81804216094315052032470703125</LatitudeDegrees>
              <LongitudeDegrees>-1.643265075981616973876953125</LongitudeDegrees>
            </Position>
            <AltitudeMeters>448.79998779296875</AltitudeMeters>
            <DistanceMeters>1493.9174956411</DistanceMeters>
          </Trackpoint>
          <Trackpoint>
            <Time>2021-04-07T11:53:19.000Z</Time>
            <Position>
              <LatitudeDegrees>42.8180291689932346343994140625</LatitudeDegrees>
              <LongitudeDegrees>-1.643252335488796234130859375</LongitudeDegrees>
            </Position>
            <AltitudeMeters>449</AltitudeMeters>
            <DistanceMeters>1495.7003548359</DistanceMeters>
          </Trackpoint>
          <Trackpoint>
            <Time>2021-04-07T11:53:20.000Z</Time>
            <Position>
              <LatitudeDegrees>42.81801701523363590240478515625</LatitudeDegrees>
              <LongitudeDegrees>-1.64323699660599231719970703125</LongitudeDegrees>
            </Position>
            <AltitudeMeters>449.20001220703125</AltitudeMeters>
            <DistanceMeters>1497.5454398798</DistanceMeters>
          </Trackpoint>
          <Trackpoint>
            <Time>2021-04-07T11:53:21.000Z</Time>
            <Position>
              <LatitudeDegrees>42.81800754368305206298828125</LatitudeDegrees>
              <LongitudeDegrees>-1.6432273574173450469970703125</LongitudeDegrees>
            </Position>
            <AltitudeMeters>449.399993896484375</AltitudeMeters>
            <DistanceMeters>1498.8621686587</DistanceMeters>
          </Trackpoint>
          <Trackpoint>
            <Time>2021-04-07T11:53:22.000Z</Time>
            <Position>
              <LatitudeDegrees>42.81799471937119960784912109375</LatitudeDegrees>
              <LongitudeDegrees>-1.64321905933320522308349609375</LongitudeDegrees>
            </Position>
            <AltitudeMeters>449.600006103515625</AltitudeMeters>
            <DistanceMeters>1500.4408710051</DistanceMeters>
          </Trackpoint>
          <Trackpoint>
            <Time>2021-04-07T11:53:23.000Z</Time>
            <Position>
              <LatitudeDegrees>42.81798415817320346832275390625</LatitudeDegrees>
              <LongitudeDegrees>-1.643211431801319122314453125</LongitudeDegrees>
            </Position>
            <AltitudeMeters>449.600006103515625</AltitudeMeters>
            <DistanceMeters>1501.7712450063</DistanceMeters>
          </Trackpoint>
          <Trackpoint>
            <Time>2021-04-07T11:53:24.000Z</Time>
            <Position>
              <LatitudeDegrees>42.817962951958179473876953125</LatitudeDegrees>
              <LongitudeDegrees>-1.6431985236704349517822265625</LongitudeDegrees>
            </Position>
            <AltitudeMeters>449.600006103515625</AltitudeMeters>
            <DistanceMeters>1504.3562511124</DistanceMeters>
          </Trackpoint>
          <Trackpoint>
            <Time>2021-04-07T11:53:25.000Z</Time>
            <Position>
              <LatitudeDegrees>42.817940823733806610107421875</LatitudeDegrees>
              <LongitudeDegrees>-1.64318569935858249664306640625</LongitudeDegrees>
            </Position>
            <AltitudeMeters>449.79998779296875</AltitudeMeters>
            <DistanceMeters>1507.0339144028</DistanceMeters>
          </Trackpoint>
          <Trackpoint>
            <Time>2021-04-07T11:53:26.000Z</Time>
            <Position>
              <LatitudeDegrees>42.8179331123828887939453125</LatitudeDegrees>
              <LongitudeDegrees>-1.64315418340265750885009765625</LongitudeDegrees>
            </Position>
            <AltitudeMeters>449.79998779296875</AltitudeMeters>
            <DistanceMeters>1509.7450916794</DistanceMeters>
          </Trackpoint>
          <Trackpoint>
            <Time>2021-04-07T11:53:27.000Z</Time>
            <Position>
              <LatitudeDegrees>42.817925401031970977783203125</LatitudeDegrees>
              <LongitudeDegrees>-1.6431277804076671600341796875</LongitudeDegrees>
            </Position>
            <AltitudeMeters>449.79998779296875</AltitudeMeters>
            <DistanceMeters>1512.0649894273</DistanceMeters>
          </Trackpoint>
          <Trackpoint>
            <Time>2021-04-07T11:53:28.000Z</Time>
            <Position>
              <LatitudeDegrees>42.81791090033948421478271484375</LatitudeDegrees>
              <LongitudeDegrees>-1.6430972702801227569580078125</LongitudeDegrees>
            </Position>
            <AltitudeMeters>450</AltitudeMeters>
            <DistanceMeters>1515.0306755968</DistanceMeters>
          </Trackpoint>
          <Trackpoint>
            <Time>2021-04-07T11:53:29.000Z</Time>
            <Position>
              <LatitudeDegrees>42.8178890235722064971923828125</LatitudeDegrees>
              <LongitudeDegrees>-1.6430976055562496185302734375</LongitudeDegrees>
            </Position>
            <AltitudeMeters>450</AltitudeMeters>
            <DistanceMeters>1517.4645470288</DistanceMeters>
          </Trackpoint>
          <Trackpoint>
            <Time>2021-04-07T11:53:30.000Z</Time>
            <Position>
              <LatitudeDegrees>42.817855663597583770751953125</LatitudeDegrees>
              <LongitudeDegrees>-1.64310053922235965728759765625</LongitudeDegrees>
            </Position>
            <AltitudeMeters>450.20001220703125</AltitudeMeters>
            <DistanceMeters>1521.1839659501</DistanceMeters>
          </Trackpoint>
          <Trackpoint>
            <Time>2021-04-07T11:53:31.000Z</Time>
            <Position>
              <LatitudeDegrees>42.81784200109541416168212890625</LatitudeDegrees>
              <LongitudeDegrees>-1.6430942527949810028076171875</LongitudeDegrees>
            </Position>
            <AltitudeMeters>450.399993896484375</AltitudeMeters>
            <DistanceMeters>1522.7882015271</DistanceMeters>
          </Trackpoint>
          <Trackpoint>
            <Time>2021-04-07T11:53:32.000Z</Time>
            <Position>
              <LatitudeDegrees>42.8178112395107746124267578125</LatitudeDegrees>
              <LongitudeDegrees>-1.643069945275783538818359375</LongitudeDegrees>
            </Position>
            <AltitudeMeters>450.600006103515625</AltitudeMeters>
            <DistanceMeters>1526.7452398835</DistanceMeters>
          </Trackpoint>
          <Trackpoint>
            <Time>2021-04-07T11:53:33.000Z</Time>
            <Position>
              <LatitudeDegrees>42.81788843683898448944091796875</LatitudeDegrees>
              <LongitudeDegrees>-1.64293742738664150238037109375</LongitudeDegrees>
            </Position>
            <AltitudeMeters>450.600006103515625</AltitudeMeters>
            <DistanceMeters>1540.5610914994</DistanceMeters>
          </Trackpoint>
          <Trackpoint>
            <Time>2021-04-07T11:53:34.000Z</Time>
            <Position>
              <LatitudeDegrees>42.81791031360626220703125</LatitudeDegrees>
              <LongitudeDegrees>-1.64285779930651187896728515625</LongitudeDegrees>
            </Position>
            <AltitudeMeters>450.600006103515625</AltitudeMeters>
            <DistanceMeters>1547.5025962285</DistanceMeters>
          </Trackpoint>
          <Trackpoint>
            <Time>2021-04-07T11:53:35.000Z</Time>
            <Position>
              <LatitudeDegrees>42.81792816706001758575439453125</LatitudeDegrees>
              <LongitudeDegrees>-1.64277565665543079376220703125</LongitudeDegrees>
            </Position>
            <AltitudeMeters>450.79998779296875</AltitudeMeters>
            <DistanceMeters>1554.4972337583</DistanceMeters>
          </Trackpoint>
          <Trackpoint>
            <Time>2021-04-07T11:53:36.000Z</Time>
            <Position>
              <LatitudeDegrees>42.81792431138455867767333984375</LatitudeDegrees>
              <LongitudeDegrees>-1.642746739089488983154296875</LongitudeDegrees>
            </Position>
            <AltitudeMeters>450.79998779296875</AltitudeMeters>
            <DistanceMeters>1556.8937163096</DistanceMeters>
          </Trackpoint>
          <Trackpoint>
            <Time>2021-04-07T11:53:37.000Z</Time>
            <Position>
              <LatitudeDegrees>42.81791232526302337646484375</LatitudeDegrees>
              <LongitudeDegrees>-1.64274347014725208282470703125</LongitudeDegrees>
            </Position>
            <AltitudeMeters>450.79998779296875</AltitudeMeters>
            <DistanceMeters>1558.2542918021</DistanceMeters>
          </Trackpoint>
          <Trackpoint>
            <Time>2021-04-07T11:53:38.000Z</Time>
            <Position>
              <LatitudeDegrees>42.81789581291377544403076171875</LatitudeDegrees>
              <LongitudeDegrees>-1.64274196140468120574951171875</LongitudeDegrees>
            </Position>
            <AltitudeMeters>450.79998779296875</AltitudeMeters>
            <DistanceMeters>1560.0944762131</DistanceMeters>
          </Trackpoint>
          <Trackpoint>
            <Time>2021-04-07T11:53:39.000Z</Time>
            <Position>
              <LatitudeDegrees>42.81789095140993595123291015625</LatitudeDegrees>
              <LongitudeDegrees>-1.64268412627279758453369140625</LongitudeDegrees>
            </Position>
            <AltitudeMeters>450.600006103515625</AltitudeMeters>
            <DistanceMeters>1564.8458119316</DistanceMeters>
          </Trackpoint>
          <Trackpoint>
            <Time>2021-04-07T11:53:40.000Z</Time>
            <Position>
              <LatitudeDegrees>42.81786513514816761016845703125</LatitudeDegrees>
              <LongitudeDegrees>-1.642675660550594329833984375</LongitudeDegrees>
            </Position>
            <AltitudeMeters>450.600006103515625</AltitudeMeters>
            <DistanceMeters>1567.7992935796</DistanceMeters>
          </Trackpoint>
          <Trackpoint>
            <Time>2021-04-07T11:53:41.000Z</Time>
            <Position>
              <LatitudeDegrees>42.81784837134182453155517578125</LatitudeDegrees>
              <LongitudeDegrees>-1.64266325533390045166015625</LongitudeDegrees>
            </Position>
            <AltitudeMeters>450.600006103515625</AltitudeMeters>
            <DistanceMeters>1569.9241555097</DistanceMeters>
          </Trackpoint>
          <Trackpoint>
            <Time>2021-04-07T11:53:42.000Z</Time>
            <Position>
              <LatitudeDegrees>42.8178311884403228759765625</LatitudeDegrees>
              <LongitudeDegrees>-1.64266920648515224456787109375</LongitudeDegrees>
            </Position>
            <AltitudeMeters>450.600006103515625</AltitudeMeters>
            <DistanceMeters>1571.8992486781</DistanceMeters>
          </Trackpoint>
          <Trackpoint>
            <Time>2021-04-07T11:53:43.000Z</Time>
            <Position>
              <LatitudeDegrees>42.817817442119121551513671875</LatitudeDegrees>
              <LongitudeDegrees>-1.642667613923549652099609375</LongitudeDegrees>
            </Position>
            <AltitudeMeters>450.399993896484375</AltitudeMeters>
            <DistanceMeters>1573.434452232</DistanceMeters>
          </Trackpoint>
          <Trackpoint>
            <Time>2021-04-07T11:53:44.000Z</Time>
            <Position>
              <LatitudeDegrees>42.81781014986336231231689453125</LatitudeDegrees>
              <LongitudeDegrees>-1.64265881292521953582763671875</LongitudeDegrees>
            </Position>
            <AltitudeMeters>450.399993896484375</AltitudeMeters>
            <DistanceMeters>1574.5179234765</DistanceMeters>
          </Trackpoint>
          <Trackpoint>
            <Time>2021-04-07T11:53:45.000Z</Time>
            <Position>
              <LatitudeDegrees>42.81780713237822055816650390625</LatitudeDegrees>
              <LongitudeDegrees>-1.64264758117496967315673828125</LongitudeDegrees>
            </Position>
            <AltitudeMeters>450.600006103515625</AltitudeMeters>
            <DistanceMeters>1575.4962833812</DistanceMeters>
          </Trackpoint>
          <Trackpoint>
            <Time>2021-04-07T11:53:46.000Z</Time>
            <Position>
              <LatitudeDegrees>42.81780235469341278076171875</LatitudeDegrees>
              <LongitudeDegrees>-1.64264439605176448822021484375</LongitudeDegrees>
            </Position>
            <AltitudeMeters>450.79998779296875</AltitudeMeters>
            <DistanceMeters>1576.0897250222</DistanceMeters>
          </Trackpoint>
          <Trackpoint>
            <Time>2021-04-07T11:53:47.000Z</Time>
            <Position>
              <LatitudeDegrees>42.81779875047504901885986328125</LatitudeDegrees>
              <LongitudeDegrees>-1.64265495724976062774658203125</LongitudeDegrees>
            </Position>
            <AltitudeMeters>450.79998779296875</AltitudeMeters>
            <DistanceMeters>1577.0352288921</DistanceMeters>
          </Trackpoint>
          <Trackpoint>
            <Time>2021-04-07T11:53:48.000Z</Time>
            <Position>
              <LatitudeDegrees>42.81779254786670207977294921875</LatitudeDegrees>
              <LongitudeDegrees>-1.6426637582480907440185546875</LongitudeDegrees>
            </Position>
            <AltitudeMeters>451</AltitudeMeters>
            <DistanceMeters>1578.0318774805</DistanceMeters>
          </Trackpoint>
          <Trackpoint>
            <Time>2021-04-07T11:53:49.000Z</Time>
            <Position>
              <LatitudeDegrees>42.81778550706803798675537109375</LatitudeDegrees>
              <LongitudeDegrees>-1.642664931714534759521484375</LongitudeDegrees>
            </Position>
            <AltitudeMeters>451</AltitudeMeters>
            <DistanceMeters>1578.8212286537</DistanceMeters>
          </Trackpoint>
          <Trackpoint>
            <Time>2021-04-07T11:53:50.000Z</Time>
            <Position>
              <LatitudeDegrees>42.81778399832546710968017578125</LatitudeDegrees>
              <LongitudeDegrees>-1.64266191422939300537109375</LongitudeDegrees>
            </Position>
            <AltitudeMeters>451</AltitudeMeters>
            <DistanceMeters>1579.1217295097</DistanceMeters>
          </Trackpoint>
          <Trackpoint>
            <Time>2021-04-07T11:53:51.000Z</Time>
            <Position>
              <LatitudeDegrees>42.81778047792613506317138671875</LatitudeDegrees>
              <LongitudeDegrees>-1.64265613071620464324951171875</LongitudeDegrees>
            </Position>
            <AltitudeMeters>451</AltitudeMeters>
            <DistanceMeters>1579.7448613473</DistanceMeters>
          </Trackpoint>
          <Trackpoint>
            <Time>2021-04-07T11:53:52.000Z</Time>
            <Position>
              <LatitudeDegrees>42.817777879536151885986328125</LatitudeDegrees>
              <LongitudeDegrees>-1.642649509012699127197265625</LongitudeDegrees>
            </Position>
            <AltitudeMeters>451</AltitudeMeters>
            <DistanceMeters>1580.3533292053</DistanceMeters>
          </Trackpoint>
          <Trackpoint>
            <Time>2021-04-07T11:53:53.000Z</Time>
            <Position>
              <LatitudeDegrees>42.817773185670375823974609375</LatitudeDegrees>
              <LongitudeDegrees>-1.64264422841370105743408203125</LongitudeDegrees>
            </Position>
            <AltitudeMeters>451</AltitudeMeters>
            <DistanceMeters>1581.0252695466</DistanceMeters>
          </Trackpoint>
          <Trackpoint>
            <Time>2021-04-07T11:53:54.000Z</Time>
            <Position>
              <LatitudeDegrees>42.8177721798419952392578125</LatitudeDegrees>
              <LongitudeDegrees>-1.6426530294120311737060546875</LongitudeDegrees>
            </Position>
            <AltitudeMeters>451</AltitudeMeters>
            <DistanceMeters>1581.7489714422</DistanceMeters>
          </Trackpoint>
          <Trackpoint>
            <Time>2021-04-07T11:53:55.000Z</Time>
            <Position>
              <LatitudeDegrees>42.817773856222629547119140625</LatitudeDegrees>
              <LongitudeDegrees>-1.64265076629817485809326171875</LongitudeDegrees>
            </Position>
            <AltitudeMeters>451</AltitudeMeters>
            <DistanceMeters>1582.0003884963</DistanceMeters>
          </Trackpoint>
          <Trackpoint>
            <Time>2021-04-07T11:53:56.000Z</Time>
            <Position>
              <LatitudeDegrees>42.81777427531778812408447265625</LatitudeDegrees>
              <LongitudeDegrees>-1.64264908991754055023193359375</LongitudeDegrees>
            </Position>
            <AltitudeMeters>451</AltitudeMeters>
            <DistanceMeters>1582.1347765646</DistanceMeters>
          </Trackpoint>
          <Trackpoint>
            <Time>2021-04-07T11:53:57.000Z</Time>
            <Position>
              <LatitudeDegrees>42.81776907853782176971435546875</LatitudeDegrees>
              <LongitudeDegrees>-1.64263668470084667205810546875</LongitudeDegrees>
            </Position>
            <AltitudeMeters>451</AltitudeMeters>
            <DistanceMeters>1583.3024843804</DistanceMeters>
          </Trackpoint>
          <Trackpoint>
            <Time>2021-04-07T11:53:58.000Z</Time>
            <Position>
              <LatitudeDegrees>42.8177619539201259613037109375</LatitudeDegrees>
              <LongitudeDegrees>-1.6426258720457553863525390625</LongitudeDegrees>
            </Position>
            <AltitudeMeters>451</AltitudeMeters>
            <DistanceMeters>1584.4893676624</DistanceMeters>
          </Trackpoint>
          <Trackpoint>
            <Time>2021-04-07T11:53:59.000Z</Time>
            <Position>
              <LatitudeDegrees>42.817725576460361480712890625</LatitudeDegrees>
              <LongitudeDegrees>-1.64262243546545505523681640625</LongitudeDegrees>
            </Position>
            <AltitudeMeters>451</AltitudeMeters>
            <DistanceMeters>1588.5489106798</DistanceMeters>
          </Trackpoint>
          <Trackpoint>
            <Time>2021-04-07T11:54:00.000Z</Time>
            <Position>
              <LatitudeDegrees>42.81768433749675750732421875</LatitudeDegrees>
              <LongitudeDegrees>-1.64267532527446746826171875</LongitudeDegrees>
            </Position>
            <AltitudeMeters>451</AltitudeMeters>
            <DistanceMeters>1594.8501205735</DistanceMeters>
          </Trackpoint>
          <Trackpoint>
            <Time>2021-04-07T11:54:01.000Z</Time>
            <Position>
              <LatitudeDegrees>42.81766765750944614410400390625</LatitudeDegrees>
              <LongitudeDegrees>-1.64269938133656978607177734375</LongitudeDegrees>
            </Position>
            <AltitudeMeters>451.20001220703125</AltitudeMeters>
            <DistanceMeters>1597.5512873153</DistanceMeters>
          </Trackpoint>
          <Trackpoint>
            <Time>2021-04-07T11:54:02.000Z</Time>
            <Position>
              <LatitudeDegrees>42.8176459483802318572998046875</LatitudeDegrees>
              <LongitudeDegrees>-1.64273357950150966644287109375</LongitudeDegrees>
            </Position>
            <AltitudeMeters>451.20001220703125</AltitudeMeters>
            <DistanceMeters>1601.2439036547</DistanceMeters>
          </Trackpoint>
          <Trackpoint>
            <Time>2021-04-07T11:54:03.000Z</Time>
            <Position>
              <LatitudeDegrees>42.81762088648974895477294921875</LatitudeDegrees>
              <LongitudeDegrees>-1.6427613236010074615478515625</LongitudeDegrees>
            </Position>
            <AltitudeMeters>451.20001220703125</AltitudeMeters>
            <DistanceMeters>1604.8373712439</DistanceMeters>
          </Trackpoint>
          <Trackpoint>
            <Time>2021-04-07T11:54:04.000Z</Time>
            <Position>
              <LatitudeDegrees>42.81760697253048419952392578125</LatitudeDegrees>
              <LongitudeDegrees>-1.6427737288177013397216796875</LongitudeDegrees>
            </Position>
            <AltitudeMeters>451.20001220703125</AltitudeMeters>
            <DistanceMeters>1606.6897829284</DistanceMeters>
          </Trackpoint>
          <Trackpoint>
            <Time>2021-04-07T11:54:05.000Z</Time>
            <Position>
              <LatitudeDegrees>42.81759716570377349853515625</LatitudeDegrees>
              <LongitudeDegrees>-1.6427821107208728790283203125</LongitudeDegrees>
            </Position>
            <AltitudeMeters>451.20001220703125</AltitudeMeters>
            <DistanceMeters>1607.9787879965</DistanceMeters>
          </Trackpoint>
          <Trackpoint>
            <Time>2021-04-07T11:54:06.000Z</Time>
            <Position>
              <LatitudeDegrees>42.81758853234350681304931640625</LatitudeDegrees>
              <LongitudeDegrees>-1.64278789423406124114990234375</LongitudeDegrees>
            </Position>
            <AltitudeMeters>451.20001220703125</AltitudeMeters>
            <DistanceMeters>1609.0496846808</DistanceMeters>
          </Trackpoint>
          <Trackpoint>
            <Time>2021-04-07T11:54:07.000Z</Time>
            <Position>
              <LatitudeDegrees>42.81757746823132038116455078125</LatitudeDegrees>
              <LongitudeDegrees>-1.64279309101402759552001953125</LongitudeDegrees>
            </Position>
            <AltitudeMeters>451.20001220703125</AltitudeMeters>
            <DistanceMeters>1610.3526253439</DistanceMeters>
          </Trackpoint>
          <Trackpoint>
            <Time>2021-04-07T11:54:08.000Z</Time>
            <Position>
              <LatitudeDegrees>42.8175736963748931884765625</LatitudeDegrees>
              <LongitudeDegrees>-1.64279459975659847259521484375</LongitudeDegrees>
            </Position>
            <AltitudeMeters>451.20001220703125</AltitudeMeters>
            <DistanceMeters>1610.7983401426</DistanceMeters>
          </Trackpoint>
          <Trackpoint>
            <Time>2021-04-07T11:54:09.000Z</Time>
            <Position>
              <LatitudeDegrees>42.81756824813783168792724609375</LatitudeDegrees>
              <LongitudeDegrees>-1.64280516095459461212158203125</LongitudeDegrees>
            </Position>
            <AltitudeMeters>451.20001220703125</AltitudeMeters>
            <DistanceMeters>1611.8565128501</DistanceMeters>
          </Trackpoint>
          <Trackpoint>
            <Time>2021-04-07T11:54:10.000Z</Time>
            <Position>
              <LatitudeDegrees>42.81756229698657989501953125</LatitudeDegrees>
              <LongitudeDegrees>-1.64281303994357585906982421875</LongitudeDegrees>
            </Position>
            <AltitudeMeters>451.20001220703125</AltitudeMeters>
            <DistanceMeters>1612.7827186924</DistanceMeters>
          </Trackpoint>
          <Trackpoint>
            <Time>2021-04-07T11:54:11.000Z</Time>
            <Position>
              <LatitudeDegrees>42.81755684874951839447021484375</LatitudeDegrees>
              <LongitudeDegrees>-1.642823852598667144775390625</LongitudeDegrees>
            </Position>
            <AltitudeMeters>451.20001220703125</AltitudeMeters>
            <DistanceMeters>1613.8493909156</DistanceMeters>
          </Trackpoint>
          <Trackpoint>
            <Time>2021-04-07T11:54:12.000Z</Time>
            <Position>
              <LatitudeDegrees>42.81755718402564525604248046875</LatitudeDegrees>
              <LongitudeDegrees>-1.642839945852756500244140625</LongitudeDegrees>
            </Position>
            <AltitudeMeters>451.399993896484375</AltitudeMeters>
            <DistanceMeters>1615.1592437793</DistanceMeters>
          </Trackpoint>
          <Trackpoint>
            <Time>2021-04-07T11:54:13.000Z</Time>
            <Position>
              <LatitudeDegrees>42.81755626201629638671875</LatitudeDegrees>
              <LongitudeDegrees>-1.64284765720367431640625</LongitudeDegrees>
            </Position>
            <AltitudeMeters>451.399993896484375</AltitudeMeters>
            <DistanceMeters>1615.8037463133</DistanceMeters>
          </Trackpoint>
          <Trackpoint>
            <Time>2021-04-07T11:54:14.000Z</Time>
            <Position>
              <LatitudeDegrees>42.81755433417856693267822265625</LatitudeDegrees>
              <LongitudeDegrees>-1.6428484953939914703369140625</LongitudeDegrees>
            </Position>
            <AltitudeMeters>451.399993896484375</AltitudeMeters>
            <DistanceMeters>1616.0365132755</DistanceMeters>
          </Trackpoint>
          <Trackpoint>
            <Time>2021-04-07T11:54:15.000Z</Time>
            <Position>
              <LatitudeDegrees>42.81755290925502777099609375</LatitudeDegrees>
              <LongitudeDegrees>-1.64284992031753063201904296875</LongitudeDegrees>
            </Position>
            <AltitudeMeters>451.399993896484375</AltitudeMeters>
            <DistanceMeters>1616.2489994685</DistanceMeters>
          </Trackpoint>
          <Trackpoint>
            <Time>2021-04-07T11:54:16.000Z</Time>
            <Position>
              <LatitudeDegrees>42.8175514005124568939208984375</LatitudeDegrees>
              <LongitudeDegrees>-1.64284891448915004730224609375</LongitudeDegrees>
            </Position>
            <AltitudeMeters>451.399993896484375</AltitudeMeters>
            <DistanceMeters>1616.4390528972</DistanceMeters>
          </Trackpoint>
          <Trackpoint>
            <Time>2021-04-07T11:54:17.000Z</Time>
            <Position>
              <LatitudeDegrees>42.81754863448441028594970703125</LatitudeDegrees>
              <LongitudeDegrees>-1.64285595528781414031982421875</LongitudeDegrees>
            </Position>
            <AltitudeMeters>451.399993896484375</AltitudeMeters>
            <DistanceMeters>1617.0974172867</DistanceMeters>
          </Trackpoint>
          <Trackpoint>
            <Time>2021-04-07T11:54:18.000Z</Time>
            <Position>
              <LatitudeDegrees>42.81754528172314167022705078125</LatitudeDegrees>
              <LongitudeDegrees>-1.64286064915359020233154296875</LongitudeDegrees>
            </Position>
            <AltitudeMeters>451.399993896484375</AltitudeMeters>
            <DistanceMeters>1617.6349695597</DistanceMeters>
          </Trackpoint>
          <Trackpoint>
            <Time>2021-04-07T11:54:19.000Z</Time>
            <Position>
              <LatitudeDegrees>42.81754226423799991607666015625</LatitudeDegrees>
              <LongitudeDegrees>-1.64287255145609378814697265625</LongitudeDegrees>
            </Position>
            <AltitudeMeters>451.399993896484375</AltitudeMeters>
            <DistanceMeters>1618.6584385956</DistanceMeters>
          </Trackpoint>
          <Trackpoint>
            <Time>2021-04-07T11:54:20.000Z</Time>
            <Position>
              <LatitudeDegrees>42.81754226423799991607666015625</LatitudeDegrees>
              <LongitudeDegrees>-1.64288260973989963531494140625</LongitudeDegrees>
            </Position>
            <AltitudeMeters>451.399993896484375</AltitudeMeters>
            <DistanceMeters>1619.4758893017</DistanceMeters>
          </Trackpoint>
          <Trackpoint>
            <Time>2021-04-07T11:54:21.000Z</Time>
            <Position>
              <LatitudeDegrees>42.81754310242831707000732421875</LatitudeDegrees>
              <LongitudeDegrees>-1.6428887285292148590087890625</LongitudeDegrees>
            </Position>
            <AltitudeMeters>451.399993896484375</AltitudeMeters>
            <DistanceMeters>1619.9787234099</DistanceMeters>
          </Trackpoint>
          <Trackpoint>
            <Time>2021-04-07T11:54:22.000Z</Time>
            <Position>
              <LatitudeDegrees>42.81754176132380962371826171875</LatitudeDegrees>
              <LongitudeDegrees>-1.6429024748504161834716796875</LongitudeDegrees>
            </Position>
            <AltitudeMeters>451.399993896484375</AltitudeMeters>
            <DistanceMeters>1621.1030946574</DistanceMeters>
          </Trackpoint>
          <Trackpoint>
            <Time>2021-04-07T11:54:23.000Z</Time>
            <Position>
              <LatitudeDegrees>42.81754042021930217742919921875</LatitudeDegrees>
              <LongitudeDegrees>-1.64290892891585826873779296875</LongitudeDegrees>
            </Position>
            <AltitudeMeters>451.600006103515625</AltitudeMeters>
            <DistanceMeters>1621.6489815712</DistanceMeters>
          </Trackpoint>
          <Trackpoint>
            <Time>2021-04-07T11:54:24.000Z</Time>
            <Position>
              <LatitudeDegrees>42.8175383247435092926025390625</LatitudeDegrees>
              <LongitudeDegrees>-1.64291446097195148468017578125</LongitudeDegrees>
            </Position>
            <AltitudeMeters>451.600006103515625</AltitudeMeters>
            <DistanceMeters>1622.1694643215</DistanceMeters>
          </Trackpoint>
          <Trackpoint>
            <Time>2021-04-07T11:54:25.000Z</Time>
            <Position>
              <LatitudeDegrees>42.81753421761095523834228515625</LatitudeDegrees>
              <LongitudeDegrees>-1.64291982538998126983642578125</LongitudeDegrees>
            </Position>
            <AltitudeMeters>451.600006103515625</AltitudeMeters>
            <DistanceMeters>1622.7998002347</DistanceMeters>
          </Trackpoint>
          <Trackpoint>
            <Time>2021-04-07T11:54:26.000Z</Time>
            <Position>
              <LatitudeDegrees>42.8175280988216400146484375</LatitudeDegrees>
              <LongitudeDegrees>-1.64292745292186737060546875</LongitudeDegrees>
            </Position>
            <AltitudeMeters>451.600006103515625</AltitudeMeters>
            <DistanceMeters>1623.7211184131</DistanceMeters>
          </Trackpoint>
          <Trackpoint>
            <Time>2021-04-07T11:54:27.000Z</Time>
            <Position>
              <LatitudeDegrees>42.81752281822264194488525390625</LatitudeDegrees>
              <LongitudeDegrees>-1.64293491281569004058837890625</LongitudeDegrees>
            </Position>
            <AltitudeMeters>451.600006103515625</AltitudeMeters>
            <DistanceMeters>1624.5657343252</DistanceMeters>
          </Trackpoint>
          <Trackpoint>
            <Time>2021-04-07T11:54:28.000Z</Time>
            <Position>
              <LatitudeDegrees>42.81751829199492931365966796875</LatitudeDegrees>
              <LongitudeDegrees>-1.64293692447245121002197265625</LongitudeDegrees>
            </Position>
            <AltitudeMeters>451.600006103515625</AltitudeMeters>
            <DistanceMeters>1625.1032865982</DistanceMeters>
          </Trackpoint>
          <Trackpoint>
            <Time>2021-04-07T11:54:29.000Z</Time>
            <Position>
              <LatitudeDegrees>42.8175125084817409515380859375</LatitudeDegrees>
              <LongitudeDegrees>-1.6429396905004978179931640625</LongitudeDegrees>
            </Position>
            <AltitudeMeters>451.600006103515625</AltitudeMeters>
            <DistanceMeters>1625.7819130777</DistanceMeters>
          </Trackpoint>
          <Trackpoint>
            <Time>2021-04-07T11:54:30.000Z</Time>
            <Position>
              <LatitudeDegrees>42.81751242466270923614501953125</LatitudeDegrees>
              <LongitudeDegrees>-1.64294279180467128753662109375</LongitudeDegrees>
            </Position>
            <AltitudeMeters>451.600006103515625</AltitudeMeters>
            <DistanceMeters>1626.0333301318</DistanceMeters>
          </Trackpoint>
          <Trackpoint>
            <Time>2021-04-07T11:54:31.000Z</Time>
            <Position>
              <LatitudeDegrees>42.817510329186916351318359375</LatitudeDegrees>
              <LongitudeDegrees>-1.6429460607469081878662109375</LongitudeDegrees>
            </Position>
            <AltitudeMeters>451.399993896484375</AltitudeMeters>
            <DistanceMeters>1626.3888875396</DistanceMeters>
          </Trackpoint>
          <Trackpoint>
            <Time>2021-04-07T11:54:32.000Z</Time>
            <Position>
              <LatitudeDegrees>42.81751426868140697479248046875</LatitudeDegrees>
              <LongitudeDegrees>-1.64294782094657421112060546875</LongitudeDegrees>
            </Position>
            <AltitudeMeters>451.399993896484375</AltitudeMeters>
            <DistanceMeters>1626.8544214639</DistanceMeters>
          </Trackpoint>
          <Trackpoint>
            <Time>2021-04-07T11:54:33.000Z</Time>
            <Position>
              <LatitudeDegrees>42.81751401722431182861328125</LatitudeDegrees>
              <LongitudeDegrees>-1.6429507546126842498779296875</LongitudeDegrees>
            </Position>
            <AltitudeMeters>451.399993896484375</AltitudeMeters>
            <DistanceMeters>1627.087188426</DistanceMeters>
          </Trackpoint>
          <Trackpoint>
            <Time>2021-04-07T11:54:34.000Z</Time>
            <Position>
              <LatitudeDegrees>42.8175141848623752593994140625</LatitudeDegrees>
              <LongitudeDegrees>-1.6429517604410648345947265625</LongitudeDegrees>
            </Position>
            <AltitudeMeters>451.399993896484375</AltitudeMeters>
            <DistanceMeters>1627.2215764943</DistanceMeters>
          </Trackpoint>
          <Trackpoint>
            <Time>2021-04-07T11:54:35.000Z</Time>
            <Position>
              <LatitudeDegrees>42.8175148554146289825439453125</LatitudeDegrees>
              <LongitudeDegrees>-1.642946563661098480224609375</LongitudeDegrees>
            </Position>
            <AltitudeMeters>451.600006103515625</AltitudeMeters>
            <DistanceMeters>1627.6570436059</DistanceMeters>
          </Trackpoint>
          <Trackpoint>
            <Time>2021-04-07T11:54:36.000Z</Time>
            <Position>
              <LatitudeDegrees>42.8175158612430095672607421875</LatitudeDegrees>
              <LongitudeDegrees>-1.6429455578327178955078125</LongitudeDegrees>
            </Position>
            <AltitudeMeters>451.79998779296875</AltitudeMeters>
            <DistanceMeters>1627.7914316742</DistanceMeters>
          </Trackpoint>
          <Trackpoint>
            <Time>2021-04-07T11:54:37.000Z</Time>
            <Position>
              <LatitudeDegrees>42.817519046366214752197265625</LatitudeDegrees>
              <LongitudeDegrees>-1.6429393552243709564208984375</LongitudeDegrees>
            </Position>
            <AltitudeMeters>451.79998779296875</AltitudeMeters>
            <DistanceMeters>1628.4145635118</DistanceMeters>
          </Trackpoint>
          <Trackpoint>
            <Time>2021-04-07T11:54:38.000Z</Time>
            <Position>
              <LatitudeDegrees>42.8175222314894199371337890625</LatitudeDegrees>
              <LongitudeDegrees>-1.6429333202540874481201171875</LongitudeDegrees>
            </Position>
            <AltitudeMeters>452</AltitudeMeters>
            <DistanceMeters>1629.0230313698</DistanceMeters>
          </Trackpoint>
          <Trackpoint>
            <Time>2021-04-07T11:54:39.000Z</Time>
            <Position>
              <LatitudeDegrees>42.8175245784223079681396484375</LatitudeDegrees>
              <LongitudeDegrees>-1.64292787201702594757080078125</LongitudeDegrees>
            </Position>
            <AltitudeMeters>452</AltitudeMeters>
            <DistanceMeters>1629.54351412</DistanceMeters>
          </Trackpoint>
          <Trackpoint>
            <Time>2021-04-07T11:54:40.000Z</Time>
            <Position>
              <LatitudeDegrees>42.8175239078700542449951171875</LatitudeDegrees>
              <LongitudeDegrees>-1.64292502216994762420654296875</LongitudeDegrees>
            </Position>
            <AltitudeMeters>452.20001220703125</AltitudeMeters>
            <DistanceMeters>1629.7949311742</DistanceMeters>
          </Trackpoint>
          <Trackpoint>
            <Time>2021-04-07T11:54:41.000Z</Time>
            <Position>
              <LatitudeDegrees>42.81752097420394420623779296875</LatitudeDegrees>
              <LongitudeDegrees>-1.642923094332218170166015625</LongitudeDegrees>
            </Position>
            <AltitudeMeters>452.20001220703125</AltitudeMeters>
            <DistanceMeters>1630.1504885819</DistanceMeters>
          </Trackpoint>
          <Trackpoint>
            <Time>2021-04-07T11:54:42.000Z</Time>
            <Position>
              <LatitudeDegrees>42.81751695089042186737060546875</LatitudeDegrees>
              <LongitudeDegrees>-1.6429202444851398468017578125</LongitudeDegrees>
            </Position>
            <AltitudeMeters>452.20001220703125</AltitudeMeters>
            <DistanceMeters>1630.6622230999</DistanceMeters>
          </Trackpoint>
          <Trackpoint>
            <Time>2021-04-07T11:54:43.000Z</Time>
            <Position>
              <LatitudeDegrees>42.817513681948184967041015625</LatitudeDegrees>
              <LongitudeDegrees>-1.64292083121836185455322265625</LongitudeDegrees>
            </Position>
            <AltitudeMeters>452.20001220703125</AltitudeMeters>
            <DistanceMeters>1631.0302599821</DistanceMeters>
          </Trackpoint>
          <Trackpoint>
            <Time>2021-04-07T11:54:44.000Z</Time>
            <Position>
              <LatitudeDegrees>42.81751175411045551300048828125</LatitudeDegrees>
              <LongitudeDegrees>-1.6429195739328861236572265625</LongitudeDegrees>
            </Position>
            <AltitudeMeters>452.20001220703125</AltitudeMeters>
            <DistanceMeters>1631.2630269442</DistanceMeters>
          </Trackpoint>
          <Trackpoint>
            <Time>2021-04-07T11:54:45.000Z</Time>
            <Position>
              <LatitudeDegrees>42.81751594506204128265380859375</LatitudeDegrees>
              <LongitudeDegrees>-1.6429259441792964935302734375</LongitudeDegrees>
            </Position>
            <AltitudeMeters>452.20001220703125</AltitudeMeters>
            <DistanceMeters>1631.9613278307</DistanceMeters>
          </Trackpoint>
          <Trackpoint>
            <Time>2021-04-07T11:54:46.000Z</Time>
            <Position>
              <LatitudeDegrees>42.8175128437578678131103515625</LatitudeDegrees>
              <LongitudeDegrees>-1.64292518980801105499267578125</LongitudeDegrees>
            </Position>
            <AltitudeMeters>452.20001220703125</AltitudeMeters>
            <DistanceMeters>1632.3168852384</DistanceMeters>
          </Trackpoint>
          <Trackpoint>
            <Time>2021-04-07T11:54:47.000Z</Time>
            <Position>
              <LatitudeDegrees>42.817510999739170074462890625</LatitudeDegrees>
              <LongitudeDegrees>-1.6429256089031696319580078125</LongitudeDegrees>
            </Position>
            <AltitudeMeters>452.399993896484375</AltitudeMeters>
            <DistanceMeters>1632.5069386672</DistanceMeters>
          </Trackpoint>
          <Trackpoint>
            <Time>2021-04-07T11:54:48.000Z</Time>
            <Position>
              <LatitudeDegrees>42.81750823371112346649169921875</LatitudeDegrees>
              <LongitudeDegrees>-1.642920412123203277587890625</LongitudeDegrees>
            </Position>
            <AltitudeMeters>452.20001220703125</AltitudeMeters>
            <DistanceMeters>1633.036025021</DistanceMeters>
          </Trackpoint>
          <Trackpoint>
            <Time>2021-04-07T11:54:49.000Z</Time>
            <Position>
              <LatitudeDegrees>42.81750789843499660491943359375</LatitudeDegrees>
              <LongitudeDegrees>-1.64291764609515666961669921875</LongitudeDegrees>
            </Position>
            <AltitudeMeters>452.20001220703125</AltitudeMeters>
            <DistanceMeters>1633.2687919831</DistanceMeters>
          </Trackpoint>
          <Trackpoint>
            <Time>2021-04-07T11:54:50.000Z</Time>
            <Position>
              <LatitudeDegrees>42.81750806607306003570556640625</LatitudeDegrees>
              <LongitudeDegrees>-1.64291781373322010040283203125</LongitudeDegrees>
            </Position>
            <AltitudeMeters>452.20001220703125</AltitudeMeters>
            <DistanceMeters>1633.2687919831</DistanceMeters>
          </Trackpoint>
          <Trackpoint>
            <Time>2021-04-07T11:54:51.000Z</Time>
            <Position>
              <LatitudeDegrees>42.81750622205436229705810546875</LatitudeDegrees>
              <LongitudeDegrees>-1.64291831664741039276123046875</LongitudeDegrees>
            </Position>
            <AltitudeMeters>452.20001220703125</AltitudeMeters>
            <DistanceMeters>1633.4588454118</DistanceMeters>
          </Trackpoint>
          <Trackpoint>
            <Time>2021-04-07T11:54:52.000Z</Time>
            <Position>
              <LatitudeDegrees>42.8175041265785694122314453125</LatitudeDegrees>
              <LongitudeDegrees>-1.642920076847076416015625</LongitudeDegrees>
            </Position>
            <AltitudeMeters>452.20001220703125</AltitudeMeters>
            <DistanceMeters>1633.7276215483</DistanceMeters>
          </Trackpoint>
          <Trackpoint>
            <Time>2021-04-07T11:54:53.000Z</Time>
            <Position>
              <LatitudeDegrees>42.8175012767314910888671875</LatitudeDegrees>
              <LongitudeDegrees>-1.64292200468480587005615234375</LongitudeDegrees>
            </Position>
            <AltitudeMeters>452.20001220703125</AltitudeMeters>
            <DistanceMeters>1634.0702452395</DistanceMeters>
          </Trackpoint>
          <Trackpoint>
            <Time>2021-04-07T11:54:54.000Z</Time>
            <Position>
              <LatitudeDegrees>42.8174997679889202117919921875</LatitudeDegrees>
              <LongitudeDegrees>-1.64292518980801105499267578125</LongitudeDegrees>
            </Position>
            <AltitudeMeters>452.20001220703125</AltitudeMeters>
            <DistanceMeters>1634.3707460955</DistanceMeters>
          </Trackpoint>
          <Trackpoint>
            <Time>2021-04-07T11:54:55.000Z</Time>
            <Position>
              <LatitudeDegrees>42.81749649904668331146240234375</LatitudeDegrees>
              <LongitudeDegrees>-1.642926447093486785888671875</LongitudeDegrees>
            </Position>
            <AltitudeMeters>452.20001220703125</AltitudeMeters>
            <DistanceMeters>1634.7387829777</DistanceMeters>
          </Trackpoint>
          <Trackpoint>
            <Time>2021-04-07T11:54:56.000Z</Time>
            <Position>
              <LatitudeDegrees>42.81749314628541469573974609375</LatitudeDegrees>
              <LongitudeDegrees>-1.6429286263883113861083984375</LongitudeDegrees>
            </Position>
            <AltitudeMeters>452.20001220703125</AltitudeMeters>
            <DistanceMeters>1635.1419471825</DistanceMeters>
          </Trackpoint>
          <Trackpoint>
            <Time>2021-04-07T11:54:57.000Z</Time>
            <Position>
              <LatitudeDegrees>42.81750865280628204345703125</LatitudeDegrees>
              <LongitudeDegrees>-1.64294899441301822662353515625</LongitudeDegrees>
            </Position>
            <AltitudeMeters>452.20001220703125</AltitudeMeters>
            <DistanceMeters>1637.5346587124</DistanceMeters>
          </Trackpoint>
          <Trackpoint>
            <Time>2021-04-07T11:55:21.000Z</Time>
            <Position>
              <LatitudeDegrees>42.8173810802400112152099609375</LatitudeDegrees>
              <LongitudeDegrees>-1.64326063357293605804443359375</LongitudeDegrees>
            </Position>
            <AltitudeMeters>451.600006103515625</AltitudeMeters>
            <DistanceMeters>1666.6716221245</DistanceMeters>
          </Trackpoint>
          <Trackpoint>
            <Time>2021-04-07T11:57:36.000Z</Time>
            <Position>
              <LatitudeDegrees>42.81745643354952335357666015625</LatitudeDegrees>
              <LongitudeDegrees>-1.64354427717626094818115234375</LongitudeDegrees>
            </Position>
            <AltitudeMeters>451.79998779296875</AltitudeMeters>
            <DistanceMeters>1691.3009626597</DistanceMeters>
          </Trackpoint>
          <Trackpoint>
            <Time>2021-04-07T11:57:37.000Z</Time>
            <Position>
              <LatitudeDegrees>42.8174927271902561187744140625</LatitudeDegrees>
              <LongitudeDegrees>-1.643531285226345062255859375</LongitudeDegrees>
            </Position>
            <AltitudeMeters>451.79998779296875</AltitudeMeters>
            <DistanceMeters>1695.4767353563</DistanceMeters>
          </Trackpoint>
          <Trackpoint>
            <Time>2021-04-07T11:57:38.000Z</Time>
            <Position>
              <LatitudeDegrees>42.81748585402965545654296875</LatitudeDegrees>
              <LongitudeDegrees>-1.6434794850647449493408203125</LongitudeDegrees>
            </Position>
            <AltitudeMeters>452</AltitudeMeters>
            <DistanceMeters>1699.7750532138</DistanceMeters>
          </Trackpoint>
          <Trackpoint>
            <Time>2021-04-07T11:57:39.000Z</Time>
            <Position>
              <LatitudeDegrees>42.8174773044884204864501953125</LatitudeDegrees>
              <LongitudeDegrees>-1.64344302378594875335693359375</LongitudeDegrees>
            </Position>
            <AltitudeMeters>452</AltitudeMeters>
            <DistanceMeters>1702.8993951663</DistanceMeters>
          </Trackpoint>
          <Trackpoint>
            <Time>2021-04-07T11:57:40.000Z</Time>
            <Position>
              <LatitudeDegrees>42.817463390529155731201171875</LatitudeDegrees>
              <LongitudeDegrees>-1.64350253529846668243408203125</LongitudeDegrees>
            </Position>
            <AltitudeMeters>452</AltitudeMeters>
            <DistanceMeters>1707.9990637985</DistanceMeters>
          </Trackpoint>
          <Trackpoint>
            <Time>2021-04-07T11:57:41.000Z</Time>
            <Position>
              <LatitudeDegrees>42.81745291315019130706787109375</LatitudeDegrees>
              <LongitudeDegrees>-1.6435270942747592926025390625</LongitudeDegrees>
            </Position>
            <AltitudeMeters>452</AltitudeMeters>
            <DistanceMeters>1710.3189615464</DistanceMeters>
          </Trackpoint>
          <Trackpoint>
            <Time>2021-04-07T11:57:42.000Z</Time>
            <Position>
              <LatitudeDegrees>42.81744201667606830596923828125</LatitudeDegrees>
              <LongitudeDegrees>-1.643535979092121124267578125</LongitudeDegrees>
            </Position>
            <AltitudeMeters>451.79998779296875</AltitudeMeters>
            <DistanceMeters>1711.734827702</DistanceMeters>
          </Trackpoint>
          <Trackpoint>
            <Time>2021-04-07T11:57:43.000Z</Time>
            <Position>
              <LatitudeDegrees>42.81742542050778865814208984375</LatitudeDegrees>
              <LongitudeDegrees>-1.6435354761779308319091796875</LongitudeDegrees>
            </Position>
            <AltitudeMeters>451.79998779296875</AltitudeMeters>
            <DistanceMeters>1713.5823581877</DistanceMeters>
          </Trackpoint>
          <Trackpoint>
            <Time>2021-04-07T11:57:44.000Z</Time>
            <Position>
              <LatitudeDegrees>42.81740832142531871795654296875</LatitudeDegrees>
              <LongitudeDegrees>-1.64352667517960071563720703125</LongitudeDegrees>
            </Position>
            <AltitudeMeters>451.79998779296875</AltitudeMeters>
            <DistanceMeters>1715.6160186833</DistanceMeters>
          </Trackpoint>
          <Trackpoint>
            <Time>2021-04-07T11:57:45.000Z</Time>
            <Position>
              <LatitudeDegrees>42.8173847682774066925048828125</LatitudeDegrees>
              <LongitudeDegrees>-1.643513180315494537353515625</LongitudeDegrees>
            </Position>
            <AltitudeMeters>452.20001220703125</AltitudeMeters>
            <DistanceMeters>1718.4588901924</DistanceMeters>
          </Trackpoint>
          <Trackpoint>
            <Time>2021-04-07T11:57:46.000Z</Time>
            <Position>
              <LatitudeDegrees>42.81736825592815876007080078125</LatitudeDegrees>
              <LongitudeDegrees>-1.6435063071548938751220703125</LongitudeDegrees>
            </Position>
            <AltitudeMeters>451.20001220703125</AltitudeMeters>
            <DistanceMeters>1720.3783357346</DistanceMeters>
          </Trackpoint>
          <Trackpoint>
            <Time>2021-04-07T11:57:47.000Z</Time>
            <Position>
              <LatitudeDegrees>42.8173482231795787811279296875</LatitudeDegrees>
              <LongitudeDegrees>-1.6434954106807708740234375</LongitudeDegrees>
            </Position>
            <AltitudeMeters>451.20001220703125</AltitudeMeters>
            <DistanceMeters>1722.7785833825</DistanceMeters>
          </Trackpoint>
          <Trackpoint>
            <Time>2021-04-07T11:57:48.000Z</Time>
            <Position>
              <LatitudeDegrees>42.8173237480223178863525390625</LatitudeDegrees>
              <LongitudeDegrees>-1.64347864687442779541015625</LongitudeDegrees>
            </Position>
            <AltitudeMeters>450.79998779296875</AltitudeMeters>
            <DistanceMeters>1725.8283339849</DistanceMeters>
          </Trackpoint>
          <Trackpoint>
            <Time>2021-04-07T11:57:49.000Z</Time>
            <Position>
              <LatitudeDegrees>42.81730840913951396942138671875</LatitudeDegrees>
              <LongitudeDegrees>-1.64347202517092227935791015625</LongitudeDegrees>
            </Position>
            <AltitudeMeters>451</AltitudeMeters>
            <DistanceMeters>1727.6162509464</DistanceMeters>
          </Trackpoint>
          <Trackpoint>
            <Time>2021-04-07T11:57:50.000Z</Time>
            <Position>
              <LatitudeDegrees>42.8172902204096317291259765625</LatitudeDegrees>
              <LongitudeDegrees>-1.64346716366708278656005859375</LongitudeDegrees>
            </Position>
            <AltitudeMeters>451</AltitudeMeters>
            <DistanceMeters>1729.6763810221</DistanceMeters>
          </Trackpoint>
          <Trackpoint>
            <Time>2021-04-07T11:57:51.000Z</Time>
            <Position>
              <LatitudeDegrees>42.817289046943187713623046875</LatitudeDegrees>
              <LongitudeDegrees>-1.64348040707409381866455078125</LongitudeDegrees>
            </Position>
            <AltitudeMeters>451</AltitudeMeters>
            <DistanceMeters>1730.7681548497</DistanceMeters>
          </Trackpoint>
          <Trackpoint>
            <Time>2021-04-07T11:57:52.000Z</Time>
            <Position>
              <LatitudeDegrees>42.81730656512081623077392578125</LatitudeDegrees>
              <LongitudeDegrees>-1.643489040434360504150390625</LongitudeDegrees>
            </Position>
            <AltitudeMeters>450.79998779296875</AltitudeMeters>
            <DistanceMeters>1732.8413929902</DistanceMeters>
          </Trackpoint>
          <Trackpoint>
            <Time>2021-04-07T11:57:53.000Z</Time>
            <Position>
              <LatitudeDegrees>42.81732316128909587860107421875</LatitudeDegrees>
              <LongitudeDegrees>-1.643493734300136566162109375</LongitudeDegrees>
            </Position>
            <AltitudeMeters>450.79998779296875</AltitudeMeters>
            <DistanceMeters>1734.7276194132</DistanceMeters>
          </Trackpoint>
          <Trackpoint>
            <Time>2021-04-07T11:57:54.000Z</Time>
            <Position>
              <LatitudeDegrees>42.81732919625937938690185546875</LatitudeDegrees>
              <LongitudeDegrees>-1.6435083188116550445556640625</LongitudeDegrees>
            </Position>
            <AltitudeMeters>451.20001220703125</AltitudeMeters>
            <DistanceMeters>1736.0948157502</DistanceMeters>
          </Trackpoint>
          <Trackpoint>
            <Time>2021-04-07T11:57:55.000Z</Time>
            <Position>
              <LatitudeDegrees>42.81733590178191661834716796875</LatitudeDegrees>
              <LongitudeDegrees>-1.64352164603769779205322265625</LongitudeDegrees>
            </Position>
            <AltitudeMeters>451.20001220703125</AltitudeMeters>
            <DistanceMeters>1737.4149690571</DistanceMeters>
          </Trackpoint>
          <Trackpoint>
            <Time>2021-04-07T11:57:56.000Z</Time>
            <Position>
              <LatitudeDegrees>42.8173438645899295806884765625</LatitudeDegrees>
              <LongitudeDegrees>-1.64353438653051853179931640625</LongitudeDegrees>
            </Position>
            <AltitudeMeters>451.20001220703125</AltitudeMeters>
            <DistanceMeters>1738.7821653941</DistanceMeters>
          </Trackpoint>
          <Trackpoint>
            <Time>2021-04-07T11:57:57.000Z</Time>
            <Position>
              <LatitudeDegrees>42.81735233031213283538818359375</LatitudeDegrees>
              <LongitudeDegrees>-1.64355752058327198028564453125</LongitudeDegrees>
            </Position>
            <AltitudeMeters>451.20001220703125</AltitudeMeters>
            <DistanceMeters>1740.8942396739</DistanceMeters>
          </Trackpoint>
          <Trackpoint>
            <Time>2021-04-07T11:57:58.000Z</Time>
            <Position>
              <LatitudeDegrees>42.817365489900112152099609375</LatitudeDegrees>
              <LongitudeDegrees>-1.64357679896056652069091796875</LongitudeDegrees>
            </Position>
            <AltitudeMeters>451.20001220703125</AltitudeMeters>
            <DistanceMeters>1743.0444487659</DistanceMeters>
          </Trackpoint>
          <Trackpoint>
            <Time>2021-04-07T11:57:59.000Z</Time>
            <Position>
              <LatitudeDegrees>42.81738066114485263824462890625</LatitudeDegrees>
              <LongitudeDegrees>-1.6435907967388629913330078125</LongitudeDegrees>
            </Position>
            <AltitudeMeters>451.20001220703125</AltitudeMeters>
            <DistanceMeters>1745.0825447313</DistanceMeters>
          </Trackpoint>
          <Trackpoint>
            <Time>2021-04-07T11:58:00.000Z</Time>
            <Position>
              <LatitudeDegrees>42.8174018673598766326904296875</LatitudeDegrees>
              <LongitudeDegrees>-1.64360412396490573883056640625</LongitudeDegrees>
            </Position>
            <AltitudeMeters>451.20001220703125</AltitudeMeters>
            <DistanceMeters>1747.6814862812</DistanceMeters>
          </Trackpoint>
          <Trackpoint>
            <Time>2021-04-07T11:58:01.000Z</Time>
            <Position>
              <LatitudeDegrees>42.81741653569042682647705078125</LatitudeDegrees>
              <LongitudeDegrees>-1.64361200295388698577880859375</LongitudeDegrees>
            </Position>
            <AltitudeMeters>451.20001220703125</AltitudeMeters>
            <DistanceMeters>1749.4362671984</DistanceMeters>
          </Trackpoint>
          <Trackpoint>
            <Time>2021-04-07T11:58:02.000Z</Time>
            <Position>
              <LatitudeDegrees>42.81742542050778865814208984375</LatitudeDegrees>
              <LongitudeDegrees>-1.643618457019329071044921875</LongitudeDegrees>
            </Position>
            <AltitudeMeters>451.20001220703125</AltitudeMeters>
            <DistanceMeters>1750.5566156379</DistanceMeters>
          </Trackpoint>
          <Trackpoint>
            <Time>2021-04-07T11:58:03.000Z</Time>
            <Position>
              <LatitudeDegrees>42.81742391176521778106689453125</LatitudeDegrees>
              <LongitudeDegrees>-1.64362256415188312530517578125</LongitudeDegrees>
            </Position>
            <AltitudeMeters>451.20001220703125</AltitudeMeters>
            <DistanceMeters>1750.9121730456</DistanceMeters>
          </Trackpoint>
          <Trackpoint>
            <Time>2021-04-07T11:58:04.000Z</Time>
            <Position>
              <LatitudeDegrees>42.817394323647022247314453125</LatitudeDegrees>
              <LongitudeDegrees>-1.64362407289445400238037109375</LongitudeDegrees>
            </Position>
            <AltitudeMeters>451.20001220703125</AltitudeMeters>
            <DistanceMeters>1754.2081072018</DistanceMeters>
          </Trackpoint>
          <Trackpoint>
            <Time>2021-04-07T11:58:05.000Z</Time>
            <Position>
              <LatitudeDegrees>42.8173807449638843536376953125</LatitudeDegrees>
              <LongitudeDegrees>-1.64362675510346889495849609375</LongitudeDegrees>
            </Position>
            <AltitudeMeters>451</AltitudeMeters>
            <DistanceMeters>1755.7344622466</DistanceMeters>
          </Trackpoint>
          <Trackpoint>
            <Time>2021-04-07T11:58:06.000Z</Time>
            <Position>
              <LatitudeDegrees>42.8173639811575412750244140625</LatitudeDegrees>
              <LongitudeDegrees>-1.64362189359962940216064453125</LongitudeDegrees>
            </Position>
            <AltitudeMeters>450.79998779296875</AltitudeMeters>
            <DistanceMeters>1757.6397419453</DistanceMeters>
          </Trackpoint>
          <Trackpoint>
            <Time>2021-04-07T11:58:07.000Z</Time>
            <Position>
              <LatitudeDegrees>42.8173242509365081787109375</LatitudeDegrees>
              <LongitudeDegrees>-1.64359892718493938446044921875</LongitudeDegrees>
            </Position>
            <AltitudeMeters>450.79998779296875</AltitudeMeters>
            <DistanceMeters>1762.4421179445</DistanceMeters>
          </Trackpoint>
          <Trackpoint>
            <Time>2021-04-07T11:58:08.000Z</Time>
            <Position>
              <LatitudeDegrees>42.81729935668408870697021484375</LatitudeDegrees>
              <LongitudeDegrees>-1.64358132518827915191650390625</LongitudeDegrees>
            </Position>
            <AltitudeMeters>450.600006103515625</AltitudeMeters>
            <DistanceMeters>1765.5621215353</DistanceMeters>
          </Trackpoint>
          <Trackpoint>
            <Time>2021-04-07T11:58:09.000Z</Time>
            <Position>
              <LatitudeDegrees>42.81727856956422328948974609375</LatitudeDegrees>
              <LongitudeDegrees>-1.64357478730380535125732421875</LongitudeDegrees>
            </Position>
            <AltitudeMeters>450.600006103515625</AltitudeMeters>
            <DistanceMeters>1767.9358880995</DistanceMeters>
          </Trackpoint>
          <Trackpoint>
            <Time>2021-04-07T11:58:10.000Z</Time>
            <Position>
              <LatitudeDegrees>42.81728913076221942901611328125</LatitudeDegrees>
              <LongitudeDegrees>-1.64357830770313739776611328125</LongitudeDegrees>
            </Position>
            <AltitudeMeters>450.600006103515625</AltitudeMeters>
            <DistanceMeters>1769.1453807137</DistanceMeters>
          </Trackpoint>
          <Trackpoint>
            <Time>2021-04-07T11:58:11.000Z</Time>
            <Position>
              <LatitudeDegrees>42.81729868613183498382568359375</LatitudeDegrees>
              <LongitudeDegrees>-1.64357881061732769012451171875</LongitudeDegrees>
            </Position>
            <AltitudeMeters>450.600006103515625</AltitudeMeters>
            <DistanceMeters>1770.2078116788</DistanceMeters>
          </Trackpoint>
          <Trackpoint>
            <Time>2021-04-07T11:58:12.000Z</Time>
            <Position>
              <LatitudeDegrees>42.8173056431114673614501953125</LatitudeDegrees>
              <LongitudeDegrees>-1.64357679896056652069091796875</LongitudeDegrees>
            </Position>
            <AltitudeMeters>450.79998779296875</AltitudeMeters>
            <DistanceMeters>1771.0028622124</DistanceMeters>
          </Trackpoint>
          <Trackpoint>
            <Time>2021-04-07T11:58:13.000Z</Time>
            <Position>
              <LatitudeDegrees>42.81730958260595798492431640625</LatitudeDegrees>
              <LongitudeDegrees>-1.6435747034847736358642578125</LongitudeDegrees>
            </Position>
            <AltitudeMeters>450.79998779296875</AltitudeMeters>
            <DistanceMeters>1771.4683961367</DistanceMeters>
          </Trackpoint>
          <Trackpoint>
            <Time>2021-04-07T11:58:14.000Z</Time>
            <Position>
              <LatitudeDegrees>42.81725593842566013336181640625</LatitudeDegrees>
              <LongitudeDegrees>-1.6435415111482143402099609375</LongitudeDegrees>
            </Position>
            <AltitudeMeters>450.79998779296875</AltitudeMeters>
            <DistanceMeters>1778.0245507927</DistanceMeters>
          </Trackpoint>
          <Trackpoint>
            <Time>2021-04-07T11:58:15.000Z</Time>
            <Position>
              <LatitudeDegrees>42.81724906526505947113037109375</LatitudeDegrees>
              <LongitudeDegrees>-1.64353497326374053955078125</LongitudeDegrees>
            </Position>
            <AltitudeMeters>451</AltitudeMeters>
            <DistanceMeters>1778.9604553899</DistanceMeters>
          </Trackpoint>
          <Trackpoint>
            <Time>2021-04-07T11:58:16.000Z</Time>
            <Position>
              <LatitudeDegrees>42.81724655069410800933837890625</LatitudeDegrees>
              <LongitudeDegrees>-1.64352902211248874664306640625</LongitudeDegrees>
            </Position>
            <AltitudeMeters>451</AltitudeMeters>
            <DistanceMeters>1779.5145515901</DistanceMeters>
          </Trackpoint>
          <Trackpoint>
            <Time>2021-04-07T11:58:17.000Z</Time>
            <Position>
              <LatitudeDegrees>42.817250825464725494384765625</LatitudeDegrees>
              <LongitudeDegrees>-1.64353103376924991607666015625</LongitudeDegrees>
            </Position>
            <AltitudeMeters>451</AltitudeMeters>
            <DistanceMeters>1780.0173856984</DistanceMeters>
          </Trackpoint>
          <Trackpoint>
            <Time>2021-04-07T11:58:18.000Z</Time>
            <Position>
              <LatitudeDegrees>42.8172536753118038177490234375</LatitudeDegrees>
              <LongitudeDegrees>-1.6435103304684162139892578125</LongitudeDegrees>
            </Position>
            <AltitudeMeters>451</AltitudeMeters>
            <DistanceMeters>1781.733137697</DistanceMeters>
          </Trackpoint>
          <Trackpoint>
            <Time>2021-04-07T11:58:19.000Z</Time>
            <Position>
              <LatitudeDegrees>42.817250825464725494384765625</LatitudeDegrees>
              <LongitudeDegrees>-1.64351443760097026824951171875</LongitudeDegrees>
            </Position>
            <AltitudeMeters>451</AltitudeMeters>
            <DistanceMeters>1782.1788524957</DistanceMeters>
          </Trackpoint>
          <Trackpoint>
            <Time>2021-04-07T11:58:20.000Z</Time>
            <Position>
              <LatitudeDegrees>42.81725828535854816436767578125</LatitudeDegrees>
              <LongitudeDegrees>-1.6435307823121547698974609375</LongitudeDegrees>
            </Position>
            <AltitudeMeters>451</AltitudeMeters>
            <DistanceMeters>1783.7518245061</DistanceMeters>
          </Trackpoint>
          <Trackpoint>
            <Time>2021-04-07T11:58:21.000Z</Time>
            <Position>
              <LatitudeDegrees>42.8172734566032886505126953125</LatitudeDegrees>
              <LongitudeDegrees>-1.6435488872230052947998046875</LongitudeDegrees>
            </Position>
            <AltitudeMeters>450.79998779296875</AltitudeMeters>
            <DistanceMeters>1785.9965477977</DistanceMeters>
          </Trackpoint>
          <Trackpoint>
            <Time>2021-04-07T11:58:22.000Z</Time>
            <Position>
              <LatitudeDegrees>42.81729399226605892181396484375</LatitudeDegrees>
              <LongitudeDegrees>-1.6435663215816020965576171875</LongitudeDegrees>
            </Position>
            <AltitudeMeters>450.79998779296875</AltitudeMeters>
            <DistanceMeters>1788.6893439995</DistanceMeters>
          </Trackpoint>
          <Trackpoint>
            <Time>2021-04-07T11:58:23.000Z</Time>
            <Position>
              <LatitudeDegrees>42.8172898851335048675537109375</LatitudeDegrees>
              <LongitudeDegrees>-1.64356640540063381195068359375</LongitudeDegrees>
            </Position>
            <AltitudeMeters>451</AltitudeMeters>
            <DistanceMeters>1789.1548779238</DistanceMeters>
          </Trackpoint>
          <Trackpoint>
            <Time>2021-04-07T11:58:24.000Z</Time>
            <Position>
              <LatitudeDegrees>42.8172942437231540679931640625</LatitudeDegrees>
              <LongitudeDegrees>-1.64357344619929790496826171875</LongitudeDegrees>
            </Position>
            <AltitudeMeters>451</AltitudeMeters>
            <DistanceMeters>1789.9150916387</DistanceMeters>
          </Trackpoint>
          <Trackpoint>
            <Time>2021-04-07T11:58:25.000Z</Time>
            <Position>
              <LatitudeDegrees>42.8172982670366764068603515625</LatitudeDegrees>
              <LongitudeDegrees>-1.64357076399028301239013671875</LongitudeDegrees>
            </Position>
            <AltitudeMeters>451</AltitudeMeters>
            <DistanceMeters>1790.417925747</DistanceMeters>
          </Trackpoint>
          <Trackpoint>
            <Time>2021-04-07T11:58:26.000Z</Time>
            <Position>
              <LatitudeDegrees>42.81730036251246929168701171875</LatitudeDegrees>
              <LongitudeDegrees>-1.64358367212116718292236328125</LongitudeDegrees>
            </Position>
            <AltitudeMeters>451</AltitudeMeters>
            <DistanceMeters>1791.4972217496</DistanceMeters>
          </Trackpoint>
          <Trackpoint>
            <Time>2021-04-07T11:58:27.000Z</Time>
            <Position>
              <LatitudeDegrees>42.81730505637824535369873046875</LatitudeDegrees>
              <LongitudeDegrees>-1.6435981728136539459228515625</LongitudeDegrees>
            </Position>
            <AltitudeMeters>451</AltitudeMeters>
            <DistanceMeters>1792.7932133462</DistanceMeters>
          </Trackpoint>
          <Trackpoint>
            <Time>2021-04-07T11:58:28.000Z</Time>
            <Position>
              <LatitudeDegrees>42.81731016933917999267578125</LatitudeDegrees>
              <LongitudeDegrees>-1.6436062194406986236572265625</LongitudeDegrees>
            </Position>
            <AltitudeMeters>451.79998779296875</AltitudeMeters>
            <DistanceMeters>1793.6641475695</DistanceMeters>
          </Trackpoint>
          <Trackpoint>
            <Time>2021-04-07T11:58:29.000Z</Time>
            <Position>
              <LatitudeDegrees>42.817301452159881591796875</LatitudeDegrees>
              <LongitudeDegrees>-1.64360739290714263916015625</LongitudeDegrees>
            </Position>
            <AltitudeMeters>452.20001220703125</AltitudeMeters>
            <DistanceMeters>1794.6425074742</DistanceMeters>
          </Trackpoint>
          <Trackpoint>
            <Time>2021-04-07T11:58:30.000Z</Time>
            <Position>
              <LatitudeDegrees>42.81730757094919681549072265625</LatitudeDegrees>
              <LongitudeDegrees>-1.64361284114420413970947265625</LongitudeDegrees>
            </Position>
            <AltitudeMeters>451.79998779296875</AltitudeMeters>
            <DistanceMeters>1795.4599581803</DistanceMeters>
          </Trackpoint>
          <Trackpoint>
            <Time>2021-04-07T11:58:31.000Z</Time>
            <Position>
              <LatitudeDegrees>42.8173002786934375762939453125</LatitudeDegrees>
              <LongitudeDegrees>-1.6436089016497135162353515625</LongitudeDegrees>
            </Position>
            <AltitudeMeters>452.20001220703125</AltitudeMeters>
            <DistanceMeters>1796.3256927498</DistanceMeters>
          </Trackpoint>
          <Trackpoint>
            <Time>2021-04-07T11:58:32.000Z</Time>
            <Position>
              <LatitudeDegrees>42.81728200614452362060546875</LatitudeDegrees>
              <LongitudeDegrees>-1.64360144175589084625244140625</LongitudeDegrees>
            </Position>
            <AltitudeMeters>452.600006103515625</AltitudeMeters>
            <DistanceMeters>1798.4463006978</DistanceMeters>
          </Trackpoint>
          <Trackpoint>
            <Time>2021-04-07T11:58:33.000Z</Time>
            <Position>
              <LatitudeDegrees>42.8172788210213184356689453125</LatitudeDegrees>
              <LongitudeDegrees>-1.64359976537525653839111328125</LongitudeDegrees>
            </Position>
            <AltitudeMeters>452.20001220703125</AltitudeMeters>
            <DistanceMeters>1798.81433758</DistanceMeters>
          </Trackpoint>
          <Trackpoint>
            <Time>2021-04-07T11:58:34.000Z</Time>
            <Position>
              <LatitudeDegrees>42.81727932393550872802734375</LatitudeDegrees>
              <LongitudeDegrees>-1.64361334405839443206787109375</LongitudeDegrees>
            </Position>
            <AltitudeMeters>452.20001220703125</AltitudeMeters>
            <DistanceMeters>1799.9225299804</DistanceMeters>
          </Trackpoint>
          <Trackpoint>
            <Time>2021-04-07T11:58:35.000Z</Time>
            <Position>
              <LatitudeDegrees>42.81730254180729389190673828125</LatitudeDegrees>
              <LongitudeDegrees>-1.643635220825672149658203125</LongitudeDegrees>
            </Position>
            <AltitudeMeters>452</AltitudeMeters>
            <DistanceMeters>1803.0656023037</DistanceMeters>
          </Trackpoint>
          <Trackpoint>
            <Time>2021-04-07T11:58:36.000Z</Time>
            <Position>
              <LatitudeDegrees>42.817319221794605255126953125</LatitudeDegrees>
              <LongitudeDegrees>-1.6436555050313472747802734375</LongitudeDegrees>
            </Position>
            <AltitudeMeters>451.79998779296875</AltitudeMeters>
            <DistanceMeters>1805.5545041581</DistanceMeters>
          </Trackpoint>
          <Trackpoint>
            <Time>2021-04-07T11:58:37.000Z</Time>
            <Position>
              <LatitudeDegrees>42.81732986681163311004638671875</LatitudeDegrees>
              <LongitudeDegrees>-1.64366313256323337554931640625</LongitudeDegrees>
            </Position>
            <AltitudeMeters>451.79998779296875</AltitudeMeters>
            <DistanceMeters>1806.8916485541</DistanceMeters>
          </Trackpoint>
          <Trackpoint>
            <Time>2021-04-07T11:58:38.000Z</Time>
            <Position>
              <LatitudeDegrees>42.8173783980309963226318359375</LatitudeDegrees>
              <LongitudeDegrees>-1.6436893679201602935791015625</LongitudeDegrees>
            </Position>
            <AltitudeMeters>451.79998779296875</AltitudeMeters>
            <DistanceMeters>1812.7030585294</DistanceMeters>
          </Trackpoint>
          <Trackpoint>
            <Time>2021-04-07T11:58:39.000Z</Time>
            <Position>
              <LatitudeDegrees>42.81741787679493427276611328125</LatitudeDegrees>
              <LongitudeDegrees>-1.643706969916820526123046875</LongitudeDegrees>
            </Position>
            <AltitudeMeters>451.79998779296875</AltitudeMeters>
            <DistanceMeters>1817.3262815332</DistanceMeters>
          </Trackpoint>
          <Trackpoint>
            <Time>2021-04-07T11:58:40.000Z</Time>
            <Position>
              <LatitudeDegrees>42.8174591995775699615478515625</LatitudeDegrees>
              <LongitudeDegrees>-1.64372733794152736663818359375</LongitudeDegrees>
            </Position>
            <AltitudeMeters>451.79998779296875</AltitudeMeters>
            <DistanceMeters>1822.2171579884</DistanceMeters>
          </Trackpoint>
          <Trackpoint>
            <Time>2021-04-07T11:58:41.000Z</Time>
            <Position>
              <LatitudeDegrees>42.81748845241963863372802734375</LatitudeDegrees>
              <LongitudeDegrees>-1.6437396593391895294189453125</LongitudeDegrees>
            </Position>
            <AltitudeMeters>451.79998779296875</AltitudeMeters>
            <DistanceMeters>1825.6248959928</DistanceMeters>
          </Trackpoint>
          <Trackpoint>
            <Time>2021-04-07T11:58:42.000Z</Time>
            <Position>
              <LatitudeDegrees>42.81747604720294475555419921875</LatitudeDegrees>
              <LongitudeDegrees>-1.64373236708343029022216796875</LongitudeDegrees>
            </Position>
            <AltitudeMeters>451.600006103515625</AltitudeMeters>
            <DistanceMeters>1827.1274002727</DistanceMeters>
          </Trackpoint>
          <Trackpoint>
            <Time>2021-04-07T11:58:43.000Z</Time>
            <Position>
              <LatitudeDegrees>42.8174625523388385772705078125</LatitudeDegrees>
              <LongitudeDegrees>-1.643717698752880096435546875</LongitudeDegrees>
            </Position>
            <AltitudeMeters>451.600006103515625</AltitudeMeters>
            <DistanceMeters>1829.0491966369</DistanceMeters>
          </Trackpoint>
          <Trackpoint>
            <Time>2021-04-07T11:58:44.000Z</Time>
            <Position>
              <LatitudeDegrees>42.8174602054059505462646484375</LatitudeDegrees>
              <LongitudeDegrees>-1.64371694438159465789794921875</LongitudeDegrees>
            </Position>
            <AltitudeMeters>451.399993896484375</AltitudeMeters>
            <DistanceMeters>1829.3496974929</DistanceMeters>
          </Trackpoint>
          <Trackpoint>
            <Time>2021-04-07T11:58:45.000Z</Time>
            <Position>
              <LatitudeDegrees>42.817457020282745361328125</LatitudeDegrees>
              <LongitudeDegrees>-1.64371334016323089599609375</LongitudeDegrees>
            </Position>
            <AltitudeMeters>451.399993896484375</AltitudeMeters>
            <DistanceMeters>1829.8248310647</DistanceMeters>
          </Trackpoint>
          <Trackpoint>
            <Time>2021-04-07T11:58:46.000Z</Time>
            <Position>
              <LatitudeDegrees>42.81745794229209423065185546875</LatitudeDegrees>
              <LongitudeDegrees>-1.64370018057525157928466796875</LongitudeDegrees>
            </Position>
            <AltitudeMeters>451.20001220703125</AltitudeMeters>
            <DistanceMeters>1830.9083023093</DistanceMeters>
          </Trackpoint>
          <Trackpoint>
            <Time>2021-04-07T11:58:47.000Z</Time>
            <Position>
              <LatitudeDegrees>42.81745827756822109222412109375</LatitudeDegrees>
              <LongitudeDegrees>-1.6436964087188243865966796875</LongitudeDegrees>
            </Position>
            <AltitudeMeters>451.20001220703125</AltitudeMeters>
            <DistanceMeters>1831.2088031652</DistanceMeters>
          </Trackpoint>
          <Trackpoint>
            <Time>2021-04-07T11:58:48.000Z</Time>
            <Position>
              <LatitudeDegrees>42.81745634973049163818359375</LatitudeDegrees>
              <LongitudeDegrees>-1.643706969916820526123046875</LongitudeDegrees>
            </Position>
            <AltitudeMeters>451.20001220703125</AltitudeMeters>
            <DistanceMeters>1832.1002327626</DistanceMeters>
          </Trackpoint>
          <Trackpoint>
            <Time>2021-04-07T11:58:49.000Z</Time>
            <Position>
              <LatitudeDegrees>42.81745257787406444549560546875</LatitudeDegrees>
              <LongitudeDegrees>-1.643725074827671051025390625</LongitudeDegrees>
            </Position>
            <AltitudeMeters>451.20001220703125</AltitudeMeters>
            <DistanceMeters>1833.6383745078</DistanceMeters>
          </Trackpoint>
          <Trackpoint>
            <Time>2021-04-07T11:58:50.000Z</Time>
            <Position>
              <LatitudeDegrees>42.81744989566504955291748046875</LatitudeDegrees>
              <LongitudeDegrees>-1.64373773150146007537841796875</LongitudeDegrees>
            </Position>
            <AltitudeMeters>451.20001220703125</AltitudeMeters>
            <DistanceMeters>1834.7134790538</DistanceMeters>
          </Trackpoint>
          <Trackpoint>
            <Time>2021-04-07T11:58:51.000Z</Time>
            <Position>
              <LatitudeDegrees>42.8174464590847492218017578125</LatitudeDegrees>
              <LongitudeDegrees>-1.64373605512082576751708984375</LongitudeDegrees>
            </Position>
            <AltitudeMeters>451.20001220703125</AltitudeMeters>
            <DistanceMeters>1835.1166432585</DistanceMeters>
          </Trackpoint>
          <Trackpoint>
            <Time>2021-04-07T11:58:52.000Z</Time>
            <Position>
              <LatitudeDegrees>42.81744218431413173675537109375</LatitudeDegrees>
              <LongitudeDegrees>-1.6437353007495403289794921875</LongitudeDegrees>
            </Position>
            <AltitudeMeters>451.399993896484375</AltitudeMeters>
            <DistanceMeters>1835.6011863294</DistanceMeters>
          </Trackpoint>
          <Trackpoint>
            <Time>2021-04-07T11:58:53.000Z</Time>
            <Position>
              <LatitudeDegrees>42.81744168139994144439697265625</LatitudeDegrees>
              <LongitudeDegrees>-1.64373639039695262908935546875</LongitudeDegrees>
            </Position>
            <AltitudeMeters>451.399993896484375</AltitudeMeters>
            <DistanceMeters>1835.7355743977</DistanceMeters>
          </Trackpoint>
          <Trackpoint>
            <Time>2021-04-07T11:58:54.000Z</Time>
            <Position>
              <LatitudeDegrees>42.81743899919092655181884765625</LatitudeDegrees>
              <LongitudeDegrees>-1.643741168081760406494140625</LongitudeDegrees>
            </Position>
            <AltitudeMeters>451.399993896484375</AltitudeMeters>
            <DistanceMeters>1836.2293476898</DistanceMeters>
          </Trackpoint>
          <Trackpoint>
            <Time>2021-04-07T11:58:55.000Z</Time>
            <Position>
              <LatitudeDegrees>42.81743648461997509002685546875</LatitudeDegrees>
              <LongitudeDegrees>-1.64374829269945621490478515625</LongitudeDegrees>
            </Position>
            <AltitudeMeters>451.600006103515625</AltitudeMeters>
            <DistanceMeters>1836.8738502238</DistanceMeters>
          </Trackpoint>
          <Trackpoint>
            <Time>2021-04-07T11:58:56.000Z</Time>
            <Position>
              <LatitudeDegrees>42.8174263425171375274658203125</LatitudeDegrees>
              <LongitudeDegrees>-1.6437591053545475006103515625</LongitudeDegrees>
            </Position>
            <AltitudeMeters>451.600006103515625</AltitudeMeters>
            <DistanceMeters>1838.3024149848</DistanceMeters>
          </Trackpoint>
          <Trackpoint>
            <Time>2021-04-07T11:58:57.000Z</Time>
            <Position>
              <LatitudeDegrees>42.8174146078526973724365234375</LatitudeDegrees>
              <LongitudeDegrees>-1.64376237429678440093994140625</LongitudeDegrees>
            </Position>
            <AltitudeMeters>451.600006103515625</AltitudeMeters>
            <DistanceMeters>1839.6361784794</DistanceMeters>
          </Trackpoint>
          <Trackpoint>
            <Time>2021-04-07T11:58:58.000Z</Time>
            <Position>
              <LatitudeDegrees>42.81740362755954265594482421875</LatitudeDegrees>
              <LongitudeDegrees>-1.64376555941998958587646484375</LongitudeDegrees>
            </Position>
            <AltitudeMeters>451.600006103515625</AltitudeMeters>
            <DistanceMeters>1840.8896669322</DistanceMeters>
          </Trackpoint>
          <Trackpoint>
            <Time>2021-04-07T11:58:59.000Z</Time>
            <Position>
              <LatitudeDegrees>42.8174092434346675872802734375</LatitudeDegrees>
              <LongitudeDegrees>-1.6437689960002899169921875</LongitudeDegrees>
            </Position>
            <AltitudeMeters>451.600006103515625</AltitudeMeters>
            <DistanceMeters>1841.5749143146</DistanceMeters>
          </Trackpoint>
          <Trackpoint>
            <Time>2021-04-07T11:59:00.000Z</Time>
            <Position>
              <LatitudeDegrees>42.81740044243633747100830078125</LatitudeDegrees>
              <LongitudeDegrees>-1.64376639761030673980712890625</LongitudeDegrees>
            </Position>
            <AltitudeMeters>451.600006103515625</AltitudeMeters>
            <DistanceMeters>1842.571562903</DistanceMeters>
          </Trackpoint>
          <Trackpoint>
            <Time>2021-04-07T11:59:01.000Z</Time>
            <Position>
              <LatitudeDegrees>42.81739977188408374786376953125</LatitudeDegrees>
              <LongitudeDegrees>-1.64376706816256046295166015625</LongitudeDegrees>
            </Position>
            <AltitudeMeters>451.600006103515625</AltitudeMeters>
            <DistanceMeters>1842.7059509713</DistanceMeters>
          </Trackpoint>
          <Trackpoint>
            <Time>2021-04-07T11:59:02.000Z</Time>
            <Position>
              <LatitudeDegrees>42.817399688065052032470703125</LatitudeDegrees>
              <LongitudeDegrees>-1.64375566877424716949462890625</LongitudeDegrees>
            </Position>
            <AltitudeMeters>451.600006103515625</AltitudeMeters>
            <DistanceMeters>1843.6370188198</DistanceMeters>
          </Trackpoint>
          <Trackpoint>
            <Time>2021-04-07T11:59:03.000Z</Time>
            <Position>
              <LatitudeDegrees>42.8174072317779064178466796875</LatitudeDegrees>
              <LongitudeDegrees>-1.64374225772917270660400390625</LongitudeDegrees>
            </Position>
            <AltitudeMeters>451.600006103515625</AltitudeMeters>
            <DistanceMeters>1845.0206286659</DistanceMeters>
          </Trackpoint>
          <Trackpoint>
            <Time>2021-04-07T11:59:04.000Z</Time>
            <Position>
              <LatitudeDegrees>42.8174266777932643890380859375</LatitudeDegrees>
              <LongitudeDegrees>-1.64373354054987430572509765625</LongitudeDegrees>
            </Position>
            <AltitudeMeters>451.600006103515625</AltitudeMeters>
            <DistanceMeters>1847.3012698108</DistanceMeters>
          </Trackpoint>
          <Trackpoint>
            <Time>2021-04-07T11:59:05.000Z</Time>
            <Position>
              <LatitudeDegrees>42.8174260072410106658935546875</LatitudeDegrees>
              <LongitudeDegrees>-1.64371560327708721160888671875</LongitudeDegrees>
            </Position>
            <AltitudeMeters>451.600006103515625</AltitudeMeters>
            <DistanceMeters>1848.767270559</DistanceMeters>
          </Trackpoint>
          <Trackpoint>
            <Time>2021-04-07T11:59:06.000Z</Time>
            <Position>
              <LatitudeDegrees>42.81742022372782230377197265625</LatitudeDegrees>
              <LongitudeDegrees>-1.643693558871746063232421875</LongitudeDegrees>
            </Position>
            <AltitudeMeters>451.600006103515625</AltitudeMeters>
            <DistanceMeters>1850.6772838792</DistanceMeters>
          </Trackpoint>
          <Trackpoint>
            <Time>2021-04-07T11:59:07.000Z</Time>
            <Position>
              <LatitudeDegrees>42.81742558814585208892822265625</LatitudeDegrees>
              <LongitudeDegrees>-1.6436885297298431396484375</LongitudeDegrees>
            </Position>
            <AltitudeMeters>451.600006103515625</AltitudeMeters>
            <DistanceMeters>1851.4009857748</DistanceMeters>
          </Trackpoint>
          <Trackpoint>
            <Time>2021-04-07T11:59:08.000Z</Time>
            <Position>
              <LatitudeDegrees>42.81741268001496791839599609375</LatitudeDegrees>
              <LongitudeDegrees>-1.64367981255054473876953125</LongitudeDegrees>
            </Position>
            <AltitudeMeters>451.600006103515625</AltitudeMeters>
            <DistanceMeters>1853.0024044303</DistanceMeters>
          </Trackpoint>
          <Trackpoint>
            <Time>2021-04-07T11:59:09.000Z</Time>
            <Position>
              <LatitudeDegrees>42.817409075796604156494140625</LatitudeDegrees>
              <LongitudeDegrees>-1.643676124513149261474609375</LongitudeDegrees>
            </Position>
            <AltitudeMeters>451.600006103515625</AltitudeMeters>
            <DistanceMeters>1853.5052385385</DistanceMeters>
          </Trackpoint>
          <Trackpoint>
            <Time>2021-04-07T11:59:10.000Z</Time>
            <Position>
              <LatitudeDegrees>42.8173954971134662628173828125</LatitudeDegrees>
              <LongitudeDegrees>-1.64366380311548709869384765625</LongitudeDegrees>
            </Position>
            <AltitudeMeters>451.600006103515625</AltitudeMeters>
            <DistanceMeters>1855.3207213674</DistanceMeters>
          </Trackpoint>
          <Trackpoint>
            <Time>2021-04-07T11:59:11.000Z</Time>
            <Position>
              <LatitudeDegrees>42.81738258898258209228515625</LatitudeDegrees>
              <LongitudeDegrees>-1.6436518169939517974853515625</LongitudeDegrees>
            </Position>
            <AltitudeMeters>451.600006103515625</AltitudeMeters>
            <DistanceMeters>1857.0573979442</DistanceMeters>
          </Trackpoint>
          <Trackpoint>
            <Time>2021-04-07T11:59:12.000Z</Time>
            <Position>
              <LatitudeDegrees>42.81736171804368495941162109375</LatitudeDegrees>
              <LongitudeDegrees>-1.643634550273418426513671875</LongitudeDegrees>
            </Position>
            <AltitudeMeters>451.79998779296875</AltitudeMeters>
            <DistanceMeters>1859.7752284266</DistanceMeters>
          </Trackpoint>
          <Trackpoint>
            <Time>2021-04-07T11:59:13.000Z</Time>
            <Position>
              <LatitudeDegrees>42.8173311240971088409423828125</LatitudeDegrees>
              <LongitudeDegrees>-1.643611751496791839599609375</LongitudeDegrees>
            </Position>
            <AltitudeMeters>451.79998779296875</AltitudeMeters>
            <DistanceMeters>1863.6562292651</DistanceMeters>
          </Trackpoint>
          <Trackpoint>
            <Time>2021-04-07T11:59:14.000Z</Time>
            <Position>
              <LatitudeDegrees>42.817307151854038238525390625</LatitudeDegrees>
              <LongitudeDegrees>-1.64359507150948047637939453125</LongitudeDegrees>
            </Position>
            <AltitudeMeters>451.79998779296875</AltitudeMeters>
            <DistanceMeters>1866.6522092359</DistanceMeters>
          </Trackpoint>
          <Trackpoint>
            <Time>2021-04-07T11:59:15.000Z</Time>
            <Position>
              <LatitudeDegrees>42.81730748713016510009765625</LatitudeDegrees>
              <LongitudeDegrees>-1.64359121583402156829833984375</LongitudeDegrees>
            </Position>
            <AltitudeMeters>451.79998779296875</AltitudeMeters>
            <DistanceMeters>1866.9673771925</DistanceMeters>
          </Trackpoint>
          <Trackpoint>
            <Time>2021-04-07T11:59:16.000Z</Time>
            <Position>
              <LatitudeDegrees>42.81730941496789455413818359375</LatitudeDegrees>
              <LongitudeDegrees>-1.64358953945338726043701171875</LongitudeDegrees>
            </Position>
            <AltitudeMeters>451.79998779296875</AltitudeMeters>
            <DistanceMeters>1867.2001441547</DistanceMeters>
          </Trackpoint>
          <Trackpoint>
            <Time>2021-04-07T11:59:17.000Z</Time>
            <Position>
              <LatitudeDegrees>42.81730740331113338470458984375</LatitudeDegrees>
              <LongitudeDegrees>-1.6435874439775943756103515625</LongitudeDegrees>
            </Position>
            <AltitudeMeters>451.79998779296875</AltitudeMeters>
            <DistanceMeters>1867.4689202912</DistanceMeters>
          </Trackpoint>
          <Trackpoint>
            <Time>2021-04-07T11:59:18.000Z</Time>
            <Position>
              <LatitudeDegrees>42.8172759711742401123046875</LatitudeDegrees>
              <LongitudeDegrees>-1.6435683332383632659912109375</LongitudeDegrees>
            </Position>
            <AltitudeMeters>452</AltitudeMeters>
            <DistanceMeters>1871.3007480923</DistanceMeters>
          </Trackpoint>
          <Trackpoint>
            <Time>2021-04-07T11:59:19.000Z</Time>
            <Position>
              <LatitudeDegrees>42.81725560314953327178955078125</LatitudeDegrees>
              <LongitudeDegrees>-1.64355601184070110321044921875</LongitudeDegrees>
            </Position>
            <AltitudeMeters>452</AltitudeMeters>
            <DistanceMeters>1873.7823830644</DistanceMeters>
          </Trackpoint>
          <Trackpoint>
            <Time>2021-04-07T11:59:20.000Z</Time>
            <Position>
              <LatitudeDegrees>42.81724118627607822418212890625</LatitudeDegrees>
              <LongitudeDegrees>-1.6435441933572292327880859375</LongitudeDegrees>
            </Position>
            <AltitudeMeters>452</AltitudeMeters>
            <DistanceMeters>1875.6541922588</DistanceMeters>
          </Trackpoint>
          <Trackpoint>
            <Time>2021-04-07T11:59:21.000Z</Time>
            <Position>
              <LatitudeDegrees>42.81723246909677982330322265625</LatitudeDegrees>
              <LongitudeDegrees>-1.643534637987613677978515625</LongitudeDegrees>
            </Position>
            <AltitudeMeters>452</AltitudeMeters>
            <DistanceMeters>1876.9004559341</DistanceMeters>
          </Trackpoint>
          <Trackpoint>
            <Time>2021-04-07T11:59:22.000Z</Time>
            <Position>
              <LatitudeDegrees>42.81722408719360828399658203125</LatitudeDegrees>
              <LongitudeDegrees>-1.64352550171315670013427734375</LongitudeDegrees>
            </Position>
            <AltitudeMeters>452</AltitudeMeters>
            <DistanceMeters>1878.0949232121</DistanceMeters>
          </Trackpoint>
          <Trackpoint>
            <Time>2021-04-07T11:59:23.000Z</Time>
            <Position>
              <LatitudeDegrees>42.817222662270069122314453125</LatitudeDegrees>
              <LongitudeDegrees>-1.643517874181270599365234375</LongitudeDegrees>
            </Position>
            <AltitudeMeters>452</AltitudeMeters>
            <DistanceMeters>1878.7394257462</DistanceMeters>
          </Trackpoint>
          <Trackpoint>
            <Time>2021-04-07T11:59:24.000Z</Time>
            <Position>
              <LatitudeDegrees>42.8172224946320056915283203125</LatitudeDegrees>
              <LongitudeDegrees>-1.64350555278360843658447265625</LongitudeDegrees>
            </Position>
            <AltitudeMeters>452</AltitudeMeters>
            <DistanceMeters>1879.7450939627</DistanceMeters>
          </Trackpoint>
          <Trackpoint>
            <Time>2021-04-07T11:59:25.000Z</Time>
            <Position>
              <LatitudeDegrees>42.81721570529043674468994140625</LatitudeDegrees>
              <LongitudeDegrees>-1.64348744787275791168212890625</LongitudeDegrees>
            </Position>
            <AltitudeMeters>452</AltitudeMeters>
            <DistanceMeters>1881.4073825634</DistanceMeters>
          </Trackpoint>
          <Trackpoint>
            <Time>2021-04-07T11:59:26.000Z</Time>
            <Position>
              <LatitudeDegrees>42.8172576986253261566162109375</LatitudeDegrees>
              <LongitudeDegrees>-1.6434925608336925506591796875</LongitudeDegrees>
            </Position>
            <AltitudeMeters>451.79998779296875</AltitudeMeters>
            <DistanceMeters>1886.0994318353</DistanceMeters>
          </Trackpoint>
          <Trackpoint>
            <Time>2021-04-07T11:59:27.000Z</Time>
            <Position>
              <LatitudeDegrees>42.817277647554874420166015625</LatitudeDegrees>
              <LongitudeDegrees>-1.6434928961098194122314453125</LongitudeDegrees>
            </Position>
            <AltitudeMeters>451.79998779296875</AltitudeMeters>
            <DistanceMeters>1888.3198871351</DistanceMeters>
          </Trackpoint>
          <Trackpoint>
            <Time>2021-04-07T11:59:28.000Z</Time>
            <Position>
              <LatitudeDegrees>42.81734847463667392730712890625</LatitudeDegrees>
              <LongitudeDegrees>-1.64350722916424274444580078125</LongitudeDegrees>
            </Position>
            <AltitudeMeters>451.79998779296875</AltitudeMeters>
            <DistanceMeters>1896.2896774527</DistanceMeters>
          </Trackpoint>
          <Trackpoint>
            <Time>2021-04-07T11:59:29.000Z</Time>
            <Position>
              <LatitudeDegrees>42.8173569403588771820068359375</LatitudeDegrees>
              <LongitudeDegrees>-1.643513180315494537353515625</LongitudeDegrees>
            </Position>
            <AltitudeMeters>451.79998779296875</AltitudeMeters>
            <DistanceMeters>1897.3478501603</DistanceMeters>
          </Trackpoint>
          <Trackpoint>
            <Time>2021-04-07T11:59:30.000Z</Time>
            <Position>
              <LatitudeDegrees>42.81740664504468441009521484375</LatitudeDegrees>
              <LongitudeDegrees>-1.64353899657726287841796875</LongitudeDegrees>
            </Position>
            <AltitudeMeters>452</AltitudeMeters>
            <DistanceMeters>1903.2685559253</DistanceMeters>
          </Trackpoint>
          <Trackpoint>
            <Time>2021-04-07T11:59:31.000Z</Time>
            <Position>
              <LatitudeDegrees>42.81742793507874011993408203125</LatitudeDegrees>
              <LongitudeDegrees>-1.6435571014881134033203125</LongitudeDegrees>
            </Position>
            <AltitudeMeters>452</AltitudeMeters>
            <DistanceMeters>1906.0617594709</DistanceMeters>
          </Trackpoint>
          <Trackpoint>
            <Time>2021-04-07T11:59:32.000Z</Time>
            <Position>
              <LatitudeDegrees>42.81745961867272853851318359375</LatitudeDegrees>
              <LongitudeDegrees>-1.643590629100799560546875</LongitudeDegrees>
            </Position>
            <AltitudeMeters>452</AltitudeMeters>
            <DistanceMeters>1910.5270040094</DistanceMeters>
          </Trackpoint>
          <Trackpoint>
            <Time>2021-04-07T11:59:33.000Z</Time>
            <Position>
              <LatitudeDegrees>42.81748040579259395599365234375</LatitudeDegrees>
              <LongitudeDegrees>-1.64363547228276729583740234375</LongitudeDegrees>
            </Position>
            <AltitudeMeters>452</AltitudeMeters>
            <DistanceMeters>1914.8577624619</DistanceMeters>
          </Trackpoint>
          <Trackpoint>
            <Time>2021-04-07T11:59:34.000Z</Time>
            <Position>
              <LatitudeDegrees>42.81751611270010471343994140625</LatitudeDegrees>
              <LongitudeDegrees>-1.64368140511214733123779296875</LongitudeDegrees>
            </Position>
            <AltitudeMeters>452</AltitudeMeters>
            <DistanceMeters>1920.3215919545</DistanceMeters>
          </Trackpoint>
          <Trackpoint>
            <Time>2021-04-07T11:59:35.000Z</Time>
            <Position>
              <LatitudeDegrees>42.8175322897732257843017578125</LatitudeDegrees>
              <LongitudeDegrees>-1.64370805956423282623291015625</LongitudeDegrees>
            </Position>
            <AltitudeMeters>452.20001220703125</AltitudeMeters>
            <DistanceMeters>1923.1469392918</DistanceMeters>
          </Trackpoint>
          <Trackpoint>
            <Time>2021-04-07T11:59:36.000Z</Time>
            <Position>
              <LatitudeDegrees>42.81756187789142131805419921875</LatitudeDegrees>
              <LongitudeDegrees>-1.643739156424999237060546875</LongitudeDegrees>
            </Position>
            <AltitudeMeters>452</AltitudeMeters>
            <DistanceMeters>1927.3042901687</DistanceMeters>
          </Trackpoint>
          <Trackpoint>
            <Time>2021-04-07T11:59:37.000Z</Time>
            <Position>
              <LatitudeDegrees>42.81757696531713008880615234375</LatitudeDegrees>
              <LongitudeDegrees>-1.64375089108943939208984375</LongitudeDegrees>
            </Position>
            <AltitudeMeters>452</AltitudeMeters>
            <DistanceMeters>1929.2377977709</DistanceMeters>
          </Trackpoint>
          <Trackpoint>
            <Time>2021-04-07T11:59:38.000Z</Time>
            <Position>
              <LatitudeDegrees>42.81759071163833141326904296875</LatitudeDegrees>
              <LongitudeDegrees>-1.643762290477752685546875</LongitudeDegrees>
            </Position>
            <AltitudeMeters>452</AltitudeMeters>
            <DistanceMeters>1931.0282382579</DistanceMeters>
          </Trackpoint>
          <Trackpoint>
            <Time>2021-04-07T11:59:39.000Z</Time>
            <Position>
              <LatitudeDegrees>42.81760076992213726043701171875</LatitudeDegrees>
              <LongitudeDegrees>-1.643773354589939117431640625</LongitudeDegrees>
            </Position>
            <AltitudeMeters>452</AltitudeMeters>
            <DistanceMeters>1932.466253385</DistanceMeters>
          </Trackpoint>
          <Trackpoint>
            <Time>2021-04-07T11:59:40.000Z</Time>
            <Position>
              <LatitudeDegrees>42.817598171532154083251953125</LatitudeDegrees>
              <LongitudeDegrees>-1.6437671519815921783447265625</LongitudeDegrees>
            </Position>
            <AltitudeMeters>451.79998779296875</AltitudeMeters>
            <DistanceMeters>1933.0520373937</DistanceMeters>
          </Trackpoint>
          <Trackpoint>
            <Time>2021-04-07T11:59:41.000Z</Time>
            <Position>
              <LatitudeDegrees>42.81759590841829776763916015625</LatitudeDegrees>
              <LongitudeDegrees>-1.64377880282700061798095703125</LongitudeDegrees>
            </Position>
            <AltitudeMeters>451.79998779296875</AltitudeMeters>
            <DistanceMeters>1934.0350013704</DistanceMeters>
          </Trackpoint>
          <Trackpoint>
            <Time>2021-04-07T11:59:42.000Z</Time>
            <Position>
              <LatitudeDegrees>42.81759372912347316741943359375</LatitudeDegrees>
              <LongitudeDegrees>-1.643793471157550811767578125</LongitudeDegrees>
            </Position>
            <AltitudeMeters>451.79998779296875</AltitudeMeters>
            <DistanceMeters>1935.25933494</DistanceMeters>
          </Trackpoint>
          <Trackpoint>
            <Time>2021-04-07T11:59:43.000Z</Time>
            <Position>
              <LatitudeDegrees>42.81759255565702915191650390625</LatitudeDegrees>
              <LongitudeDegrees>-1.6438087262213230133056640625</LongitudeDegrees>
            </Position>
            <AltitudeMeters>451.600006103515625</AltitudeMeters>
            <DistanceMeters>1936.5092162243</DistanceMeters>
          </Trackpoint>
          <Trackpoint>
            <Time>2021-04-07T11:59:44.000Z</Time>
            <Position>
              <LatitudeDegrees>42.8175912983715534210205078125</LatitudeDegrees>
              <LongitudeDegrees>-1.6438241489231586456298828125</LongitudeDegrees>
            </Position>
            <AltitudeMeters>451.399993896484375</AltitudeMeters>
            <DistanceMeters>1937.7698880508</DistanceMeters>
          </Trackpoint>
          <Trackpoint>
            <Time>2021-04-07T11:59:45.000Z</Time>
            <Position>
              <LatitudeDegrees>42.81759054400026798248291015625</LatitudeDegrees>
              <LongitudeDegrees>-1.643837057054042816162109375</LongitudeDegrees>
            </Position>
            <AltitudeMeters>451.399993896484375</AltitudeMeters>
            <DistanceMeters>1938.8237852956</DistanceMeters>
          </Trackpoint>
          <Trackpoint>
            <Time>2021-04-07T11:59:46.000Z</Time>
            <Position>
              <LatitudeDegrees>42.8175359778106212615966796875</LatitudeDegrees>
              <LongitudeDegrees>-1.643735133111476898193359375</LongitudeDegrees>
            </Position>
            <AltitudeMeters>451.399993896484375</AltitudeMeters>
            <DistanceMeters>1949.1253122878</DistanceMeters>
          </Trackpoint>
          <Trackpoint>
            <Time>2021-04-07T11:59:47.000Z</Time>
            <Position>
              <LatitudeDegrees>42.817542850971221923828125</LatitudeDegrees>
              <LongitudeDegrees>-1.64376555941998958587646484375</LongitudeDegrees>
            </Position>
            <AltitudeMeters>451.20001220703125</AltitudeMeters>
            <DistanceMeters>1951.7207769913</DistanceMeters>
          </Trackpoint>
          <Trackpoint>
            <Time>2021-04-07T11:59:48.000Z</Time>
            <Position>
              <LatitudeDegrees>42.81755500473082065582275390625</LatitudeDegrees>
              <LongitudeDegrees>-1.64377209730446338653564453125</LongitudeDegrees>
            </Position>
            <AltitudeMeters>451.20001220703125</AltitudeMeters>
            <DistanceMeters>1953.1744062039</DistanceMeters>
          </Trackpoint>
          <Trackpoint>
            <Time>2021-04-07T11:59:49.000Z</Time>
            <Position>
              <LatitudeDegrees>42.81757478602230548858642578125</LatitudeDegrees>
              <LongitudeDegrees>-1.643777377903461456298828125</LongitudeDegrees>
            </Position>
            <AltitudeMeters>451.20001220703125</AltitudeMeters>
            <DistanceMeters>1955.4191294955</DistanceMeters>
          </Trackpoint>
          <Trackpoint>
            <Time>2021-04-07T11:59:50.000Z</Time>
            <Position>
              <LatitudeDegrees>42.8176006861031055450439453125</LatitudeDegrees>
              <LongitudeDegrees>-1.64378986693918704986572265625</LongitudeDegrees>
            </Position>
            <AltitudeMeters>451.20001220703125</AltitudeMeters>
            <DistanceMeters>1958.4777499682</DistanceMeters>
          </Trackpoint>
          <Trackpoint>
            <Time>2021-04-07T11:59:51.000Z</Time>
            <Position>
              <LatitudeDegrees>42.81752265058457851409912109375</LatitudeDegrees>
              <LongitudeDegrees>-1.64373689331114292144775390625</LongitudeDegrees>
            </Position>
            <AltitudeMeters>451.399993896484375</AltitudeMeters>
            <DistanceMeters>1968.1807174011</DistanceMeters>
          </Trackpoint>
          <Trackpoint>
            <Time>2021-04-07T11:59:52.000Z</Time>
            <Position>
              <LatitudeDegrees>42.8174766339361667633056640625</LatitudeDegrees>
              <LongitudeDegrees>-1.64369163103401660919189453125</LongitudeDegrees>
            </Position>
            <AltitudeMeters>451.399993896484375</AltitudeMeters>
            <DistanceMeters>1974.4969566089</DistanceMeters>
          </Trackpoint>
          <Trackpoint>
            <Time>2021-04-07T11:59:53.000Z</Time>
            <Position>
              <LatitudeDegrees>42.81745492480695247650146484375</LatitudeDegrees>
              <LongitudeDegrees>-1.643643938004970550537109375</LongitudeDegrees>
            </Position>
            <AltitudeMeters>451.600006103515625</AltitudeMeters>
            <DistanceMeters>1979.0799641158</DistanceMeters>
          </Trackpoint>
          <Trackpoint>
            <Time>2021-04-07T11:59:54.000Z</Time>
            <Position>
              <LatitudeDegrees>42.81744830310344696044921875</LatitudeDegrees>
              <LongitudeDegrees>-1.6436162777245044708251953125</LongitudeDegrees>
            </Position>
            <AltitudeMeters>451.600006103515625</AltitudeMeters>
            <DistanceMeters>1981.4556319751</DistanceMeters>
          </Trackpoint>
          <Trackpoint>
            <Time>2021-04-07T11:59:55.000Z</Time>
            <Position>
              <LatitudeDegrees>42.81742961145937442779541015625</LatitudeDegrees>
              <LongitudeDegrees>-1.643585599958896636962890625</LongitudeDegrees>
            </Position>
            <AltitudeMeters>451.79998779296875</AltitudeMeters>
            <DistanceMeters>1984.7115972306</DistanceMeters>
          </Trackpoint>
          <Trackpoint>
            <Time>2021-04-07T11:59:56.000Z</Time>
            <Position>
              <LatitudeDegrees>42.81741905026137828826904296875</LatitudeDegrees>
              <LongitudeDegrees>-1.64356171153485774993896484375</LongitudeDegrees>
            </Position>
            <AltitudeMeters>451.79998779296875</AltitudeMeters>
            <DistanceMeters>1986.988275486</DistanceMeters>
          </Trackpoint>
          <Trackpoint>
            <Time>2021-04-07T11:59:57.000Z</Time>
            <Position>
              <LatitudeDegrees>42.81739675439894199371337890625</LatitudeDegrees>
              <LongitudeDegrees>-1.643531955778598785400390625</LongitudeDegrees>
            </Position>
            <AltitudeMeters>451.79998779296875</AltitudeMeters>
            <DistanceMeters>1990.4616286396</DistanceMeters>
          </Trackpoint>
          <Trackpoint>
            <Time>2021-04-07T11:59:58.000Z</Time>
            <Position>
              <LatitudeDegrees>42.81736305914819240570068359375</LatitudeDegrees>
              <LongitudeDegrees>-1.64348945952951908111572265625</LongitudeDegrees>
            </Position>
            <AltitudeMeters>451.79998779296875</AltitudeMeters>
            <DistanceMeters>1995.5701431911</DistanceMeters>
          </Trackpoint>
          <Trackpoint>
            <Time>2021-04-07T11:59:59.000Z</Time>
            <Position>
              <LatitudeDegrees>42.81735719181597232818603515625</LatitudeDegrees>
              <LongitudeDegrees>-1.64347940124571323394775390625</LongitudeDegrees>
            </Position>
            <AltitudeMeters>451.79998779296875</AltitudeMeters>
            <DistanceMeters>1996.6197475576</DistanceMeters>
          </Trackpoint>
          <Trackpoint>
            <Time>2021-04-07T12:00:00.000Z</Time>
            <Position>
              <LatitudeDegrees>42.8173519112169742584228515625</LatitudeDegrees>
              <LongitudeDegrees>-1.6434731148183345794677734375</LongitudeDegrees>
            </Position>
            <AltitudeMeters>451.79998779296875</AltitudeMeters>
            <DistanceMeters>1997.4033579188</DistanceMeters>
          </Trackpoint>
          <Trackpoint>
            <Time>2021-04-07T12:00:01.000Z</Time>
            <Position>
              <LatitudeDegrees>42.8173472173511981964111328125</LatitudeDegrees>
              <LongitudeDegrees>-1.64346389472484588623046875</LongitudeDegrees>
            </Position>
            <AltitudeMeters>451.79998779296875</AltitudeMeters>
            <DistanceMeters>1998.3246760971</DistanceMeters>
          </Trackpoint>
          <Trackpoint>
            <Time>2021-04-07T12:00:02.000Z</Time>
            <Position>
              <LatitudeDegrees>42.81734394840896129608154296875</LatitudeDegrees>
              <LongitudeDegrees>-1.64345584809780120849609375</LongitudeDegrees>
            </Position>
            <AltitudeMeters>451.79998779296875</AltitudeMeters>
            <DistanceMeters>1999.0729171943</DistanceMeters>
          </Trackpoint>
          <Trackpoint>
            <Time>2021-04-07T12:00:03.000Z</Time>
            <Position>
              <LatitudeDegrees>42.81734461896121501922607421875</LatitudeDegrees>
              <LongitudeDegrees>-1.64344822056591510772705078125</LongitudeDegrees>
            </Position>
            <AltitudeMeters>452</AltitudeMeters>
            <DistanceMeters>1999.7032531075</DistanceMeters>
          </Trackpoint>
          <Trackpoint>
            <Time>2021-04-07T12:00:04.000Z</Time>
            <Position>
              <LatitudeDegrees>42.8173485584557056427001953125</LatitudeDegrees>
              <LongitudeDegrees>-1.6434412635862827301025390625</LongitudeDegrees>
            </Position>
            <AltitudeMeters>452</AltitudeMeters>
            <DistanceMeters>2000.4269550032</DistanceMeters>
          </Trackpoint>
          <Trackpoint>
            <Time>2021-04-07T12:00:05.000Z</Time>
            <Position>
              <LatitudeDegrees>42.817355096340179443359375</LatitudeDegrees>
              <LongitudeDegrees>-1.64343514479696750640869140625</LongitudeDegrees>
            </Position>
            <AltitudeMeters>452</AltitudeMeters>
            <DistanceMeters>2001.3081964991</DistanceMeters>
          </Trackpoint>
          <Trackpoint>
            <Time>2021-04-07T12:00:06.000Z</Time>
            <Position>
              <LatitudeDegrees>42.81734763644635677337646484375</LatitudeDegrees>
              <LongitudeDegrees>-1.6434231586754322052001953125</LongitudeDegrees>
            </Position>
            <AltitudeMeters>452</AltitudeMeters>
            <DistanceMeters>2002.5901769642</DistanceMeters>
          </Trackpoint>
          <Trackpoint>
            <Time>2021-04-07T12:00:07.000Z</Time>
            <Position>
              <LatitudeDegrees>42.81731712631881237030029296875</LatitudeDegrees>
              <LongitudeDegrees>-1.64340010844171047210693359375</LongitudeDegrees>
            </Position>
            <AltitudeMeters>452</AltitudeMeters>
            <DistanceMeters>2006.4735038448</DistanceMeters>
          </Trackpoint>
          <Trackpoint>
            <Time>2021-04-07T12:00:08.000Z</Time>
            <Position>
              <LatitudeDegrees>42.81728561036288738250732421875</LatitudeDegrees>
              <LongitudeDegrees>-1.64338854141533374786376953125</LongitudeDegrees>
            </Position>
            <AltitudeMeters>452</AltitudeMeters>
            <DistanceMeters>2010.1069556142</DistanceMeters>
          </Trackpoint>
          <Trackpoint>
            <Time>2021-04-07T12:00:09.000Z</Time>
            <Position>
              <LatitudeDegrees>42.8172647394239902496337890625</LatitudeDegrees>
              <LongitudeDegrees>-1.64338116534054279327392578125</LongitudeDegrees>
            </Position>
            <AltitudeMeters>452</AltitudeMeters>
            <DistanceMeters>2012.5072032621</DistanceMeters>
          </Trackpoint>
          <Trackpoint>
            <Time>2021-04-07T12:00:10.000Z</Time>
            <Position>
              <LatitudeDegrees>42.817242108285427093505859375</LatitudeDegrees>
              <LongitudeDegrees>-1.6433772258460521697998046875</LongitudeDegrees>
            </Position>
            <AltitudeMeters>451.399993896484375</AltitudeMeters>
            <DistanceMeters>2015.0463910419</DistanceMeters>
          </Trackpoint>
          <Trackpoint>
            <Time>2021-04-07T12:00:11.000Z</Time>
            <Position>
              <LatitudeDegrees>42.8172074072062969207763671875</LatitudeDegrees>
              <LongitudeDegrees>-1.6433866135776042938232421875</LongitudeDegrees>
            </Position>
            <AltitudeMeters>451.20001220703125</AltitudeMeters>
            <DistanceMeters>2018.9828375585</DistanceMeters>
          </Trackpoint>
          <Trackpoint>
            <Time>2021-04-07T12:00:12.000Z</Time>
            <Position>
              <LatitudeDegrees>42.81718770973384380340576171875</LatitudeDegrees>
              <LongitudeDegrees>-1.64340220391750335693359375</LongitudeDegrees>
            </Position>
            <AltitudeMeters>451.399993896484375</AltitudeMeters>
            <DistanceMeters>2021.518466559</DistanceMeters>
          </Trackpoint>
          <Trackpoint>
            <Time>2021-04-07T12:00:13.000Z</Time>
            <Position>
              <LatitudeDegrees>42.8171698562800884246826171875</LatitudeDegrees>
              <LongitudeDegrees>-1.64341234602034091949462890625</LongitudeDegrees>
            </Position>
            <AltitudeMeters>451</AltitudeMeters>
            <DistanceMeters>2023.6707744402</DistanceMeters>
          </Trackpoint>
          <Trackpoint>
            <Time>2021-04-07T12:00:14.000Z</Time>
            <Position>
              <LatitudeDegrees>42.8171641565859317779541015625</LatitudeDegrees>
              <LongitudeDegrees>-1.6434278525412082672119140625</LongitudeDegrees>
            </Position>
            <AltitudeMeters>451</AltitudeMeters>
            <DistanceMeters>2025.0866405958</DistanceMeters>
          </Trackpoint>
          <Trackpoint>
            <Time>2021-04-07T12:00:15.000Z</Time>
            <Position>
              <LatitudeDegrees>42.8171611391007900238037109375</LatitudeDegrees>
              <LongitudeDegrees>-1.64344185031950473785400390625</LongitudeDegrees>
            </Position>
            <AltitudeMeters>451</AltitudeMeters>
            <DistanceMeters>2026.2811078738</DistanceMeters>
          </Trackpoint>
          <Trackpoint>
            <Time>2021-04-07T12:00:16.000Z</Time>
            <Position>
              <LatitudeDegrees>42.81716256402432918548583984375</LatitudeDegrees>
              <LongitudeDegrees>-1.64345509372651576995849609375</LongitudeDegrees>
            </Position>
            <AltitudeMeters>451</AltitudeMeters>
            <DistanceMeters>2027.3770094054</DistanceMeters>
          </Trackpoint>
          <Trackpoint>
            <Time>2021-04-07T12:00:17.000Z</Time>
            <Position>
              <LatitudeDegrees>42.817162312567234039306640625</LatitudeDegrees>
              <LongitudeDegrees>-1.643478311598300933837890625</LongitudeDegrees>
            </Position>
            <AltitudeMeters>451</AltitudeMeters>
            <DistanceMeters>2029.2727864031</DistanceMeters>
          </Trackpoint>
          <Trackpoint>
            <Time>2021-04-07T12:00:18.000Z</Time>
            <Position>
              <LatitudeDegrees>42.81717069447040557861328125</LatitudeDegrees>
              <LongitudeDegrees>-1.6434980928897857666015625</LongitudeDegrees>
            </Position>
            <AltitudeMeters>451</AltitudeMeters>
            <DistanceMeters>2031.1373451795</DistanceMeters>
          </Trackpoint>
          <Trackpoint>
            <Time>2021-04-07T12:00:19.000Z</Time>
            <Position>
              <LatitudeDegrees>42.8171785734593868255615234375</LatitudeDegrees>
              <LongitudeDegrees>-1.64352483116090297698974609375</LongitudeDegrees>
            </Position>
            <AltitudeMeters>451</AltitudeMeters>
            <DistanceMeters>2033.4920143573</DistanceMeters>
          </Trackpoint>
          <Trackpoint>
            <Time>2021-04-07T12:00:20.000Z</Time>
            <Position>
              <LatitudeDegrees>42.8171903081238269805908203125</LatitudeDegrees>
              <LongitudeDegrees>-1.64353421889245510101318359375</LongitudeDegrees>
            </Position>
            <AltitudeMeters>451</AltitudeMeters>
            <DistanceMeters>2035.0035067788</DistanceMeters>
          </Trackpoint>
          <Trackpoint>
            <Time>2021-04-07T12:00:21.000Z</Time>
            <Position>
              <LatitudeDegrees>42.81720128841698169708251953125</LatitudeDegrees>
              <LongitudeDegrees>-1.64353991858661174774169921875</LongitudeDegrees>
            </Position>
            <AltitudeMeters>451</AltitudeMeters>
            <DistanceMeters>2036.3064474419</DistanceMeters>
          </Trackpoint>
          <Trackpoint>
            <Time>2021-04-07T12:00:22.000Z</Time>
            <Position>
              <LatitudeDegrees>42.81721218489110469818115234375</LatitudeDegrees>
              <LongitudeDegrees>-1.64356204681098461151123046875</LongitudeDegrees>
            </Position>
            <AltitudeMeters>451</AltitudeMeters>
            <DistanceMeters>2038.4817083588</DistanceMeters>
          </Trackpoint>
          <Trackpoint>
            <Time>2021-04-07T12:00:23.000Z</Time>
            <Position>
              <LatitudeDegrees>42.81722174026072025299072265625</LatitudeDegrees>
              <LongitudeDegrees>-1.64357897825539112091064453125</LongitudeDegrees>
            </Position>
            <AltitudeMeters>451</AltitudeMeters>
            <DistanceMeters>2040.2261669457</DistanceMeters>
          </Trackpoint>
          <Trackpoint>
            <Time>2021-04-07T12:00:24.000Z</Time>
            <Position>
              <LatitudeDegrees>42.81723104417324066162109375</LatitudeDegrees>
              <LongitudeDegrees>-1.6436026990413665771484375</LongitudeDegrees>
            </Position>
            <AltitudeMeters>451</AltitudeMeters>
            <DistanceMeters>2042.4220860747</DistanceMeters>
          </Trackpoint>
          <Trackpoint>
            <Time>2021-04-07T12:00:25.000Z</Time>
            <Position>
              <LatitudeDegrees>42.8172412700951099395751953125</LatitudeDegrees>
              <LongitudeDegrees>-1.64362105540931224822998046875</LongitudeDegrees>
            </Position>
            <AltitudeMeters>451</AltitudeMeters>
            <DistanceMeters>2044.3035190302</DistanceMeters>
          </Trackpoint>
          <Trackpoint>
            <Time>2021-04-07T12:00:26.000Z</Time>
            <Position>
              <LatitudeDegrees>42.8172473050653934478759765625</LatitudeDegrees>
              <LongitudeDegrees>-1.64363530464470386505126953125</LongitudeDegrees>
            </Position>
            <AltitudeMeters>451.20001220703125</AltitudeMeters>
            <DistanceMeters>2045.6473997127</DistanceMeters>
          </Trackpoint>
          <Trackpoint>
            <Time>2021-04-07T12:00:27.000Z</Time>
            <Position>
              <LatitudeDegrees>42.81724789179861545562744140625</LatitudeDegrees>
              <LongitudeDegrees>-1.64363999851047992706298828125</LongitudeDegrees>
            </Position>
            <AltitudeMeters>451.399993896484375</AltitudeMeters>
            <DistanceMeters>2046.0392048933</DistanceMeters>
          </Trackpoint>
          <Trackpoint>
            <Time>2021-04-07T12:00:28.000Z</Time>
            <Position>
              <LatitudeDegrees>42.8172499872744083404541015625</LatitudeDegrees>
              <LongitudeDegrees>-1.64364494383335113525390625</LongitudeDegrees>
            </Position>
            <AltitudeMeters>451.20001220703125</AltitudeMeters>
            <DistanceMeters>2046.5047388176</DistanceMeters>
          </Trackpoint>
          <Trackpoint>
            <Time>2021-04-07T12:00:29.000Z</Time>
            <Position>
              <LatitudeDegrees>42.8172499872744083404541015625</LatitudeDegrees>
              <LongitudeDegrees>-1.64364921860396862030029296875</LongitudeDegrees>
            </Position>
            <AltitudeMeters>451.399993896484375</AltitudeMeters>
            <DistanceMeters>2046.8339210123</DistanceMeters>
          </Trackpoint>
          <Trackpoint>
            <Time>2021-04-07T12:00:30.000Z</Time>
            <Position>
              <LatitudeDegrees>42.8172503225505352020263671875</LatitudeDegrees>
              <LongitudeDegrees>-1.64365609176456928253173828125</LongitudeDegrees>
            </Position>
            <AltitudeMeters>451.600006103515625</AltitudeMeters>
            <DistanceMeters>2047.3880172125</DistanceMeters>
          </Trackpoint>
          <Trackpoint>
            <Time>2021-04-07T12:00:31.000Z</Time>
            <Position>
              <LatitudeDegrees>42.81725493259727954864501953125</LatitudeDegrees>
              <LongitudeDegrees>-1.643665730953216552734375</LongitudeDegrees>
            </Position>
            <AltitudeMeters>451.600006103515625</AltitudeMeters>
            <DistanceMeters>2048.3190850611</DistanceMeters>
          </Trackpoint>
          <Trackpoint>
            <Time>2021-04-07T12:00:32.000Z</Time>
            <Position>
              <LatitudeDegrees>42.8172610513865947723388671875</LatitudeDegrees>
              <LongitudeDegrees>-1.643690206110477447509765625</LongitudeDegrees>
            </Position>
            <AltitudeMeters>452</AltitudeMeters>
            <DistanceMeters>2050.4290205309</DistanceMeters>
          </Trackpoint>
          <Trackpoint>
            <Time>2021-04-07T12:00:33.000Z</Time>
            <Position>
              <LatitudeDegrees>42.81726725399494171142578125</LatitudeDegrees>
              <LongitudeDegrees>-1.64370889775454998016357421875</LongitudeDegrees>
            </Position>
            <AltitudeMeters>451.600006103515625</AltitudeMeters>
            <DistanceMeters>2052.1021384878</DistanceMeters>
          </Trackpoint>
          <Trackpoint>
            <Time>2021-04-07T12:00:34.000Z</Time>
            <Position>
              <LatitudeDegrees>42.8172694332897663116455078125</LatitudeDegrees>
              <LongitudeDegrees>-1.6437180340290069580078125</LongitudeDegrees>
            </Position>
            <AltitudeMeters>451.600006103515625</AltitudeMeters>
            <DistanceMeters>2052.885748849</DistanceMeters>
          </Trackpoint>
          <Trackpoint>
            <Time>2021-04-07T12:00:35.000Z</Time>
            <Position>
              <LatitudeDegrees>42.81729415990412235260009765625</LatitudeDegrees>
              <LongitudeDegrees>-1.64374074898660182952880859375</LongitudeDegrees>
            </Position>
            <AltitudeMeters>451.600006103515625</AltitudeMeters>
            <DistanceMeters>2056.2048892892</DistanceMeters>
          </Trackpoint>
          <Trackpoint>
            <Time>2021-04-07T12:00:36.000Z</Time>
            <Position>
              <LatitudeDegrees>42.817317545413970947265625</LatitudeDegrees>
              <LongitudeDegrees>-1.64376237429678440093994140625</LongitudeDegrees>
            </Position>
            <AltitudeMeters>451.600006103515625</AltitudeMeters>
            <DistanceMeters>2059.3493977891</DistanceMeters>
          </Trackpoint>
          <Trackpoint>
            <Time>2021-04-07T12:00:37.000Z</Time>
            <Position>
              <LatitudeDegrees>42.8173388354480266571044921875</LatitudeDegrees>
              <LongitudeDegrees>-1.643784753978252410888671875</LongitudeDegrees>
            </Position>
            <AltitudeMeters>451.399993896484375</AltitudeMeters>
            <DistanceMeters>2062.3423621779</DistanceMeters>
          </Trackpoint>
          <Trackpoint>
            <Time>2021-04-07T12:00:38.000Z</Time>
            <Position>
              <LatitudeDegrees>42.81734478659927845001220703125</LatitudeDegrees>
              <LongitudeDegrees>-1.643799506127834320068359375</LongitudeDegrees>
            </Position>
            <AltitudeMeters>451.399993896484375</AltitudeMeters>
            <DistanceMeters>2063.7194300968</DistanceMeters>
          </Trackpoint>
          <Trackpoint>
            <Time>2021-04-07T12:00:39.000Z</Time>
            <Position>
              <LatitudeDegrees>42.81734495423734188079833984375</LatitudeDegrees>
              <LongitudeDegrees>-1.64380579255521297454833984375</LongitudeDegrees>
            </Position>
            <AltitudeMeters>451.20001220703125</AltitudeMeters>
            <DistanceMeters>2064.2311646147</DistanceMeters>
          </Trackpoint>
          <Trackpoint>
            <Time>2021-04-07T12:00:40.000Z</Time>
            <Position>
              <LatitudeDegrees>42.817346043884754180908203125</LatitudeDegrees>
              <LongitudeDegrees>-1.6438120789825916290283203125</LongitudeDegrees>
            </Position>
            <AltitudeMeters>451.399993896484375</AltitudeMeters>
            <DistanceMeters>2064.751647365</DistanceMeters>
          </Trackpoint>
          <Trackpoint>
            <Time>2021-04-07T12:00:41.000Z</Time>
            <Position>
              <LatitudeDegrees>42.8173468820750713348388671875</LatitudeDegrees>
              <LongitudeDegrees>-1.64381903596222400665283203125</LongitudeDegrees>
            </Position>
            <AltitudeMeters>451.399993896484375</AltitudeMeters>
            <DistanceMeters>2065.3218076512</DistanceMeters>
          </Trackpoint>
          <Trackpoint>
            <Time>2021-04-07T12:00:42.000Z</Time>
            <Position>
              <LatitudeDegrees>42.81734512187540531158447265625</LatitudeDegrees>
              <LongitudeDegrees>-1.64382238872349262237548828125</LongitudeDegrees>
            </Position>
            <AltitudeMeters>451.20001220703125</AltitudeMeters>
            <DistanceMeters>2065.6509898459</DistanceMeters>
          </Trackpoint>
          <Trackpoint>
            <Time>2021-04-07T12:00:43.000Z</Time>
            <Position>
              <LatitudeDegrees>42.81734059564769268035888671875</LatitudeDegrees>
              <LongitudeDegrees>-1.64382054470479488372802734375</LongitudeDegrees>
            </Position>
            <AltitudeMeters>451.20001220703125</AltitudeMeters>
            <DistanceMeters>2066.1800761997</DistanceMeters>
          </Trackpoint>
          <Trackpoint>
            <Time>2021-04-07T12:00:44.000Z</Time>
            <Position>
              <LatitudeDegrees>42.81733288429677486419677734375</LatitudeDegrees>
              <LongitudeDegrees>-1.64381685666739940643310546875</LongitudeDegrees>
            </Position>
            <AltitudeMeters>451.20001220703125</AltitudeMeters>
            <DistanceMeters>2067.0865732799</DistanceMeters>
          </Trackpoint>
          <Trackpoint>
            <Time>2021-04-07T12:00:45.000Z</Time>
            <Position>
              <LatitudeDegrees>42.8173274360597133636474609375</LatitudeDegrees>
              <LongitudeDegrees>-1.64381551556289196014404296875</LongitudeDegrees>
            </Position>
            <AltitudeMeters>451.20001220703125</AltitudeMeters>
            <DistanceMeters>2067.7024167752</DistanceMeters>
          </Trackpoint>
          <Trackpoint>
            <Time>2021-04-07T12:00:46.000Z</Time>
            <Position>
              <LatitudeDegrees>42.81732383184134960174560546875</LatitudeDegrees>
              <LongitudeDegrees>-1.64381400682032108306884765625</LongitudeDegrees>
            </Position>
            <AltitudeMeters>451.20001220703125</AltitudeMeters>
            <DistanceMeters>2068.1378838868</DistanceMeters>
          </Trackpoint>
          <Trackpoint>
            <Time>2021-04-07T12:00:47.000Z</Time>
            <Position>
              <LatitudeDegrees>42.817321904003620147705078125</LatitudeDegrees>
              <LongitudeDegrees>-1.6438134200870990753173828125</LongitudeDegrees>
            </Position>
            <AltitudeMeters>451.20001220703125</AltitudeMeters>
            <DistanceMeters>2068.3503700798</DistanceMeters>
          </Trackpoint>
          <Trackpoint>
            <Time>2021-04-07T12:00:48.000Z</Time>
            <Position>
              <LatitudeDegrees>42.817319221794605255126953125</LatitudeDegrees>
              <LongitudeDegrees>-1.64381199516355991363525390625</LongitudeDegrees>
            </Position>
            <AltitudeMeters>451.20001220703125</AltitudeMeters>
            <DistanceMeters>2068.6795522746</DistanceMeters>
          </Trackpoint>
          <Trackpoint>
            <Time>2021-04-07T12:00:49.000Z</Time>
            <Position>
              <LatitudeDegrees>42.81731394119560718536376953125</LatitudeDegrees>
              <LongitudeDegrees>-1.64380780421197414398193359375</LongitudeDegrees>
            </Position>
            <AltitudeMeters>451.20001220703125</AltitudeMeters>
            <DistanceMeters>2069.364799657</DistanceMeters>
          </Trackpoint>
          <Trackpoint>
            <Time>2021-04-07T12:00:50.000Z</Time>
            <Position>
              <LatitudeDegrees>42.8173083253204822540283203125</LatitudeDegrees>
              <LongitudeDegrees>-1.643805205821990966796875</LongitudeDegrees>
            </Position>
            <AltitudeMeters>451.20001220703125</AltitudeMeters>
            <DistanceMeters>2070.0231640464</DistanceMeters>
          </Trackpoint>
          <Trackpoint>
            <Time>2021-04-07T12:00:51.000Z</Time>
            <Position>
              <LatitudeDegrees>42.81730287708342075347900390625</LatitudeDegrees>
              <LongitudeDegrees>-1.6438053734600543975830078125</LongitudeDegrees>
            </Position>
            <AltitudeMeters>451.20001220703125</AltitudeMeters>
            <DistanceMeters>2070.6390075417</DistanceMeters>
          </Trackpoint>
          <Trackpoint>
            <Time>2021-04-07T12:00:52.000Z</Time>
            <Position>
              <LatitudeDegrees>42.81729851849377155303955078125</LatitudeDegrees>
              <LongitudeDegrees>-1.64380864240229129791259765625</LongitudeDegrees>
            </Position>
            <AltitudeMeters>451.20001220703125</AltitudeMeters>
            <DistanceMeters>2071.1931037419</DistanceMeters>
          </Trackpoint>
          <Trackpoint>
            <Time>2021-04-07T12:00:53.000Z</Time>
            <Position>
              <LatitudeDegrees>42.81729063950479030609130859375</LatitudeDegrees>
              <LongitudeDegrees>-1.6438093967735767364501953125</LongitudeDegrees>
            </Position>
            <AltitudeMeters>451.20001220703125</AltitudeMeters>
            <DistanceMeters>2072.0743452378</DistanceMeters>
          </Trackpoint>
          <Trackpoint>
            <Time>2021-04-07T12:00:54.000Z</Time>
            <Position>
              <LatitudeDegrees>42.81728066504001617431640625</LatitudeDegrees>
              <LongitudeDegrees>-1.6438120789825916290283203125</LongitudeDegrees>
            </Position>
            <AltitudeMeters>451.20001220703125</AltitudeMeters>
            <DistanceMeters>2073.2067192286</DistanceMeters>
          </Trackpoint>
          <Trackpoint>
            <Time>2021-04-07T12:00:55.000Z</Time>
            <Position>
              <LatitudeDegrees>42.8172727860510349273681640625</LatitudeDegrees>
              <LongitudeDegrees>-1.64381635375320911407470703125</LongitudeDegrees>
            </Position>
            <AltitudeMeters>451.20001220703125</AltitudeMeters>
            <DistanceMeters>2074.1522230985</DistanceMeters>
          </Trackpoint>
          <Trackpoint>
            <Time>2021-04-07T12:00:56.000Z</Time>
            <Position>
              <LatitudeDegrees>42.81726364977657794952392578125</LatitudeDegrees>
              <LongitudeDegrees>-1.6438181139528751373291015625</LongitudeDegrees>
            </Position>
            <AltitudeMeters>451.20001220703125</AltitudeMeters>
            <DistanceMeters>2075.1756921344</DistanceMeters>
          </Trackpoint>
          <Trackpoint>
            <Time>2021-04-07T12:27:34.000Z</Time>
            <Position>
              <LatitudeDegrees>42.8171463869512081146240234375</LatitudeDegrees>
              <LongitudeDegrees>-1.6426531970500946044921875</LongitudeDegrees>
            </Position>
            <AltitudeMeters>460</AltitudeMeters>
            <DistanceMeters>2171.1742168922</DistanceMeters>
          </Trackpoint>
          <Trackpoint>
            <Time>2021-04-07T12:27:35.000Z</Time>
            <Position>
              <LatitudeDegrees>42.81713909469544887542724609375</LatitudeDegrees>
              <LongitudeDegrees>-1.64265118539333343505859375</LongitudeDegrees>
            </Position>
            <AltitudeMeters>460</AltitudeMeters>
            <DistanceMeters>2172.0026405819</DistanceMeters>
          </Trackpoint>
          <Trackpoint>
            <Time>2021-04-07T12:27:36.000Z</Time>
            <Position>
              <LatitudeDegrees>42.81726800836622714996337890625</LatitudeDegrees>
              <LongitudeDegrees>-1.642625369131565093994140625</LongitudeDegrees>
            </Position>
            <AltitudeMeters>460</AltitudeMeters>
            <DistanceMeters>2186.5047259623</DistanceMeters>
          </Trackpoint>
          <Trackpoint>
            <Time>2021-04-07T12:27:37.000Z</Time>
            <Position>
              <LatitudeDegrees>42.8172392584383487701416015625</LatitudeDegrees>
              <LongitudeDegrees>-1.64259594865143299102783203125</LongitudeDegrees>
            </Position>
            <AltitudeMeters>460</AltitudeMeters>
            <DistanceMeters>2190.506016446</DistanceMeters>
          </Trackpoint>
          <Trackpoint>
            <Time>2021-04-07T12:27:38.000Z</Time>
            <Position>
              <LatitudeDegrees>42.81714479438960552215576171875</LatitudeDegrees>
              <LongitudeDegrees>-1.6425846330821514129638671875</LongitudeDegrees>
            </Position>
            <AltitudeMeters>460</AltitudeMeters>
            <DistanceMeters>2201.0608282913</DistanceMeters>
          </Trackpoint>
          <Trackpoint>
            <Time>2021-04-07T12:27:39.000Z</Time>
            <Position>
              <LatitudeDegrees>42.8171302936971187591552734375</LatitudeDegrees>
              <LongitudeDegrees>-1.6425581462681293487548828125</LongitudeDegrees>
            </Position>
            <AltitudeMeters>460.20001220703125</AltitudeMeters>
            <DistanceMeters>2203.7603230015</DistanceMeters>
          </Trackpoint>
          <Trackpoint>
            <Time>2021-04-07T12:27:40.000Z</Time>
            <Position>
              <LatitudeDegrees>42.81707623042166233062744140625</LatitudeDegrees>
              <LongitudeDegrees>-1.642530150711536407470703125</LongitudeDegrees>
            </Position>
            <AltitudeMeters>460.20001220703125</AltitudeMeters>
            <DistanceMeters>2210.1969362977</DistanceMeters>
          </Trackpoint>
          <Trackpoint>
            <Time>2021-04-07T12:27:41.000Z</Time>
            <Position>
              <LatitudeDegrees>42.8170763142406940460205078125</LatitudeDegrees>
              <LongitudeDegrees>-1.64246343076229095458984375</LongitudeDegrees>
            </Position>
            <AltitudeMeters>460.20001220703125</AltitudeMeters>
            <DistanceMeters>2215.6442137089</DistanceMeters>
          </Trackpoint>
          <Trackpoint>
            <Time>2021-04-07T12:27:42.000Z</Time>
            <Position>
              <LatitudeDegrees>42.81704672612249851226806640625</LatitudeDegrees>
              <LongitudeDegrees>-1.6424247063696384429931640625</LongitudeDegrees>
            </Position>
            <AltitudeMeters>460.20001220703125</AltitudeMeters>
            <DistanceMeters>2220.2094537281</DistanceMeters>
          </Trackpoint>
          <Trackpoint>
            <Time>2021-04-07T12:27:43.000Z</Time>
            <Position>
              <LatitudeDegrees>42.817033231258392333984375</LatitudeDegrees>
              <LongitudeDegrees>-1.6423868201673030853271484375</LongitudeDegrees>
            </Position>
            <AltitudeMeters>460.399993896484375</AltitudeMeters>
            <DistanceMeters>2223.6475302347</DistanceMeters>
          </Trackpoint>
          <Trackpoint>
            <Time>2021-04-07T12:27:44.000Z</Time>
            <Position>
              <LatitudeDegrees>42.8170226700603961944580078125</LatitudeDegrees>
              <LongitudeDegrees>-1.64235086180269718170166015625</LongitudeDegrees>
            </Position>
            <AltitudeMeters>460.399993896484375</AltitudeMeters>
            <DistanceMeters>2226.8106496918</DistanceMeters>
          </Trackpoint>
          <Trackpoint>
            <Time>2021-04-07T12:27:45.000Z</Time>
            <Position>
              <LatitudeDegrees>42.8170157968997955322265625</LatitudeDegrees>
              <LongitudeDegrees>-1.642316915094852447509765625</LongitudeDegrees>
            </Position>
            <AltitudeMeters>460.399993896484375</AltitudeMeters>
            <DistanceMeters>2229.6866799459</DistanceMeters>
          </Trackpoint>
          <Trackpoint>
            <Time>2021-04-07T12:27:46.000Z</Time>
            <Position>
              <LatitudeDegrees>42.81700599007308483123779296875</LatitudeDegrees>
              <LongitudeDegrees>-1.64229135029017925262451171875</LongitudeDegrees>
            </Position>
            <AltitudeMeters>460.399993896484375</AltitudeMeters>
            <DistanceMeters>2232.0451809719</DistanceMeters>
          </Trackpoint>
          <Trackpoint>
            <Time>2021-04-07T12:27:47.000Z</Time>
            <Position>
              <LatitudeDegrees>42.81699676997959613800048828125</LatitudeDegrees>
              <LongitudeDegrees>-1.64227978326380252838134765625</LongitudeDegrees>
            </Position>
            <AltitudeMeters>460.600006103515625</AltitudeMeters>
            <DistanceMeters>2233.4417827447</DistanceMeters>
          </Trackpoint>
          <Trackpoint>
            <Time>2021-04-07T12:27:48.000Z</Time>
            <Position>
              <LatitudeDegrees>42.81699408777058124542236328125</LatitudeDegrees>
              <LongitudeDegrees>-1.64226830005645751953125</LongitudeDegrees>
            </Position>
            <AltitudeMeters>460.600006103515625</AltitudeMeters>
            <DistanceMeters>2234.4247467214</DistanceMeters>
          </Trackpoint>
          <Trackpoint>
            <Time>2021-04-07T12:27:49.000Z</Time>
            <Position>
              <LatitudeDegrees>42.81700079329311847686767578125</LatitudeDegrees>
              <LongitudeDegrees>-1.6422912664711475372314453125</LongitudeDegrees>
            </Position>
            <AltitudeMeters>460.79998779296875</AltitudeMeters>
            <DistanceMeters>2236.4450423811</DistanceMeters>
          </Trackpoint>
          <Trackpoint>
            <Time>2021-04-07T12:27:50.000Z</Time>
            <Position>
              <LatitudeDegrees>42.81702862121164798736572265625</LatitudeDegrees>
              <LongitudeDegrees>-1.64227844215929508209228515625</LongitudeDegrees>
            </Position>
            <AltitudeMeters>460.79998779296875</AltitudeMeters>
            <DistanceMeters>2239.7148452054</DistanceMeters>
          </Trackpoint>
          <Trackpoint>
            <Time>2021-04-07T12:27:51.000Z</Time>
            <Position>
              <LatitudeDegrees>42.8170290403068065643310546875</LatitudeDegrees>
              <LongitudeDegrees>-1.642267294228076934814453125</LongitudeDegrees>
            </Position>
            <AltitudeMeters>461</AltitudeMeters>
            <DistanceMeters>2240.6213422856</DistanceMeters>
          </Trackpoint>
          <Trackpoint>
            <Time>2021-04-07T12:27:52.000Z</Time>
            <Position>
              <LatitudeDegrees>42.81702987849712371826171875</LatitudeDegrees>
              <LongitudeDegrees>-1.64226352237164974212646484375</LongitudeDegrees>
            </Position>
            <AltitudeMeters>461</AltitudeMeters>
            <DistanceMeters>2240.9505244803</DistanceMeters>
          </Trackpoint>
          <Trackpoint>
            <Time>2021-04-07T12:27:53.000Z</Time>
            <Position>
              <LatitudeDegrees>42.81703063286840915679931640625</LatitudeDegrees>
              <LongitudeDegrees>-1.6422631032764911651611328125</LongitudeDegrees>
            </Position>
            <AltitudeMeters>461.20001220703125</AltitudeMeters>
            <DistanceMeters>2241.0849125486</DistanceMeters>
          </Trackpoint>
          <Trackpoint>
            <Time>2021-04-07T12:27:54.000Z</Time>
            <Position>
              <LatitudeDegrees>42.81702476553618907928466796875</LatitudeDegrees>
              <LongitudeDegrees>-1.6422577388584613800048828125</LongitudeDegrees>
            </Position>
            <AltitudeMeters>461.20001220703125</AltitudeMeters>
            <DistanceMeters>2241.8742637218</DistanceMeters>
          </Trackpoint>
          <Trackpoint>
            <Time>2021-04-07T12:27:55.000Z</Time>
            <Position>
              <LatitudeDegrees>42.81701001338660717010498046875</LatitudeDegrees>
              <LongitudeDegrees>-1.64225027896463871002197265625</LongitudeDegrees>
            </Position>
            <AltitudeMeters>461.600006103515625</AltitudeMeters>
            <DistanceMeters>2243.6264697573</DistanceMeters>
          </Trackpoint>
          <Trackpoint>
            <Time>2021-04-07T12:27:56.000Z</Time>
            <Position>
              <LatitudeDegrees>42.81699676997959613800048828125</LatitudeDegrees>
              <LongitudeDegrees>-1.6422436572611331939697265625</LongitudeDegrees>
            </Position>
            <AltitudeMeters>460.20001220703125</AltitudeMeters>
            <DistanceMeters>2245.1965687571</DistanceMeters>
          </Trackpoint>
          <Trackpoint>
            <Time>2021-04-07T12:27:57.000Z</Time>
            <Position>
              <LatitudeDegrees>42.8169821016490459442138671875</LatitudeDegrees>
              <LongitudeDegrees>-1.64223502390086650848388671875</LongitudeDegrees>
            </Position>
            <AltitudeMeters>460.20001220703125</AltitudeMeters>
            <DistanceMeters>2246.9743557959</DistanceMeters>
          </Trackpoint>
          <Trackpoint>
            <Time>2021-04-07T12:27:58.000Z</Time>
            <Position>
              <LatitudeDegrees>42.816971875727176666259765625</LatitudeDegrees>
              <LongitudeDegrees>-1.642229072749614715576171875</LongitudeDegrees>
            </Position>
            <AltitudeMeters>461.600006103515625</AltitudeMeters>
            <DistanceMeters>2248.2133525657</DistanceMeters>
          </Trackpoint>
          <Trackpoint>
            <Time>2021-04-07T12:27:59.000Z</Time>
            <Position>
              <LatitudeDegrees>42.816953100264072418212890625</LatitudeDegrees>
              <LongitudeDegrees>-1.64221222512423992156982421875</LongitudeDegrees>
            </Position>
            <AltitudeMeters>461.600006103515625</AltitudeMeters>
            <DistanceMeters>2250.7131151343</DistanceMeters>
          </Trackpoint>
          <Trackpoint>
            <Time>2021-04-07T12:28:00.000Z</Time>
            <Position>
              <LatitudeDegrees>42.816922254860401153564453125</LatitudeDegrees>
              <LongitudeDegrees>-1.6421846486628055572509765625</LongitudeDegrees>
            </Position>
            <AltitudeMeters>460.399993896484375</AltitudeMeters>
            <DistanceMeters>2254.8180052235</DistanceMeters>
          </Trackpoint>
          <Trackpoint>
            <Time>2021-04-07T12:28:01.000Z</Time>
            <Position>
              <LatitudeDegrees>42.81690037809312343597412109375</LatitudeDegrees>
              <LongitudeDegrees>-1.6421631909906864166259765625</LongitudeDegrees>
            </Position>
            <AltitudeMeters>460</AltitudeMeters>
            <DistanceMeters>2257.8185028846</DistanceMeters>
          </Trackpoint>
          <Trackpoint>
            <Time>2021-04-07T12:28:02.000Z</Time>
            <Position>
              <LatitudeDegrees>42.816880010068416595458984375</LatitudeDegrees>
              <LongitudeDegrees>-1.6421400569379329681396484375</LongitudeDegrees>
            </Position>
            <AltitudeMeters>460.20001220703125</AltitudeMeters>
            <DistanceMeters>2260.768925514</DistanceMeters>
          </Trackpoint>
          <Trackpoint>
            <Time>2021-04-07T12:28:03.000Z</Time>
            <Position>
              <LatitudeDegrees>42.81686064787209033966064453125</LatitudeDegrees>
              <LongitudeDegrees>-1.64212790317833423614501953125</LongitudeDegrees>
            </Position>
            <AltitudeMeters>460.20001220703125</AltitudeMeters>
            <DistanceMeters>2263.1426920781</DistanceMeters>
          </Trackpoint>
          <Trackpoint>
            <Time>2021-04-07T12:28:04.000Z</Time>
            <Position>
              <LatitudeDegrees>42.8168275393545627593994140625</LatitudeDegrees>
              <LongitudeDegrees>-1.6421239636838436126708984375</LongitudeDegrees>
            </Position>
            <AltitudeMeters>460.20001220703125</AltitudeMeters>
            <DistanceMeters>2266.8414169682</DistanceMeters>
          </Trackpoint>
          <Trackpoint>
            <Time>2021-04-07T12:28:05.000Z</Time>
            <Position>
              <LatitudeDegrees>42.81678940169513225555419921875</LatitudeDegrees>
              <LongitudeDegrees>-1.6421326808631420135498046875</LongitudeDegrees>
            </Position>
            <AltitudeMeters>460.600006103515625</AltitudeMeters>
            <DistanceMeters>2271.1439344534</DistanceMeters>
          </Trackpoint>
          <Trackpoint>
            <Time>2021-04-07T12:28:06.000Z</Time>
            <Position>
              <LatitudeDegrees>42.81675604172050952911376953125</LatitudeDegrees>
              <LongitudeDegrees>-1.64214667864143848419189453125</LongitudeDegrees>
            </Position>
            <AltitudeMeters>461</AltitudeMeters>
            <DistanceMeters>2275.0295859836</DistanceMeters>
          </Trackpoint>
          <Trackpoint>
            <Time>2021-04-07T12:28:07.000Z</Time>
            <Position>
              <LatitudeDegrees>42.81673089601099491119384765625</LatitudeDegrees>
              <LongitudeDegrees>-1.64217651821672916412353515625</LongitudeDegrees>
            </Position>
            <AltitudeMeters>460.79998779296875</AltitudeMeters>
            <DistanceMeters>2278.7404978092</DistanceMeters>
          </Trackpoint>
          <Trackpoint>
            <Time>2021-04-07T12:28:08.000Z</Time>
            <Position>
              <LatitudeDegrees>42.81670625321567058563232421875</LatitudeDegrees>
              <LongitudeDegrees>-1.64219428785145282745361328125</LongitudeDegrees>
            </Position>
            <AltitudeMeters>460.600006103515625</AltitudeMeters>
            <DistanceMeters>2281.8430872904</DistanceMeters>
          </Trackpoint>
          <Trackpoint>
            <Time>2021-04-07T12:28:09.000Z</Time>
            <Position>
              <LatitudeDegrees>42.8166880644857883453369140625</LatitudeDegrees>
              <LongitudeDegrees>-1.6422124765813350677490234375</LongitudeDegrees>
            </Position>
            <AltitudeMeters>460.600006103515625</AltitudeMeters>
            <DistanceMeters>2284.3536635904</DistanceMeters>
          </Trackpoint>
          <Trackpoint>
            <Time>2021-04-07T12:28:10.000Z</Time>
            <Position>
              <LatitudeDegrees>42.81666300259530544281005859375</LatitudeDegrees>
              <LongitudeDegrees>-1.64220593869686126708984375</LongitudeDegrees>
            </Position>
            <AltitudeMeters>460.399993896484375</AltitudeMeters>
            <DistanceMeters>2287.1949464592</DistanceMeters>
          </Trackpoint>
          <Trackpoint>
            <Time>2021-04-07T12:28:11.000Z</Time>
            <Position>
              <LatitudeDegrees>42.81662628985941410064697265625</LatitudeDegrees>
              <LongitudeDegrees>-1.64216847158968448638916015625</LongitudeDegrees>
            </Position>
            <AltitudeMeters>460.20001220703125</AltitudeMeters>
            <DistanceMeters>2292.2999244824</DistanceMeters>
          </Trackpoint>
          <Trackpoint>
            <Time>2021-04-07T12:28:12.000Z</Time>
            <Position>
              <LatitudeDegrees>42.8166027367115020751953125</LatitudeDegrees>
              <LongitudeDegrees>-1.64214986376464366912841796875</LongitudeDegrees>
            </Position>
            <AltitudeMeters>460</AltitudeMeters>
            <DistanceMeters>2295.330367972</DistanceMeters>
          </Trackpoint>
          <Trackpoint>
            <Time>2021-04-07T12:28:13.000Z</Time>
            <Position>
              <LatitudeDegrees>42.8165734000504016876220703125</LatitudeDegrees>
              <LongitudeDegrees>-1.6421232931315898895263671875</LongitudeDegrees>
            </Position>
            <AltitudeMeters>459.79998779296875</AltitudeMeters>
            <DistanceMeters>2299.2507238369</DistanceMeters>
          </Trackpoint>
          <Trackpoint>
            <Time>2021-04-07T12:28:14.000Z</Time>
            <Position>
              <LatitudeDegrees>42.8165720589458942413330078125</LatitudeDegrees>
              <LongitudeDegrees>-1.64208381436765193939208984375</LongitudeDegrees>
            </Position>
            <AltitudeMeters>459.600006103515625</AltitudeMeters>
            <DistanceMeters>2302.477437047</DistanceMeters>
          </Trackpoint>
          <Trackpoint>
            <Time>2021-04-07T12:28:15.000Z</Time>
            <Position>
              <LatitudeDegrees>42.81656493432819843292236328125</LatitudeDegrees>
              <LongitudeDegrees>-1.6420569084584712982177734375</LongitudeDegrees>
            </Position>
            <AltitudeMeters>459.399993896484375</AltitudeMeters>
            <DistanceMeters>2304.8128526785</DistanceMeters>
          </Trackpoint>
          <Trackpoint>
            <Time>2021-04-07T12:28:16.000Z</Time>
            <Position>
              <LatitudeDegrees>42.81655956991016864776611328125</LatitudeDegrees>
              <LongitudeDegrees>-1.64204341359436511993408203125</LongitudeDegrees>
            </Position>
            <AltitudeMeters>459.399993896484375</AltitudeMeters>
            <DistanceMeters>2306.0663411313</DistanceMeters>
          </Trackpoint>
          <Trackpoint>
            <Time>2021-04-07T12:28:17.000Z</Time>
            <Position>
              <LatitudeDegrees>42.81655336730182170867919921875</LatitudeDegrees>
              <LongitudeDegrees>-1.6420309245586395263671875</LongitudeDegrees>
            </Position>
            <AltitudeMeters>459.399993896484375</AltitudeMeters>
            <DistanceMeters>2307.2943569155</DistanceMeters>
          </Trackpoint>
          <Trackpoint>
            <Time>2021-04-07T12:28:18.000Z</Time>
            <Position>
              <LatitudeDegrees>42.8165338374674320220947265625</LatitudeDegrees>
              <LongitudeDegrees>-1.6419985704123973846435546875</LongitudeDegrees>
            </Position>
            <AltitudeMeters>459.399993896484375</AltitudeMeters>
            <DistanceMeters>2310.7153186328</DistanceMeters>
          </Trackpoint>
          <Trackpoint>
            <Time>2021-04-07T12:28:19.000Z</Time>
            <Position>
              <LatitudeDegrees>42.8165187500417232513427734375</LatitudeDegrees>
              <LongitudeDegrees>-1.641981638967990875244140625</LongitudeDegrees>
            </Position>
            <AltitudeMeters>459.399993896484375</AltitudeMeters>
            <DistanceMeters>2312.8885029278</DistanceMeters>
          </Trackpoint>
          <Trackpoint>
            <Time>2021-04-07T12:28:20.000Z</Time>
            <Position>
              <LatitudeDegrees>42.8165169060230255126953125</LatitudeDegrees>
              <LongitudeDegrees>-1.641957499086856842041015625</LongitudeDegrees>
            </Position>
            <AltitudeMeters>459.399993896484375</AltitudeMeters>
            <DistanceMeters>2314.8681627917</DistanceMeters>
          </Trackpoint>
          <Trackpoint>
            <Time>2021-04-07T12:28:21.000Z</Time>
            <Position>
              <LatitudeDegrees>42.81651129014790058135986328125</LatitudeDegrees>
              <LongitudeDegrees>-1.64194199256598949432373046875</LongitudeDegrees>
            </Position>
            <AltitudeMeters>459.399993896484375</AltitudeMeters>
            <DistanceMeters>2316.2840289473</DistanceMeters>
          </Trackpoint>
          <Trackpoint>
            <Time>2021-04-07T12:28:22.000Z</Time>
            <Position>
              <LatitudeDegrees>42.816512547433376312255859375</LatitudeDegrees>
              <LongitudeDegrees>-1.64191885851323604583740234375</LongitudeDegrees>
            </Position>
            <AltitudeMeters>459.399993896484375</AltitudeMeters>
            <DistanceMeters>2318.1750366871</DistanceMeters>
          </Trackpoint>
          <Trackpoint>
            <Time>2021-04-07T12:28:23.000Z</Time>
            <Position>
              <LatitudeDegrees>42.8164889104664325714111328125</LatitudeDegrees>
              <LongitudeDegrees>-1.64191131480038166046142578125</LongitudeDegrees>
            </Position>
            <AltitudeMeters>459.399993896484375</AltitudeMeters>
            <DistanceMeters>2320.8762034288</DistanceMeters>
          </Trackpoint>
          <Trackpoint>
            <Time>2021-04-07T12:28:24.000Z</Time>
            <Position>
              <LatitudeDegrees>42.81645094044506549835205078125</LatitudeDegrees>
              <LongitudeDegrees>-1.64189740084111690521240234375</LongitudeDegrees>
            </Position>
            <AltitudeMeters>459.20001220703125</AltitudeMeters>
            <DistanceMeters>2325.2525937379</DistanceMeters>
          </Trackpoint>
          <Trackpoint>
            <Time>2021-04-07T12:28:25.000Z</Time>
            <Position>
              <LatitudeDegrees>42.81642110086977481842041015625</LatitudeDegrees>
              <LongitudeDegrees>-1.6418922878801822662353515625</LongitudeDegrees>
            </Position>
            <AltitudeMeters>459.20001220703125</AltitudeMeters>
            <DistanceMeters>2328.5988296517</DistanceMeters>
          </Trackpoint>
          <Trackpoint>
            <Time>2021-04-07T12:28:26.000Z</Time>
            <Position>
              <LatitudeDegrees>42.8164015710353851318359375</LatitudeDegrees>
              <LongitudeDegrees>-1.64187342859804630279541015625</LongitudeDegrees>
            </Position>
            <AltitudeMeters>459.20001220703125</AltitudeMeters>
            <DistanceMeters>2331.2629693036</DistanceMeters>
          </Trackpoint>
          <Trackpoint>
            <Time>2021-04-07T12:28:27.000Z</Time>
            <Position>
              <LatitudeDegrees>42.81636913307011127471923828125</LatitudeDegrees>
              <LongitudeDegrees>-1.641839481890201568603515625</LongitudeDegrees>
            </Position>
            <AltitudeMeters>459.20001220703125</AltitudeMeters>
            <DistanceMeters>2335.8143422132</DistanceMeters>
          </Trackpoint>
          <Trackpoint>
            <Time>2021-04-07T12:28:28.000Z</Time>
            <Position>
              <LatitudeDegrees>42.81633476726710796356201171875</LatitudeDegrees>
              <LongitudeDegrees>-1.64178491570055484771728515625</LongitudeDegrees>
            </Position>
            <AltitudeMeters>459.20001220703125</AltitudeMeters>
            <DistanceMeters>2341.6860397414</DistanceMeters>
          </Trackpoint>
          <Trackpoint>
            <Time>2021-04-07T12:28:29.000Z</Time>
            <Position>
              <LatitudeDegrees>42.8162969648838043212890625</LatitudeDegrees>
              <LongitudeDegrees>-1.641716770827770233154296875</LongitudeDegrees>
            </Position>
            <AltitudeMeters>459.20001220703125</AltitudeMeters>
            <DistanceMeters>2348.6612853916</DistanceMeters>
          </Trackpoint>
          <Trackpoint>
            <Time>2021-04-07T12:28:30.000Z</Time>
            <Position>
              <LatitudeDegrees>42.8162629343569278717041015625</LatitudeDegrees>
              <LongitudeDegrees>-1.64165600202977657318115234375</LongitudeDegrees>
            </Position>
            <AltitudeMeters>459.399993896484375</AltitudeMeters>
            <DistanceMeters>2354.9027395314</DistanceMeters>
          </Trackpoint>
          <Trackpoint>
            <Time>2021-04-07T12:28:31.000Z</Time>
            <Position>
              <LatitudeDegrees>42.8162240423262119293212890625</LatitudeDegrees>
              <LongitudeDegrees>-1.64158794097602367401123046875</LongitudeDegrees>
            </Position>
            <AltitudeMeters>459.399993896484375</AltitudeMeters>
            <DistanceMeters>2361.9469052066</DistanceMeters>
          </Trackpoint>
          <Trackpoint>
            <Time>2021-04-07T12:28:32.000Z</Time>
            <Position>
              <LatitudeDegrees>42.81624508090317249298095703125</LatitudeDegrees>
              <LongitudeDegrees>-1.64148668758571147918701171875</LongitudeDegrees>
            </Position>
            <AltitudeMeters>459.600006103515625</AltitudeMeters>
            <DistanceMeters>2370.5393382151</DistanceMeters>
          </Trackpoint>
          <Trackpoint>
            <Time>2021-04-07T12:28:33.000Z</Time>
            <Position>
              <LatitudeDegrees>42.81624742783606052398681640625</LatitudeDegrees>
              <LongitudeDegrees>-1.641408987343311309814453125</LongitudeDegrees>
            </Position>
            <AltitudeMeters>459.600006103515625</AltitudeMeters>
            <DistanceMeters>2376.8883744605</DistanceMeters>
          </Trackpoint>
          <Trackpoint>
            <Time>2021-04-07T12:28:34.000Z</Time>
            <Position>
              <LatitudeDegrees>42.81623334623873233795166015625</LatitudeDegrees>
              <LongitudeDegrees>-1.641338579356670379638671875</LongitudeDegrees>
            </Position>
            <AltitudeMeters>459.399993896484375</AltitudeMeters>
            <DistanceMeters>2382.8470874573</DistanceMeters>
          </Trackpoint>
          <Trackpoint>
            <Time>2021-04-07T12:28:35.000Z</Time>
            <Position>
              <LatitudeDegrees>42.8162139840424060821533203125</LatitudeDegrees>
              <LongitudeDegrees>-1.64126046001911163330078125</LongitudeDegrees>
            </Position>
            <AltitudeMeters>459.399993896484375</AltitudeMeters>
            <DistanceMeters>2389.5792456307</DistanceMeters>
          </Trackpoint>
          <Trackpoint>
            <Time>2021-04-07T12:28:36.000Z</Time>
            <Position>
              <LatitudeDegrees>42.8161915205419063568115234375</LatitudeDegrees>
              <LongitudeDegrees>-1.641201786696910858154296875</LongitudeDegrees>
            </Position>
            <AltitudeMeters>459.20001220703125</AltitudeMeters>
            <DistanceMeters>2394.9815791142</DistanceMeters>
          </Trackpoint>
          <Trackpoint>
            <Time>2021-04-07T12:28:37.000Z</Time>
            <Position>
              <LatitudeDegrees>42.8161771036684513092041015625</LatitudeDegrees>
              <LongitudeDegrees>-1.6411516629159450531005859375</LongitudeDegrees>
            </Position>
            <AltitudeMeters>458.79998779296875</AltitudeMeters>
            <DistanceMeters>2399.3775276569</DistanceMeters>
          </Trackpoint>
          <Trackpoint>
            <Time>2021-04-07T12:28:38.000Z</Time>
            <Position>
              <LatitudeDegrees>42.81616754829883575439453125</LatitudeDegrees>
              <LongitudeDegrees>-1.64110623300075531005859375</LongitudeDegrees>
            </Position>
            <AltitudeMeters>458.600006103515625</AltitudeMeters>
            <DistanceMeters>2403.237531042</DistanceMeters>
          </Trackpoint>
          <Trackpoint>
            <Time>2021-04-07T12:28:39.000Z</Time>
            <Position>
              <LatitudeDegrees>42.816152460873126983642578125</LatitudeDegrees>
              <LongitudeDegrees>-1.64105267263948917388916015625</LongitudeDegrees>
            </Position>
            <AltitudeMeters>458.399993896484375</AltitudeMeters>
            <DistanceMeters>2407.9218757943</DistanceMeters>
          </Trackpoint>
          <Trackpoint>
            <Time>2021-04-07T12:28:40.000Z</Time>
            <Position>
              <LatitudeDegrees>42.816133014857769012451171875</LatitudeDegrees>
              <LongitudeDegrees>-1.64100556634366512298583984375</LongitudeDegrees>
            </Position>
            <AltitudeMeters>458</AltitudeMeters>
            <DistanceMeters>2412.3342271871</DistanceMeters>
          </Trackpoint>
          <Trackpoint>
            <Time>2021-04-07T12:28:41.000Z</Time>
            <Position>
              <LatitudeDegrees>42.8161110542714595794677734375</LatitudeDegrees>
              <LongitudeDegrees>-1.6409526765346527099609375</LongitudeDegrees>
            </Position>
            <AltitudeMeters>457.79998779296875</AltitudeMeters>
            <DistanceMeters>2417.2956774172</DistanceMeters>
          </Trackpoint>
          <Trackpoint>
            <Time>2021-04-07T12:28:42.000Z</Time>
            <Position>
              <LatitudeDegrees>42.81607140786945819854736328125</LatitudeDegrees>
              <LongitudeDegrees>-1.6409008763730525970458984375</LongitudeDegrees>
            </Position>
            <AltitudeMeters>457.79998779296875</AltitudeMeters>
            <DistanceMeters>2423.4077495903</DistanceMeters>
          </Trackpoint>
          <Trackpoint>
            <Time>2021-04-07T12:28:43.000Z</Time>
            <Position>
              <LatitudeDegrees>42.81603704206645488739013671875</LatitudeDegrees>
              <LongitudeDegrees>-1.64085184223949909210205078125</LongitudeDegrees>
            </Position>
            <AltitudeMeters>457.79998779296875</AltitudeMeters>
            <DistanceMeters>2428.9446358567</DistanceMeters>
          </Trackpoint>
          <Trackpoint>
            <Time>2021-04-07T12:28:44.000Z</Time>
            <Position>
              <LatitudeDegrees>42.816004939377307891845703125</LatitudeDegrees>
              <LongitudeDegrees>-1.64081177674233913421630859375</LongitudeDegrees>
            </Position>
            <AltitudeMeters>458</AltitudeMeters>
            <DistanceMeters>2433.7891346623</DistanceMeters>
          </Trackpoint>
          <Trackpoint>
            <Time>2021-04-07T12:28:45.000Z</Time>
            <Position>
              <LatitudeDegrees>42.81597970984876155853271484375</LatitudeDegrees>
              <LongitudeDegrees>-1.64077959023416042327880859375</LongitudeDegrees>
            </Position>
            <AltitudeMeters>458.20001220703125</AltitudeMeters>
            <DistanceMeters>2437.6350760575</DistanceMeters>
          </Trackpoint>
          <Trackpoint>
            <Time>2021-04-07T12:28:46.000Z</Time>
            <Position>
              <LatitudeDegrees>42.8159531392157077789306640625</LatitudeDegrees>
              <LongitudeDegrees>-1.640740446746349334716796875</LongitudeDegrees>
            </Position>
            <AltitudeMeters>458.399993896484375</AltitudeMeters>
            <DistanceMeters>2441.988710224</DistanceMeters>
          </Trackpoint>
          <Trackpoint>
            <Time>2021-04-07T12:28:47.000Z</Time>
            <Position>
              <LatitudeDegrees>42.81593511812388896942138671875</LatitudeDegrees>
              <LongitudeDegrees>-1.64070524275302886962890625</LongitudeDegrees>
            </Position>
            <AltitudeMeters>458.79998779296875</AltitudeMeters>
            <DistanceMeters>2445.4931222951</DistanceMeters>
          </Trackpoint>
          <Trackpoint>
            <Time>2021-04-07T12:28:48.000Z</Time>
            <Position>
              <LatitudeDegrees>42.8159008361399173736572265625</LatitudeDegrees>
              <LongitudeDegrees>-1.6406737267971038818359375</LongitudeDegrees>
            </Position>
            <AltitudeMeters>459.20001220703125</AltitudeMeters>
            <DistanceMeters>2450.0948099486</DistanceMeters>
          </Trackpoint>
          <Trackpoint>
            <Time>2021-04-07T12:28:49.000Z</Time>
            <Position>
              <LatitudeDegrees>42.81587057746946811676025390625</LatitudeDegrees>
              <LongitudeDegrees>-1.64063550531864166259765625</LongitudeDegrees>
            </Position>
            <AltitudeMeters>459.399993896484375</AltitudeMeters>
            <DistanceMeters>2454.6856920447</DistanceMeters>
          </Trackpoint>
          <Trackpoint>
            <Time>2021-04-07T12:28:50.000Z</Time>
            <Position>
              <LatitudeDegrees>42.8158381395041942596435546875</LatitudeDegrees>
              <LongitudeDegrees>-1.6405964456498622894287109375</LongitudeDegrees>
            </Position>
            <AltitudeMeters>459.600006103515625</AltitudeMeters>
            <DistanceMeters>2459.5030872393</DistanceMeters>
          </Trackpoint>
          <Trackpoint>
            <Time>2021-04-07T12:28:51.000Z</Time>
            <Position>
              <LatitudeDegrees>42.8158103115856647491455078125</LatitudeDegrees>
              <LongitudeDegrees>-1.6405605711042881011962890625</LongitudeDegrees>
            </Position>
            <AltitudeMeters>459.79998779296875</AltitudeMeters>
            <DistanceMeters>2463.7655412045</DistanceMeters>
          </Trackpoint>
          <Trackpoint>
            <Time>2021-04-07T12:28:52.000Z</Time>
            <Position>
              <LatitudeDegrees>42.81578139401972293853759765625</LatitudeDegrees>
              <LongitudeDegrees>-1.64052377454936504364013671875</LongitudeDegrees>
            </Position>
            <AltitudeMeters>460</AltitudeMeters>
            <DistanceMeters>2468.1676479784</DistanceMeters>
          </Trackpoint>
          <Trackpoint>
            <Time>2021-04-07T12:28:53.000Z</Time>
            <Position>
              <LatitudeDegrees>42.81575507484376430511474609375</LatitudeDegrees>
              <LongitudeDegrees>-1.640497706830501556396484375</LongitudeDegrees>
            </Position>
            <AltitudeMeters>460.399993896484375</AltitudeMeters>
            <DistanceMeters>2471.7886521204</DistanceMeters>
          </Trackpoint>
          <Trackpoint>
            <Time>2021-04-07T12:28:54.000Z</Time>
            <Position>
              <LatitudeDegrees>42.81571903266012668609619140625</LatitudeDegrees>
              <LongitudeDegrees>-1.64046241901814937591552734375</LongitudeDegrees>
            </Position>
            <AltitudeMeters>460.79998779296875</AltitudeMeters>
            <DistanceMeters>2476.7272993517</DistanceMeters>
          </Trackpoint>
          <Trackpoint>
            <Time>2021-04-07T12:28:55.000Z</Time>
            <Position>
              <LatitudeDegrees>42.815676033496856689453125</LatitudeDegrees>
              <LongitudeDegrees>-1.64040659554302692413330078125</LongitudeDegrees>
            </Position>
            <AltitudeMeters>461</AltitudeMeters>
            <DistanceMeters>2483.3355857925</DistanceMeters>
          </Trackpoint>
          <Trackpoint>
            <Time>2021-04-07T12:28:56.000Z</Time>
            <Position>
              <LatitudeDegrees>42.81564644537866115570068359375</LatitudeDegrees>
              <LongitudeDegrees>-1.64038295857608318328857421875</LongitudeDegrees>
            </Position>
            <AltitudeMeters>461.20001220703125</AltitudeMeters>
            <DistanceMeters>2487.1532478232</DistanceMeters>
          </Trackpoint>
          <Trackpoint>
            <Time>2021-04-07T12:28:57.000Z</Time>
            <Position>
              <LatitudeDegrees>42.8156067989766597747802734375</LatitudeDegrees>
              <LongitudeDegrees>-1.64035412482917308807373046875</LongitudeDegrees>
            </Position>
            <AltitudeMeters>461.600006103515625</AltitudeMeters>
            <DistanceMeters>2492.1554815068</DistanceMeters>
          </Trackpoint>
          <Trackpoint>
            <Time>2021-04-07T12:28:58.000Z</Time>
            <Position>
              <LatitudeDegrees>42.8155759535729885101318359375</LatitudeDegrees>
              <LongitudeDegrees>-1.64032730273902416229248046875</LongitudeDegrees>
            </Position>
            <AltitudeMeters>461.79998779296875</AltitudeMeters>
            <DistanceMeters>2496.2283490995</DistanceMeters>
          </Trackpoint>
          <Trackpoint>
            <Time>2021-04-07T12:28:59.000Z</Time>
            <Position>
              <LatitudeDegrees>42.81555776484310626983642578125</LatitudeDegrees>
              <LongitudeDegrees>-1.640319339931011199951171875</LongitudeDegrees>
            </Position>
            <AltitudeMeters>461.79998779296875</AltitudeMeters>
            <DistanceMeters>2498.3532110296</DistanceMeters>
          </Trackpoint>
          <Trackpoint>
            <Time>2021-04-07T12:29:00.000Z</Time>
            <Position>
              <LatitudeDegrees>42.81554250977933406829833984375</LatitudeDegrees>
              <LongitudeDegrees>-1.6403044201433658599853515625</LongitudeDegrees>
            </Position>
            <AltitudeMeters>461.600006103515625</AltitudeMeters>
            <DistanceMeters>2500.4394748782</DistanceMeters>
          </Trackpoint>
          <Trackpoint>
            <Time>2021-04-07T12:29:01.000Z</Time>
            <Position>
              <LatitudeDegrees>42.8155219741165637969970703125</LatitudeDegrees>
              <LongitudeDegrees>-1.64029561914503574371337890625</LongitudeDegrees>
            </Position>
            <AltitudeMeters>461.20001220703125</AltitudeMeters>
            <DistanceMeters>2502.8340726611</DistanceMeters>
          </Trackpoint>
          <Trackpoint>
            <Time>2021-04-07T12:29:02.000Z</Time>
            <Position>
              <LatitudeDegrees>42.815513424575328826904296875</LatitudeDegrees>
              <LongitudeDegrees>-1.64028472267091274261474609375</LongitudeDegrees>
            </Position>
            <AltitudeMeters>461.20001220703125</AltitudeMeters>
            <DistanceMeters>2504.1370133242</DistanceMeters>
          </Trackpoint>
          <Trackpoint>
            <Time>2021-04-07T12:29:03.000Z</Time>
            <Position>
              <LatitudeDegrees>42.81549925915896892547607421875</LatitudeDegrees>
              <LongitudeDegrees>-1.64027382619678974151611328125</LongitudeDegrees>
            </Position>
            <AltitudeMeters>461.20001220703125</AltitudeMeters>
            <DistanceMeters>2505.9500074846</DistanceMeters>
          </Trackpoint>
          <Trackpoint>
            <Time>2021-04-07T12:29:04.000Z</Time>
            <Position>
              <LatitudeDegrees>42.81549322418868541717529296875</LatitudeDegrees>
              <LongitudeDegrees>-1.64026678539812564849853515625</LongitudeDegrees>
            </Position>
            <AltitudeMeters>461.20001220703125</AltitudeMeters>
            <DistanceMeters>2506.8312489805</DistanceMeters>
          </Trackpoint>
          <Trackpoint>
            <Time>2021-04-07T12:29:05.000Z</Time>
            <Position>
              <LatitudeDegrees>42.8154914639890193939208984375</LatitudeDegrees>
              <LongitudeDegrees>-1.64026075042784214019775390625</LongitudeDegrees>
            </Position>
            <AltitudeMeters>461.20001220703125</AltitudeMeters>
            <DistanceMeters>2507.3517317308</DistanceMeters>
          </Trackpoint>
          <Trackpoint>
            <Time>2021-04-07T12:29:06.000Z</Time>
            <Position>
              <LatitudeDegrees>42.81548031605780124664306640625</LatitudeDegrees>
              <LongitudeDegrees>-1.640258319675922393798828125</LongitudeDegrees>
            </Position>
            <AltitudeMeters>461.20001220703125</AltitudeMeters>
            <DistanceMeters>2508.6052201836</DistanceMeters>
          </Trackpoint>
          <Trackpoint>
            <Time>2021-04-07T12:29:07.000Z</Time>
            <Position>
              <LatitudeDegrees>42.81546480953693389892578125</LatitudeDegrees>
              <LongitudeDegrees>-1.64025236852467060089111328125</LongitudeDegrees>
            </Position>
            <AltitudeMeters>461.20001220703125</AltitudeMeters>
            <DistanceMeters>2510.3981806444</DistanceMeters>
          </Trackpoint>
          <Trackpoint>
            <Time>2021-04-07T12:29:08.000Z</Time>
            <Position>
              <LatitudeDegrees>42.81544930301606655120849609375</LatitudeDegrees>
              <LongitudeDegrees>-1.6402487643063068389892578125</LongitudeDegrees>
            </Position>
            <AltitudeMeters>461.20001220703125</AltitudeMeters>
            <DistanceMeters>2512.1503866799</DistanceMeters>
          </Trackpoint>
          <Trackpoint>
            <Time>2021-04-07T12:29:09.000Z</Time>
            <Position>
              <LatitudeDegrees>42.8154475428164005279541015625</LatitudeDegrees>
              <LongitudeDegrees>-1.64024800993502140045166015625</LongitudeDegrees>
            </Position>
            <AltitudeMeters>461.20001220703125</AltitudeMeters>
            <DistanceMeters>2512.3628728729</DistanceMeters>
          </Trackpoint>
          <Trackpoint>
            <Time>2021-04-07T12:29:10.000Z</Time>
            <Position>
              <LatitudeDegrees>42.815444357693195343017578125</LatitudeDegrees>
              <LongitudeDegrees>-1.6402490995824337005615234375</LongitudeDegrees>
            </Position>
            <AltitudeMeters>461.20001220703125</AltitudeMeters>
            <DistanceMeters>2512.7184302807</DistanceMeters>
          </Trackpoint>
          <Trackpoint>
            <Time>2021-04-07T12:29:11.000Z</Time>
            <Position>
              <LatitudeDegrees>42.81544066965579986572265625</LatitudeDegrees>
              <LongitudeDegrees>-1.6402427293360233306884765625</LongitudeDegrees>
            </Position>
            <AltitudeMeters>461.20001220703125</AltitudeMeters>
            <DistanceMeters>2513.3903706219</DistanceMeters>
          </Trackpoint>
          <Trackpoint>
            <Time>2021-04-07T12:29:12.000Z</Time>
            <Position>
              <LatitudeDegrees>42.81543555669486522674560546875</LatitudeDegrees>
              <LongitudeDegrees>-1.640232838690280914306640625</LongitudeDegrees>
            </Position>
            <AltitudeMeters>461.20001220703125</AltitudeMeters>
            <DistanceMeters>2514.3779172061</DistanceMeters>
          </Trackpoint>
          <Trackpoint>
            <Time>2021-04-07T12:29:13.000Z</Time>
            <Position>
              <LatitudeDegrees>42.8154198825359344482421875</LatitudeDegrees>
              <LongitudeDegrees>-1.6402125544846057891845703125</LongitudeDegrees>
            </Position>
            <AltitudeMeters>461.20001220703125</AltitudeMeters>
            <DistanceMeters>2516.7819240539</DistanceMeters>
          </Trackpoint>
          <Trackpoint>
            <Time>2021-04-07T12:29:14.000Z</Time>
            <Position>
              <LatitudeDegrees>42.81540018506348133087158203125</LatitudeDegrees>
              <LongitudeDegrees>-1.6401850618422031402587890625</LongitudeDegrees>
            </Position>
            <AltitudeMeters>461.20001220703125</AltitudeMeters>
            <DistanceMeters>2519.9192450964</DistanceMeters>
          </Trackpoint>
          <Trackpoint>
            <Time>2021-04-07T12:29:15.000Z</Time>
            <Position>
              <LatitudeDegrees>42.81537772156298160552978515625</LatitudeDegrees>
              <LongitudeDegrees>-1.64015446789562702178955078125</LongitudeDegrees>
            </Position>
            <AltitudeMeters>461.20001220703125</AltitudeMeters>
            <DistanceMeters>2523.4544432236</DistanceMeters>
          </Trackpoint>
          <Trackpoint>
            <Time>2021-04-07T12:29:16.000Z</Time>
            <Position>
              <LatitudeDegrees>42.81534922309219837188720703125</LatitudeDegrees>
              <LongitudeDegrees>-1.64012496359646320343017578125</LongitudeDegrees>
            </Position>
            <AltitudeMeters>461.20001220703125</AltitudeMeters>
            <DistanceMeters>2527.4376384626</DistanceMeters>
          </Trackpoint>
          <Trackpoint>
            <Time>2021-04-07T12:29:17.000Z</Time>
            <Position>
              <LatitudeDegrees>42.8153318725526332855224609375</LatitudeDegrees>
              <LongitudeDegrees>-1.6400890052318572998046875</LongitudeDegrees>
            </Position>
            <AltitudeMeters>461.600006103515625</AltitudeMeters>
            <DistanceMeters>2530.9549108047</DistanceMeters>
          </Trackpoint>
          <Trackpoint>
            <Time>2021-04-07T12:29:18.000Z</Time>
            <Position>
              <LatitudeDegrees>42.8152856044471263885498046875</LatitudeDegrees>
              <LongitudeDegrees>-1.64005212485790252685546875</LongitudeDegrees>
            </Position>
            <AltitudeMeters>461.79998779296875</AltitudeMeters>
            <DistanceMeters>2536.9211961936</DistanceMeters>
          </Trackpoint>
          <Trackpoint>
            <Time>2021-04-07T12:29:19.000Z</Time>
            <Position>
              <LatitudeDegrees>42.81520840711891651153564453125</LatitudeDegrees>
              <LongitudeDegrees>-1.64000862278044223785400390625</LongitudeDegrees>
            </Position>
            <AltitudeMeters>461.79998779296875</AltitudeMeters>
            <DistanceMeters>2546.2182866913</DistanceMeters>
          </Trackpoint>
          <Trackpoint>
            <Time>2021-04-07T12:29:20.000Z</Time>
            <Position>
              <LatitudeDegrees>42.8151421062648296356201171875</LatitudeDegrees>
              <LongitudeDegrees>-1.6399610973894596099853515625</LongitudeDegrees>
            </Position>
            <AltitudeMeters>461.79998779296875</AltitudeMeters>
            <DistanceMeters>2554.5557640355</DistanceMeters>
          </Trackpoint>
          <Trackpoint>
            <Time>2021-04-07T12:29:21.000Z</Time>
            <Position>
              <LatitudeDegrees>42.81508862972259521484375</LatitudeDegrees>
              <LongitudeDegrees>-1.6399101354181766510009765625</LongitudeDegrees>
            </Position>
            <AltitudeMeters>461.79998779296875</AltitudeMeters>
            <DistanceMeters>2561.8176953511</DistanceMeters>
          </Trackpoint>
          <Trackpoint>
            <Time>2021-04-07T12:29:22.000Z</Time>
            <Position>
              <LatitudeDegrees>42.81504211015999317169189453125</LatitudeDegrees>
              <LongitudeDegrees>-1.6398621909320354461669921875</LongitudeDegrees>
            </Position>
            <AltitudeMeters>461.399993896484375</AltitudeMeters>
            <DistanceMeters>2568.3087920757</DistanceMeters>
          </Trackpoint>
          <Trackpoint>
            <Time>2021-04-07T12:29:23.000Z</Time>
            <Position>
              <LatitudeDegrees>42.81500422395765781402587890625</LatitudeDegrees>
              <LongitudeDegrees>-1.639821119606494903564453125</LongitudeDegrees>
            </Position>
            <AltitudeMeters>461.20001220703125</AltitudeMeters>
            <DistanceMeters>2573.6960609283</DistanceMeters>
          </Trackpoint>
          <Trackpoint>
            <Time>2021-04-07T12:29:24.000Z</Time>
            <Position>
              <LatitudeDegrees>42.814966924488544464111328125</LatitudeDegrees>
              <LongitudeDegrees>-1.63978884927928447723388671875</LongitudeDegrees>
            </Position>
            <AltitudeMeters>460.79998779296875</AltitudeMeters>
            <DistanceMeters>2578.6136360133</DistanceMeters>
          </Trackpoint>
          <Trackpoint>
            <Time>2021-04-07T12:29:25.000Z</Time>
            <Position>
              <LatitudeDegrees>42.8149255178868770599365234375</LatitudeDegrees>
              <LongitudeDegrees>-1.63976537995040416717529296875</LongitudeDegrees>
            </Position>
            <AltitudeMeters>460.79998779296875</AltitudeMeters>
            <DistanceMeters>2583.6050266922</DistanceMeters>
          </Trackpoint>
          <Trackpoint>
            <Time>2021-04-07T12:29:26.000Z</Time>
            <Position>
              <LatitudeDegrees>42.8148913197219371795654296875</LatitudeDegrees>
              <LongitudeDegrees>-1.63975046016275882720947265625</LongitudeDegrees>
            </Position>
            <AltitudeMeters>460.600006103515625</AltitudeMeters>
            <DistanceMeters>2587.600671215</DistanceMeters>
          </Trackpoint>
          <Trackpoint>
            <Time>2021-04-07T12:29:27.000Z</Time>
            <Position>
              <LatitudeDegrees>42.8148641623556613922119140625</LatitudeDegrees>
              <LongitudeDegrees>-1.6397351212799549102783203125</LongitudeDegrees>
            </Position>
            <AltitudeMeters>460.600006103515625</AltitudeMeters>
            <DistanceMeters>2590.8732345318</DistanceMeters>
          </Trackpoint>
          <Trackpoint>
            <Time>2021-04-07T12:29:28.000Z</Time>
            <Position>
              <LatitudeDegrees>42.81484127976000308990478515625</LatitudeDegrees>
              <LongitudeDegrees>-1.6397230513393878936767578125</LongitudeDegrees>
            </Position>
            <AltitudeMeters>461</AltitudeMeters>
            <DistanceMeters>2593.6059755037</DistanceMeters>
          </Trackpoint>
          <Trackpoint>
            <Time>2021-04-07T12:29:29.000Z</Time>
            <Position>
              <LatitudeDegrees>42.8148266114294528961181640625</LatitudeDegrees>
              <LongitudeDegrees>-1.63971416652202606201171875</LongitudeDegrees>
            </Position>
            <AltitudeMeters>461.399993896484375</AltitudeMeters>
            <DistanceMeters>2595.3938924652</DistanceMeters>
          </Trackpoint>
          <Trackpoint>
            <Time>2021-04-07T12:29:30.000Z</Time>
            <Position>
              <LatitudeDegrees>42.81480842269957065582275390625</LatitudeDegrees>
              <LongitudeDegrees>-1.63969161920249462127685546875</LongitudeDegrees>
            </Position>
            <AltitudeMeters>461.600006103515625</AltitudeMeters>
            <DistanceMeters>2598.1299358442</DistanceMeters>
          </Trackpoint>
          <Trackpoint>
            <Time>2021-04-07T12:29:31.000Z</Time>
            <Position>
              <LatitudeDegrees>42.81478495337069034576416015625</LatitudeDegrees>
              <LongitudeDegrees>-1.63966781459748744964599609375</LongitudeDegrees>
            </Position>
            <AltitudeMeters>461.600006103515625</AltitudeMeters>
            <DistanceMeters>2601.3859010997</DistanceMeters>
          </Trackpoint>
          <Trackpoint>
            <Time>2021-04-07T12:29:32.000Z</Time>
            <Position>
              <LatitudeDegrees>42.81476198695600032806396484375</LatitudeDegrees>
              <LongitudeDegrees>-1.63963696919381618499755859375</LongitudeDegrees>
            </Position>
            <AltitudeMeters>461.79998779296875</AltitudeMeters>
            <DistanceMeters>2604.9730809018</DistanceMeters>
          </Trackpoint>
          <Trackpoint>
            <Time>2021-04-07T12:29:33.000Z</Time>
            <Position>
              <LatitudeDegrees>42.81473633833229541778564453125</LatitudeDegrees>
              <LongitudeDegrees>-1.639599502086639404296875</LongitudeDegrees>
            </Position>
            <AltitudeMeters>461.79998779296875</AltitudeMeters>
            <DistanceMeters>2609.1564154747</DistanceMeters>
          </Trackpoint>
          <Trackpoint>
            <Time>2021-04-07T12:29:34.000Z</Time>
            <Position>
              <LatitudeDegrees>42.81471035443246364593505859375</LatitudeDegrees>
              <LongitudeDegrees>-1.63956454955041408538818359375</LongitudeDegrees>
            </Position>
            <AltitudeMeters>462</AltitudeMeters>
            <DistanceMeters>2613.2204048713</DistanceMeters>
          </Trackpoint>
          <Trackpoint>
            <Time>2021-04-07T12:29:35.000Z</Time>
            <Position>
              <LatitudeDegrees>42.8146804310381412506103515625</LatitudeDegrees>
              <LongitudeDegrees>-1.63954074494540691375732421875</LongitudeDegrees>
            </Position>
            <AltitudeMeters>462</AltitudeMeters>
            <DistanceMeters>2617.0768975659</DistanceMeters>
          </Trackpoint>
          <Trackpoint>
            <Time>2021-04-07T12:29:36.000Z</Time>
            <Position>
              <LatitudeDegrees>42.81465075910091400146484375</LatitudeDegrees>
              <LongitudeDegrees>-1.63951576687395572662353515625</LongitudeDegrees>
            </Position>
            <AltitudeMeters>462</AltitudeMeters>
            <DistanceMeters>2620.9590615996</DistanceMeters>
          </Trackpoint>
          <Trackpoint>
            <Time>2021-04-07T12:29:37.000Z</Time>
            <Position>
              <LatitudeDegrees>42.81462770886719226837158203125</LatitudeDegrees>
              <LongitudeDegrees>-1.63948928005993366241455078125</LongitudeDegrees>
            </Position>
            <AltitudeMeters>462.20001220703125</AltitudeMeters>
            <DistanceMeters>2624.3160744686</DistanceMeters>
          </Trackpoint>
          <Trackpoint>
            <Time>2021-04-07T12:29:38.000Z</Time>
            <Position>
              <LatitudeDegrees>42.81460340134799480438232421875</LatitudeDegrees>
              <LongitudeDegrees>-1.63946011103689670562744140625</LongitudeDegrees>
            </Position>
            <AltitudeMeters>462.399993896484375</AltitudeMeters>
            <DistanceMeters>2627.9208324359</DistanceMeters>
          </Trackpoint>
          <Trackpoint>
            <Time>2021-04-07T12:29:39.000Z</Time>
            <Position>
              <LatitudeDegrees>42.81458144076168537139892578125</LatitudeDegrees>
              <LongitudeDegrees>-1.6394330374896526336669921875</LongitudeDegrees>
            </Position>
            <AltitudeMeters>462.600006103515625</AltitudeMeters>
            <DistanceMeters>2631.2153964261</DistanceMeters>
          </Trackpoint>
          <Trackpoint>
            <Time>2021-04-07T12:29:40.000Z</Time>
            <Position>
              <LatitudeDegrees>42.81455897726118564605712890625</LatitudeDegrees>
              <LongitudeDegrees>-1.63941887207329273223876953125</LongitudeDegrees>
            </Position>
            <AltitudeMeters>462.79998779296875</AltitudeMeters>
            <DistanceMeters>2633.9695322639</DistanceMeters>
          </Trackpoint>
          <Trackpoint>
            <Time>2021-04-07T12:29:41.000Z</Time>
            <Position>
              <LatitudeDegrees>42.81453433446586132049560546875</LatitudeDegrees>
              <LongitudeDegrees>-1.63940328173339366912841796875</LongitudeDegrees>
            </Position>
            <AltitudeMeters>462.79998779296875</AltitudeMeters>
            <DistanceMeters>2636.9925171069</DistanceMeters>
          </Trackpoint>
          <Trackpoint>
            <Time>2021-04-07T12:29:42.000Z</Time>
            <Position>
              <LatitudeDegrees>42.814506590366363525390625</LatitudeDegrees>
              <LongitudeDegrees>-1.63937042467296123504638671875</LongitudeDegrees>
            </Position>
            <AltitudeMeters>462.79998779296875</AltitudeMeters>
            <DistanceMeters>2641.0819793667</DistanceMeters>
          </Trackpoint>
          <Trackpoint>
            <Time>2021-04-07T12:29:43.000Z</Time>
            <Position>
              <LatitudeDegrees>42.81449175439774990081787109375</LatitudeDegrees>
              <LongitudeDegrees>-1.6393431834876537322998046875</LongitudeDegrees>
            </Position>
            <AltitudeMeters>463</AltitudeMeters>
            <DistanceMeters>2643.8524603678</DistanceMeters>
          </Trackpoint>
          <Trackpoint>
            <Time>2021-04-07T12:29:44.000Z</Time>
            <Position>
              <LatitudeDegrees>42.8144638426601886749267578125</LatitudeDegrees>
              <LongitudeDegrees>-1.63930538110435009002685546875</LongitudeDegrees>
            </Position>
            <AltitudeMeters>463</AltitudeMeters>
            <DistanceMeters>2648.2319446259</DistanceMeters>
          </Trackpoint>
          <Trackpoint>
            <Time>2021-04-07T12:29:45.000Z</Time>
            <Position>
              <LatitudeDegrees>42.814433164894580841064453125</LatitudeDegrees>
              <LongitudeDegrees>-1.63927017711102962493896484375</LongitudeDegrees>
            </Position>
            <AltitudeMeters>462.79998779296875</AltitudeMeters>
            <DistanceMeters>2652.6951664034</DistanceMeters>
          </Trackpoint>
          <Trackpoint>
            <Time>2021-04-07T12:29:46.000Z</Time>
            <Position>
              <LatitudeDegrees>42.8143884055316448211669921875</LatitudeDegrees>
              <LongitudeDegrees>-1.63922424428164958953857421875</LongitudeDegrees>
            </Position>
            <AltitudeMeters>462.79998779296875</AltitudeMeters>
            <DistanceMeters>2658.9308306958</DistanceMeters>
          </Trackpoint>
          <Trackpoint>
            <Time>2021-04-07T12:29:47.000Z</Time>
            <Position>
              <LatitudeDegrees>42.814349345862865447998046875</LatitudeDegrees>
              <LongitudeDegrees>-1.639173030853271484375</LongitudeDegrees>
            </Position>
            <AltitudeMeters>462.79998779296875</AltitudeMeters>
            <DistanceMeters>2664.9618461921</DistanceMeters>
          </Trackpoint>
          <Trackpoint>
            <Time>2021-04-07T12:29:48.000Z</Time>
            <Position>
              <LatitudeDegrees>42.81431037001311779022216796875</LatitudeDegrees>
              <LongitudeDegrees>-1.63912064395844936370849609375</LongitudeDegrees>
            </Position>
            <AltitudeMeters>462.79998779296875</AltitudeMeters>
            <DistanceMeters>2671.0539405926</DistanceMeters>
          </Trackpoint>
          <Trackpoint>
            <Time>2021-04-07T12:29:49.000Z</Time>
            <Position>
              <LatitudeDegrees>42.81426896341145038604736328125</LatitudeDegrees>
              <LongitudeDegrees>-1.6390675865113735198974609375</LongitudeDegrees>
            </Position>
            <AltitudeMeters>463</AltitudeMeters>
            <DistanceMeters>2677.3787519452</DistanceMeters>
          </Trackpoint>
          <Trackpoint>
            <Time>2021-04-07T12:29:50.000Z</Time>
            <Position>
              <LatitudeDegrees>42.81420006416738033294677734375</LatitudeDegrees>
              <LongitudeDegrees>-1.638976894319057464599609375</LongitudeDegrees>
            </Position>
            <AltitudeMeters>463</AltitudeMeters>
            <DistanceMeters>2688.0391230479</DistanceMeters>
          </Trackpoint>
          <Trackpoint>
            <Time>2021-04-07T12:29:51.000Z</Time>
            <Position>
              <LatitudeDegrees>42.8141485154628753662109375</LatitudeDegrees>
              <LongitudeDegrees>-1.6389116831123828887939453125</LongitudeDegrees>
            </Position>
            <AltitudeMeters>463.20001220703125</AltitudeMeters>
            <DistanceMeters>2695.8660022853</DistanceMeters>
          </Trackpoint>
          <Trackpoint>
            <Time>2021-04-07T12:29:52.000Z</Time>
            <Position>
              <LatitudeDegrees>42.81410417519509792327880859375</LatitudeDegrees>
              <LongitudeDegrees>-1.63885795511305332183837890625</LongitudeDegrees>
            </Position>
            <AltitudeMeters>463.20001220703125</AltitudeMeters>
            <DistanceMeters>2702.4688205526</DistanceMeters>
          </Trackpoint>
          <Trackpoint>
            <Time>2021-04-07T12:29:53.000Z</Time>
            <Position>
              <LatitudeDegrees>42.8140695579349994659423828125</LatitudeDegrees>
              <LongitudeDegrees>-1.63882124237716197967529296875</LongitudeDegrees>
            </Position>
            <AltitudeMeters>463.20001220703125</AltitudeMeters>
            <DistanceMeters>2707.3495317363</DistanceMeters>
          </Trackpoint>
          <Trackpoint>
            <Time>2021-04-07T12:29:54.000Z</Time>
            <Position>
              <LatitudeDegrees>42.8140519559383392333984375</LatitudeDegrees>
              <LongitudeDegrees>-1.638799868524074554443359375</LongitudeDegrees>
            </Position>
            <AltitudeMeters>463.20001220703125</AltitudeMeters>
            <DistanceMeters>2709.9726821801</DistanceMeters>
          </Trackpoint>
          <Trackpoint>
            <Time>2021-04-07T12:29:55.000Z</Time>
            <Position>
              <LatitudeDegrees>42.8140196017920970916748046875</LatitudeDegrees>
              <LongitudeDegrees>-1.6387547738850116729736328125</LongitudeDegrees>
            </Position>
            <AltitudeMeters>463.20001220703125</AltitudeMeters>
            <DistanceMeters>2715.1216922247</DistanceMeters>
          </Trackpoint>
          <Trackpoint>
            <Time>2021-04-07T12:29:56.000Z</Time>
            <Position>
              <LatitudeDegrees>42.81399738974869251251220703125</LatitudeDegrees>
              <LongitudeDegrees>-1.6387292928993701934814453125</LongitudeDegrees>
            </Position>
            <AltitudeMeters>463.20001220703125</AltitudeMeters>
            <DistanceMeters>2718.3512027592</DistanceMeters>
          </Trackpoint>
          <Trackpoint>
            <Time>2021-04-07T12:29:57.000Z</Time>
            <Position>
              <LatitudeDegrees>42.8139579109847545623779296875</LatitudeDegrees>
              <LongitudeDegrees>-1.6386934183537960052490234375</LongitudeDegrees>
            </Position>
            <AltitudeMeters>463.20001220703125</AltitudeMeters>
            <DistanceMeters>2723.6318159868</DistanceMeters>
          </Trackpoint>
          <Trackpoint>
            <Time>2021-04-07T12:29:58.000Z</Time>
            <Position>
              <LatitudeDegrees>42.8139206953346729278564453125</LatitudeDegrees>
              <LongitudeDegrees>-1.63866081275045871734619140625</LongitudeDegrees>
            </Position>
            <AltitudeMeters>463.20001220703125</AltitudeMeters>
            <DistanceMeters>2728.5558138799</DistanceMeters>
          </Trackpoint>
          <Trackpoint>
            <Time>2021-04-07T12:29:59.000Z</Time>
            <Position>
              <LatitudeDegrees>42.81389772891998291015625</LatitudeDegrees>
              <LongitudeDegrees>-1.638625524938106536865234375</LongitudeDegrees>
            </Position>
            <AltitudeMeters>463.20001220703125</AltitudeMeters>
            <DistanceMeters>2732.4064483109</DistanceMeters>
          </Trackpoint>
          <Trackpoint>
            <Time>2021-04-07T12:30:00.000Z</Time>
            <Position>
              <LatitudeDegrees>42.8138898499310016632080078125</LatitudeDegrees>
              <LongitudeDegrees>-1.6386075876653194427490234375</LongitudeDegrees>
            </Position>
            <AltitudeMeters>463.20001220703125</AltitudeMeters>
            <DistanceMeters>2734.1116417354</DistanceMeters>
          </Trackpoint>
          <Trackpoint>
            <Time>2021-04-07T12:30:01.000Z</Time>
            <Position>
              <LatitudeDegrees>42.81385037116706371307373046875</LatitudeDegrees>
              <LongitudeDegrees>-1.63856685161590576171875</LongitudeDegrees>
            </Position>
            <AltitudeMeters>463.20001220703125</AltitudeMeters>
            <DistanceMeters>2739.6231911689</DistanceMeters>
          </Trackpoint>
          <Trackpoint>
            <Time>2021-04-07T12:30:02.000Z</Time>
            <Position>
              <LatitudeDegrees>42.8138298355042934417724609375</LatitudeDegrees>
              <LongitudeDegrees>-1.6385435499250888824462890625</LongitudeDegrees>
            </Position>
            <AltitudeMeters>463.20001220703125</AltitudeMeters>
            <DistanceMeters>2742.597997871</DistanceMeters>
          </Trackpoint>
          <Trackpoint>
            <Time>2021-04-07T12:30:03.000Z</Time>
            <Position>
              <LatitudeDegrees>42.81380695290863513946533203125</LatitudeDegrees>
              <LongitudeDegrees>-1.638521589338779449462890625</LongitudeDegrees>
            </Position>
            <AltitudeMeters>463.20001220703125</AltitudeMeters>
            <DistanceMeters>2745.7122075783</DistanceMeters>
          </Trackpoint>
          <Trackpoint>
            <Time>2021-04-07T12:30:04.000Z</Time>
            <Position>
              <LatitudeDegrees>42.8137889318168163299560546875</LatitudeDegrees>
              <LongitudeDegrees>-1.6385096870362758636474609375</LongitudeDegrees>
            </Position>
            <AltitudeMeters>463.20001220703125</AltitudeMeters>
            <DistanceMeters>2747.9407815717</DistanceMeters>
          </Trackpoint>
          <Trackpoint>
            <Time>2021-04-07T12:30:05.000Z</Time>
            <Position>
              <LatitudeDegrees>42.8137741796672344207763671875</LatitudeDegrees>
              <LongitudeDegrees>-1.6385002993047237396240234375</LongitudeDegrees>
            </Position>
            <AltitudeMeters>463.399993896484375</AltitudeMeters>
            <DistanceMeters>2749.7537757321</DistanceMeters>
          </Trackpoint>
          <Trackpoint>
            <Time>2021-04-07T12:30:06.000Z</Time>
            <Position>
              <LatitudeDegrees>42.81376521103084087371826171875</LatitudeDegrees>
              <LongitudeDegrees>-1.6384962759912014007568359375</LongitudeDegrees>
            </Position>
            <AltitudeMeters>463.399993896484375</AltitudeMeters>
            <DistanceMeters>2750.8033800986</DistanceMeters>
          </Trackpoint>
          <Trackpoint>
            <Time>2021-04-07T12:30:07.000Z</Time>
            <Position>
              <LatitudeDegrees>42.8137649595737457275390625</LatitudeDegrees>
              <LongitudeDegrees>-1.63849753327667713165283203125</LongitudeDegrees>
            </Position>
            <AltitudeMeters>463.399993896484375</AltitudeMeters>
            <DistanceMeters>2750.8984068129</DistanceMeters>
          </Trackpoint>
          <Trackpoint>
            <Time>2021-04-07T12:30:08.000Z</Time>
            <Position>
              <LatitudeDegrees>42.81375347636640071868896484375</LatitudeDegrees>
              <LongitudeDegrees>-1.638481356203556060791015625</LongitudeDegrees>
            </Position>
            <AltitudeMeters>463.399993896484375</AltitudeMeters>
            <DistanceMeters>2752.7361360068</DistanceMeters>
          </Trackpoint>
          <Trackpoint>
            <Time>2021-04-07T12:30:09.000Z</Time>
            <Position>
              <LatitudeDegrees>42.81374626792967319488525390625</LatitudeDegrees>
              <LongitudeDegrees>-1.63847029209136962890625</LongitudeDegrees>
            </Position>
            <AltitudeMeters>463.600006103515625</AltitudeMeters>
            <DistanceMeters>2753.9418898405</DistanceMeters>
          </Trackpoint>
          <Trackpoint>
            <Time>2021-04-07T12:30:10.000Z</Time>
            <Position>
              <LatitudeDegrees>42.81374207697808742523193359375</LatitudeDegrees>
              <LongitudeDegrees>-1.6384637542068958282470703125</LongitudeDegrees>
            </Position>
            <AltitudeMeters>463.600006103515625</AltitudeMeters>
            <DistanceMeters>2754.653004656</DistanceMeters>
          </Trackpoint>
          <Trackpoint>
            <Time>2021-04-07T12:30:11.000Z</Time>
            <Position>
              <LatitudeDegrees>42.8137408196926116943359375</LatitudeDegrees>
              <LongitudeDegrees>-1.63846199400722980499267578125</LongitudeDegrees>
            </Position>
            <AltitudeMeters>463.79998779296875</AltitudeMeters>
            <DistanceMeters>2754.8430580848</DistanceMeters>
          </Trackpoint>
          <Trackpoint>
            <Time>2021-04-07T12:30:12.000Z</Time>
            <Position>
              <LatitudeDegrees>42.8137406520545482635498046875</LatitudeDegrees>
              <LongitudeDegrees>-1.63846199400722980499267578125</LongitudeDegrees>
            </Position>
            <AltitudeMeters>464</AltitudeMeters>
            <DistanceMeters>2754.8430580848</DistanceMeters>
          </Trackpoint>
          <Trackpoint>
            <Time>2021-04-07T12:30:13.000Z</Time>
            <Position>
              <LatitudeDegrees>42.81373746693134307861328125</LatitudeDegrees>
              <LongitudeDegrees>-1.63846014998853206634521484375</LongitudeDegrees>
            </Position>
            <AltitudeMeters>464</AltitudeMeters>
            <DistanceMeters>2755.2348632654</DistanceMeters>
          </Trackpoint>
          <Trackpoint>
            <Time>2021-04-07T12:30:14.000Z</Time>
            <Position>
              <LatitudeDegrees>42.813728749752044677734375</LatitudeDegrees>
              <LongitudeDegrees>-1.63845763541758060455322265625</LongitudeDegrees>
            </Position>
            <AltitudeMeters>464</AltitudeMeters>
            <DistanceMeters>2756.2315118538</DistanceMeters>
          </Trackpoint>
          <Trackpoint>
            <Time>2021-04-07T12:30:15.000Z</Time>
            <Position>
              <LatitudeDegrees>42.81371894292533397674560546875</LatitudeDegrees>
              <LongitudeDegrees>-1.63844883441925048828125</LongitudeDegrees>
            </Position>
            <AltitudeMeters>464</AltitudeMeters>
            <DistanceMeters>2757.5379131887</DistanceMeters>
          </Trackpoint>
          <Trackpoint>
            <Time>2021-04-07T12:30:16.000Z</Time>
            <Position>
              <LatitudeDegrees>42.81370720826089382171630859375</LatitudeDegrees>
              <LongitudeDegrees>-1.63843785412609577178955078125</LongitudeDegrees>
            </Position>
            <AltitudeMeters>464</AltitudeMeters>
            <DistanceMeters>2759.1223251464</DistanceMeters>
          </Trackpoint>
          <Trackpoint>
            <Time>2021-04-07T12:30:17.000Z</Time>
            <Position>
              <LatitudeDegrees>42.813687510788440704345703125</LatitudeDegrees>
              <LongitudeDegrees>-1.63839443586766719818115234375</LongitudeDegrees>
            </Position>
            <AltitudeMeters>464</AltitudeMeters>
            <DistanceMeters>2763.290522248</DistanceMeters>
          </Trackpoint>
          <Trackpoint>
            <Time>2021-04-07T12:30:18.000Z</Time>
            <Position>
              <LatitudeDegrees>42.8136608563363552093505859375</LatitudeDegrees>
              <LongitudeDegrees>-1.6383455693721771240234375</LongitudeDegrees>
            </Position>
            <AltitudeMeters>464</AltitudeMeters>
            <DistanceMeters>2768.2619726628</DistanceMeters>
          </Trackpoint>
          <Trackpoint>
            <Time>2021-04-07T12:30:19.000Z</Time>
            <Position>
              <LatitudeDegrees>42.81361685134470462799072265625</LatitudeDegrees>
              <LongitudeDegrees>-1.63827373646199703216552734375</LongitudeDegrees>
            </Position>
            <AltitudeMeters>464</AltitudeMeters>
            <DistanceMeters>2775.9032077912</DistanceMeters>
          </Trackpoint>
          <Trackpoint>
            <Time>2021-04-07T12:30:20.000Z</Time>
            <Position>
              <LatitudeDegrees>42.8135713376104831695556640625</LatitudeDegrees>
              <LongitudeDegrees>-1.638203077018260955810546875</LongitudeDegrees>
            </Position>
            <AltitudeMeters>464.20001220703125</AltitudeMeters>
            <DistanceMeters>2783.5809899596</DistanceMeters>
          </Trackpoint>
          <Trackpoint>
            <Time>2021-04-07T12:30:21.000Z</Time>
            <Position>
              <LatitudeDegrees>42.81351123936474323272705078125</LatitudeDegrees>
              <LongitudeDegrees>-1.63813962601125240325927734375</LongitudeDegrees>
            </Position>
            <AltitudeMeters>464.399993896484375</AltitudeMeters>
            <DistanceMeters>2792.0415700799</DistanceMeters>
          </Trackpoint>
          <Trackpoint>
            <Time>2021-04-07T12:30:22.000Z</Time>
            <Position>
              <LatitudeDegrees>42.81345717608928680419921875</LatitudeDegrees>
              <LongitudeDegrees>-1.638094447553157806396484375</LongitudeDegrees>
            </Position>
            <AltitudeMeters>464.79998779296875</AltitudeMeters>
            <DistanceMeters>2799.100462473</DistanceMeters>
          </Trackpoint>
          <Trackpoint>
            <Time>2021-04-07T12:30:23.000Z</Time>
            <Position>
              <LatitudeDegrees>42.81342155300080776214599609375</LatitudeDegrees>
              <LongitudeDegrees>-1.63806117139756679534912109375</LongitudeDegrees>
            </Position>
            <AltitudeMeters>465</AltitudeMeters>
            <DistanceMeters>2803.9065976712</DistanceMeters>
          </Trackpoint>
          <Trackpoint>
            <Time>2021-04-07T12:30:24.000Z</Time>
            <Position>
              <LatitudeDegrees>42.8133809007704257965087890625</LatitudeDegrees>
              <LongitudeDegrees>-1.638026721775531768798828125</LongitudeDegrees>
            </Position>
            <AltitudeMeters>465.20001220703125</AltitudeMeters>
            <DistanceMeters>2809.2348769751</DistanceMeters>
          </Trackpoint>
          <Trackpoint>
            <Time>2021-04-07T12:30:25.000Z</Time>
            <Position>
              <LatitudeDegrees>42.8133272565901279449462890625</LatitudeDegrees>
              <LongitudeDegrees>-1.6379900090396404266357421875</LongitudeDegrees>
            </Position>
            <AltitudeMeters>465.399993896484375</AltitudeMeters>
            <DistanceMeters>2815.916545774</DistanceMeters>
          </Trackpoint>
          <Trackpoint>
            <Time>2021-04-07T12:30:26.000Z</Time>
            <Position>
              <LatitudeDegrees>42.81329398043453693389892578125</LatitudeDegrees>
              <LongitudeDegrees>-1.6379618458449840545654296875</LongitudeDegrees>
            </Position>
            <AltitudeMeters>465.399993896484375</AltitudeMeters>
            <DistanceMeters>2820.2753622233</DistanceMeters>
          </Trackpoint>
          <Trackpoint>
            <Time>2021-04-07T12:30:27.000Z</Time>
            <Position>
              <LatitudeDegrees>42.81327235512435436248779296875</LatitudeDegrees>
              <LongitudeDegrees>-1.63794265128672122955322265625</LongitudeDegrees>
            </Position>
            <AltitudeMeters>465.399993896484375</AltitudeMeters>
            <DistanceMeters>2823.1482509907</DistanceMeters>
          </Trackpoint>
          <Trackpoint>
            <Time>2021-04-07T12:30:28.000Z</Time>
            <Position>
              <LatitudeDegrees>42.81322776339948177337646484375</LatitudeDegrees>
              <LongitudeDegrees>-1.637916080653667449951171875</LongitudeDegrees>
            </Position>
            <AltitudeMeters>465.20001220703125</AltitudeMeters>
            <DistanceMeters>2828.5647737097</DistanceMeters>
          </Trackpoint>
          <Trackpoint>
            <Time>2021-04-07T12:30:29.000Z</Time>
            <Position>
              <LatitudeDegrees>42.81320027075707912445068359375</LatitudeDegrees>
              <LongitudeDegrees>-1.6378934495151042938232421875</LongitudeDegrees>
            </Position>
            <AltitudeMeters>465</AltitudeMeters>
            <DistanceMeters>2832.1380814339</DistanceMeters>
          </Trackpoint>
          <Trackpoint>
            <Time>2021-04-07T12:30:30.000Z</Time>
            <Position>
              <LatitudeDegrees>42.8131793998181819915771484375</LatitudeDegrees>
              <LongitudeDegrees>-1.63787861354649066925048828125</LongitudeDegrees>
            </Position>
            <AltitudeMeters>465</AltitudeMeters>
            <DistanceMeters>2834.7560631033</DistanceMeters>
          </Trackpoint>
          <Trackpoint>
            <Time>2021-04-07T12:30:31.000Z</Time>
            <Position>
              <LatitudeDegrees>42.813156433403491973876953125</LatitudeDegrees>
              <LongitudeDegrees>-1.63785916753113269805908203125</LongitudeDegrees>
            </Position>
            <AltitudeMeters>465.20001220703125</AltitudeMeters>
            <DistanceMeters>2837.7640751705</DistanceMeters>
          </Trackpoint>
          <Trackpoint>
            <Time>2021-04-07T12:30:32.000Z</Time>
            <Position>
              <LatitudeDegrees>42.813138663768768310546875</LatitudeDegrees>
              <LongitudeDegrees>-1.6378431580960750579833984375</LongitudeDegrees>
            </Position>
            <AltitudeMeters>465.20001220703125</AltitudeMeters>
            <DistanceMeters>2840.1340345685</DistanceMeters>
          </Trackpoint>
          <Trackpoint>
            <Time>2021-04-07T12:30:33.000Z</Time>
            <Position>
              <LatitudeDegrees>42.81312684528529644012451171875</LatitudeDegrees>
              <LongitudeDegrees>-1.6378290764987468719482421875</LongitudeDegrees>
            </Position>
            <AltitudeMeters>465.20001220703125</AltitudeMeters>
            <DistanceMeters>2841.8810794558</DistanceMeters>
          </Trackpoint>
          <Trackpoint>
            <Time>2021-04-07T12:30:34.000Z</Time>
            <Position>
              <LatitudeDegrees>42.8131230734288692474365234375</LatitudeDegrees>
              <LongitudeDegrees>-1.6378227062523365020751953125</LongitudeDegrees>
            </Position>
            <AltitudeMeters>465.399993896484375</AltitudeMeters>
            <DistanceMeters>2842.553019797</DistanceMeters>
          </Trackpoint>
          <Trackpoint>
            <Time>2021-04-07T12:30:35.000Z</Time>
            <Position>
              <LatitudeDegrees>42.81310857273638248443603515625</LatitudeDegrees>
              <LongitudeDegrees>-1.637799739837646484375</LongitudeDegrees>
            </Position>
            <AltitudeMeters>465.600006103515625</AltitudeMeters>
            <DistanceMeters>2845.027366545</DistanceMeters>
          </Trackpoint>
          <Trackpoint>
            <Time>2021-04-07T12:30:36.000Z</Time>
            <Position>
              <LatitudeDegrees>42.81310270540416240692138671875</LatitudeDegrees>
              <LongitudeDegrees>-1.63777467794716358184814453125</LongitudeDegrees>
            </Position>
            <AltitudeMeters>465.79998779296875</AltitudeMeters>
            <DistanceMeters>2847.1775756369</DistanceMeters>
          </Trackpoint>
          <Trackpoint>
            <Time>2021-04-07T12:30:37.000Z</Time>
            <Position>
              <LatitudeDegrees>42.8130905516445636749267578125</LatitudeDegrees>
              <LongitudeDegrees>-1.637726314365863800048828125</LongitudeDegrees>
            </Position>
            <AltitudeMeters>465.79998779296875</AltitudeMeters>
            <DistanceMeters>2851.3522669473</DistanceMeters>
          </Trackpoint>
          <Trackpoint>
            <Time>2021-04-07T12:30:38.000Z</Time>
            <Position>
              <LatitudeDegrees>42.81308577395975589752197265625</LatitudeDegrees>
              <LongitudeDegrees>-1.6376911103725433349609375</LongitudeDegrees>
            </Position>
            <AltitudeMeters>466</AltitudeMeters>
            <DistanceMeters>2854.2750143391</DistanceMeters>
          </Trackpoint>
          <Trackpoint>
            <Time>2021-04-07T12:30:39.000Z</Time>
            <Position>
              <LatitudeDegrees>42.81304202042520046234130859375</LatitudeDegrees>
              <LongitudeDegrees>-1.63760662078857421875</LongitudeDegrees>
            </Position>
            <AltitudeMeters>465.79998779296875</AltitudeMeters>
            <DistanceMeters>2862.7190349218</DistanceMeters>
          </Trackpoint>
          <Trackpoint>
            <Time>2021-04-07T12:30:40.000Z</Time>
            <Position>
              <LatitudeDegrees>42.81298267655074596405029296875</LatitudeDegrees>
              <LongitudeDegrees>-1.63754484616219997406005859375</LongitudeDegrees>
            </Position>
            <AltitudeMeters>466</AltitudeMeters>
            <DistanceMeters>2871.0293913909</DistanceMeters>
          </Trackpoint>
          <Trackpoint>
            <Time>2021-04-07T12:30:41.000Z</Time>
            <Position>
              <LatitudeDegrees>42.8129155375063419342041015625</LatitudeDegrees>
              <LongitudeDegrees>-1.637496985495090484619140625</LongitudeDegrees>
            </Position>
            <AltitudeMeters>466</AltitudeMeters>
            <DistanceMeters>2879.462175747</DistanceMeters>
          </Trackpoint>
          <Trackpoint>
            <Time>2021-04-07T12:30:42.000Z</Time>
            <Position>
              <LatitudeDegrees>42.81279073096811771392822265625</LatitudeDegrees>
              <LongitudeDegrees>-1.6374267451465129852294921875</LongitudeDegrees>
            </Position>
            <AltitudeMeters>466.20001220703125</AltitudeMeters>
            <DistanceMeters>2894.4908241232</DistanceMeters>
          </Trackpoint>
          <Trackpoint>
            <Time>2021-04-07T12:30:43.000Z</Time>
            <Position>
              <LatitudeDegrees>42.81269283033907413482666015625</LatitudeDegrees>
              <LongitudeDegrees>-1.637335382401943206787109375</LongitudeDegrees>
            </Position>
            <AltitudeMeters>466.399993896484375</AltitudeMeters>
            <DistanceMeters>2907.6961187511</DistanceMeters>
          </Trackpoint>
          <Trackpoint>
            <Time>2021-04-07T12:30:44.000Z</Time>
            <Position>
              <LatitudeDegrees>42.81261554919183254241943359375</LatitudeDegrees>
              <LongitudeDegrees>-1.63724712096154689788818359375</LongitudeDegrees>
            </Position>
            <AltitudeMeters>466.79998779296875</AltitudeMeters>
            <DistanceMeters>2918.9177236279</DistanceMeters>
          </Trackpoint>
          <Trackpoint>
            <Time>2021-04-07T12:30:45.000Z</Time>
            <Position>
              <LatitudeDegrees>42.81255670823156833648681640625</LatitudeDegrees>
              <LongitudeDegrees>-1.637183167040348052978515625</LongitudeDegrees>
            </Position>
            <AltitudeMeters>467</AltitudeMeters>
            <DistanceMeters>2927.2930226564</DistanceMeters>
          </Trackpoint>
          <Trackpoint>
            <Time>2021-04-07T12:30:46.000Z</Time>
            <Position>
              <LatitudeDegrees>42.812525443732738494873046875</LatitudeDegrees>
              <LongitudeDegrees>-1.63714050315320491790771484375</LongitudeDegrees>
            </Position>
            <AltitudeMeters>467.399993896484375</AltitudeMeters>
            <DistanceMeters>2932.2161035185</DistanceMeters>
          </Trackpoint>
          <Trackpoint>
            <Time>2021-04-07T12:30:47.000Z</Time>
            <Position>
              <LatitudeDegrees>42.81249199993908405303955078125</LatitudeDegrees>
              <LongitudeDegrees>-1.6370975039899349212646484375</LongitudeDegrees>
            </Position>
            <AltitudeMeters>467.600006103515625</AltitudeMeters>
            <DistanceMeters>2937.3334486982</DistanceMeters>
          </Trackpoint>
          <Trackpoint>
            <Time>2021-04-07T12:30:48.000Z</Time>
            <Position>
              <LatitudeDegrees>42.81245294027030467987060546875</LatitudeDegrees>
              <LongitudeDegrees>-1.6370535828173160552978515625</LongitudeDegrees>
            </Position>
            <AltitudeMeters>467.600006103515625</AltitudeMeters>
            <DistanceMeters>2942.9689414764</DistanceMeters>
          </Trackpoint>
          <Trackpoint>
            <Time>2021-04-07T12:30:49.000Z</Time>
            <Position>
              <LatitudeDegrees>42.81241103075444698333740234375</LatitudeDegrees>
              <LongitudeDegrees>-1.63699767552316188812255859375</LongitudeDegrees>
            </Position>
            <AltitudeMeters>467.399993896484375</AltitudeMeters>
            <DistanceMeters>2949.4961078342</DistanceMeters>
          </Trackpoint>
          <Trackpoint>
            <Time>2021-04-07T12:30:50.000Z</Time>
            <Position>
              <LatitudeDegrees>42.81236241571605205535888671875</LatitudeDegrees>
              <LongitudeDegrees>-1.63693631999194622039794921875</LongitudeDegrees>
            </Position>
            <AltitudeMeters>467.399993896484375</AltitudeMeters>
            <DistanceMeters>2956.8697155176</DistanceMeters>
          </Trackpoint>
          <Trackpoint>
            <Time>2021-04-07T12:30:51.000Z</Time>
            <Position>
              <LatitudeDegrees>42.81231933273375034332275390625</LatitudeDegrees>
              <LongitudeDegrees>-1.636878065764904022216796875</LongitudeDegrees>
            </Position>
            <AltitudeMeters>467.399993896484375</AltitudeMeters>
            <DistanceMeters>2963.6246378911</DistanceMeters>
          </Trackpoint>
          <Trackpoint>
            <Time>2021-04-07T12:30:52.000Z</Time>
            <Position>
              <LatitudeDegrees>42.81226753257215023040771484375</LatitudeDegrees>
              <LongitudeDegrees>-1.63681277073919773101806640625</LongitudeDegrees>
            </Position>
            <AltitudeMeters>467.399993896484375</AltitudeMeters>
            <DistanceMeters>2971.4774330645</DistanceMeters>
          </Trackpoint>
          <Trackpoint>
            <Time>2021-04-07T12:30:53.000Z</Time>
            <Position>
              <LatitudeDegrees>42.812229730188846588134765625</LatitudeDegrees>
              <LongitudeDegrees>-1.63676105439662933349609375</LongitudeDegrees>
            </Position>
            <AltitudeMeters>467.399993896484375</AltitudeMeters>
            <DistanceMeters>2977.4376613093</DistanceMeters>
          </Trackpoint>
          <Trackpoint>
            <Time>2021-04-07T12:30:54.000Z</Time>
            <Position>
              <LatitudeDegrees>42.81219259835779666900634765625</LatitudeDegrees>
              <LongitudeDegrees>-1.6367236711084842681884765625</LongitudeDegrees>
            </Position>
            <AltitudeMeters>467.399993896484375</AltitudeMeters>
            <DistanceMeters>2982.57613808</DistanceMeters>
          </Trackpoint>
          <Trackpoint>
            <Time>2021-04-07T12:30:55.000Z</Time>
            <Position>
              <LatitudeDegrees>42.8121829591691493988037109375</LatitudeDegrees>
              <LongitudeDegrees>-1.63669022731482982635498046875</LongitudeDegrees>
            </Position>
            <AltitudeMeters>467.399993896484375</AltitudeMeters>
            <DistanceMeters>2985.511217794</DistanceMeters>
          </Trackpoint>
          <Trackpoint>
            <Time>2021-04-07T12:30:56.000Z</Time>
            <Position>
              <LatitudeDegrees>42.8121779300272464752197265625</LatitudeDegrees>
              <LongitudeDegrees>-1.6366683505475521087646484375</LongitudeDegrees>
            </Position>
            <AltitudeMeters>467.399993896484375</AltitudeMeters>
            <DistanceMeters>2987.387845038</DistanceMeters>
          </Trackpoint>
          <Trackpoint>
            <Time>2021-04-07T12:30:57.000Z</Time>
            <Position>
              <LatitudeDegrees>42.81215907074511051177978515625</LatitudeDegrees>
              <LongitudeDegrees>-1.63661613129079341888427734375</LongitudeDegrees>
            </Position>
            <AltitudeMeters>467.399993896484375</AltitudeMeters>
            <DistanceMeters>2992.1410809108</DistanceMeters>
          </Trackpoint>
          <Trackpoint>
            <Time>2021-04-07T12:30:58.000Z</Time>
            <Position>
              <LatitudeDegrees>42.812129817903041839599609375</LatitudeDegrees>
              <LongitudeDegrees>-1.63658461533486843109130859375</LongitudeDegrees>
            </Position>
            <AltitudeMeters>467.399993896484375</AltitudeMeters>
            <DistanceMeters>2996.2897343915</DistanceMeters>
          </Trackpoint>
          <Trackpoint>
            <Time>2021-04-07T12:30:59.000Z</Time>
            <Position>
              <LatitudeDegrees>42.812076173722743988037109375</LatitudeDegrees>
              <LongitudeDegrees>-1.6365305520594120025634765625</LongitudeDegrees>
            </Position>
            <AltitudeMeters>467.399993896484375</AltitudeMeters>
            <DistanceMeters>3003.7152072226</DistanceMeters>
          </Trackpoint>
          <Trackpoint>
            <Time>2021-04-07T12:31:00.000Z</Time>
            <Position>
              <LatitudeDegrees>42.81203971244394779205322265625</LatitudeDegrees>
              <LongitudeDegrees>-1.6364893130958080291748046875</LongitudeDegrees>
            </Position>
            <AltitudeMeters>467.600006103515625</AltitudeMeters>
            <DistanceMeters>3008.9898319035</DistanceMeters>
          </Trackpoint>
          <Trackpoint>
            <Time>2021-04-07T12:31:01.000Z</Time>
            <Position>
              <LatitudeDegrees>42.81201171688735485076904296875</LatitudeDegrees>
              <LongitudeDegrees>-1.6364594735205173492431640625</LongitudeDegrees>
            </Position>
            <AltitudeMeters>467.79998779296875</AltitudeMeters>
            <DistanceMeters>3012.9468702599</DistanceMeters>
          </Trackpoint>
          <Trackpoint>
            <Time>2021-04-07T12:31:02.000Z</Time>
            <Position>
              <LatitudeDegrees>42.8119834698736667633056640625</LatitudeDegrees>
              <LongitudeDegrees>-1.636411361396312713623046875</LongitudeDegrees>
            </Position>
            <AltitudeMeters>468</AltitudeMeters>
            <DistanceMeters>3017.9788017329</DistanceMeters>
          </Trackpoint>
          <Trackpoint>
            <Time>2021-04-07T12:31:03.000Z</Time>
            <Position>
              <LatitudeDegrees>42.81194801442325115203857421875</LatitudeDegrees>
              <LongitudeDegrees>-1.6363541968166828155517578125</LongitudeDegrees>
            </Position>
            <AltitudeMeters>468.20001220703125</AltitudeMeters>
            <DistanceMeters>3024.0916125695</DistanceMeters>
          </Trackpoint>
          <Trackpoint>
            <Time>2021-04-07T12:31:04.000Z</Time>
            <Position>
              <LatitudeDegrees>42.8119222819805145263671875</LatitudeDegrees>
              <LongitudeDegrees>-1.6363039053976535797119140625</LongitudeDegrees>
            </Position>
            <AltitudeMeters>468.399993896484375</AltitudeMeters>
            <DistanceMeters>3029.0974553689</DistanceMeters>
          </Trackpoint>
          <Trackpoint>
            <Time>2021-04-07T12:31:05.000Z</Time>
            <Position>
              <LatitudeDegrees>42.81188598833978176116943359375</LatitudeDegrees>
              <LongitudeDegrees>-1.6362614929676055908203125</LongitudeDegrees>
            </Position>
            <AltitudeMeters>468.600006103515625</AltitudeMeters>
            <DistanceMeters>3034.4172541974</DistanceMeters>
          </Trackpoint>
          <Trackpoint>
            <Time>2021-04-07T12:31:06.000Z</Time>
            <Position>
              <LatitudeDegrees>42.8118265606462955474853515625</LatitudeDegrees>
              <LongitudeDegrees>-1.6361956112086772918701171875</LongitudeDegrees>
            </Position>
            <AltitudeMeters>468.600006103515625</AltitudeMeters>
            <DistanceMeters>3042.9421621277</DistanceMeters>
          </Trackpoint>
          <Trackpoint>
            <Time>2021-04-07T12:31:07.000Z</Time>
            <Position>
              <LatitudeDegrees>42.81172044575214385986328125</LatitudeDegrees>
              <LongitudeDegrees>-1.63615412078797817230224609375</LongitudeDegrees>
            </Position>
            <AltitudeMeters>468.79998779296875</AltitudeMeters>
            <DistanceMeters>3055.229303702</DistanceMeters>
          </Trackpoint>
          <Trackpoint>
            <Time>2021-04-07T12:31:08.000Z</Time>
            <Position>
              <LatitudeDegrees>42.81162656843662261962890625</LatitudeDegrees>
              <LongitudeDegrees>-1.6360899992287158966064453125</LongitudeDegrees>
            </Position>
            <AltitudeMeters>468.79998779296875</AltitudeMeters>
            <DistanceMeters>3066.9160443175</DistanceMeters>
          </Trackpoint>
          <Trackpoint>
            <Time>2021-04-07T12:31:09.000Z</Time>
            <Position>
              <LatitudeDegrees>42.81157468445599079132080078125</LatitudeDegrees>
              <LongitudeDegrees>-1.63604565896093845367431640625</LongitudeDegrees>
            </Position>
            <AltitudeMeters>468.79998779296875</AltitudeMeters>
            <DistanceMeters>3073.7315203264</DistanceMeters>
          </Trackpoint>
          <Trackpoint>
            <Time>2021-04-07T12:31:10.000Z</Time>
            <Position>
              <LatitudeDegrees>42.81152925454080104827880859375</LatitudeDegrees>
              <LongitudeDegrees>-1.6359897516667842864990234375</LongitudeDegrees>
            </Position>
            <AltitudeMeters>468.79998779296875</AltitudeMeters>
            <DistanceMeters>3080.5430203645</DistanceMeters>
          </Trackpoint>
          <Trackpoint>
            <Time>2021-04-07T12:31:11.000Z</Time>
            <Position>
              <LatitudeDegrees>42.81149857677519321441650390625</LatitudeDegrees>
              <LongitudeDegrees>-1.6359441541135311126708984375</LongitudeDegrees>
            </Position>
            <AltitudeMeters>468.79998779296875</AltitudeMeters>
            <DistanceMeters>3085.5946533709</DistanceMeters>
          </Trackpoint>
          <Trackpoint>
            <Time>2021-04-07T12:31:12.000Z</Time>
            <Position>
              <LatitudeDegrees>42.8114689886569976806640625</LatitudeDegrees>
              <LongitudeDegrees>-1.63590542972087860107421875</LongitudeDegrees>
            </Position>
            <AltitudeMeters>468.79998779296875</AltitudeMeters>
            <DistanceMeters>3090.15989339</DistanceMeters>
          </Trackpoint>
          <Trackpoint>
            <Time>2021-04-07T12:31:13.000Z</Time>
            <Position>
              <LatitudeDegrees>42.8113920427858829498291015625</LatitudeDegrees>
              <LongitudeDegrees>-1.63584583438932895660400390625</LongitudeDegrees>
            </Position>
            <AltitudeMeters>468.79998779296875</AltitudeMeters>
            <DistanceMeters>3100.0097228969</DistanceMeters>
          </Trackpoint>
          <Trackpoint>
            <Time>2021-04-07T12:31:14.000Z</Time>
            <Position>
              <LatitudeDegrees>42.81136781908571720123291015625</LatitudeDegrees>
              <LongitudeDegrees>-1.63579470477998256683349609375</LongitudeDegrees>
            </Position>
            <AltitudeMeters>469</AltitudeMeters>
            <DistanceMeters>3104.9802650354</DistanceMeters>
          </Trackpoint>
          <Trackpoint>
            <Time>2021-04-07T12:31:15.000Z</Time>
            <Position>
              <LatitudeDegrees>42.8113923780620098114013671875</LatitudeDegrees>
              <LongitudeDegrees>-1.63575849495828151702880859375</LongitudeDegrees>
            </Position>
            <AltitudeMeters>469</AltitudeMeters>
            <DistanceMeters>3109.0063036861</DistanceMeters>
          </Trackpoint>
          <Trackpoint>
            <Time>2021-04-07T12:31:16.000Z</Time>
            <Position>
              <LatitudeDegrees>42.8114295937120914459228515625</LatitudeDegrees>
              <LongitudeDegrees>-1.6357195191085338592529296875</LongitudeDegrees>
            </Position>
            <AltitudeMeters>469</AltitudeMeters>
            <DistanceMeters>3114.2301806959</DistanceMeters>
          </Trackpoint>
          <Trackpoint>
            <Time>2021-04-07T12:31:17.000Z</Time>
            <Position>
              <LatitudeDegrees>42.81146873719990253448486328125</LatitudeDegrees>
              <LongitudeDegrees>-1.63567719049751758575439453125</LongitudeDegrees>
            </Position>
            <AltitudeMeters>469</AltitudeMeters>
            <DistanceMeters>3119.7922883807</DistanceMeters>
          </Trackpoint>
          <Trackpoint>
            <Time>2021-04-07T12:31:18.000Z</Time>
            <Position>
              <LatitudeDegrees>42.81149405054748058319091796875</LatitudeDegrees>
              <LongitudeDegrees>-1.63562170229852199554443359375</LongitudeDegrees>
            </Position>
            <AltitudeMeters>469.20001220703125</AltitudeMeters>
            <DistanceMeters>3125.127342359</DistanceMeters>
          </Trackpoint>
          <Trackpoint>
            <Time>2021-04-07T12:31:19.000Z</Time>
            <Position>
              <LatitudeDegrees>42.8115261532366275787353515625</LatitudeDegrees>
              <LongitudeDegrees>-1.635583229362964630126953125</LongitudeDegrees>
            </Position>
            <AltitudeMeters>469.600006103515625</AltitudeMeters>
            <DistanceMeters>3129.8853252977</DistanceMeters>
          </Trackpoint>
          <Trackpoint>
            <Time>2021-04-07T12:31:20.000Z</Time>
            <Position>
              <LatitudeDegrees>42.81155825592577457427978515625</LatitudeDegrees>
              <LongitudeDegrees>-1.63554861210286617279052734375</LongitudeDegrees>
            </Position>
            <AltitudeMeters>470.20001220703125</AltitudeMeters>
            <DistanceMeters>3134.4406645461</DistanceMeters>
          </Trackpoint>
          <Trackpoint>
            <Time>2021-04-07T12:31:21.000Z</Time>
            <Position>
              <LatitudeDegrees>42.8115965612232685089111328125</LatitudeDegrees>
              <LongitudeDegrees>-1.6355113126337528228759765625</LongitudeDegrees>
            </Position>
            <AltitudeMeters>470.399993896484375</AltitudeMeters>
            <DistanceMeters>3139.6800760006</DistanceMeters>
          </Trackpoint>
          <Trackpoint>
            <Time>2021-04-07T12:31:22.000Z</Time>
            <Position>
              <LatitudeDegrees>42.81162883155047893524169921875</LatitudeDegrees>
              <LongitudeDegrees>-1.6354720853269100189208984375</LongitudeDegrees>
            </Position>
            <AltitudeMeters>470.600006103515625</AltitudeMeters>
            <DistanceMeters>3144.4918444907</DistanceMeters>
          </Trackpoint>
          <Trackpoint>
            <Time>2021-04-07T12:31:23.000Z</Time>
            <Position>
              <LatitudeDegrees>42.81163939274847507476806640625</LatitudeDegrees>
              <LongitudeDegrees>-1.63538801483809947967529296875</LongitudeDegrees>
            </Position>
            <AltitudeMeters>470.79998779296875</AltitudeMeters>
            <DistanceMeters>3151.4567257285</DistanceMeters>
          </Trackpoint>
          <Trackpoint>
            <Time>2021-04-07T12:31:24.000Z</Time>
            <Position>
              <LatitudeDegrees>42.811652719974517822265625</LatitudeDegrees>
              <LongitudeDegrees>-1.6353093087673187255859375</LongitudeDegrees>
            </Position>
            <AltitudeMeters>471</AltitudeMeters>
            <DistanceMeters>3158.0513332342</DistanceMeters>
          </Trackpoint>
          <Trackpoint>
            <Time>2021-04-07T12:31:25.000Z</Time>
            <Position>
              <LatitudeDegrees>42.811665125191211700439453125</LatitudeDegrees>
              <LongitudeDegrees>-1.63523663766682147979736328125</LongitudeDegrees>
            </Position>
            <AltitudeMeters>471</AltitudeMeters>
            <DistanceMeters>3164.1434276347</DistanceMeters>
          </Trackpoint>
          <Trackpoint>
            <Time>2021-04-07T12:31:26.000Z</Time>
            <Position>
              <LatitudeDegrees>42.81167241744697093963623046875</LatitudeDegrees>
              <LongitudeDegrees>-1.63516321219503879547119140625</LongitudeDegrees>
            </Position>
            <AltitudeMeters>471</AltitudeMeters>
            <DistanceMeters>3170.1923837224</DistanceMeters>
          </Trackpoint>
          <Trackpoint>
            <Time>2021-04-07T12:31:27.000Z</Time>
            <Position>
              <LatitudeDegrees>42.81167082488536834716796875</LatitudeDegrees>
              <LongitudeDegrees>-1.635090373456478118896484375</LongitudeDegrees>
            </Position>
            <AltitudeMeters>471</AltitudeMeters>
            <DistanceMeters>3176.1427559575</DistanceMeters>
          </Trackpoint>
          <Trackpoint>
            <Time>2021-04-07T12:31:28.000Z</Time>
            <Position>
              <LatitudeDegrees>42.81167082488536834716796875</LatitudeDegrees>
              <LongitudeDegrees>-1.63499473594129085540771484375</LongitudeDegrees>
            </Position>
            <AltitudeMeters>471</AltitudeMeters>
            <DistanceMeters>3183.9517319612</DistanceMeters>
          </Trackpoint>
          <Trackpoint>
            <Time>2021-04-07T12:31:29.000Z</Time>
            <Position>
              <LatitudeDegrees>42.81168557703495025634765625</LatitudeDegrees>
              <LongitudeDegrees>-1.63491879589855670928955078125</LongitudeDegrees>
            </Position>
            <AltitudeMeters>471</AltitudeMeters>
            <DistanceMeters>3190.3658592034</DistanceMeters>
          </Trackpoint>
          <Trackpoint>
            <Time>2021-04-07T12:31:30.000Z</Time>
            <Position>
              <LatitudeDegrees>42.81171231530606746673583984375</LatitudeDegrees>
              <LongitudeDegrees>-1.63481418974697589874267578125</LongitudeDegrees>
            </Position>
            <AltitudeMeters>470.79998779296875</AltitudeMeters>
            <DistanceMeters>3199.4108850509</DistanceMeters>
          </Trackpoint>
          <Trackpoint>
            <Time>2021-04-07T12:31:31.000Z</Time>
            <Position>
              <LatitudeDegrees>42.81173444353044033050537109375</LatitudeDegrees>
              <LongitudeDegrees>-1.6347317956387996673583984375</LongitudeDegrees>
            </Position>
            <AltitudeMeters>470.79998779296875</AltitudeMeters>
            <DistanceMeters>3206.5751683024</DistanceMeters>
          </Trackpoint>
          <Trackpoint>
            <Time>2021-04-07T12:31:32.000Z</Time>
            <Position>
              <LatitudeDegrees>42.8117544762790203094482421875</LatitudeDegrees>
              <LongitudeDegrees>-1.63466490805149078369140625</LongitudeDegrees>
            </Position>
            <AltitudeMeters>470.600006103515625</AltitudeMeters>
            <DistanceMeters>3212.4744830605</DistanceMeters>
          </Trackpoint>
          <Trackpoint>
            <Time>2021-04-07T12:31:33.000Z</Time>
            <Position>
              <LatitudeDegrees>42.81178238801658153533935546875</LatitudeDegrees>
              <LongitudeDegrees>-1.63460765965282917022705078125</LongitudeDegrees>
            </Position>
            <AltitudeMeters>470</AltitudeMeters>
            <DistanceMeters>3218.0883023299</DistanceMeters>
          </Trackpoint>
          <Trackpoint>
            <Time>2021-04-07T12:31:34.000Z</Time>
            <Position>
              <LatitudeDegrees>42.81185262836515903472900390625</LatitudeDegrees>
              <LongitudeDegrees>-1.6345668397843837738037109375</LongitudeDegrees>
            </Position>
            <AltitudeMeters>469.79998779296875</AltitudeMeters>
            <DistanceMeters>3226.5872188182</DistanceMeters>
          </Trackpoint>
          <Trackpoint>
            <Time>2021-04-07T12:31:35.000Z</Time>
            <Position>
              <LatitudeDegrees>42.811885736882686614990234375</LatitudeDegrees>
              <LongitudeDegrees>-1.634539179503917694091796875</LongitudeDegrees>
            </Position>
            <AltitudeMeters>469.600006103515625</AltitudeMeters>
            <DistanceMeters>3230.9085841216</DistanceMeters>
          </Trackpoint>
          <Trackpoint>
            <Time>2021-04-07T12:31:36.000Z</Time>
            <Position>
              <LatitudeDegrees>42.81190074048936367034912109375</LatitudeDegrees>
              <LongitudeDegrees>-1.63452199660241603851318359375</LongitudeDegrees>
            </Position>
            <AltitudeMeters>469.600006103515625</AltitudeMeters>
            <DistanceMeters>3233.0879923463</DistanceMeters>
          </Trackpoint>
          <Trackpoint>
            <Time>2021-04-07T12:31:37.000Z</Time>
            <Position>
              <LatitudeDegrees>42.8119184263050556182861328125</LatitudeDegrees>
              <LongitudeDegrees>-1.63451713509857654571533203125</LongitudeDegrees>
            </Position>
            <AltitudeMeters>469.600006103515625</AltitudeMeters>
            <DistanceMeters>3235.0925830819</DistanceMeters>
          </Trackpoint>
          <Trackpoint>
            <Time>2021-04-07T12:31:38.000Z</Time>
            <Position>
              <LatitudeDegrees>42.8119395487010478973388671875</LatitudeDegrees>
              <LongitudeDegrees>-1.63450959138572216033935546875</LongitudeDegrees>
            </Position>
            <AltitudeMeters>470</AltitudeMeters>
            <DistanceMeters>3237.5227415118</DistanceMeters>
          </Trackpoint>
          <Trackpoint>
            <Time>2021-04-07T12:31:39.000Z</Time>
            <Position>
              <LatitudeDegrees>42.8119603358209133148193359375</LatitudeDegrees>
              <LongitudeDegrees>-1.63450188003480434417724609375</LongitudeDegrees>
            </Position>
            <AltitudeMeters>470.20001220703125</AltitudeMeters>
            <DistanceMeters>3239.9192240631</DistanceMeters>
          </Trackpoint>
          <Trackpoint>
            <Time>2021-04-07T12:31:40.000Z</Time>
            <Position>
              <LatitudeDegrees>42.8119786083698272705078125</LatitudeDegrees>
              <LongitudeDegrees>-1.63448947481811046600341796875</LongitudeDegrees>
            </Position>
            <AltitudeMeters>470.399993896484375</AltitudeMeters>
            <DistanceMeters>3242.191932519</DistanceMeters>
          </Trackpoint>
          <Trackpoint>
            <Time>2021-04-07T12:31:41.000Z</Time>
            <Position>
              <LatitudeDegrees>42.81199428252875804901123046875</LatitudeDegrees>
              <LongitudeDegrees>-1.63447220809757709503173828125</LongitudeDegrees>
            </Position>
            <AltitudeMeters>470.79998779296875</AltitudeMeters>
            <DistanceMeters>3244.4326293979</DistanceMeters>
          </Trackpoint>
          <Trackpoint>
            <Time>2021-04-07T12:31:42.000Z</Time>
            <Position>
              <LatitudeDegrees>42.8120045922696590423583984375</LatitudeDegrees>
              <LongitudeDegrees>-1.6344545222818851470947265625</LongitudeDegrees>
            </Position>
            <AltitudeMeters>470.600006103515625</AltitudeMeters>
            <DistanceMeters>3246.2801598836</DistanceMeters>
          </Trackpoint>
          <Trackpoint>
            <Time>2021-04-07T12:31:43.000Z</Time>
            <Position>
              <LatitudeDegrees>42.81201741658151149749755859375</LatitudeDegrees>
              <LongitudeDegrees>-1.6344360820949077606201171875</LongitudeDegrees>
            </Position>
            <AltitudeMeters>470.399993896484375</AltitudeMeters>
            <DistanceMeters>3248.3533980242</DistanceMeters>
          </Trackpoint>
          <Trackpoint>
            <Time>2021-04-07T12:31:44.000Z</Time>
            <Position>
              <LatitudeDegrees>42.8120250441133975982666015625</LatitudeDegrees>
              <LongitudeDegrees>-1.63442124612629413604736328125</LongitudeDegrees>
            </Position>
            <AltitudeMeters>470.399993896484375</AltitudeMeters>
            <DistanceMeters>3249.8316667749</DistanceMeters>
          </Trackpoint>
          <Trackpoint>
            <Time>2021-04-07T12:31:45.000Z</Time>
            <Position>
              <LatitudeDegrees>42.81203686259686946868896484375</LatitudeDegrees>
              <LongitudeDegrees>-1.634406745433807373046875</LongitudeDegrees>
            </Position>
            <AltitudeMeters>470.20001220703125</AltitudeMeters>
            <DistanceMeters>3251.5992658385</DistanceMeters>
          </Trackpoint>
          <Trackpoint>
            <Time>2021-04-07T12:31:46.000Z</Time>
            <Position>
              <LatitudeDegrees>42.8120498545467853546142578125</LatitudeDegrees>
              <LongitudeDegrees>-1.6343911550939083099365234375</LongitudeDegrees>
            </Position>
            <AltitudeMeters>470.20001220703125</AltitudeMeters>
            <DistanceMeters>3253.5257552411</DistanceMeters>
          </Trackpoint>
          <Trackpoint>
            <Time>2021-04-07T12:31:47.000Z</Time>
            <Position>
              <LatitudeDegrees>42.81207223422825336456298828125</LatitudeDegrees>
              <LongitudeDegrees>-1.63437028415501117706298828125</LongitudeDegrees>
            </Position>
            <AltitudeMeters>470.20001220703125</AltitudeMeters>
            <DistanceMeters>3256.5457514677</DistanceMeters>
          </Trackpoint>
          <Trackpoint>
            <Time>2021-04-07T12:31:48.000Z</Time>
            <Position>
              <LatitudeDegrees>42.8121021576225757598876953125</LatitudeDegrees>
              <LongitudeDegrees>-1.63434932939708232879638671875</LongitudeDegrees>
            </Position>
            <AltitudeMeters>470</AltitudeMeters>
            <DistanceMeters>3260.2893698565</DistanceMeters>
          </Trackpoint>
          <Trackpoint>
            <Time>2021-04-07T12:31:49.000Z</Time>
            <Position>
              <LatitudeDegrees>42.81212654896080493927001953125</LatitudeDegrees>
              <LongitudeDegrees>-1.6343197412788867950439453125</LongitudeDegrees>
            </Position>
            <AltitudeMeters>469.79998779296875</AltitudeMeters>
            <DistanceMeters>3263.922821626</DistanceMeters>
          </Trackpoint>
          <Trackpoint>
            <Time>2021-04-07T12:31:50.000Z</Time>
            <Position>
              <LatitudeDegrees>42.81214649789035320281982421875</LatitudeDegrees>
              <LongitudeDegrees>-1.63427825085818767547607421875</LongitudeDegrees>
            </Position>
            <AltitudeMeters>469.600006103515625</AltitudeMeters>
            <DistanceMeters>3267.9745717386</DistanceMeters>
          </Trackpoint>
          <Trackpoint>
            <Time>2021-04-07T12:31:51.000Z</Time>
            <Position>
              <LatitudeDegrees>42.81217466108500957489013671875</LatitudeDegrees>
              <LongitudeDegrees>-1.63424187339842319488525390625</LongitudeDegrees>
            </Position>
            <AltitudeMeters>469.600006103515625</AltitudeMeters>
            <DistanceMeters>3272.2928014519</DistanceMeters>
          </Trackpoint>
          <Trackpoint>
            <Time>2021-04-07T12:31:52.000Z</Time>
            <Position>
              <LatitudeDegrees>42.81220081262290477752685546875</LatitudeDegrees>
              <LongitudeDegrees>-1.63419895805418491363525390625</LongitudeDegrees>
            </Position>
            <AltitudeMeters>469.600006103515625</AltitudeMeters>
            <DistanceMeters>3276.8481407003</DistanceMeters>
          </Trackpoint>
          <Trackpoint>
            <Time>2021-04-07T12:31:53.000Z</Time>
            <Position>
              <LatitudeDegrees>42.81221422366797924041748046875</LatitudeDegrees>
              <LongitudeDegrees>-1.634140200912952423095703125</LongitudeDegrees>
            </Position>
            <AltitudeMeters>469.600006103515625</AltitudeMeters>
            <DistanceMeters>3281.8728888271</DistanceMeters>
          </Trackpoint>
          <Trackpoint>
            <Time>2021-04-07T12:31:54.000Z</Time>
            <Position>
              <LatitudeDegrees>42.81220751814544200897216796875</LatitudeDegrees>
              <LongitudeDegrees>-1.63407457061111927032470703125</LongitudeDegrees>
            </Position>
            <AltitudeMeters>469.600006103515625</AltitudeMeters>
            <DistanceMeters>3287.2835734262</DistanceMeters>
          </Trackpoint>
          <Trackpoint>
            <Time>2021-04-07T12:31:55.000Z</Time>
            <Position>
              <LatitudeDegrees>42.81219192780554294586181640625</LatitudeDegrees>
              <LongitudeDegrees>-1.634006761014461517333984375</LongitudeDegrees>
            </Position>
            <AltitudeMeters>469.600006103515625</AltitudeMeters>
            <DistanceMeters>3293.0864309171</DistanceMeters>
          </Trackpoint>
          <Trackpoint>
            <Time>2021-04-07T12:31:56.000Z</Time>
            <Position>
              <LatitudeDegrees>42.81216963194310665130615234375</LatitudeDegrees>
              <LongitudeDegrees>-1.63394750095903873443603515625</LongitudeDegrees>
            </Position>
            <AltitudeMeters>469.600006103515625</AltitudeMeters>
            <DistanceMeters>3298.5245832093</DistanceMeters>
          </Trackpoint>
          <Trackpoint>
            <Time>2021-04-07T12:31:57.000Z</Time>
            <Position>
              <LatitudeDegrees>42.8121457435190677642822265625</LatitudeDegrees>
              <LongitudeDegrees>-1.633901484310626983642578125</LongitudeDegrees>
            </Position>
            <AltitudeMeters>469.600006103515625</AltitudeMeters>
            <DistanceMeters>3303.1272519284</DistanceMeters>
          </Trackpoint>
          <Trackpoint>
            <Time>2021-04-07T12:31:58.000Z</Time>
            <Position>
              <LatitudeDegrees>42.81211531721055507659912109375</LatitudeDegrees>
              <LongitudeDegrees>-1.63386292755603790283203125</LongitudeDegrees>
            </Position>
            <AltitudeMeters>469.79998779296875</AltitudeMeters>
            <DistanceMeters>3307.7494982293</DistanceMeters>
          </Trackpoint>
          <Trackpoint>
            <Time>2021-04-07T12:31:59.000Z</Time>
            <Position>
              <LatitudeDegrees>42.81208480708301067352294921875</LatitudeDegrees>
              <LongitudeDegrees>-1.63383015431463718414306640625</LongitudeDegrees>
            </Position>
            <AltitudeMeters>470</AltitudeMeters>
            <DistanceMeters>3312.0729526629</DistanceMeters>
          </Trackpoint>
          <Trackpoint>
            <Time>2021-04-07T12:32:00.000Z</Time>
            <Position>
              <LatitudeDegrees>42.8120454959571361541748046875</LatitudeDegrees>
              <LongitudeDegrees>-1.633792184293270111083984375</LongitudeDegrees>
            </Position>
            <AltitudeMeters>469.79998779296875</AltitudeMeters>
            <DistanceMeters>3317.4350197454</DistanceMeters>
          </Trackpoint>
          <Trackpoint>
            <Time>2021-04-07T12:32:01.000Z</Time>
            <Position>
              <LatitudeDegrees>42.812017835676670074462890625</LatitudeDegrees>
              <LongitudeDegrees>-1.63376427255570888519287109375</LongitudeDegrees>
            </Position>
            <AltitudeMeters>469.79998779296875</AltitudeMeters>
            <DistanceMeters>3321.2644902238</DistanceMeters>
          </Trackpoint>
          <Trackpoint>
            <Time>2021-04-07T12:32:02.000Z</Time>
            <Position>
              <LatitudeDegrees>42.8119687177240848541259765625</LatitudeDegrees>
              <LongitudeDegrees>-1.6337216086685657501220703125</LongitudeDegrees>
            </Position>
            <AltitudeMeters>469.600006103515625</AltitudeMeters>
            <DistanceMeters>3327.7458415966</DistanceMeters>
          </Trackpoint>
          <Trackpoint>
            <Time>2021-04-07T12:32:03.000Z</Time>
            <Position>
              <LatitudeDegrees>42.811925970017910003662109375</LatitudeDegrees>
              <LongitudeDegrees>-1.6336729936301708221435546875</LongitudeDegrees>
            </Position>
            <AltitudeMeters>469.399993896484375</AltitudeMeters>
            <DistanceMeters>3333.9422829172</DistanceMeters>
          </Trackpoint>
          <Trackpoint>
            <Time>2021-04-07T12:32:04.000Z</Time>
            <Position>
              <LatitudeDegrees>42.8118885867297649383544921875</LatitudeDegrees>
              <LongitudeDegrees>-1.63362965919077396392822265625</LongitudeDegrees>
            </Position>
            <AltitudeMeters>469.399993896484375</AltitudeMeters>
            <DistanceMeters>3339.4044594587</DistanceMeters>
          </Trackpoint>
          <Trackpoint>
            <Time>2021-04-07T12:32:05.000Z</Time>
            <Position>
              <LatitudeDegrees>42.81185547821223735809326171875</LatitudeDegrees>
              <LongitudeDegrees>-1.63359059952199459075927734375</LongitudeDegrees>
            </Position>
            <AltitudeMeters>469.20001220703125</AltitudeMeters>
            <DistanceMeters>3344.2768378278</DistanceMeters>
          </Trackpoint>
          <Trackpoint>
            <Time>2021-04-07T12:32:06.000Z</Time>
            <Position>
              <LatitudeDegrees>42.81180770136415958404541015625</LatitudeDegrees>
              <LongitudeDegrees>-1.63354801945388317108154296875</LongitudeDegrees>
            </Position>
            <AltitudeMeters>469.20001220703125</AltitudeMeters>
            <DistanceMeters>3350.629428766</DistanceMeters>
          </Trackpoint>
          <Trackpoint>
            <Time>2021-04-07T12:32:07.000Z</Time>
            <Position>
              <LatitudeDegrees>42.8117688931524753570556640625</LatitudeDegrees>
              <LongitudeDegrees>-1.6335013322532176971435546875</LongitudeDegrees>
            </Position>
            <AltitudeMeters>469.20001220703125</AltitudeMeters>
            <DistanceMeters>3356.3901171737</DistanceMeters>
          </Trackpoint>
          <Trackpoint>
            <Time>2021-04-07T12:32:08.000Z</Time>
            <Position>
              <LatitudeDegrees>42.81174567528069019317626953125</LatitudeDegrees>
              <LongitudeDegrees>-1.63342832587659358978271484375</LongitudeDegrees>
            </Position>
            <AltitudeMeters>469.20001220703125</AltitudeMeters>
            <DistanceMeters>3362.8867761073</DistanceMeters>
          </Trackpoint>
          <Trackpoint>
            <Time>2021-04-07T12:32:09.000Z</Time>
            <Position>
              <LatitudeDegrees>42.81169219873845577239990234375</LatitudeDegrees>
              <LongitudeDegrees>-1.633380465209484100341796875</LongitudeDegrees>
            </Position>
            <AltitudeMeters>469.20001220703125</AltitudeMeters>
            <DistanceMeters>3370.0068076491</DistanceMeters>
          </Trackpoint>
          <Trackpoint>
            <Time>2021-04-07T12:32:10.000Z</Time>
            <Position>
              <LatitudeDegrees>42.8116528876125812530517578125</LatitudeDegrees>
              <LongitudeDegrees>-1.6333370469510555267333984375</LongitudeDegrees>
            </Position>
            <AltitudeMeters>469.399993896484375</AltitudeMeters>
            <DistanceMeters>3375.6382931078</DistanceMeters>
          </Trackpoint>
          <Trackpoint>
            <Time>2021-04-07T12:32:11.000Z</Time>
            <Position>
              <LatitudeDegrees>42.811618186533451080322265625</LatitudeDegrees>
              <LongitudeDegrees>-1.63329706527292728424072265625</LongitudeDegrees>
            </Position>
            <AltitudeMeters>469.79998779296875</AltitudeMeters>
            <DistanceMeters>3380.6952859384</DistanceMeters>
          </Trackpoint>
          <Trackpoint>
            <Time>2021-04-07T12:32:12.000Z</Time>
            <Position>
              <LatitudeDegrees>42.81157904304563999176025390625</LatitudeDegrees>
              <LongitudeDegrees>-1.63326236419379711151123046875</LongitudeDegrees>
            </Position>
            <AltitudeMeters>470</AltitudeMeters>
            <DistanceMeters>3385.8931690384</DistanceMeters>
          </Trackpoint>
          <Trackpoint>
            <Time>2021-04-07T12:32:13.000Z</Time>
            <Position>
              <LatitudeDegrees>42.81153327785432338714599609375</LatitudeDegrees>
              <LongitudeDegrees>-1.6332156769931316375732421875</LongitudeDegrees>
            </Position>
            <AltitudeMeters>470</AltitudeMeters>
            <DistanceMeters>3392.2549928823</DistanceMeters>
          </Trackpoint>
          <Trackpoint>
            <Time>2021-04-07T12:32:14.000Z</Time>
            <Position>
              <LatitudeDegrees>42.8114805556833744049072265625</LatitudeDegrees>
              <LongitudeDegrees>-1.63316823542118072509765625</LongitudeDegrees>
            </Position>
            <AltitudeMeters>470</AltitudeMeters>
            <DistanceMeters>3399.286327644</DistanceMeters>
          </Trackpoint>
          <Trackpoint>
            <Time>2021-04-07T12:32:15.000Z</Time>
            <Position>
              <LatitudeDegrees>42.811416350305080413818359375</LatitudeDegrees>
              <LongitudeDegrees>-1.63312842138111591339111328125</LongitudeDegrees>
            </Position>
            <AltitudeMeters>470</AltitudeMeters>
            <DistanceMeters>3407.1373977498</DistanceMeters>
          </Trackpoint>
          <Trackpoint>
            <Time>2021-04-07T12:32:16.000Z</Time>
            <Position>
              <LatitudeDegrees>42.81136681325733661651611328125</LatitudeDegrees>
              <LongitudeDegrees>-1.63309807889163494110107421875</LongitudeDegrees>
            </Position>
            <AltitudeMeters>470.20001220703125</AltitudeMeters>
            <DistanceMeters>3413.1818736818</DistanceMeters>
          </Trackpoint>
          <Trackpoint>
            <Time>2021-04-07T12:32:17.000Z</Time>
            <Position>
              <LatitudeDegrees>42.81133412383496761322021484375</LatitudeDegrees>
              <LongitudeDegrees>-1.63308600895106792449951171875</LongitudeDegrees>
            </Position>
            <AltitudeMeters>470.399993896484375</AltitudeMeters>
            <DistanceMeters>3416.9519320796</DistanceMeters>
          </Trackpoint>
          <Trackpoint>
            <Time>2021-04-07T12:32:18.000Z</Time>
            <Position>
              <LatitudeDegrees>42.811311073601245880126953125</LatitudeDegrees>
              <LongitudeDegrees>-1.6330792196094989776611328125</LongitudeDegrees>
            </Position>
            <AltitudeMeters>470.20001220703125</AltitudeMeters>
            <DistanceMeters>3419.5750825233</DistanceMeters>
          </Trackpoint>
          <Trackpoint>
            <Time>2021-04-07T12:32:19.000Z</Time>
            <Position>
              <LatitudeDegrees>42.811305709183216094970703125</LatitudeDegrees>
              <LongitudeDegrees>-1.6330758668482303619384765625</LongitudeDegrees>
            </Position>
            <AltitudeMeters>470.20001220703125</AltitudeMeters>
            <DistanceMeters>3420.2265528548</DistanceMeters>
          </Trackpoint>
          <Trackpoint>
            <Time>2021-04-07T12:32:20.000Z</Time>
            <Position>
              <LatitudeDegrees>42.81129037030041217803955078125</LatitudeDegrees>
              <LongitudeDegrees>-1.63306874223053455352783203125</LongitudeDegrees>
            </Position>
            <AltitudeMeters>470.399993896484375</AltitudeMeters>
            <DistanceMeters>3422.0295579906</DistanceMeters>
          </Trackpoint>
          <Trackpoint>
            <Time>2021-04-07T12:32:21.000Z</Time>
            <Position>
              <LatitudeDegrees>42.81128601171076297760009765625</LatitudeDegrees>
              <LongitudeDegrees>-1.63308634422719478607177734375</LongitudeDegrees>
            </Position>
            <AltitudeMeters>470.399993896484375</AltitudeMeters>
            <DistanceMeters>3423.5440346054</DistanceMeters>
          </Trackpoint>
          <Trackpoint>
            <Time>2021-04-07T12:32:22.000Z</Time>
            <Position>
              <LatitudeDegrees>42.81128969974815845489501953125</LatitudeDegrees>
              <LongitudeDegrees>-1.63310897536575794219970703125</LongitudeDegrees>
            </Position>
            <AltitudeMeters>470.399993896484375</AltitudeMeters>
            <DistanceMeters>3425.4350423452</DistanceMeters>
          </Trackpoint>
        </Track>
      </Lap>
    </Activity>
  </Activities>
</TrainingCenterDatabase>
